<?xml version="1.0" encoding="UTF-8"?>
<gpx version="1.1" creator="https://www.youtrack.es" xsi:schemaLocation="http://www.topografix.com/GPX/1/1 http://www.topografix.com/GPX/1/1/gpx.xsd http://www.garmin.com/xmlschemas/GpxExtensions/v3 http://www.garmin.com/xmlschemas/GpxExtensionsv3.xsd http://www.garmin.com/xmlschemas/TrackPointExtension/v1 http://www.garmin.com/xmlschemas/TrackPointExtensionv1.xsd" xmlns:gpxtpx="http://www.garmin.com/xmlschemas/TrackPointExtension/v1" xmlns:gpxx="http://www.garmin.com/xmlschemas/GpxExtensions/v3" xmlns:xsi="http://www.w3.org/2001/XMLSchema-instance">
  <metadata>
    <link href="https://www.youtrack.es">
      <text>YouTrack.es</text>
    </link>
    <time>2026-05-08T06:18:21Z</time>
  </metadata>
  <trk>
    <src>https://www.youtrack.es</src>
    <link href="https://www.youtrack.es/ruta/980-torello-escala">
      <text>YouTrack.es</text>
    </link>
    <trkseg>
      <trkpt lat="42.046630" lon="2.259386">
        <ele>530.357</ele>
        <time>2014-06-08T03:55:34Z</time>
      </trkpt>
      <trkpt lat="42.046652" lon="2.259300">
        <ele>501.000</ele>
        <time>2014-06-08T03:58:26Z</time>
      </trkpt>
      <trkpt lat="42.046652" lon="2.259321">
        <ele>507.220</ele>
        <time>2014-06-08T04:05:18Z</time>
      </trkpt>
      <trkpt lat="42.046673" lon="2.259321">
        <ele>507.208</ele>
        <time>2014-06-08T04:05:50Z</time>
      </trkpt>
      <trkpt lat="42.046673" lon="2.259321">
        <ele>507.237</ele>
        <time>2014-06-08T04:06:08Z</time>
      </trkpt>
      <trkpt lat="42.046673" lon="2.259343">
        <ele>513.020</ele>
        <time>2014-06-08T04:09:39Z</time>
      </trkpt>
      <trkpt lat="42.046673" lon="2.259343">
        <ele>511.622</ele>
        <time>2014-06-08T04:09:48Z</time>
      </trkpt>
      <trkpt lat="42.046609" lon="2.259407">
        <ele>511.122</ele>
        <time>2014-06-08T04:09:53Z</time>
      </trkpt>
      <trkpt lat="42.046566" lon="2.259514">
        <ele>509.656</ele>
        <time>2014-06-08T04:10:00Z</time>
      </trkpt>
      <trkpt lat="42.046330" lon="2.259750">
        <ele>506.885</ele>
        <time>2014-06-08T04:10:16Z</time>
      </trkpt>
      <trkpt lat="42.045987" lon="2.260094">
        <ele>506.895</ele>
        <time>2014-06-08T04:10:35Z</time>
      </trkpt>
      <trkpt lat="42.045493" lon="2.260394">
        <ele>507.752</ele>
        <time>2014-06-08T04:10:56Z</time>
      </trkpt>
      <trkpt lat="42.044957" lon="2.260673">
        <ele>510.129</ele>
        <time>2014-06-08T04:11:19Z</time>
      </trkpt>
      <trkpt lat="42.044699" lon="2.261038">
        <ele>511.600</ele>
        <time>2014-06-08T04:11:36Z</time>
      </trkpt>
      <trkpt lat="42.044485" lon="2.261531">
        <ele>512.520</ele>
        <time>2014-06-08T04:11:56Z</time>
      </trkpt>
      <trkpt lat="42.044313" lon="2.261982">
        <ele>516.808</ele>
        <time>2014-06-08T04:12:16Z</time>
      </trkpt>
      <trkpt lat="42.044249" lon="2.262497">
        <ele>521.734</ele>
        <time>2014-06-08T04:12:37Z</time>
      </trkpt>
      <trkpt lat="42.044570" lon="2.262819">
        <ele>526.587</ele>
        <time>2014-06-08T04:12:57Z</time>
      </trkpt>
      <trkpt lat="42.045000" lon="2.262604">
        <ele>527.989</ele>
        <time>2014-06-08T04:13:15Z</time>
      </trkpt>
      <trkpt lat="42.045064" lon="2.262540">
        <ele>527.959</ele>
        <time>2014-06-08T04:13:17Z</time>
      </trkpt>
      <trkpt lat="42.045171" lon="2.262454">
        <ele>526.053</ele>
        <time>2014-06-08T04:13:19Z</time>
      </trkpt>
      <trkpt lat="42.045600" lon="2.262540">
        <ele>525.082</ele>
        <time>2014-06-08T04:13:26Z</time>
      </trkpt>
      <trkpt lat="42.045708" lon="2.262690">
        <ele>525.032</ele>
        <time>2014-06-08T04:13:29Z</time>
      </trkpt>
      <trkpt lat="42.045772" lon="2.262840">
        <ele>526.079</ele>
        <time>2014-06-08T04:13:32Z</time>
      </trkpt>
      <trkpt lat="42.045987" lon="2.264042">
        <ele>526.519</ele>
        <time>2014-06-08T04:13:51Z</time>
      </trkpt>
      <trkpt lat="42.045987" lon="2.264106">
        <ele>526.509</ele>
        <time>2014-06-08T04:13:52Z</time>
      </trkpt>
      <trkpt lat="42.045493" lon="2.264600">
        <ele>522.619</ele>
        <time>2014-06-08T04:14:13Z</time>
      </trkpt>
      <trkpt lat="42.045021" lon="2.265222">
        <ele>525.008</ele>
        <time>2014-06-08T04:14:37Z</time>
      </trkpt>
      <trkpt lat="42.044549" lon="2.266016">
        <ele>526.983</ele>
        <time>2014-06-08T04:15:03Z</time>
      </trkpt>
      <trkpt lat="42.044206" lon="2.266681">
        <ele>528.976</ele>
        <time>2014-06-08T04:15:26Z</time>
      </trkpt>
      <trkpt lat="42.043905" lon="2.267454">
        <ele>528.938</ele>
        <time>2014-06-08T04:15:49Z</time>
      </trkpt>
      <trkpt lat="42.043583" lon="2.267926">
        <ele>528.968</ele>
        <time>2014-06-08T04:16:05Z</time>
      </trkpt>
      <trkpt lat="42.043068" lon="2.268484">
        <ele>533.262</ele>
        <time>2014-06-08T04:16:27Z</time>
      </trkpt>
      <trkpt lat="42.042596" lon="2.268870">
        <ele>534.691</ele>
        <time>2014-06-08T04:16:45Z</time>
      </trkpt>
      <trkpt lat="42.042038" lon="2.269278">
        <ele>539.431</ele>
        <time>2014-06-08T04:17:06Z</time>
      </trkpt>
      <trkpt lat="42.041502" lon="2.269814">
        <ele>540.448</ele>
        <time>2014-06-08T04:17:31Z</time>
      </trkpt>
      <trkpt lat="42.041094" lon="2.270415">
        <ele>544.798</ele>
        <time>2014-06-08T04:17:54Z</time>
      </trkpt>
      <trkpt lat="42.040772" lon="2.271101">
        <ele>547.615</ele>
        <time>2014-06-08T04:18:22Z</time>
      </trkpt>
      <trkpt lat="42.040408" lon="2.271831">
        <ele>548.626</ele>
        <time>2014-06-08T04:18:48Z</time>
      </trkpt>
      <trkpt lat="42.040064" lon="2.272539">
        <ele>548.108</ele>
        <time>2014-06-08T04:19:11Z</time>
      </trkpt>
      <trkpt lat="42.039678" lon="2.273333">
        <ele>550.091</ele>
        <time>2014-06-08T04:19:38Z</time>
      </trkpt>
      <trkpt lat="42.039270" lon="2.274170">
        <ele>552.474</ele>
        <time>2014-06-08T04:20:06Z</time>
      </trkpt>
      <trkpt lat="42.038906" lon="2.274921">
        <ele>554.896</ele>
        <time>2014-06-08T04:20:32Z</time>
      </trkpt>
      <trkpt lat="42.038713" lon="2.275608">
        <ele>556.356</ele>
        <time>2014-06-08T04:20:52Z</time>
      </trkpt>
      <trkpt lat="42.038670" lon="2.276552">
        <ele>556.330</ele>
        <time>2014-06-08T04:21:13Z</time>
      </trkpt>
      <trkpt lat="42.038605" lon="2.276638">
        <ele>556.349</ele>
        <time>2014-06-08T04:21:15Z</time>
      </trkpt>
      <trkpt lat="42.038541" lon="2.276680">
        <ele>555.389</ele>
        <time>2014-06-08T04:21:17Z</time>
      </trkpt>
      <trkpt lat="42.038434" lon="2.276938">
        <ele>553.466</ele>
        <time>2014-06-08T04:21:21Z</time>
      </trkpt>
      <trkpt lat="42.038348" lon="2.277131">
        <ele>553.453</ele>
        <time>2014-06-08T04:21:24Z</time>
      </trkpt>
      <trkpt lat="42.038412" lon="2.277582">
        <ele>555.304</ele>
        <time>2014-06-08T04:21:32Z</time>
      </trkpt>
      <trkpt lat="42.038841" lon="2.278333">
        <ele>559.614</ele>
        <time>2014-06-08T04:21:54Z</time>
      </trkpt>
      <trkpt lat="42.039356" lon="2.279363">
        <ele>562.508</ele>
        <time>2014-06-08T04:22:23Z</time>
      </trkpt>
      <trkpt lat="42.039721" lon="2.280264">
        <ele>564.417</ele>
        <time>2014-06-08T04:22:47Z</time>
      </trkpt>
      <trkpt lat="42.040021" lon="2.281444">
        <ele>566.470</ele>
        <time>2014-06-08T04:23:15Z</time>
      </trkpt>
      <trkpt lat="42.040300" lon="2.282474">
        <ele>571.642</ele>
        <time>2014-06-08T04:23:42Z</time>
      </trkpt>
      <trkpt lat="42.040708" lon="2.283354">
        <ele>576.952</ele>
        <time>2014-06-08T04:24:08Z</time>
      </trkpt>
      <trkpt lat="42.040966" lon="2.283955">
        <ele>580.886</ele>
        <time>2014-06-08T04:24:26Z</time>
      </trkpt>
      <trkpt lat="42.041137" lon="2.284770">
        <ele>583.215</ele>
        <time>2014-06-08T04:24:51Z</time>
      </trkpt>
      <trkpt lat="42.041223" lon="2.285478">
        <ele>584.645</ele>
        <time>2014-06-08T04:25:13Z</time>
      </trkpt>
      <trkpt lat="42.041180" lon="2.285950">
        <ele>584.672</ele>
        <time>2014-06-08T04:25:29Z</time>
      </trkpt>
      <trkpt lat="42.041094" lon="2.286057">
        <ele>584.613</ele>
        <time>2014-06-08T04:25:34Z</time>
      </trkpt>
      <trkpt lat="42.041073" lon="2.286208">
        <ele>586.143</ele>
        <time>2014-06-08T04:25:40Z</time>
      </trkpt>
      <trkpt lat="42.040923" lon="2.286723">
        <ele>584.607</ele>
        <time>2014-06-08T04:25:57Z</time>
      </trkpt>
      <trkpt lat="42.040708" lon="2.287023">
        <ele>583.208</ele>
        <time>2014-06-08T04:26:06Z</time>
      </trkpt>
      <trkpt lat="42.040493" lon="2.287152">
        <ele>582.733</ele>
        <time>2014-06-08T04:26:11Z</time>
      </trkpt>
      <trkpt lat="42.040365" lon="2.287281">
        <ele>581.776</ele>
        <time>2014-06-08T04:26:14Z</time>
      </trkpt>
      <trkpt lat="42.039807" lon="2.287302">
        <ele>575.518</ele>
        <time>2014-06-08T04:26:22Z</time>
      </trkpt>
      <trkpt lat="42.039421" lon="2.287045">
        <ele>571.268</ele>
        <time>2014-06-08T04:26:26Z</time>
      </trkpt>
      <trkpt lat="42.039270" lon="2.286916">
        <ele>570.272</ele>
        <time>2014-06-08T04:26:28Z</time>
      </trkpt>
      <trkpt lat="42.039099" lon="2.287109">
        <ele>568.331</ele>
        <time>2014-06-08T04:26:33Z</time>
      </trkpt>
      <trkpt lat="42.039056" lon="2.287474">
        <ele>567.341</ele>
        <time>2014-06-08T04:26:37Z</time>
      </trkpt>
      <trkpt lat="42.038841" lon="2.288160">
        <ele>567.368</ele>
        <time>2014-06-08T04:26:48Z</time>
      </trkpt>
      <trkpt lat="42.038755" lon="2.288568">
        <ele>566.873</ele>
        <time>2014-06-08T04:27:01Z</time>
      </trkpt>
      <trkpt lat="42.038627" lon="2.289212">
        <ele>567.885</ele>
        <time>2014-06-08T04:27:21Z</time>
      </trkpt>
      <trkpt lat="42.038541" lon="2.289963">
        <ele>570.213</ele>
        <time>2014-06-08T04:27:42Z</time>
      </trkpt>
      <trkpt lat="42.038519" lon="2.290649">
        <ele>574.508</ele>
        <time>2014-06-08T04:28:03Z</time>
      </trkpt>
      <trkpt lat="42.038412" lon="2.291293">
        <ele>575.089</ele>
        <time>2014-06-08T04:28:22Z</time>
      </trkpt>
      <trkpt lat="42.038112" lon="2.291658">
        <ele>577.492</ele>
        <time>2014-06-08T04:28:37Z</time>
      </trkpt>
      <trkpt lat="42.037768" lon="2.292087">
        <ele>579.324</ele>
        <time>2014-06-08T04:28:53Z</time>
      </trkpt>
      <trkpt lat="42.037683" lon="2.292731">
        <ele>580.894</ele>
        <time>2014-06-08T04:29:09Z</time>
      </trkpt>
      <trkpt lat="42.037747" lon="2.293289">
        <ele>585.178</ele>
        <time>2014-06-08T04:29:27Z</time>
      </trkpt>
      <trkpt lat="42.037790" lon="2.293782">
        <ele>588.587</ele>
        <time>2014-06-08T04:29:43Z</time>
      </trkpt>
      <trkpt lat="42.037704" lon="2.294383">
        <ele>590.947</ele>
        <time>2014-06-08T04:30:01Z</time>
      </trkpt>
      <trkpt lat="42.037382" lon="2.294898">
        <ele>589.974</ele>
        <time>2014-06-08T04:30:19Z</time>
      </trkpt>
      <trkpt lat="42.036674" lon="2.295113">
        <ele>591.312</ele>
        <time>2014-06-08T04:30:38Z</time>
      </trkpt>
      <trkpt lat="42.036223" lon="2.295349">
        <ele>590.932</ele>
        <time>2014-06-08T04:30:50Z</time>
      </trkpt>
      <trkpt lat="42.036095" lon="2.295520">
        <ele>591.805</ele>
        <time>2014-06-08T04:30:54Z</time>
      </trkpt>
      <trkpt lat="42.035580" lon="2.296550">
        <ele>586.508</ele>
        <time>2014-06-08T04:31:08Z</time>
      </trkpt>
      <trkpt lat="42.035515" lon="2.296743">
        <ele>586.183</ele>
        <time>2014-06-08T04:31:10Z</time>
      </trkpt>
      <trkpt lat="42.034936" lon="2.297752">
        <ele>581.786</ele>
        <time>2014-06-08T04:31:21Z</time>
      </trkpt>
      <trkpt lat="42.034850" lon="2.297988">
        <ele>580.368</ele>
        <time>2014-06-08T04:31:23Z</time>
      </trkpt>
      <trkpt lat="42.034657" lon="2.298460">
        <ele>577.998</ele>
        <time>2014-06-08T04:31:27Z</time>
      </trkpt>
      <trkpt lat="42.034357" lon="2.298782">
        <ele>575.582</ele>
        <time>2014-06-08T04:31:32Z</time>
      </trkpt>
      <trkpt lat="42.034228" lon="2.298825">
        <ele>575.061</ele>
        <time>2014-06-08T04:31:34Z</time>
      </trkpt>
      <trkpt lat="42.033992" lon="2.298782">
        <ele>572.111</ele>
        <time>2014-06-08T04:31:37Z</time>
      </trkpt>
      <trkpt lat="42.033584" lon="2.298782">
        <ele>570.248</ele>
        <time>2014-06-08T04:31:42Z</time>
      </trkpt>
      <trkpt lat="42.033005" lon="2.298803">
        <ele>567.339</ele>
        <time>2014-06-08T04:31:49Z</time>
      </trkpt>
      <trkpt lat="42.032747" lon="2.299061">
        <ele>565.901</ele>
        <time>2014-06-08T04:31:53Z</time>
      </trkpt>
      <trkpt lat="42.032340" lon="2.299705">
        <ele>564.021</ele>
        <time>2014-06-08T04:32:01Z</time>
      </trkpt>
      <trkpt lat="42.032061" lon="2.299984">
        <ele>559.608</ele>
        <time>2014-06-08T04:32:05Z</time>
      </trkpt>
      <trkpt lat="42.031674" lon="2.300112">
        <ele>556.775</ele>
        <time>2014-06-08T04:32:09Z</time>
      </trkpt>
      <trkpt lat="42.031395" lon="2.300112">
        <ele>555.378</ele>
        <time>2014-06-08T04:32:12Z</time>
      </trkpt>
      <trkpt lat="42.030923" lon="2.300284">
        <ele>552.910</ele>
        <time>2014-06-08T04:32:17Z</time>
      </trkpt>
      <trkpt lat="42.030752" lon="2.300413">
        <ele>551.550</ele>
        <time>2014-06-08T04:32:19Z</time>
      </trkpt>
      <trkpt lat="42.030172" lon="2.300606">
        <ele>546.234</ele>
        <time>2014-06-08T04:32:25Z</time>
      </trkpt>
      <trkpt lat="42.029850" lon="2.300906">
        <ele>544.233</ele>
        <time>2014-06-08T04:32:29Z</time>
      </trkpt>
      <trkpt lat="42.029314" lon="2.301421">
        <ele>540.923</ele>
        <time>2014-06-08T04:32:36Z</time>
      </trkpt>
      <trkpt lat="42.028928" lon="2.301357">
        <ele>539.430</ele>
        <time>2014-06-08T04:32:41Z</time>
      </trkpt>
      <trkpt lat="42.028799" lon="2.301078">
        <ele>539.035</ele>
        <time>2014-06-08T04:32:44Z</time>
      </trkpt>
      <trkpt lat="42.028735" lon="2.300906">
        <ele>539.086</ele>
        <time>2014-06-08T04:32:46Z</time>
      </trkpt>
      <trkpt lat="42.028413" lon="2.300584">
        <ele>539.914</ele>
        <time>2014-06-08T04:32:52Z</time>
      </trkpt>
      <trkpt lat="42.028134" lon="2.300606">
        <ele>538.508</ele>
        <time>2014-06-08T04:32:56Z</time>
      </trkpt>
      <trkpt lat="42.028005" lon="2.300606">
        <ele>538.565</ele>
        <time>2014-06-08T04:32:58Z</time>
      </trkpt>
      <trkpt lat="42.027340" lon="2.300971">
        <ele>538.088</ele>
        <time>2014-06-08T04:33:09Z</time>
      </trkpt>
      <trkpt lat="42.026997" lon="2.300906">
        <ele>537.060</ele>
        <time>2014-06-08T04:33:14Z</time>
      </trkpt>
      <trkpt lat="42.026439" lon="2.300563">
        <ele>537.010</ele>
        <time>2014-06-08T04:33:23Z</time>
      </trkpt>
      <trkpt lat="42.026203" lon="2.300627">
        <ele>537.034</ele>
        <time>2014-06-08T04:33:27Z</time>
      </trkpt>
      <trkpt lat="42.025559" lon="2.301292">
        <ele>539.043</ele>
        <time>2014-06-08T04:33:41Z</time>
      </trkpt>
      <trkpt lat="42.025516" lon="2.301357">
        <ele>539.093</ele>
        <time>2014-06-08T04:33:42Z</time>
      </trkpt>
      <trkpt lat="42.025430" lon="2.301464">
        <ele>539.010</ele>
        <time>2014-06-08T04:33:44Z</time>
      </trkpt>
      <trkpt lat="42.025344" lon="2.301636">
        <ele>538.512</ele>
        <time>2014-06-08T04:33:47Z</time>
      </trkpt>
      <trkpt lat="42.025301" lon="2.301936">
        <ele>538.032</ele>
        <time>2014-06-08T04:33:52Z</time>
      </trkpt>
      <trkpt lat="42.024958" lon="2.302816">
        <ele>538.505</ele>
        <time>2014-06-08T04:34:07Z</time>
      </trkpt>
      <trkpt lat="42.024572" lon="2.303309">
        <ele>539.408</ele>
        <time>2014-06-08T04:34:22Z</time>
      </trkpt>
      <trkpt lat="42.023971" lon="2.303889">
        <ele>541.823</ele>
        <time>2014-06-08T04:34:41Z</time>
      </trkpt>
      <trkpt lat="42.023392" lon="2.304661">
        <ele>543.826</ele>
        <time>2014-06-08T04:35:02Z</time>
      </trkpt>
      <trkpt lat="42.022920" lon="2.305348">
        <ele>544.748</ele>
        <time>2014-06-08T04:35:20Z</time>
      </trkpt>
      <trkpt lat="42.022533" lon="2.305949">
        <ele>543.838</ele>
        <time>2014-06-08T04:35:35Z</time>
      </trkpt>
      <trkpt lat="42.022319" lon="2.306206">
        <ele>543.852</ele>
        <time>2014-06-08T04:35:41Z</time>
      </trkpt>
      <trkpt lat="42.022083" lon="2.306206">
        <ele>541.871</ele>
        <time>2014-06-08T04:35:45Z</time>
      </trkpt>
      <trkpt lat="42.021825" lon="2.306314">
        <ele>541.851</ele>
        <time>2014-06-08T04:35:49Z</time>
      </trkpt>
      <trkpt lat="42.021718" lon="2.306378">
        <ele>541.478</ele>
        <time>2014-06-08T04:35:51Z</time>
      </trkpt>
      <trkpt lat="42.021525" lon="2.306464">
        <ele>541.474</ele>
        <time>2014-06-08T04:35:54Z</time>
      </trkpt>
      <trkpt lat="42.021246" lon="2.306249">
        <ele>540.456</ele>
        <time>2014-06-08T04:36:02Z</time>
      </trkpt>
      <trkpt lat="42.021267" lon="2.306185">
        <ele>540.421</ele>
        <time>2014-06-08T04:36:03Z</time>
      </trkpt>
      <trkpt lat="42.021267" lon="2.305949">
        <ele>539.908</ele>
        <time>2014-06-08T04:36:06Z</time>
      </trkpt>
      <trkpt lat="42.021074" lon="2.305219">
        <ele>536.689</ele>
        <time>2014-06-08T04:36:14Z</time>
      </trkpt>
      <trkpt lat="42.020817" lon="2.304726">
        <ele>534.222</ele>
        <time>2014-06-08T04:36:20Z</time>
      </trkpt>
      <trkpt lat="42.020667" lon="2.304618">
        <ele>533.244</ele>
        <time>2014-06-08T04:36:22Z</time>
      </trkpt>
      <trkpt lat="42.020431" lon="2.304554">
        <ele>532.284</ele>
        <time>2014-06-08T04:36:25Z</time>
      </trkpt>
      <trkpt lat="42.020152" lon="2.304125">
        <ele>530.358</ele>
        <time>2014-06-08T04:36:31Z</time>
      </trkpt>
      <trkpt lat="42.020044" lon="2.303438">
        <ele>527.417</ele>
        <time>2014-06-08T04:36:38Z</time>
      </trkpt>
      <trkpt lat="42.019701" lon="2.303009">
        <ele>525.577</ele>
        <time>2014-06-08T04:36:44Z</time>
      </trkpt>
      <trkpt lat="42.019508" lon="2.302709">
        <ele>524.184</ele>
        <time>2014-06-08T04:36:48Z</time>
      </trkpt>
      <trkpt lat="42.019465" lon="2.302408">
        <ele>522.183</ele>
        <time>2014-06-08T04:36:51Z</time>
      </trkpt>
      <trkpt lat="42.019551" lon="2.301936">
        <ele>519.225</ele>
        <time>2014-06-08T04:36:56Z</time>
      </trkpt>
      <trkpt lat="42.019529" lon="2.301443">
        <ele>513.017</ele>
        <time>2014-06-08T04:37:01Z</time>
      </trkpt>
      <trkpt lat="42.019014" lon="2.300713">
        <ele>506.308</ele>
        <time>2014-06-08T04:37:09Z</time>
      </trkpt>
      <trkpt lat="42.018006" lon="2.300348">
        <ele>499.510</ele>
        <time>2014-06-08T04:37:21Z</time>
      </trkpt>
      <trkpt lat="42.017276" lon="2.300005">
        <ele>497.683</ele>
        <time>2014-06-08T04:37:30Z</time>
      </trkpt>
      <trkpt lat="42.016912" lon="2.300005">
        <ele>496.225</ele>
        <time>2014-06-08T04:37:35Z</time>
      </trkpt>
      <trkpt lat="42.016740" lon="2.299919">
        <ele>495.775</ele>
        <time>2014-06-08T04:37:38Z</time>
      </trkpt>
      <trkpt lat="42.016118" lon="2.299447">
        <ele>492.329</ele>
        <time>2014-06-08T04:37:49Z</time>
      </trkpt>
      <trkpt lat="42.015860" lon="2.299361">
        <ele>491.478</ele>
        <time>2014-06-08T04:37:53Z</time>
      </trkpt>
      <trkpt lat="42.015238" lon="2.299361">
        <ele>489.418</ele>
        <time>2014-06-08T04:38:03Z</time>
      </trkpt>
      <trkpt lat="42.015023" lon="2.299361">
        <ele>489.025</ele>
        <time>2014-06-08T04:38:07Z</time>
      </trkpt>
      <trkpt lat="42.014315" lon="2.299340">
        <ele>487.055</ele>
        <time>2014-06-08T04:38:21Z</time>
      </trkpt>
      <trkpt lat="42.013478" lon="2.299061">
        <ele>484.607</ele>
        <time>2014-06-08T04:38:37Z</time>
      </trkpt>
      <trkpt lat="42.013435" lon="2.299039">
        <ele>484.617</ele>
        <time>2014-06-08T04:38:38Z</time>
      </trkpt>
      <trkpt lat="42.013199" lon="2.298868">
        <ele>485.108</ele>
        <time>2014-06-08T04:38:43Z</time>
      </trkpt>
      <trkpt lat="42.013114" lon="2.298825">
        <ele>484.617</ele>
        <time>2014-06-08T04:38:45Z</time>
      </trkpt>
      <trkpt lat="42.013028" lon="2.298739">
        <ele>485.110</ele>
        <time>2014-06-08T04:38:47Z</time>
      </trkpt>
      <trkpt lat="42.012877" lon="2.298632">
        <ele>485.162</ele>
        <time>2014-06-08T04:38:51Z</time>
      </trkpt>
      <trkpt lat="42.012684" lon="2.298610">
        <ele>485.172</ele>
        <time>2014-06-08T04:38:55Z</time>
      </trkpt>
      <trkpt lat="42.012491" lon="2.298460">
        <ele>484.616</ele>
        <time>2014-06-08T04:39:00Z</time>
      </trkpt>
      <trkpt lat="42.012362" lon="2.298245">
        <ele>483.735</ele>
        <time>2014-06-08T04:39:04Z</time>
      </trkpt>
      <trkpt lat="42.012212" lon="2.298052">
        <ele>482.755</ele>
        <time>2014-06-08T04:39:08Z</time>
      </trkpt>
      <trkpt lat="42.012105" lon="2.297988">
        <ele>482.212</ele>
        <time>2014-06-08T04:39:10Z</time>
      </trkpt>
      <trkpt lat="42.011762" lon="2.297902">
        <ele>480.817</ele>
        <time>2014-06-08T04:39:16Z</time>
      </trkpt>
      <trkpt lat="42.011161" lon="2.297816">
        <ele>479.487</ele>
        <time>2014-06-08T04:39:27Z</time>
      </trkpt>
      <trkpt lat="42.010689" lon="2.297966">
        <ele>477.415</ele>
        <time>2014-06-08T04:39:35Z</time>
      </trkpt>
      <trkpt lat="42.010560" lon="2.298095">
        <ele>477.008</ele>
        <time>2014-06-08T04:39:38Z</time>
      </trkpt>
      <trkpt lat="42.010131" lon="2.298181">
        <ele>476.023</ele>
        <time>2014-06-08T04:39:46Z</time>
      </trkpt>
      <trkpt lat="42.010024" lon="2.298160">
        <ele>476.076</ele>
        <time>2014-06-08T04:39:48Z</time>
      </trkpt>
      <trkpt lat="42.009509" lon="2.297859">
        <ele>474.558</ele>
        <time>2014-06-08T04:39:59Z</time>
      </trkpt>
      <trkpt lat="42.009337" lon="2.298052">
        <ele>473.688</ele>
        <time>2014-06-08T04:40:05Z</time>
      </trkpt>
      <trkpt lat="42.009251" lon="2.298374">
        <ele>473.622</ele>
        <time>2014-06-08T04:40:11Z</time>
      </trkpt>
      <trkpt lat="42.009144" lon="2.298396">
        <ele>473.671</ele>
        <time>2014-06-08T04:40:15Z</time>
      </trkpt>
      <trkpt lat="42.008328" lon="2.298160">
        <ele>471.281</ele>
        <time>2014-06-08T04:40:30Z</time>
      </trkpt>
      <trkpt lat="42.008264" lon="2.298138">
        <ele>471.218</ele>
        <time>2014-06-08T04:40:31Z</time>
      </trkpt>
      <trkpt lat="42.007964" lon="2.297881">
        <ele>470.281</ele>
        <time>2014-06-08T04:40:36Z</time>
      </trkpt>
      <trkpt lat="42.007749" lon="2.297752">
        <ele>467.861</ele>
        <time>2014-06-08T04:40:40Z</time>
      </trkpt>
      <trkpt lat="42.007642" lon="2.297773">
        <ele>467.817</ele>
        <time>2014-06-08T04:40:42Z</time>
      </trkpt>
      <trkpt lat="42.007127" lon="2.297666">
        <ele>467.808</ele>
        <time>2014-06-08T04:40:54Z</time>
      </trkpt>
      <trkpt lat="42.006376" lon="2.296958">
        <ele>469.790</ele>
        <time>2014-06-08T04:41:11Z</time>
      </trkpt>
      <trkpt lat="42.006075" lon="2.296486">
        <ele>468.353</ele>
        <time>2014-06-08T04:41:22Z</time>
      </trkpt>
      <trkpt lat="42.005453" lon="2.295542">
        <ele>468.345</ele>
        <time>2014-06-08T04:41:39Z</time>
      </trkpt>
      <trkpt lat="42.005303" lon="2.295370">
        <ele>468.885</ele>
        <time>2014-06-08T04:41:43Z</time>
      </trkpt>
      <trkpt lat="42.005131" lon="2.295370">
        <ele>467.859</ele>
        <time>2014-06-08T04:41:49Z</time>
      </trkpt>
      <trkpt lat="42.005153" lon="2.295284">
        <ele>466.478</ele>
        <time>2014-06-08T04:41:54Z</time>
      </trkpt>
      <trkpt lat="42.005003" lon="2.294984">
        <ele>464.578</ele>
        <time>2014-06-08T04:42:02Z</time>
      </trkpt>
      <trkpt lat="42.004445" lon="2.294405">
        <ele>465.495</ele>
        <time>2014-06-08T04:42:14Z</time>
      </trkpt>
      <trkpt lat="42.003887" lon="2.293460">
        <ele>465.436</ele>
        <time>2014-06-08T04:42:27Z</time>
      </trkpt>
      <trkpt lat="42.003758" lon="2.293160">
        <ele>464.917</ele>
        <time>2014-06-08T04:42:31Z</time>
      </trkpt>
      <trkpt lat="42.003715" lon="2.293031">
        <ele>464.018</ele>
        <time>2014-06-08T04:42:33Z</time>
      </trkpt>
      <trkpt lat="42.003479" lon="2.292624">
        <ele>461.608</ele>
        <time>2014-06-08T04:42:42Z</time>
      </trkpt>
      <trkpt lat="42.003286" lon="2.292581">
        <ele>461.155</ele>
        <time>2014-06-08T04:42:46Z</time>
      </trkpt>
      <trkpt lat="42.003200" lon="2.292473">
        <ele>461.158</ele>
        <time>2014-06-08T04:42:50Z</time>
      </trkpt>
      <trkpt lat="42.003093" lon="2.291980">
        <ele>461.610</ele>
        <time>2014-06-08T04:43:01Z</time>
      </trkpt>
      <trkpt lat="42.003007" lon="2.291894">
        <ele>461.160</ele>
        <time>2014-06-08T04:43:04Z</time>
      </trkpt>
      <trkpt lat="42.002792" lon="2.291873">
        <ele>458.254</ele>
        <time>2014-06-08T04:43:08Z</time>
      </trkpt>
      <trkpt lat="42.001612" lon="2.291701">
        <ele>457.233</ele>
        <time>2014-06-08T04:43:30Z</time>
      </trkpt>
      <trkpt lat="42.000668" lon="2.291615">
        <ele>453.993</ele>
        <time>2014-06-08T04:43:47Z</time>
      </trkpt>
      <trkpt lat="42.000561" lon="2.291636">
        <ele>452.450</ele>
        <time>2014-06-08T04:43:50Z</time>
      </trkpt>
      <trkpt lat="42.000475" lon="2.291808">
        <ele>452.456</ele>
        <time>2014-06-08T04:43:55Z</time>
      </trkpt>
      <trkpt lat="42.000368" lon="2.292216">
        <ele>451.059</ele>
        <time>2014-06-08T04:44:02Z</time>
      </trkpt>
      <trkpt lat="42.000325" lon="2.292409">
        <ele>450.514</ele>
        <time>2014-06-08T04:44:05Z</time>
      </trkpt>
      <trkpt lat="42.000003" lon="2.292752">
        <ele>452.908</ele>
        <time>2014-06-08T04:44:16Z</time>
      </trkpt>
      <trkpt lat="41.999574" lon="2.293096">
        <ele>452.067</ele>
        <time>2014-06-08T04:44:27Z</time>
      </trkpt>
      <trkpt lat="41.999402" lon="2.293525">
        <ele>451.040</ele>
        <time>2014-06-08T04:44:34Z</time>
      </trkpt>
      <trkpt lat="41.999338" lon="2.294254">
        <ele>448.672</ele>
        <time>2014-06-08T04:44:50Z</time>
      </trkpt>
      <trkpt lat="41.999102" lon="2.294683">
        <ele>451.062</ele>
        <time>2014-06-08T04:45:02Z</time>
      </trkpt>
      <trkpt lat="41.998715" lon="2.295134">
        <ele>452.026</ele>
        <time>2014-06-08T04:45:14Z</time>
      </trkpt>
      <trkpt lat="41.998479" lon="2.295198">
        <ele>452.065</ele>
        <time>2014-06-08T04:45:19Z</time>
      </trkpt>
      <trkpt lat="41.997600" lon="2.295413">
        <ele>453.455</ele>
        <time>2014-06-08T04:45:35Z</time>
      </trkpt>
      <trkpt lat="41.997321" lon="2.295156">
        <ele>455.382</ele>
        <time>2014-06-08T04:45:43Z</time>
      </trkpt>
      <trkpt lat="41.997170" lon="2.295027">
        <ele>455.815</ele>
        <time>2014-06-08T04:45:47Z</time>
      </trkpt>
      <trkpt lat="41.996462" lon="2.294812">
        <ele>461.165</ele>
        <time>2014-06-08T04:46:06Z</time>
      </trkpt>
      <trkpt lat="41.995990" lon="2.294791">
        <ele>464.011</ele>
        <time>2014-06-08T04:46:20Z</time>
      </trkpt>
      <trkpt lat="41.995540" lon="2.294898">
        <ele>463.508</ele>
        <time>2014-06-08T04:46:32Z</time>
      </trkpt>
      <trkpt lat="41.995325" lon="2.294984">
        <ele>463.023</ele>
        <time>2014-06-08T04:46:37Z</time>
      </trkpt>
      <trkpt lat="41.995218" lon="2.295048">
        <ele>463.566</ele>
        <time>2014-06-08T04:46:40Z</time>
      </trkpt>
      <trkpt lat="41.995111" lon="2.295091">
        <ele>464.088</ele>
        <time>2014-06-08T04:46:42Z</time>
      </trkpt>
      <trkpt lat="41.994746" lon="2.295177">
        <ele>464.968</ele>
        <time>2014-06-08T04:46:51Z</time>
      </trkpt>
      <trkpt lat="41.994488" lon="2.295027">
        <ele>464.582</ele>
        <time>2014-06-08T04:46:58Z</time>
      </trkpt>
      <trkpt lat="41.994402" lon="2.295005">
        <ele>464.011</ele>
        <time>2014-06-08T04:47:00Z</time>
      </trkpt>
      <trkpt lat="41.994123" lon="2.295027">
        <ele>464.011</ele>
        <time>2014-06-08T04:47:06Z</time>
      </trkpt>
      <trkpt lat="41.993866" lon="2.294919">
        <ele>464.098</ele>
        <time>2014-06-08T04:47:12Z</time>
      </trkpt>
      <trkpt lat="41.993265" lon="2.294276">
        <ele>464.024</ele>
        <time>2014-06-08T04:47:31Z</time>
      </trkpt>
      <trkpt lat="41.992857" lon="2.293804">
        <ele>465.404</ele>
        <time>2014-06-08T04:47:47Z</time>
      </trkpt>
      <trkpt lat="41.992643" lon="2.294254">
        <ele>464.014</ele>
        <time>2014-06-08T04:48:02Z</time>
      </trkpt>
      <trkpt lat="41.992364" lon="2.295091">
        <ele>465.908</ele>
        <time>2014-06-08T04:48:19Z</time>
      </trkpt>
      <trkpt lat="41.992192" lon="2.295735">
        <ele>466.434</ele>
        <time>2014-06-08T04:48:33Z</time>
      </trkpt>
      <trkpt lat="41.991956" lon="2.296379">
        <ele>468.857</ele>
        <time>2014-06-08T04:48:51Z</time>
      </trkpt>
      <trkpt lat="41.991591" lon="2.297151">
        <ele>470.769</ele>
        <time>2014-06-08T04:49:10Z</time>
      </trkpt>
      <trkpt lat="41.991205" lon="2.297559">
        <ele>468.879</ele>
        <time>2014-06-08T04:49:25Z</time>
      </trkpt>
      <trkpt lat="41.990669" lon="2.298052">
        <ele>468.823</ele>
        <time>2014-06-08T04:49:41Z</time>
      </trkpt>
      <trkpt lat="41.990111" lon="2.299061">
        <ele>469.722</ele>
        <time>2014-06-08T04:50:02Z</time>
      </trkpt>
      <trkpt lat="41.989853" lon="2.300069">
        <ele>465.412</ele>
        <time>2014-06-08T04:50:17Z</time>
      </trkpt>
      <trkpt lat="41.989231" lon="2.301164">
        <ele>461.619</ele>
        <time>2014-06-08T04:50:31Z</time>
      </trkpt>
      <trkpt lat="41.988502" lon="2.301829">
        <ele>458.221</ele>
        <time>2014-06-08T04:50:42Z</time>
      </trkpt>
      <trkpt lat="41.987343" lon="2.303116">
        <ele>452.941</ele>
        <time>2014-06-08T04:51:02Z</time>
      </trkpt>
      <trkpt lat="41.986549" lon="2.303653">
        <ele>446.705</ele>
        <time>2014-06-08T04:51:15Z</time>
      </trkpt>
      <trkpt lat="41.986399" lon="2.303739">
        <ele>445.708</ele>
        <time>2014-06-08T04:51:17Z</time>
      </trkpt>
      <trkpt lat="41.986270" lon="2.303739">
        <ele>445.784</ele>
        <time>2014-06-08T04:51:19Z</time>
      </trkpt>
      <trkpt lat="41.985669" lon="2.303910">
        <ele>445.757</ele>
        <time>2014-06-08T04:51:29Z</time>
      </trkpt>
      <trkpt lat="41.985562" lon="2.303953">
        <ele>445.259</ele>
        <time>2014-06-08T04:51:31Z</time>
      </trkpt>
      <trkpt lat="41.984704" lon="2.304018">
        <ele>439.959</ele>
        <time>2014-06-08T04:51:43Z</time>
      </trkpt>
      <trkpt lat="41.984146" lon="2.304082">
        <ele>437.583</ele>
        <time>2014-06-08T04:51:50Z</time>
      </trkpt>
      <trkpt lat="41.983845" lon="2.304447">
        <ele>436.132</ele>
        <time>2014-06-08T04:51:58Z</time>
      </trkpt>
      <trkpt lat="41.983502" lon="2.305262">
        <ele>435.642</ele>
        <time>2014-06-08T04:52:13Z</time>
      </trkpt>
      <trkpt lat="41.983008" lon="2.306421">
        <ele>433.759</ele>
        <time>2014-06-08T04:52:38Z</time>
      </trkpt>
      <trkpt lat="41.982987" lon="2.306464">
        <ele>434.266</ele>
        <time>2014-06-08T04:52:39Z</time>
      </trkpt>
      <trkpt lat="41.983094" lon="2.306850">
        <ele>434.729</ele>
        <time>2014-06-08T04:52:53Z</time>
      </trkpt>
      <trkpt lat="41.982901" lon="2.307472">
        <ele>436.121</ele>
        <time>2014-06-08T04:53:14Z</time>
      </trkpt>
      <trkpt lat="41.982536" lon="2.308009">
        <ele>437.508</ele>
        <time>2014-06-08T04:53:36Z</time>
      </trkpt>
      <trkpt lat="41.982515" lon="2.308030">
        <ele>438.058</ele>
        <time>2014-06-08T04:53:37Z</time>
      </trkpt>
      <trkpt lat="41.982343" lon="2.307880">
        <ele>439.061</ele>
        <time>2014-06-08T04:53:44Z</time>
      </trkpt>
      <trkpt lat="41.981978" lon="2.307343">
        <ele>438.523</ele>
        <time>2014-06-08T04:54:02Z</time>
      </trkpt>
      <trkpt lat="41.981592" lon="2.306786">
        <ele>438.543</ele>
        <time>2014-06-08T04:54:17Z</time>
      </trkpt>
      <trkpt lat="41.981227" lon="2.306292">
        <ele>438.527</ele>
        <time>2014-06-08T04:54:27Z</time>
      </trkpt>
      <trkpt lat="41.980627" lon="2.306335">
        <ele>441.416</ele>
        <time>2014-06-08T04:54:39Z</time>
      </trkpt>
      <trkpt lat="41.979661" lon="2.306571">
        <ele>444.716</ele>
        <time>2014-06-08T04:55:02Z</time>
      </trkpt>
      <trkpt lat="41.978931" lon="2.306635">
        <ele>448.643</ele>
        <time>2014-06-08T04:55:21Z</time>
      </trkpt>
      <trkpt lat="41.978846" lon="2.306614">
        <ele>448.146</ele>
        <time>2014-06-08T04:55:23Z</time>
      </trkpt>
      <trkpt lat="41.978223" lon="2.306077">
        <ele>447.688</ele>
        <time>2014-06-08T04:55:40Z</time>
      </trkpt>
      <trkpt lat="41.977665" lon="2.305348">
        <ele>445.716</ele>
        <time>2014-06-08T04:55:54Z</time>
      </trkpt>
      <trkpt lat="41.976936" lon="2.304640">
        <ele>445.708</ele>
        <time>2014-06-08T04:56:10Z</time>
      </trkpt>
      <trkpt lat="41.976271" lon="2.304168">
        <ele>445.256</ele>
        <time>2014-06-08T04:56:24Z</time>
      </trkpt>
      <trkpt lat="41.975648" lon="2.303567">
        <ele>447.299</ele>
        <time>2014-06-08T04:56:39Z</time>
      </trkpt>
      <trkpt lat="41.975455" lon="2.303610">
        <ele>447.661</ele>
        <time>2014-06-08T04:56:45Z</time>
      </trkpt>
      <trkpt lat="41.975155" lon="2.304447">
        <ele>449.121</ele>
        <time>2014-06-08T04:57:04Z</time>
      </trkpt>
      <trkpt lat="41.974876" lon="2.305155">
        <ele>449.645</ele>
        <time>2014-06-08T04:57:21Z</time>
      </trkpt>
      <trkpt lat="41.974704" lon="2.305670">
        <ele>452.944</ele>
        <time>2014-06-08T04:57:36Z</time>
      </trkpt>
      <trkpt lat="41.974490" lon="2.306228">
        <ele>457.234</ele>
        <time>2014-06-08T04:57:54Z</time>
      </trkpt>
      <trkpt lat="41.974168" lon="2.306850">
        <ele>459.661</ele>
        <time>2014-06-08T04:58:16Z</time>
      </trkpt>
      <trkpt lat="41.973953" lon="2.307322">
        <ele>461.133</ele>
        <time>2014-06-08T04:58:31Z</time>
      </trkpt>
      <trkpt lat="41.973867" lon="2.307537">
        <ele>460.623</ele>
        <time>2014-06-08T04:58:36Z</time>
      </trkpt>
      <trkpt lat="41.973760" lon="2.308588">
        <ele>454.815</ele>
        <time>2014-06-08T04:58:52Z</time>
      </trkpt>
      <trkpt lat="41.973352" lon="2.309167">
        <ele>450.008</ele>
        <time>2014-06-08T04:59:02Z</time>
      </trkpt>
      <trkpt lat="41.973224" lon="2.309468">
        <ele>448.675</ele>
        <time>2014-06-08T04:59:06Z</time>
      </trkpt>
      <trkpt lat="41.973031" lon="2.310004">
        <ele>444.748</ele>
        <time>2014-06-08T04:59:13Z</time>
      </trkpt>
      <trkpt lat="41.972795" lon="2.310240">
        <ele>442.820</ele>
        <time>2014-06-08T04:59:18Z</time>
      </trkpt>
      <trkpt lat="41.972365" lon="2.310412">
        <ele>439.980</ele>
        <time>2014-06-08T04:59:25Z</time>
      </trkpt>
      <trkpt lat="41.972086" lon="2.310369">
        <ele>438.014</ele>
        <time>2014-06-08T04:59:30Z</time>
      </trkpt>
      <trkpt lat="41.971765" lon="2.310369">
        <ele>439.043</ele>
        <time>2014-06-08T04:59:36Z</time>
      </trkpt>
      <trkpt lat="41.971679" lon="2.310390">
        <ele>439.053</ele>
        <time>2014-06-08T04:59:38Z</time>
      </trkpt>
      <trkpt lat="41.971357" lon="2.310777">
        <ele>439.050</ele>
        <time>2014-06-08T04:59:47Z</time>
      </trkpt>
      <trkpt lat="41.970177" lon="2.311184">
        <ele>437.127</ele>
        <time>2014-06-08T05:00:15Z</time>
      </trkpt>
      <trkpt lat="41.968760" lon="2.312064">
        <ele>435.668</ele>
        <time>2014-06-08T05:00:41Z</time>
      </trkpt>
      <trkpt lat="41.967752" lon="2.313523">
        <ele>435.114</ele>
        <time>2014-06-08T05:01:10Z</time>
      </trkpt>
      <trkpt lat="41.967301" lon="2.313845">
        <ele>434.708</ele>
        <time>2014-06-08T05:01:23Z</time>
      </trkpt>
      <trkpt lat="41.966937" lon="2.314188">
        <ele>435.654</ele>
        <time>2014-06-08T05:01:33Z</time>
      </trkpt>
      <trkpt lat="41.966851" lon="2.314339">
        <ele>435.617</ele>
        <time>2014-06-08T05:01:36Z</time>
      </trkpt>
      <trkpt lat="41.966980" lon="2.315476">
        <ele>435.689</ele>
        <time>2014-06-08T05:01:49Z</time>
      </trkpt>
      <trkpt lat="41.967151" lon="2.316570">
        <ele>435.679</ele>
        <time>2014-06-08T05:02:06Z</time>
      </trkpt>
      <trkpt lat="41.967044" lon="2.317429">
        <ele>437.563</ele>
        <time>2014-06-08T05:02:30Z</time>
      </trkpt>
      <trkpt lat="41.966829" lon="2.318201">
        <ele>442.342</ele>
        <time>2014-06-08T05:02:54Z</time>
      </trkpt>
      <trkpt lat="41.966636" lon="2.319252">
        <ele>443.392</ele>
        <time>2014-06-08T05:03:21Z</time>
      </trkpt>
      <trkpt lat="41.966314" lon="2.320111">
        <ele>448.669</ele>
        <time>2014-06-08T05:03:43Z</time>
      </trkpt>
      <trkpt lat="41.966014" lon="2.320733">
        <ele>451.551</ele>
        <time>2014-06-08T05:04:03Z</time>
      </trkpt>
      <trkpt lat="41.965585" lon="2.321227">
        <ele>453.901</ele>
        <time>2014-06-08T05:04:24Z</time>
      </trkpt>
      <trkpt lat="41.965585" lon="2.321270">
        <ele>454.411</ele>
        <time>2014-06-08T05:04:25Z</time>
      </trkpt>
      <trkpt lat="41.965499" lon="2.322321">
        <ele>454.808</ele>
        <time>2014-06-08T05:04:42Z</time>
      </trkpt>
      <trkpt lat="41.965649" lon="2.322900">
        <ele>456.397</ele>
        <time>2014-06-08T05:04:54Z</time>
      </trkpt>
      <trkpt lat="41.965864" lon="2.323630">
        <ele>461.150</ele>
        <time>2014-06-08T05:05:15Z</time>
      </trkpt>
      <trkpt lat="41.965971" lon="2.324359">
        <ele>463.052</ele>
        <time>2014-06-08T05:05:34Z</time>
      </trkpt>
      <trkpt lat="41.965821" lon="2.324831">
        <ele>466.972</ele>
        <time>2014-06-08T05:05:49Z</time>
      </trkpt>
      <trkpt lat="41.965349" lon="2.325089">
        <ele>470.746</ele>
        <time>2014-06-08T05:06:11Z</time>
      </trkpt>
      <trkpt lat="41.964941" lon="2.325046">
        <ele>476.035</ele>
        <time>2014-06-08T05:06:31Z</time>
      </trkpt>
      <trkpt lat="41.964533" lon="2.324767">
        <ele>477.965</ele>
        <time>2014-06-08T05:06:54Z</time>
      </trkpt>
      <trkpt lat="41.964254" lon="2.324874">
        <ele>482.792</ele>
        <time>2014-06-08T05:07:10Z</time>
      </trkpt>
      <trkpt lat="41.963868" lon="2.325239">
        <ele>488.573</ele>
        <time>2014-06-08T05:07:34Z</time>
      </trkpt>
      <trkpt lat="41.963396" lon="2.325561">
        <ele>491.985</ele>
        <time>2014-06-08T05:07:59Z</time>
      </trkpt>
      <trkpt lat="41.962945" lon="2.325668">
        <ele>493.313</ele>
        <time>2014-06-08T05:08:19Z</time>
      </trkpt>
      <trkpt lat="41.962430" lon="2.325625">
        <ele>497.608</ele>
        <time>2014-06-08T05:08:38Z</time>
      </trkpt>
      <trkpt lat="41.962323" lon="2.325926">
        <ele>498.149</ele>
        <time>2014-06-08T05:08:52Z</time>
      </trkpt>
      <trkpt lat="41.962452" lon="2.326462">
        <ele>500.592</ele>
        <time>2014-06-08T05:09:11Z</time>
      </trkpt>
      <trkpt lat="41.962452" lon="2.326484">
        <ele>500.544</ele>
        <time>2014-06-08T05:09:12Z</time>
      </trkpt>
      <trkpt lat="41.962366" lon="2.326634">
        <ele>501.974</ele>
        <time>2014-06-08T05:09:20Z</time>
      </trkpt>
      <trkpt lat="41.961937" lon="2.326698">
        <ele>505.358</ele>
        <time>2014-06-08T05:09:44Z</time>
      </trkpt>
      <trkpt lat="41.961529" lon="2.326612">
        <ele>506.337</ele>
        <time>2014-06-08T05:10:01Z</time>
      </trkpt>
      <trkpt lat="41.961207" lon="2.326441">
        <ele>506.397</ele>
        <time>2014-06-08T05:10:18Z</time>
      </trkpt>
      <trkpt lat="41.961186" lon="2.326441">
        <ele>506.364</ele>
        <time>2014-06-08T05:10:40Z</time>
      </trkpt>
      <trkpt lat="41.961122" lon="2.326334">
        <ele>508.281</ele>
        <time>2014-06-08T05:11:21Z</time>
      </trkpt>
      <trkpt lat="41.960800" lon="2.325840">
        <ele>507.261</ele>
        <time>2014-06-08T05:11:39Z</time>
      </trkpt>
      <trkpt lat="41.960692" lon="2.325625">
        <ele>506.317</ele>
        <time>2014-06-08T05:11:43Z</time>
      </trkpt>
      <trkpt lat="41.960499" lon="2.325046">
        <ele>505.808</ele>
        <time>2014-06-08T05:11:50Z</time>
      </trkpt>
      <trkpt lat="41.960478" lon="2.324853">
        <ele>505.310</ele>
        <time>2014-06-08T05:11:52Z</time>
      </trkpt>
      <trkpt lat="41.960070" lon="2.324338">
        <ele>501.533</ele>
        <time>2014-06-08T05:11:59Z</time>
      </trkpt>
      <trkpt lat="41.959984" lon="2.324338">
        <ele>501.565</ele>
        <time>2014-06-08T05:12:00Z</time>
      </trkpt>
      <trkpt lat="41.959491" lon="2.324424">
        <ele>500.035</ele>
        <time>2014-06-08T05:12:06Z</time>
      </trkpt>
      <trkpt lat="41.959062" lon="2.324767">
        <ele>501.059</ele>
        <time>2014-06-08T05:12:16Z</time>
      </trkpt>
      <trkpt lat="41.958504" lon="2.325110">
        <ele>502.438</ele>
        <time>2014-06-08T05:12:33Z</time>
      </trkpt>
      <trkpt lat="41.958053" lon="2.325218">
        <ele>504.348</ele>
        <time>2014-06-08T05:12:50Z</time>
      </trkpt>
      <trkpt lat="41.957731" lon="2.325282">
        <ele>505.335</ele>
        <time>2014-06-08T05:13:04Z</time>
      </trkpt>
      <trkpt lat="41.957238" lon="2.325411">
        <ele>509.296</ele>
        <time>2014-06-08T05:13:22Z</time>
      </trkpt>
      <trkpt lat="41.956744" lon="2.325604">
        <ele>512.031</ele>
        <time>2014-06-08T05:13:41Z</time>
      </trkpt>
      <trkpt lat="41.956165" lon="2.325840">
        <ele>514.024</ele>
        <time>2014-06-08T05:14:04Z</time>
      </trkpt>
      <trkpt lat="41.955822" lon="2.326162">
        <ele>516.808</ele>
        <time>2014-06-08T05:14:20Z</time>
      </trkpt>
      <trkpt lat="41.955457" lon="2.326548">
        <ele>519.741</ele>
        <time>2014-06-08T05:14:39Z</time>
      </trkpt>
      <trkpt lat="41.954920" lon="2.326677">
        <ele>523.624</ele>
        <time>2014-06-08T05:15:01Z</time>
      </trkpt>
      <trkpt lat="41.954362" lon="2.326763">
        <ele>525.526</ele>
        <time>2014-06-08T05:15:23Z</time>
      </trkpt>
      <trkpt lat="41.954319" lon="2.326784">
        <ele>526.066</ele>
        <time>2014-06-08T05:15:25Z</time>
      </trkpt>
      <trkpt lat="41.954362" lon="2.326934">
        <ele>526.970</ele>
        <time>2014-06-08T05:15:30Z</time>
      </trkpt>
      <trkpt lat="41.954727" lon="2.327535">
        <ele>527.969</ele>
        <time>2014-06-08T05:15:52Z</time>
      </trkpt>
      <trkpt lat="41.954899" lon="2.328072">
        <ele>533.779</ele>
        <time>2014-06-08T05:16:10Z</time>
      </trkpt>
      <trkpt lat="41.954942" lon="2.328694">
        <ele>537.556</ele>
        <time>2014-06-08T05:16:30Z</time>
      </trkpt>
      <trkpt lat="41.954813" lon="2.329509">
        <ele>547.135</ele>
        <time>2014-06-08T05:16:55Z</time>
      </trkpt>
      <trkpt lat="41.954448" lon="2.330196">
        <ele>551.986</ele>
        <time>2014-06-08T05:17:20Z</time>
      </trkpt>
      <trkpt lat="41.954105" lon="2.330754">
        <ele>557.714</ele>
        <time>2014-06-08T05:17:44Z</time>
      </trkpt>
      <trkpt lat="41.953740" lon="2.331355">
        <ele>557.708</ele>
        <time>2014-06-08T05:18:09Z</time>
      </trkpt>
      <trkpt lat="41.953504" lon="2.331998">
        <ele>563.085</ele>
        <time>2014-06-08T05:18:33Z</time>
      </trkpt>
      <trkpt lat="41.953461" lon="2.332792">
        <ele>569.258</ele>
        <time>2014-06-08T05:18:59Z</time>
      </trkpt>
      <trkpt lat="41.953397" lon="2.333565">
        <ele>572.130</ele>
        <time>2014-06-08T05:19:25Z</time>
      </trkpt>
      <trkpt lat="41.953611" lon="2.333994">
        <ele>576.010</ele>
        <time>2014-06-08T05:19:42Z</time>
      </trkpt>
      <trkpt lat="41.954019" lon="2.334337">
        <ele>578.494</ele>
        <time>2014-06-08T05:20:01Z</time>
      </trkpt>
      <trkpt lat="41.954319" lon="2.334852">
        <ele>581.383</ele>
        <time>2014-06-08T05:20:21Z</time>
      </trkpt>
      <trkpt lat="41.954598" lon="2.335389">
        <ele>581.353</ele>
        <time>2014-06-08T05:20:41Z</time>
      </trkpt>
      <trkpt lat="41.955221" lon="2.335861">
        <ele>580.310</ele>
        <time>2014-06-08T05:21:10Z</time>
      </trkpt>
      <trkpt lat="41.955800" lon="2.336268">
        <ele>585.637</ele>
        <time>2014-06-08T05:21:38Z</time>
      </trkpt>
      <trkpt lat="41.956315" lon="2.336612">
        <ele>591.349</ele>
        <time>2014-06-08T05:22:03Z</time>
      </trkpt>
      <trkpt lat="41.956851" lon="2.337041">
        <ele>594.213</ele>
        <time>2014-06-08T05:22:29Z</time>
      </trkpt>
      <trkpt lat="41.957195" lon="2.337470">
        <ele>596.608</ele>
        <time>2014-06-08T05:22:48Z</time>
      </trkpt>
      <trkpt lat="41.957474" lon="2.338049">
        <ele>601.935</ele>
        <time>2014-06-08T05:23:10Z</time>
      </trkpt>
      <trkpt lat="41.957538" lon="2.338500">
        <ele>605.338</ele>
        <time>2014-06-08T05:23:25Z</time>
      </trkpt>
      <trkpt lat="41.957517" lon="2.338629">
        <ele>605.350</ele>
        <time>2014-06-08T05:23:29Z</time>
      </trkpt>
      <trkpt lat="41.957431" lon="2.339144">
        <ele>606.260</ele>
        <time>2014-06-08T05:23:46Z</time>
      </trkpt>
      <trkpt lat="41.957216" lon="2.339530">
        <ele>610.134</ele>
        <time>2014-06-08T05:24:02Z</time>
      </trkpt>
      <trkpt lat="41.956787" lon="2.339745">
        <ele>612.593</ele>
        <time>2014-06-08T05:24:21Z</time>
      </trkpt>
      <trkpt lat="41.956251" lon="2.339745">
        <ele>611.153</ele>
        <time>2014-06-08T05:24:39Z</time>
      </trkpt>
      <trkpt lat="41.956058" lon="2.339745">
        <ele>610.180</ele>
        <time>2014-06-08T05:24:51Z</time>
      </trkpt>
      <trkpt lat="41.956058" lon="2.339723">
        <ele>610.151</ele>
        <time>2014-06-08T05:25:06Z</time>
      </trkpt>
      <trkpt lat="41.955693" lon="2.339551">
        <ele>608.201</ele>
        <time>2014-06-08T05:25:19Z</time>
      </trkpt>
      <trkpt lat="41.955543" lon="2.339509">
        <ele>607.211</ele>
        <time>2014-06-08T05:25:22Z</time>
      </trkpt>
      <trkpt lat="41.954577" lon="2.339251">
        <ele>603.408</ele>
        <time>2014-06-08T05:25:37Z</time>
      </trkpt>
      <trkpt lat="41.953826" lon="2.339079">
        <ele>600.027</ele>
        <time>2014-06-08T05:25:47Z</time>
      </trkpt>
      <trkpt lat="41.953397" lon="2.339358">
        <ele>598.610</ele>
        <time>2014-06-08T05:25:53Z</time>
      </trkpt>
      <trkpt lat="41.953139" lon="2.340281">
        <ele>597.192</ele>
        <time>2014-06-08T05:26:01Z</time>
      </trkpt>
      <trkpt lat="41.953375" lon="2.340817">
        <ele>596.692</ele>
        <time>2014-06-08T05:26:06Z</time>
      </trkpt>
      <trkpt lat="41.954277" lon="2.341890">
        <ele>594.226</ele>
        <time>2014-06-08T05:26:22Z</time>
      </trkpt>
      <trkpt lat="41.954534" lon="2.342384">
        <ele>595.725</ele>
        <time>2014-06-08T05:26:30Z</time>
      </trkpt>
      <trkpt lat="41.955006" lon="2.343843">
        <ele>598.125</ele>
        <time>2014-06-08T05:26:57Z</time>
      </trkpt>
      <trkpt lat="41.955414" lon="2.345088">
        <ele>606.252</ele>
        <time>2014-06-08T05:27:23Z</time>
      </trkpt>
      <trkpt lat="41.955585" lon="2.346075">
        <ele>611.582</ele>
        <time>2014-06-08T05:27:45Z</time>
      </trkpt>
      <trkpt lat="41.955714" lon="2.346997">
        <ele>616.343</ele>
        <time>2014-06-08T05:28:07Z</time>
      </trkpt>
      <trkpt lat="41.955779" lon="2.347727">
        <ele>620.217</ele>
        <time>2014-06-08T05:28:27Z</time>
      </trkpt>
      <trkpt lat="41.955950" lon="2.348285">
        <ele>621.108</ele>
        <time>2014-06-08T05:28:44Z</time>
      </trkpt>
      <trkpt lat="41.956379" lon="2.348907">
        <ele>624.040</ele>
        <time>2014-06-08T05:29:09Z</time>
      </trkpt>
      <trkpt lat="41.956723" lon="2.349336">
        <ele>630.313</ele>
        <time>2014-06-08T05:29:29Z</time>
      </trkpt>
      <trkpt lat="41.956937" lon="2.349615">
        <ele>633.265</ele>
        <time>2014-06-08T05:29:44Z</time>
      </trkpt>
      <trkpt lat="41.957302" lon="2.350087">
        <ele>635.175</ele>
        <time>2014-06-08T05:30:06Z</time>
      </trkpt>
      <trkpt lat="41.957774" lon="2.350323">
        <ele>634.129</ele>
        <time>2014-06-08T05:30:24Z</time>
      </trkpt>
      <trkpt lat="41.958139" lon="2.350066">
        <ele>632.758</ele>
        <time>2014-06-08T05:30:38Z</time>
      </trkpt>
      <trkpt lat="41.958718" lon="2.349658">
        <ele>630.848</ele>
        <time>2014-06-08T05:30:52Z</time>
      </trkpt>
      <trkpt lat="41.959469" lon="2.349443">
        <ele>628.885</ele>
        <time>2014-06-08T05:31:04Z</time>
      </trkpt>
      <trkpt lat="41.959727" lon="2.349465">
        <ele>628.423</ele>
        <time>2014-06-08T05:31:07Z</time>
      </trkpt>
      <trkpt lat="41.960328" lon="2.349401">
        <ele>627.983</ele>
        <time>2014-06-08T05:31:14Z</time>
      </trkpt>
      <trkpt lat="41.962023" lon="2.348070">
        <ele>615.411</ele>
        <time>2014-06-08T05:31:33Z</time>
      </trkpt>
      <trkpt lat="41.962194" lon="2.347941">
        <ele>614.408</ele>
        <time>2014-06-08T05:31:35Z</time>
      </trkpt>
      <trkpt lat="41.962817" lon="2.347705">
        <ele>611.564</ele>
        <time>2014-06-08T05:31:41Z</time>
      </trkpt>
      <trkpt lat="41.963053" lon="2.347727">
        <ele>610.647</ele>
        <time>2014-06-08T05:31:43Z</time>
      </trkpt>
      <trkpt lat="41.964018" lon="2.348263">
        <ele>605.829</ele>
        <time>2014-06-08T05:31:54Z</time>
      </trkpt>
      <trkpt lat="41.964362" lon="2.348542">
        <ele>605.859</ele>
        <time>2014-06-08T05:31:59Z</time>
      </trkpt>
      <trkpt lat="41.964619" lon="2.349122">
        <ele>605.343</ele>
        <time>2014-06-08T05:32:09Z</time>
      </trkpt>
      <trkpt lat="41.964726" lon="2.349787">
        <ele>606.222</ele>
        <time>2014-06-08T05:32:28Z</time>
      </trkpt>
      <trkpt lat="41.964877" lon="2.350688">
        <ele>609.642</ele>
        <time>2014-06-08T05:32:51Z</time>
      </trkpt>
      <trkpt lat="41.965113" lon="2.351503">
        <ele>603.869</ele>
        <time>2014-06-08T05:33:03Z</time>
      </trkpt>
      <trkpt lat="41.965885" lon="2.352920">
        <ele>596.255</ele>
        <time>2014-06-08T05:33:16Z</time>
      </trkpt>
      <trkpt lat="41.967044" lon="2.355044">
        <ele>584.607</ele>
        <time>2014-06-08T05:33:34Z</time>
      </trkpt>
      <trkpt lat="41.967366" lon="2.355666">
        <ele>583.217</ele>
        <time>2014-06-08T05:33:39Z</time>
      </trkpt>
      <trkpt lat="41.967580" lon="2.356353">
        <ele>581.308</ele>
        <time>2014-06-08T05:33:44Z</time>
      </trkpt>
      <trkpt lat="41.967623" lon="2.357426">
        <ele>582.257</ele>
        <time>2014-06-08T05:33:55Z</time>
      </trkpt>
      <trkpt lat="41.967623" lon="2.358198">
        <ele>582.750</ele>
        <time>2014-06-08T05:34:05Z</time>
      </trkpt>
      <trkpt lat="41.967709" lon="2.358584">
        <ele>582.282</ele>
        <time>2014-06-08T05:34:10Z</time>
      </trkpt>
      <trkpt lat="41.968031" lon="2.359142">
        <ele>581.322</ele>
        <time>2014-06-08T05:34:19Z</time>
      </trkpt>
      <trkpt lat="41.968074" lon="2.359271">
        <ele>581.316</ele>
        <time>2014-06-08T05:34:21Z</time>
      </trkpt>
      <trkpt lat="41.968074" lon="2.359486">
        <ele>581.325</ele>
        <time>2014-06-08T05:34:24Z</time>
      </trkpt>
      <trkpt lat="41.968246" lon="2.360086">
        <ele>582.215</ele>
        <time>2014-06-08T05:34:35Z</time>
      </trkpt>
      <trkpt lat="41.968331" lon="2.360258">
        <ele>582.782</ele>
        <time>2014-06-08T05:34:39Z</time>
      </trkpt>
      <trkpt lat="41.968975" lon="2.360752">
        <ele>584.623</ele>
        <time>2014-06-08T05:34:57Z</time>
      </trkpt>
      <trkpt lat="41.968997" lon="2.360795">
        <ele>584.683</ele>
        <time>2014-06-08T05:34:58Z</time>
      </trkpt>
      <trkpt lat="41.969061" lon="2.360966">
        <ele>584.111</ele>
        <time>2014-06-08T05:35:01Z</time>
      </trkpt>
      <trkpt lat="41.969082" lon="2.362254">
        <ele>580.308</ele>
        <time>2014-06-08T05:35:23Z</time>
      </trkpt>
      <trkpt lat="41.969254" lon="2.363477">
        <ele>584.194</ele>
        <time>2014-06-08T05:35:45Z</time>
      </trkpt>
      <trkpt lat="41.969361" lon="2.364035">
        <ele>583.787</ele>
        <time>2014-06-08T05:35:55Z</time>
      </trkpt>
      <trkpt lat="41.969855" lon="2.364442">
        <ele>585.649</ele>
        <time>2014-06-08T05:36:10Z</time>
      </trkpt>
      <trkpt lat="41.970370" lon="2.364807">
        <ele>586.529</ele>
        <time>2014-06-08T05:36:26Z</time>
      </trkpt>
      <trkpt lat="41.970413" lon="2.364893">
        <ele>586.563</ele>
        <time>2014-06-08T05:36:28Z</time>
      </trkpt>
      <trkpt lat="41.970863" lon="2.365623">
        <ele>586.172</ele>
        <time>2014-06-08T05:36:42Z</time>
      </trkpt>
      <trkpt lat="41.971271" lon="2.365429">
        <ele>586.152</ele>
        <time>2014-06-08T05:36:48Z</time>
      </trkpt>
      <trkpt lat="41.971657" lon="2.364743">
        <ele>582.239</ele>
        <time>2014-06-08T05:36:55Z</time>
      </trkpt>
      <trkpt lat="41.972301" lon="2.364550">
        <ele>574.031</ele>
        <time>2014-06-08T05:37:02Z</time>
      </trkpt>
      <trkpt lat="41.972880" lon="2.364485">
        <ele>567.361</ele>
        <time>2014-06-08T05:37:09Z</time>
      </trkpt>
      <trkpt lat="41.972988" lon="2.364292">
        <ele>566.407</ele>
        <time>2014-06-08T05:37:11Z</time>
      </trkpt>
      <trkpt lat="41.973181" lon="2.363477">
        <ele>564.008</ele>
        <time>2014-06-08T05:37:17Z</time>
      </trkpt>
      <trkpt lat="41.973481" lon="2.362983">
        <ele>558.275</ele>
        <time>2014-06-08T05:37:21Z</time>
      </trkpt>
      <trkpt lat="41.974833" lon="2.361846">
        <ele>546.638</ele>
        <time>2014-06-08T05:37:34Z</time>
      </trkpt>
      <trkpt lat="41.975005" lon="2.361717">
        <ele>545.750</ele>
        <time>2014-06-08T05:37:36Z</time>
      </trkpt>
      <trkpt lat="41.975305" lon="2.361739">
        <ele>543.810</ele>
        <time>2014-06-08T05:37:42Z</time>
      </trkpt>
      <trkpt lat="41.975305" lon="2.361825">
        <ele>543.844</ele>
        <time>2014-06-08T05:37:44Z</time>
      </trkpt>
      <trkpt lat="41.975305" lon="2.361889">
        <ele>542.893</ele>
        <time>2014-06-08T05:37:46Z</time>
      </trkpt>
      <trkpt lat="41.975391" lon="2.361910">
        <ele>541.823</ele>
        <time>2014-06-08T05:37:50Z</time>
      </trkpt>
      <trkpt lat="41.975412" lon="2.361910">
        <ele>541.410</ele>
        <time>2014-06-08T05:37:52Z</time>
      </trkpt>
      <trkpt lat="41.975412" lon="2.361803">
        <ele>540.967</ele>
        <time>2014-06-08T05:37:56Z</time>
      </trkpt>
      <trkpt lat="41.975391" lon="2.361739">
        <ele>541.481</ele>
        <time>2014-06-08T05:37:59Z</time>
      </trkpt>
      <trkpt lat="41.975434" lon="2.361696">
        <ele>540.919</ele>
        <time>2014-06-08T05:38:03Z</time>
      </trkpt>
      <trkpt lat="41.975477" lon="2.361696">
        <ele>539.908</ele>
        <time>2014-06-08T05:38:05Z</time>
      </trkpt>
      <trkpt lat="41.975434" lon="2.361867">
        <ele>539.018</ele>
        <time>2014-06-08T05:38:13Z</time>
      </trkpt>
      <trkpt lat="41.975327" lon="2.361932">
        <ele>538.051</ele>
        <time>2014-06-08T05:38:26Z</time>
      </trkpt>
      <trkpt lat="41.975305" lon="2.361932">
        <ele>538.093</ele>
        <time>2014-06-08T05:38:45Z</time>
      </trkpt>
      <trkpt lat="41.975305" lon="2.361932">
        <ele>534.643</ele>
        <time>2014-06-08T05:39:04Z</time>
      </trkpt>
      <trkpt lat="41.975305" lon="2.361910">
        <ele>540.957</ele>
        <time>2014-06-08T05:41:08Z</time>
      </trkpt>
      <trkpt lat="41.975241" lon="2.361717">
        <ele>540.956</ele>
        <time>2014-06-08T05:41:18Z</time>
      </trkpt>
      <trkpt lat="41.975069" lon="2.361910">
        <ele>539.426</ele>
        <time>2014-06-08T05:41:26Z</time>
      </trkpt>
      <trkpt lat="41.974854" lon="2.362232">
        <ele>539.473</ele>
        <time>2014-06-08T05:41:32Z</time>
      </trkpt>
      <trkpt lat="41.974940" lon="2.362812">
        <ele>536.662</ele>
        <time>2014-06-08T05:41:40Z</time>
      </trkpt>
      <trkpt lat="41.975026" lon="2.362833">
        <ele>534.683</ele>
        <time>2014-06-08T05:41:41Z</time>
      </trkpt>
      <trkpt lat="41.975327" lon="2.363133">
        <ele>527.911</ele>
        <time>2014-06-08T05:41:48Z</time>
      </trkpt>
      <trkpt lat="41.975305" lon="2.363176">
        <ele>527.408</ele>
        <time>2014-06-08T05:41:49Z</time>
      </trkpt>
      <trkpt lat="41.975112" lon="2.363369">
        <ele>526.958</ele>
        <time>2014-06-08T05:41:54Z</time>
      </trkpt>
      <trkpt lat="41.974125" lon="2.364550">
        <ele>526.551</ele>
        <time>2014-06-08T05:42:11Z</time>
      </trkpt>
      <trkpt lat="41.974018" lon="2.364700">
        <ele>526.583</ele>
        <time>2014-06-08T05:42:13Z</time>
      </trkpt>
      <trkpt lat="41.973996" lon="2.365193">
        <ele>523.623</ele>
        <time>2014-06-08T05:42:20Z</time>
      </trkpt>
      <trkpt lat="41.974103" lon="2.365322">
        <ele>523.627</ele>
        <time>2014-06-08T05:42:23Z</time>
      </trkpt>
      <trkpt lat="41.974468" lon="2.365623">
        <ele>522.666</ele>
        <time>2014-06-08T05:42:30Z</time>
      </trkpt>
      <trkpt lat="41.974533" lon="2.366009">
        <ele>522.666</ele>
        <time>2014-06-08T05:42:34Z</time>
      </trkpt>
      <trkpt lat="41.974468" lon="2.367361">
        <ele>522.613</ele>
        <time>2014-06-08T05:42:43Z</time>
      </trkpt>
      <trkpt lat="41.974189" lon="2.368283">
        <ele>522.678</ele>
        <time>2014-06-08T05:42:50Z</time>
      </trkpt>
      <trkpt lat="41.974211" lon="2.368884">
        <ele>520.733</ele>
        <time>2014-06-08T05:42:57Z</time>
      </trkpt>
      <trkpt lat="41.974297" lon="2.369463">
        <ele>516.426</ele>
        <time>2014-06-08T05:43:11Z</time>
      </trkpt>
      <trkpt lat="41.974297" lon="2.370708">
        <ele>512.508</ele>
        <time>2014-06-08T05:43:46Z</time>
      </trkpt>
      <trkpt lat="41.974297" lon="2.370729">
        <ele>512.579</ele>
        <time>2014-06-08T05:43:47Z</time>
      </trkpt>
      <trkpt lat="41.974382" lon="2.370901">
        <ele>509.212</ele>
        <time>2014-06-08T05:44:02Z</time>
      </trkpt>
      <trkpt lat="41.974404" lon="2.370901">
        <ele>508.264</ele>
        <time>2014-06-08T05:44:03Z</time>
      </trkpt>
      <trkpt lat="41.974425" lon="2.371008">
        <ele>505.324</ele>
        <time>2014-06-08T05:44:11Z</time>
      </trkpt>
      <trkpt lat="41.974318" lon="2.371244">
        <ele>503.478</ele>
        <time>2014-06-08T05:44:23Z</time>
      </trkpt>
      <trkpt lat="41.974318" lon="2.372146">
        <ele>500.547</ele>
        <time>2014-06-08T05:44:45Z</time>
      </trkpt>
      <trkpt lat="41.973932" lon="2.373691">
        <ele>497.667</ele>
        <time>2014-06-08T05:45:10Z</time>
      </trkpt>
      <trkpt lat="41.973310" lon="2.375042">
        <ele>497.174</ele>
        <time>2014-06-08T05:45:38Z</time>
      </trkpt>
      <trkpt lat="41.972923" lon="2.375836">
        <ele>496.266</ele>
        <time>2014-06-08T05:46:03Z</time>
      </trkpt>
      <trkpt lat="41.972408" lon="2.376523">
        <ele>495.729</ele>
        <time>2014-06-08T05:46:29Z</time>
      </trkpt>
      <trkpt lat="41.971893" lon="2.377188">
        <ele>496.221</ele>
        <time>2014-06-08T05:46:55Z</time>
      </trkpt>
      <trkpt lat="41.971807" lon="2.377274">
        <ele>495.708</ele>
        <time>2014-06-08T05:47:00Z</time>
      </trkpt>
      <trkpt lat="41.971829" lon="2.378261">
        <ele>494.738</ele>
        <time>2014-06-08T05:47:16Z</time>
      </trkpt>
      <trkpt lat="41.971722" lon="2.378540">
        <ele>493.381</ele>
        <time>2014-06-08T05:47:19Z</time>
      </trkpt>
      <trkpt lat="41.971593" lon="2.379806">
        <ele>491.423</ele>
        <time>2014-06-08T05:47:29Z</time>
      </trkpt>
      <trkpt lat="41.971550" lon="2.380064">
        <ele>491.453</ele>
        <time>2014-06-08T05:47:31Z</time>
      </trkpt>
      <trkpt lat="41.971443" lon="2.380257">
        <ele>491.437</ele>
        <time>2014-06-08T05:47:33Z</time>
      </trkpt>
      <trkpt lat="41.970155" lon="2.380579">
        <ele>489.936</ele>
        <time>2014-06-08T05:47:48Z</time>
      </trkpt>
      <trkpt lat="41.969705" lon="2.380965">
        <ele>487.526</ele>
        <time>2014-06-08T05:48:08Z</time>
      </trkpt>
      <trkpt lat="41.969061" lon="2.381523">
        <ele>483.773</ele>
        <time>2014-06-08T05:48:28Z</time>
      </trkpt>
      <trkpt lat="41.968396" lon="2.381845">
        <ele>478.927</ele>
        <time>2014-06-08T05:48:46Z</time>
      </trkpt>
      <trkpt lat="41.967945" lon="2.381737">
        <ele>478.468</ele>
        <time>2014-06-08T05:48:57Z</time>
      </trkpt>
      <trkpt lat="41.967752" lon="2.381737">
        <ele>478.414</ele>
        <time>2014-06-08T05:49:03Z</time>
      </trkpt>
      <trkpt lat="41.967752" lon="2.381995">
        <ele>477.008</ele>
        <time>2014-06-08T05:49:07Z</time>
      </trkpt>
      <trkpt lat="41.967838" lon="2.382360">
        <ele>476.024</ele>
        <time>2014-06-08T05:49:11Z</time>
      </trkpt>
      <trkpt lat="41.967988" lon="2.382810">
        <ele>476.087</ele>
        <time>2014-06-08T05:49:16Z</time>
      </trkpt>
      <trkpt lat="41.968031" lon="2.383282">
        <ele>476.099</ele>
        <time>2014-06-08T05:49:21Z</time>
      </trkpt>
      <trkpt lat="41.968095" lon="2.383389">
        <ele>476.099</ele>
        <time>2014-06-08T05:49:23Z</time>
      </trkpt>
      <trkpt lat="41.968353" lon="2.383583">
        <ele>474.153</ele>
        <time>2014-06-08T05:49:29Z</time>
      </trkpt>
      <trkpt lat="41.968439" lon="2.384119">
        <ele>474.142</ele>
        <time>2014-06-08T05:49:39Z</time>
      </trkpt>
      <trkpt lat="41.967816" lon="2.384140">
        <ele>475.072</ele>
        <time>2014-06-08T05:49:57Z</time>
      </trkpt>
      <trkpt lat="41.967494" lon="2.384269">
        <ele>475.099</ele>
        <time>2014-06-08T05:50:06Z</time>
      </trkpt>
      <trkpt lat="41.967838" lon="2.385042">
        <ele>471.776</ele>
        <time>2014-06-08T05:50:22Z</time>
      </trkpt>
      <trkpt lat="41.968052" lon="2.385728">
        <ele>471.790</ele>
        <time>2014-06-08T05:50:37Z</time>
      </trkpt>
      <trkpt lat="41.967924" lon="2.385857">
        <ele>471.219</ele>
        <time>2014-06-08T05:50:41Z</time>
      </trkpt>
      <trkpt lat="41.967580" lon="2.386200">
        <ele>471.708</ele>
        <time>2014-06-08T05:50:55Z</time>
      </trkpt>
      <trkpt lat="41.967323" lon="2.386436">
        <ele>472.119</ele>
        <time>2014-06-08T05:51:04Z</time>
      </trkpt>
      <trkpt lat="41.967108" lon="2.386458">
        <ele>469.762</ele>
        <time>2014-06-08T05:51:08Z</time>
      </trkpt>
      <trkpt lat="41.966658" lon="2.386458">
        <ele>469.784</ele>
        <time>2014-06-08T05:51:14Z</time>
      </trkpt>
      <trkpt lat="41.966593" lon="2.386780">
        <ele>467.364</ele>
        <time>2014-06-08T05:51:19Z</time>
      </trkpt>
      <trkpt lat="41.966658" lon="2.387531">
        <ele>465.988</ele>
        <time>2014-06-08T05:51:32Z</time>
      </trkpt>
      <trkpt lat="41.966507" lon="2.387552">
        <ele>464.957</ele>
        <time>2014-06-08T05:51:36Z</time>
      </trkpt>
      <trkpt lat="41.966314" lon="2.387574">
        <ele>463.057</ele>
        <time>2014-06-08T05:51:40Z</time>
      </trkpt>
      <trkpt lat="41.965842" lon="2.387896">
        <ele>463.524</ele>
        <time>2014-06-08T05:51:56Z</time>
      </trkpt>
      <trkpt lat="41.965671" lon="2.388024">
        <ele>461.149</ele>
        <time>2014-06-08T05:52:00Z</time>
      </trkpt>
      <trkpt lat="41.964769" lon="2.387552">
        <ele>455.302</ele>
        <time>2014-06-08T05:52:14Z</time>
      </trkpt>
      <trkpt lat="41.963868" lon="2.387123">
        <ele>453.922</ele>
        <time>2014-06-08T05:52:36Z</time>
      </trkpt>
      <trkpt lat="41.963267" lon="2.387016">
        <ele>452.908</ele>
        <time>2014-06-08T05:52:55Z</time>
      </trkpt>
      <trkpt lat="41.962752" lon="2.387123">
        <ele>453.456</ele>
        <time>2014-06-08T05:53:17Z</time>
      </trkpt>
      <trkpt lat="41.962688" lon="2.387810">
        <ele>452.939</ele>
        <time>2014-06-08T05:53:41Z</time>
      </trkpt>
      <trkpt lat="41.963160" lon="2.387960">
        <ele>454.841</ele>
        <time>2014-06-08T05:53:57Z</time>
      </trkpt>
      <trkpt lat="41.963267" lon="2.388003">
        <ele>454.831</ele>
        <time>2014-06-08T05:54:00Z</time>
      </trkpt>
      <trkpt lat="41.963418" lon="2.388432">
        <ele>455.385</ele>
        <time>2014-06-08T05:54:05Z</time>
      </trkpt>
      <trkpt lat="41.963739" lon="2.388883">
        <ele>455.384</ele>
        <time>2014-06-08T05:54:11Z</time>
      </trkpt>
      <trkpt lat="41.963868" lon="2.389011">
        <ele>455.324</ele>
        <time>2014-06-08T05:54:13Z</time>
      </trkpt>
      <trkpt lat="41.963933" lon="2.389205">
        <ele>455.321</ele>
        <time>2014-06-08T05:54:15Z</time>
      </trkpt>
      <trkpt lat="41.963954" lon="2.389398">
        <ele>455.361</ele>
        <time>2014-06-08T05:54:17Z</time>
      </trkpt>
      <trkpt lat="41.964104" lon="2.389548">
        <ele>455.321</ele>
        <time>2014-06-08T05:54:20Z</time>
      </trkpt>
      <trkpt lat="41.964405" lon="2.389634">
        <ele>454.813</ele>
        <time>2014-06-08T05:54:25Z</time>
      </trkpt>
      <trkpt lat="41.964490" lon="2.389698">
        <ele>453.908</ele>
        <time>2014-06-08T05:54:27Z</time>
      </trkpt>
      <trkpt lat="41.964662" lon="2.389891">
        <ele>454.418</ele>
        <time>2014-06-08T05:54:31Z</time>
      </trkpt>
      <trkpt lat="41.964834" lon="2.390084">
        <ele>453.941</ele>
        <time>2014-06-08T05:54:35Z</time>
      </trkpt>
      <trkpt lat="41.965435" lon="2.390449">
        <ele>452.423</ele>
        <time>2014-06-08T05:54:50Z</time>
      </trkpt>
      <trkpt lat="41.965456" lon="2.390471">
        <ele>452.443</ele>
        <time>2014-06-08T05:54:51Z</time>
      </trkpt>
      <trkpt lat="41.965499" lon="2.390707">
        <ele>452.027</ele>
        <time>2014-06-08T05:54:56Z</time>
      </trkpt>
      <trkpt lat="41.965220" lon="2.391286">
        <ele>452.416</ele>
        <time>2014-06-08T05:55:17Z</time>
      </trkpt>
      <trkpt lat="41.964984" lon="2.391865">
        <ele>452.436</ele>
        <time>2014-06-08T05:55:41Z</time>
      </trkpt>
      <trkpt lat="41.965241" lon="2.392530">
        <ele>452.473</ele>
        <time>2014-06-08T05:56:03Z</time>
      </trkpt>
      <trkpt lat="41.965413" lon="2.393003">
        <ele>452.485</ele>
        <time>2014-06-08T05:56:17Z</time>
      </trkpt>
      <trkpt lat="41.965370" lon="2.393346">
        <ele>452.489</ele>
        <time>2014-06-08T05:56:21Z</time>
      </trkpt>
      <trkpt lat="41.965499" lon="2.394054">
        <ele>452.017</ele>
        <time>2014-06-08T05:56:28Z</time>
      </trkpt>
      <trkpt lat="41.965435" lon="2.394891">
        <ele>452.008</ele>
        <time>2014-06-08T05:56:37Z</time>
      </trkpt>
      <trkpt lat="41.965392" lon="2.395020">
        <ele>451.020</ele>
        <time>2014-06-08T05:56:40Z</time>
      </trkpt>
      <trkpt lat="41.965027" lon="2.395406">
        <ele>449.113</ele>
        <time>2014-06-08T05:57:00Z</time>
      </trkpt>
      <trkpt lat="41.964555" lon="2.395985">
        <ele>450.555</ele>
        <time>2014-06-08T05:57:32Z</time>
      </trkpt>
      <trkpt lat="41.964297" lon="2.396650">
        <ele>452.945</ele>
        <time>2014-06-08T05:57:55Z</time>
      </trkpt>
      <trkpt lat="41.963868" lon="2.397466">
        <ele>453.959</ele>
        <time>2014-06-08T05:58:16Z</time>
      </trkpt>
      <trkpt lat="41.963804" lon="2.397573">
        <ele>453.978</ele>
        <time>2014-06-08T05:58:19Z</time>
      </trkpt>
      <trkpt lat="41.963675" lon="2.397616">
        <ele>453.928</ele>
        <time>2014-06-08T05:58:22Z</time>
      </trkpt>
      <trkpt lat="41.963289" lon="2.397122">
        <ele>455.325</ele>
        <time>2014-06-08T05:58:35Z</time>
      </trkpt>
      <trkpt lat="41.962988" lon="2.396629">
        <ele>455.863</ele>
        <time>2014-06-08T05:58:52Z</time>
      </trkpt>
      <trkpt lat="41.962881" lon="2.396586">
        <ele>455.844</ele>
        <time>2014-06-08T05:58:56Z</time>
      </trkpt>
      <trkpt lat="41.962774" lon="2.396629">
        <ele>455.818</ele>
        <time>2014-06-08T05:58:59Z</time>
      </trkpt>
      <trkpt lat="41.962581" lon="2.397401">
        <ele>456.308</ele>
        <time>2014-06-08T05:59:20Z</time>
      </trkpt>
      <trkpt lat="41.962302" lon="2.398067">
        <ele>456.878</ele>
        <time>2014-06-08T05:59:45Z</time>
      </trkpt>
      <trkpt lat="41.961980" lon="2.398345">
        <ele>457.271</ele>
        <time>2014-06-08T06:00:00Z</time>
      </trkpt>
      <trkpt lat="41.961637" lon="2.398217">
        <ele>456.383</ele>
        <time>2014-06-08T06:00:07Z</time>
      </trkpt>
      <trkpt lat="41.961358" lon="2.398217">
        <ele>456.813</ele>
        <time>2014-06-08T06:00:11Z</time>
      </trkpt>
      <trkpt lat="41.961207" lon="2.398217">
        <ele>456.377</ele>
        <time>2014-06-08T06:00:13Z</time>
      </trkpt>
      <trkpt lat="41.961057" lon="2.398152">
        <ele>456.366</ele>
        <time>2014-06-08T06:00:15Z</time>
      </trkpt>
      <trkpt lat="41.960306" lon="2.397873">
        <ele>456.396</ele>
        <time>2014-06-08T06:00:28Z</time>
      </trkpt>
      <trkpt lat="41.959641" lon="2.397680">
        <ele>454.833</ele>
        <time>2014-06-08T06:00:45Z</time>
      </trkpt>
      <trkpt lat="41.959276" lon="2.397401">
        <ele>456.874</ele>
        <time>2014-06-08T06:01:00Z</time>
      </trkpt>
      <trkpt lat="41.959083" lon="2.397423">
        <ele>457.756</ele>
        <time>2014-06-08T06:01:08Z</time>
      </trkpt>
      <trkpt lat="41.958396" lon="2.396994">
        <ele>456.321</ele>
        <time>2014-06-08T06:01:32Z</time>
      </trkpt>
      <trkpt lat="41.957924" lon="2.396908">
        <ele>457.708</ele>
        <time>2014-06-08T06:01:48Z</time>
      </trkpt>
      <trkpt lat="41.957946" lon="2.397122">
        <ele>457.779</ele>
        <time>2014-06-08T06:01:52Z</time>
      </trkpt>
      <trkpt lat="41.958117" lon="2.397401">
        <ele>457.762</ele>
        <time>2014-06-08T06:01:56Z</time>
      </trkpt>
      <trkpt lat="41.958547" lon="2.397895">
        <ele>462.144</ele>
        <time>2014-06-08T06:02:12Z</time>
      </trkpt>
      <trkpt lat="41.958740" lon="2.398431">
        <ele>464.934</ele>
        <time>2014-06-08T06:02:35Z</time>
      </trkpt>
      <trkpt lat="41.958697" lon="2.398560">
        <ele>465.428</ele>
        <time>2014-06-08T06:02:40Z</time>
      </trkpt>
      <trkpt lat="41.958268" lon="2.398753">
        <ele>469.357</ele>
        <time>2014-06-08T06:02:59Z</time>
      </trkpt>
      <trkpt lat="41.957645" lon="2.398689">
        <ele>471.787</ele>
        <time>2014-06-08T06:03:25Z</time>
      </trkpt>
      <trkpt lat="41.957002" lon="2.398582">
        <ele>475.054</ele>
        <time>2014-06-08T06:03:52Z</time>
      </trkpt>
      <trkpt lat="41.956337" lon="2.398496">
        <ele>481.857</ele>
        <time>2014-06-08T06:04:21Z</time>
      </trkpt>
      <trkpt lat="41.955585" lon="2.398260">
        <ele>484.200</ele>
        <time>2014-06-08T06:04:52Z</time>
      </trkpt>
      <trkpt lat="41.954985" lon="2.398474">
        <ele>488.520</ele>
        <time>2014-06-08T06:05:18Z</time>
      </trkpt>
      <trkpt lat="41.954963" lon="2.398603">
        <ele>489.008</ele>
        <time>2014-06-08T06:05:22Z</time>
      </trkpt>
      <trkpt lat="41.955006" lon="2.398646">
        <ele>489.957</ele>
        <time>2014-06-08T06:05:25Z</time>
      </trkpt>
      <trkpt lat="41.955071" lon="2.398667">
        <ele>491.440</ele>
        <time>2014-06-08T06:05:29Z</time>
      </trkpt>
      <trkpt lat="41.955607" lon="2.398560">
        <ele>493.382</ele>
        <time>2014-06-08T06:05:56Z</time>
      </trkpt>
      <trkpt lat="41.956100" lon="2.399032">
        <ele>493.382</ele>
        <time>2014-06-08T06:06:14Z</time>
      </trkpt>
      <trkpt lat="41.956100" lon="2.399032">
        <ele>493.336</ele>
        <time>2014-06-08T06:06:14Z</time>
      </trkpt>
      <trkpt lat="41.956723" lon="2.400148">
        <ele>493.815</ele>
        <time>2014-06-08T06:06:39Z</time>
      </trkpt>
      <trkpt lat="41.957345" lon="2.400835">
        <ele>497.155</ele>
        <time>2014-06-08T06:07:01Z</time>
      </trkpt>
      <trkpt lat="41.957495" lon="2.400899">
        <ele>497.632</ele>
        <time>2014-06-08T06:07:05Z</time>
      </trkpt>
      <trkpt lat="41.957688" lon="2.401693">
        <ele>497.681</ele>
        <time>2014-06-08T06:07:23Z</time>
      </trkpt>
      <trkpt lat="41.957731" lon="2.401929">
        <ele>497.161</ele>
        <time>2014-06-08T06:07:28Z</time>
      </trkpt>
      <trkpt lat="41.958547" lon="2.402143">
        <ele>496.217</ele>
        <time>2014-06-08T06:07:47Z</time>
      </trkpt>
      <trkpt lat="41.958976" lon="2.402508">
        <ele>497.608</ele>
        <time>2014-06-08T06:07:58Z</time>
      </trkpt>
      <trkpt lat="41.959898" lon="2.402937">
        <ele>497.140</ele>
        <time>2014-06-08T06:08:20Z</time>
      </trkpt>
      <trkpt lat="41.960607" lon="2.403560">
        <ele>497.153</ele>
        <time>2014-06-08T06:08:41Z</time>
      </trkpt>
      <trkpt lat="41.960886" lon="2.403667">
        <ele>496.745</ele>
        <time>2014-06-08T06:08:50Z</time>
      </trkpt>
      <trkpt lat="41.961358" lon="2.403216">
        <ele>498.185</ele>
        <time>2014-06-08T06:09:05Z</time>
      </trkpt>
      <trkpt lat="41.961401" lon="2.403195">
        <ele>498.119</ele>
        <time>2014-06-08T06:09:06Z</time>
      </trkpt>
      <trkpt lat="41.961529" lon="2.403238">
        <ele>498.658</ele>
        <time>2014-06-08T06:09:09Z</time>
      </trkpt>
      <trkpt lat="41.961937" lon="2.403409">
        <ele>497.128</ele>
        <time>2014-06-08T06:09:18Z</time>
      </trkpt>
      <trkpt lat="41.962495" lon="2.403882">
        <ele>498.175</ele>
        <time>2014-06-08T06:09:31Z</time>
      </trkpt>
      <trkpt lat="41.962624" lon="2.404075">
        <ele>498.125</ele>
        <time>2014-06-08T06:09:35Z</time>
      </trkpt>
      <trkpt lat="41.962559" lon="2.404354">
        <ele>499.126</ele>
        <time>2014-06-08T06:09:40Z</time>
      </trkpt>
      <trkpt lat="41.962495" lon="2.404461">
        <ele>498.608</ele>
        <time>2014-06-08T06:09:42Z</time>
      </trkpt>
      <trkpt lat="41.961765" lon="2.404697">
        <ele>499.508</ele>
        <time>2014-06-08T06:09:57Z</time>
      </trkpt>
      <trkpt lat="41.961551" lon="2.404675">
        <ele>499.154</ele>
        <time>2014-06-08T06:10:01Z</time>
      </trkpt>
      <trkpt lat="41.961272" lon="2.404590">
        <ele>498.617</ele>
        <time>2014-06-08T06:10:06Z</time>
      </trkpt>
      <trkpt lat="41.960886" lon="2.404611">
        <ele>498.689</ele>
        <time>2014-06-08T06:10:13Z</time>
      </trkpt>
      <trkpt lat="41.960499" lon="2.405062">
        <ele>498.679</ele>
        <time>2014-06-08T06:10:22Z</time>
      </trkpt>
      <trkpt lat="41.960413" lon="2.405148">
        <ele>498.633</ele>
        <time>2014-06-08T06:10:24Z</time>
      </trkpt>
      <trkpt lat="41.960006" lon="2.406220">
        <ele>497.122</ele>
        <time>2014-06-08T06:10:40Z</time>
      </trkpt>
      <trkpt lat="41.960263" lon="2.406521">
        <ele>497.622</ele>
        <time>2014-06-08T06:10:46Z</time>
      </trkpt>
      <trkpt lat="41.960413" lon="2.406349">
        <ele>497.659</ele>
        <time>2014-06-08T06:10:49Z</time>
      </trkpt>
      <trkpt lat="41.960521" lon="2.406135">
        <ele>497.171</ele>
        <time>2014-06-08T06:10:52Z</time>
      </trkpt>
      <trkpt lat="41.960649" lon="2.405941">
        <ele>497.141</ele>
        <time>2014-06-08T06:10:55Z</time>
      </trkpt>
      <trkpt lat="41.961143" lon="2.405534">
        <ele>494.715</ele>
        <time>2014-06-08T06:11:03Z</time>
      </trkpt>
      <trkpt lat="41.962044" lon="2.405641">
        <ele>494.708</ele>
        <time>2014-06-08T06:11:16Z</time>
      </trkpt>
      <trkpt lat="41.962109" lon="2.405641">
        <ele>494.799</ele>
        <time>2014-06-08T06:11:17Z</time>
      </trkpt>
      <trkpt lat="41.962388" lon="2.406156">
        <ele>493.812</ele>
        <time>2014-06-08T06:11:24Z</time>
      </trkpt>
      <trkpt lat="41.962752" lon="2.406263">
        <ele>492.374</ele>
        <time>2014-06-08T06:11:30Z</time>
      </trkpt>
      <trkpt lat="41.962795" lon="2.406220">
        <ele>492.324</ele>
        <time>2014-06-08T06:11:31Z</time>
      </trkpt>
      <trkpt lat="41.963096" lon="2.406070">
        <ele>490.948</ele>
        <time>2014-06-08T06:11:36Z</time>
      </trkpt>
      <trkpt lat="41.963611" lon="2.405963">
        <ele>490.427</ele>
        <time>2014-06-08T06:11:44Z</time>
      </trkpt>
      <trkpt lat="41.963868" lon="2.405941">
        <ele>489.087</ele>
        <time>2014-06-08T06:11:48Z</time>
      </trkpt>
      <trkpt lat="41.964684" lon="2.406135">
        <ele>485.114</ele>
        <time>2014-06-08T06:12:00Z</time>
      </trkpt>
      <trkpt lat="41.964962" lon="2.405984">
        <ele>483.272</ele>
        <time>2014-06-08T06:12:04Z</time>
      </trkpt>
      <trkpt lat="41.965199" lon="2.405877">
        <ele>483.213</ele>
        <time>2014-06-08T06:12:07Z</time>
      </trkpt>
      <trkpt lat="41.965628" lon="2.406156">
        <ele>483.214</ele>
        <time>2014-06-08T06:12:13Z</time>
      </trkpt>
      <trkpt lat="41.966207" lon="2.405941">
        <ele>482.208</ele>
        <time>2014-06-08T06:12:20Z</time>
      </trkpt>
      <trkpt lat="41.966293" lon="2.405577">
        <ele>482.269</ele>
        <time>2014-06-08T06:12:23Z</time>
      </trkpt>
      <trkpt lat="41.966765" lon="2.405448">
        <ele>479.862</ele>
        <time>2014-06-08T06:12:30Z</time>
      </trkpt>
      <trkpt lat="41.966829" lon="2.405448">
        <ele>478.964</ele>
        <time>2014-06-08T06:12:31Z</time>
      </trkpt>
      <trkpt lat="41.967280" lon="2.405684">
        <ele>477.474</ele>
        <time>2014-06-08T06:12:38Z</time>
      </trkpt>
      <trkpt lat="41.967773" lon="2.405663">
        <ele>475.568</ele>
        <time>2014-06-08T06:12:44Z</time>
      </trkpt>
      <trkpt lat="41.967838" lon="2.405748">
        <ele>475.047</ele>
        <time>2014-06-08T06:12:45Z</time>
      </trkpt>
      <trkpt lat="41.968138" lon="2.406242">
        <ele>473.617</ele>
        <time>2014-06-08T06:12:52Z</time>
      </trkpt>
      <trkpt lat="41.968353" lon="2.406971">
        <ele>469.384</ele>
        <time>2014-06-08T06:13:00Z</time>
      </trkpt>
      <trkpt lat="41.968331" lon="2.407336">
        <ele>466.979</ele>
        <time>2014-06-08T06:13:03Z</time>
      </trkpt>
      <trkpt lat="41.968460" lon="2.407787">
        <ele>464.005</ele>
        <time>2014-06-08T06:13:07Z</time>
      </trkpt>
      <trkpt lat="41.968589" lon="2.407980">
        <ele>461.625</ele>
        <time>2014-06-08T06:13:09Z</time>
      </trkpt>
      <trkpt lat="41.968825" lon="2.408538">
        <ele>457.208</ele>
        <time>2014-06-08T06:13:14Z</time>
      </trkpt>
      <trkpt lat="41.968825" lon="2.409589">
        <ele>450.529</ele>
        <time>2014-06-08T06:13:21Z</time>
      </trkpt>
      <trkpt lat="41.968911" lon="2.409997">
        <ele>447.662</ele>
        <time>2014-06-08T06:13:24Z</time>
      </trkpt>
      <trkpt lat="41.968782" lon="2.410791">
        <ele>443.844</ele>
        <time>2014-06-08T06:13:30Z</time>
      </trkpt>
      <trkpt lat="41.968718" lon="2.410855">
        <ele>443.324</ele>
        <time>2014-06-08T06:13:31Z</time>
      </trkpt>
      <trkpt lat="41.968396" lon="2.411048">
        <ele>442.858</ele>
        <time>2014-06-08T06:13:35Z</time>
      </trkpt>
      <trkpt lat="41.967795" lon="2.411327">
        <ele>440.487</ele>
        <time>2014-06-08T06:13:45Z</time>
      </trkpt>
      <trkpt lat="41.967602" lon="2.411220">
        <ele>438.077</ele>
        <time>2014-06-08T06:13:51Z</time>
      </trkpt>
      <trkpt lat="41.967709" lon="2.411134">
        <ele>439.934</ele>
        <time>2014-06-08T06:13:57Z</time>
      </trkpt>
      <trkpt lat="41.968031" lon="2.411091">
        <ele>437.131</ele>
        <time>2014-06-08T06:14:08Z</time>
      </trkpt>
      <trkpt lat="41.968310" lon="2.410984">
        <ele>435.661</ele>
        <time>2014-06-08T06:14:17Z</time>
      </trkpt>
      <trkpt lat="41.968224" lon="2.410855">
        <ele>435.107</ele>
        <time>2014-06-08T06:14:24Z</time>
      </trkpt>
      <trkpt lat="41.968117" lon="2.411070">
        <ele>435.608</ele>
        <time>2014-06-08T06:14:31Z</time>
      </trkpt>
      <trkpt lat="41.968052" lon="2.411091">
        <ele>435.125</ele>
        <time>2014-06-08T06:14:33Z</time>
      </trkpt>
      <trkpt lat="41.967645" lon="2.411349">
        <ele>435.158</ele>
        <time>2014-06-08T06:14:49Z</time>
      </trkpt>
      <trkpt lat="41.967602" lon="2.411392">
        <ele>435.690</ele>
        <time>2014-06-08T06:14:59Z</time>
      </trkpt>
      <trkpt lat="41.967602" lon="2.411435">
        <ele>434.720</ele>
        <time>2014-06-08T06:16:20Z</time>
      </trkpt>
      <trkpt lat="41.967602" lon="2.411413">
        <ele>435.644</ele>
        <time>2014-06-08T06:31:06Z</time>
      </trkpt>
      <trkpt lat="41.967602" lon="2.411392">
        <ele>432.393</ele>
        <time>2014-06-08T06:32:25Z</time>
      </trkpt>
      <trkpt lat="41.967580" lon="2.411392">
        <ele>431.893</ele>
        <time>2014-06-08T06:34:22Z</time>
      </trkpt>
      <trkpt lat="41.967494" lon="2.411413">
        <ele>431.840</ele>
        <time>2014-06-08T06:34:30Z</time>
      </trkpt>
      <trkpt lat="41.967473" lon="2.411392">
        <ele>431.368</ele>
        <time>2014-06-08T06:34:32Z</time>
      </trkpt>
      <trkpt lat="41.967580" lon="2.411413">
        <ele>430.342</ele>
        <time>2014-06-08T06:34:43Z</time>
      </trkpt>
      <trkpt lat="41.967559" lon="2.411413">
        <ele>434.226</ele>
        <time>2014-06-08T06:35:35Z</time>
      </trkpt>
      <trkpt lat="41.967473" lon="2.411456">
        <ele>433.708</ele>
        <time>2014-06-08T06:35:41Z</time>
      </trkpt>
      <trkpt lat="41.967194" lon="2.411671">
        <ele>433.748</ele>
        <time>2014-06-08T06:35:56Z</time>
      </trkpt>
      <trkpt lat="41.967044" lon="2.411757">
        <ele>434.221</ele>
        <time>2014-06-08T06:36:01Z</time>
      </trkpt>
      <trkpt lat="41.967087" lon="2.411907">
        <ele>434.723</ele>
        <time>2014-06-08T06:36:06Z</time>
      </trkpt>
      <trkpt lat="41.967173" lon="2.411993">
        <ele>434.283</ele>
        <time>2014-06-08T06:36:18Z</time>
      </trkpt>
      <trkpt lat="41.967173" lon="2.412014">
        <ele>435.117</ele>
        <time>2014-06-08T06:36:50Z</time>
      </trkpt>
      <trkpt lat="41.967301" lon="2.412143">
        <ele>434.256</ele>
        <time>2014-06-08T06:37:05Z</time>
      </trkpt>
      <trkpt lat="41.967323" lon="2.412143">
        <ele>433.226</ele>
        <time>2014-06-08T06:37:27Z</time>
      </trkpt>
      <trkpt lat="41.967323" lon="2.412143">
        <ele>434.753</ele>
        <time>2014-06-08T06:37:36Z</time>
      </trkpt>
      <trkpt lat="41.967623" lon="2.412465">
        <ele>432.712</ele>
        <time>2014-06-08T06:37:48Z</time>
      </trkpt>
      <trkpt lat="41.968160" lon="2.413387">
        <ele>433.732</ele>
        <time>2014-06-08T06:38:03Z</time>
      </trkpt>
      <trkpt lat="41.968331" lon="2.413859">
        <ele>433.705</ele>
        <time>2014-06-08T06:38:10Z</time>
      </trkpt>
      <trkpt lat="41.968181" lon="2.414160">
        <ele>432.708</ele>
        <time>2014-06-08T06:38:17Z</time>
      </trkpt>
      <trkpt lat="41.968138" lon="2.414203">
        <ele>432.793</ele>
        <time>2014-06-08T06:38:19Z</time>
      </trkpt>
      <trkpt lat="41.967731" lon="2.414868">
        <ele>430.336</ele>
        <time>2014-06-08T06:38:33Z</time>
      </trkpt>
      <trkpt lat="41.967280" lon="2.415233">
        <ele>427.088</ele>
        <time>2014-06-08T06:38:41Z</time>
      </trkpt>
      <trkpt lat="41.967216" lon="2.415276">
        <ele>426.578</ele>
        <time>2014-06-08T06:38:42Z</time>
      </trkpt>
      <trkpt lat="41.967044" lon="2.415361">
        <ele>425.522</ele>
        <time>2014-06-08T06:38:45Z</time>
      </trkpt>
      <trkpt lat="41.966808" lon="2.415683">
        <ele>423.641</ele>
        <time>2014-06-08T06:38:50Z</time>
      </trkpt>
      <trkpt lat="41.966722" lon="2.415833">
        <ele>423.151</ele>
        <time>2014-06-08T06:38:52Z</time>
      </trkpt>
      <trkpt lat="41.966443" lon="2.415898">
        <ele>418.318</ele>
        <time>2014-06-08T06:38:59Z</time>
      </trkpt>
      <trkpt lat="41.966164" lon="2.416220">
        <ele>412.574</ele>
        <time>2014-06-08T06:39:07Z</time>
      </trkpt>
      <trkpt lat="41.966100" lon="2.416413">
        <ele>410.156</ele>
        <time>2014-06-08T06:39:10Z</time>
      </trkpt>
      <trkpt lat="41.966164" lon="2.416842">
        <ele>405.821</ele>
        <time>2014-06-08T06:39:16Z</time>
      </trkpt>
      <trkpt lat="41.966207" lon="2.416992">
        <ele>404.908</ele>
        <time>2014-06-08T06:39:18Z</time>
      </trkpt>
      <trkpt lat="41.966550" lon="2.417722">
        <ele>399.189</ele>
        <time>2014-06-08T06:39:26Z</time>
      </trkpt>
      <trkpt lat="41.966743" lon="2.418280">
        <ele>394.392</ele>
        <time>2014-06-08T06:39:33Z</time>
      </trkpt>
      <trkpt lat="41.966743" lon="2.418451">
        <ele>391.994</ele>
        <time>2014-06-08T06:39:35Z</time>
      </trkpt>
      <trkpt lat="41.966786" lon="2.418773">
        <ele>388.074</ele>
        <time>2014-06-08T06:39:39Z</time>
      </trkpt>
      <trkpt lat="41.966872" lon="2.419095">
        <ele>384.718</ele>
        <time>2014-06-08T06:39:43Z</time>
      </trkpt>
      <trkpt lat="41.967065" lon="2.419503">
        <ele>380.327</ele>
        <time>2014-06-08T06:39:48Z</time>
      </trkpt>
      <trkpt lat="41.967022" lon="2.419825">
        <ele>376.567</ele>
        <time>2014-06-08T06:39:53Z</time>
      </trkpt>
      <trkpt lat="41.966872" lon="2.419868">
        <ele>376.054</ele>
        <time>2014-06-08T06:39:56Z</time>
      </trkpt>
      <trkpt lat="41.966486" lon="2.419889">
        <ele>373.158</ele>
        <time>2014-06-08T06:40:05Z</time>
      </trkpt>
      <trkpt lat="41.966529" lon="2.420254">
        <ele>373.152</ele>
        <time>2014-06-08T06:40:14Z</time>
      </trkpt>
      <trkpt lat="41.966872" lon="2.421627">
        <ele>371.717</ele>
        <time>2014-06-08T06:40:41Z</time>
      </trkpt>
      <trkpt lat="41.966829" lon="2.422528">
        <ele>369.808</ele>
        <time>2014-06-08T06:41:00Z</time>
      </trkpt>
      <trkpt lat="41.966164" lon="2.423193">
        <ele>367.817</ele>
        <time>2014-06-08T06:41:19Z</time>
      </trkpt>
      <trkpt lat="41.965821" lon="2.423322">
        <ele>366.970</ele>
        <time>2014-06-08T06:41:29Z</time>
      </trkpt>
      <trkpt lat="41.965778" lon="2.423472">
        <ele>366.432</ele>
        <time>2014-06-08T06:41:34Z</time>
      </trkpt>
      <trkpt lat="41.965864" lon="2.423902">
        <ele>365.922</ele>
        <time>2014-06-08T06:41:48Z</time>
      </trkpt>
      <trkpt lat="41.966207" lon="2.423773">
        <ele>365.096</ele>
        <time>2014-06-08T06:42:02Z</time>
      </trkpt>
      <trkpt lat="41.966271" lon="2.423708">
        <ele>365.965</ele>
        <time>2014-06-08T06:42:07Z</time>
      </trkpt>
      <trkpt lat="41.966336" lon="2.423687">
        <ele>365.045</ele>
        <time>2014-06-08T06:42:18Z</time>
      </trkpt>
      <trkpt lat="41.966636" lon="2.423515">
        <ele>368.382</ele>
        <time>2014-06-08T06:42:35Z</time>
      </trkpt>
      <trkpt lat="41.967087" lon="2.423344">
        <ele>376.044</ele>
        <time>2014-06-08T06:43:02Z</time>
      </trkpt>
      <trkpt lat="41.967366" lon="2.423193">
        <ele>380.305</ele>
        <time>2014-06-08T06:43:21Z</time>
      </trkpt>
      <trkpt lat="41.967473" lon="2.423301">
        <ele>382.315</ele>
        <time>2014-06-08T06:43:29Z</time>
      </trkpt>
      <trkpt lat="41.967559" lon="2.423944">
        <ele>385.608</ele>
        <time>2014-06-08T06:44:00Z</time>
      </trkpt>
      <trkpt lat="41.967645" lon="2.424717">
        <ele>388.096</ele>
        <time>2014-06-08T06:44:35Z</time>
      </trkpt>
      <trkpt lat="41.967731" lon="2.425618">
        <ele>395.269</ele>
        <time>2014-06-08T06:45:13Z</time>
      </trkpt>
      <trkpt lat="41.967688" lon="2.426434">
        <ele>399.611</ele>
        <time>2014-06-08T06:45:47Z</time>
      </trkpt>
      <trkpt lat="41.967344" lon="2.426713">
        <ele>403.411</ele>
        <time>2014-06-08T06:46:06Z</time>
      </trkpt>
      <trkpt lat="41.967258" lon="2.427163">
        <ele>403.465</ele>
        <time>2014-06-08T06:46:24Z</time>
      </trkpt>
      <trkpt lat="41.967301" lon="2.427893">
        <ele>405.354</ele>
        <time>2014-06-08T06:46:50Z</time>
      </trkpt>
      <trkpt lat="41.967216" lon="2.428751">
        <ele>410.154</ele>
        <time>2014-06-08T06:47:18Z</time>
      </trkpt>
      <trkpt lat="41.966872" lon="2.429459">
        <ele>413.021</ele>
        <time>2014-06-08T06:47:36Z</time>
      </trkpt>
      <trkpt lat="41.966937" lon="2.429609">
        <ele>414.972</ele>
        <time>2014-06-08T06:47:40Z</time>
      </trkpt>
      <trkpt lat="41.967366" lon="2.429781">
        <ele>415.913</ele>
        <time>2014-06-08T06:47:53Z</time>
      </trkpt>
      <trkpt lat="41.967409" lon="2.430339">
        <ele>415.914</ele>
        <time>2014-06-08T06:48:07Z</time>
      </trkpt>
      <trkpt lat="41.967409" lon="2.431240">
        <ele>418.308</ele>
        <time>2014-06-08T06:48:32Z</time>
      </trkpt>
      <trkpt lat="41.967645" lon="2.431712">
        <ele>420.249</ele>
        <time>2014-06-08T06:48:48Z</time>
      </trkpt>
      <trkpt lat="41.967666" lon="2.431948">
        <ele>422.672</ele>
        <time>2014-06-08T06:48:55Z</time>
      </trkpt>
      <trkpt lat="41.968031" lon="2.432528">
        <ele>429.464</ele>
        <time>2014-06-08T06:49:13Z</time>
      </trkpt>
      <trkpt lat="41.968503" lon="2.433214">
        <ele>431.824</ele>
        <time>2014-06-08T06:49:34Z</time>
      </trkpt>
      <trkpt lat="41.969211" lon="2.433429">
        <ele>436.638</ele>
        <time>2014-06-08T06:49:54Z</time>
      </trkpt>
      <trkpt lat="41.969705" lon="2.434587">
        <ele>436.647</ele>
        <time>2014-06-08T06:50:09Z</time>
      </trkpt>
      <trkpt lat="41.969919" lon="2.435102">
        <ele>435.177</ele>
        <time>2014-06-08T06:50:16Z</time>
      </trkpt>
      <trkpt lat="41.969898" lon="2.435317">
        <ele>434.254</ele>
        <time>2014-06-08T06:50:20Z</time>
      </trkpt>
      <trkpt lat="41.969855" lon="2.435467">
        <ele>435.674</ele>
        <time>2014-06-08T06:50:38Z</time>
      </trkpt>
      <trkpt lat="41.969812" lon="2.435532">
        <ele>435.656</ele>
        <time>2014-06-08T06:50:51Z</time>
      </trkpt>
      <trkpt lat="41.969769" lon="2.435575">
        <ele>434.221</ele>
        <time>2014-06-08T06:50:55Z</time>
      </trkpt>
      <trkpt lat="41.969404" lon="2.435553">
        <ele>431.808</ele>
        <time>2014-06-08T06:51:10Z</time>
      </trkpt>
      <trkpt lat="41.968911" lon="2.435253">
        <ele>427.939</ele>
        <time>2014-06-08T06:51:30Z</time>
      </trkpt>
      <trkpt lat="41.968460" lon="2.435102">
        <ele>426.082</ele>
        <time>2014-06-08T06:51:44Z</time>
      </trkpt>
      <trkpt lat="41.968374" lon="2.435102">
        <ele>426.064</ele>
        <time>2014-06-08T06:51:46Z</time>
      </trkpt>
      <trkpt lat="41.968203" lon="2.435210">
        <ele>426.014</ele>
        <time>2014-06-08T06:51:51Z</time>
      </trkpt>
      <trkpt lat="41.967795" lon="2.435038">
        <ele>425.538</ele>
        <time>2014-06-08T06:52:05Z</time>
      </trkpt>
      <trkpt lat="41.967323" lon="2.435102">
        <ele>429.857</ele>
        <time>2014-06-08T06:52:22Z</time>
      </trkpt>
      <trkpt lat="41.966765" lon="2.435317">
        <ele>430.827</ele>
        <time>2014-06-08T06:52:45Z</time>
      </trkpt>
      <trkpt lat="41.966465" lon="2.435317">
        <ele>431.324</ele>
        <time>2014-06-08T06:53:00Z</time>
      </trkpt>
      <trkpt lat="41.966422" lon="2.435188">
        <ele>431.384</ele>
        <time>2014-06-08T06:53:04Z</time>
      </trkpt>
      <trkpt lat="41.966357" lon="2.435124">
        <ele>431.307</ele>
        <time>2014-06-08T06:53:09Z</time>
      </trkpt>
      <trkpt lat="41.966228" lon="2.434952">
        <ele>430.817</ele>
        <time>2014-06-08T06:53:19Z</time>
      </trkpt>
      <trkpt lat="41.965842" lon="2.435296">
        <ele>430.308</ele>
        <time>2014-06-08T06:53:41Z</time>
      </trkpt>
      <trkpt lat="41.965821" lon="2.435296">
        <ele>430.350</ele>
        <time>2014-06-08T06:53:44Z</time>
      </trkpt>
      <trkpt lat="41.965499" lon="2.435296">
        <ele>430.363</ele>
        <time>2014-06-08T06:54:02Z</time>
      </trkpt>
      <trkpt lat="41.965992" lon="2.435231">
        <ele>436.615</ele>
        <time>2014-06-08T06:54:31Z</time>
      </trkpt>
      <trkpt lat="41.965992" lon="2.435231">
        <ele>437.125</ele>
        <time>2014-06-08T06:54:32Z</time>
      </trkpt>
      <trkpt lat="41.965950" lon="2.435296">
        <ele>437.149</ele>
        <time>2014-06-08T06:54:36Z</time>
      </trkpt>
      <trkpt lat="41.965799" lon="2.435660">
        <ele>437.188</ele>
        <time>2014-06-08T06:54:46Z</time>
      </trkpt>
      <trkpt lat="41.965756" lon="2.435875">
        <ele>436.638</ele>
        <time>2014-06-08T06:54:51Z</time>
      </trkpt>
      <trkpt lat="41.965477" lon="2.435961">
        <ele>436.635</ele>
        <time>2014-06-08T06:55:04Z</time>
      </trkpt>
      <trkpt lat="41.965349" lon="2.436433">
        <ele>436.657</ele>
        <time>2014-06-08T06:55:22Z</time>
      </trkpt>
      <trkpt lat="41.965284" lon="2.436647">
        <ele>437.100</ele>
        <time>2014-06-08T06:55:29Z</time>
      </trkpt>
      <trkpt lat="41.965156" lon="2.436819">
        <ele>437.120</ele>
        <time>2014-06-08T06:55:34Z</time>
      </trkpt>
      <trkpt lat="41.965048" lon="2.437570">
        <ele>437.508</ele>
        <time>2014-06-08T06:55:48Z</time>
      </trkpt>
      <trkpt lat="41.965091" lon="2.438300">
        <ele>437.527</ele>
        <time>2014-06-08T06:56:08Z</time>
      </trkpt>
      <trkpt lat="41.965134" lon="2.438428">
        <ele>437.570</ele>
        <time>2014-06-08T06:56:12Z</time>
      </trkpt>
      <trkpt lat="41.965241" lon="2.438579">
        <ele>437.552</ele>
        <time>2014-06-08T06:56:16Z</time>
      </trkpt>
      <trkpt lat="41.965456" lon="2.439415">
        <ele>437.582</ele>
        <time>2014-06-08T06:56:35Z</time>
      </trkpt>
      <trkpt lat="41.965542" lon="2.440124">
        <ele>437.526</ele>
        <time>2014-06-08T06:56:49Z</time>
      </trkpt>
      <trkpt lat="41.965435" lon="2.440360">
        <ele>436.645</ele>
        <time>2014-06-08T06:56:54Z</time>
      </trkpt>
      <trkpt lat="41.965392" lon="2.440596">
        <ele>436.615</ele>
        <time>2014-06-08T06:56:58Z</time>
      </trkpt>
      <trkpt lat="41.965392" lon="2.440767">
        <ele>436.682</ele>
        <time>2014-06-08T06:57:01Z</time>
      </trkpt>
      <trkpt lat="41.965370" lon="2.441111">
        <ele>435.181</ele>
        <time>2014-06-08T06:57:06Z</time>
      </trkpt>
      <trkpt lat="41.965241" lon="2.441561">
        <ele>433.261</ele>
        <time>2014-06-08T06:57:13Z</time>
      </trkpt>
      <trkpt lat="41.964920" lon="2.441540">
        <ele>431.317</ele>
        <time>2014-06-08T06:57:21Z</time>
      </trkpt>
      <trkpt lat="41.964877" lon="2.441497">
        <ele>431.308</ele>
        <time>2014-06-08T06:57:22Z</time>
      </trkpt>
      <trkpt lat="41.964662" lon="2.441132">
        <ele>427.920</ele>
        <time>2014-06-08T06:57:29Z</time>
      </trkpt>
      <trkpt lat="41.964469" lon="2.440596">
        <ele>427.433</ele>
        <time>2014-06-08T06:57:37Z</time>
      </trkpt>
      <trkpt lat="41.964319" lon="2.440445">
        <ele>427.045</ele>
        <time>2014-06-08T06:57:41Z</time>
      </trkpt>
      <trkpt lat="41.964018" lon="2.440381">
        <ele>424.685</ele>
        <time>2014-06-08T06:57:48Z</time>
      </trkpt>
      <trkpt lat="41.963825" lon="2.440596">
        <ele>422.279</ele>
        <time>2014-06-08T06:57:55Z</time>
      </trkpt>
      <trkpt lat="41.964169" lon="2.441154">
        <ele>421.758</ele>
        <time>2014-06-08T06:58:08Z</time>
      </trkpt>
      <trkpt lat="41.964791" lon="2.442977">
        <ele>421.228</ele>
        <time>2014-06-08T06:58:41Z</time>
      </trkpt>
      <trkpt lat="41.964383" lon="2.443879">
        <ele>420.215</ele>
        <time>2014-06-08T06:58:45Z</time>
      </trkpt>
      <trkpt lat="41.964340" lon="2.444007">
        <ele>418.361</ele>
        <time>2014-06-08T06:58:49Z</time>
      </trkpt>
      <trkpt lat="41.964018" lon="2.444050">
        <ele>417.821</ele>
        <time>2014-06-08T06:58:52Z</time>
      </trkpt>
      <trkpt lat="41.963139" lon="2.444007">
        <ele>414.913</ele>
        <time>2014-06-08T06:59:09Z</time>
      </trkpt>
      <trkpt lat="41.963096" lon="2.444007">
        <ele>414.908</ele>
        <time>2014-06-08T06:59:10Z</time>
      </trkpt>
      <trkpt lat="41.962988" lon="2.444437">
        <ele>414.968</ele>
        <time>2014-06-08T06:59:15Z</time>
      </trkpt>
      <trkpt lat="41.962602" lon="2.445059">
        <ele>412.131</ele>
        <time>2014-06-08T06:59:25Z</time>
      </trkpt>
      <trkpt lat="41.961765" lon="2.445638">
        <ele>403.983</ele>
        <time>2014-06-08T06:59:44Z</time>
      </trkpt>
      <trkpt lat="41.961465" lon="2.446067">
        <ele>395.253</ele>
        <time>2014-06-08T06:59:57Z</time>
      </trkpt>
      <trkpt lat="41.961358" lon="2.446132">
        <ele>391.997</ele>
        <time>2014-06-08T07:00:02Z</time>
      </trkpt>
      <trkpt lat="41.961315" lon="2.446196">
        <ele>390.986</ele>
        <time>2014-06-08T07:00:05Z</time>
      </trkpt>
      <trkpt lat="41.961229" lon="2.446303">
        <ele>386.166</ele>
        <time>2014-06-08T07:00:10Z</time>
      </trkpt>
      <trkpt lat="41.960821" lon="2.446196">
        <ele>378.953</ele>
        <time>2014-06-08T07:00:25Z</time>
      </trkpt>
      <trkpt lat="41.960714" lon="2.446153">
        <ele>378.988</ele>
        <time>2014-06-08T07:00:29Z</time>
      </trkpt>
      <trkpt lat="41.960735" lon="2.446582">
        <ele>377.024</ele>
        <time>2014-06-08T07:00:39Z</time>
      </trkpt>
      <trkpt lat="41.960714" lon="2.446604">
        <ele>377.026</ele>
        <time>2014-06-08T07:00:40Z</time>
      </trkpt>
      <trkpt lat="41.960649" lon="2.446625">
        <ele>377.008</ele>
        <time>2014-06-08T07:00:42Z</time>
      </trkpt>
      <trkpt lat="41.960371" lon="2.446775">
        <ele>377.520</ele>
        <time>2014-06-08T07:00:49Z</time>
      </trkpt>
      <trkpt lat="41.960263" lon="2.446883">
        <ele>377.523</ele>
        <time>2014-06-08T07:00:52Z</time>
      </trkpt>
      <trkpt lat="41.960177" lon="2.446990">
        <ele>377.575</ele>
        <time>2014-06-08T07:00:55Z</time>
      </trkpt>
      <trkpt lat="41.960070" lon="2.447183">
        <ele>376.045</ele>
        <time>2014-06-08T07:00:59Z</time>
      </trkpt>
      <trkpt lat="41.959770" lon="2.447634">
        <ele>374.139</ele>
        <time>2014-06-08T07:01:10Z</time>
      </trkpt>
      <trkpt lat="41.959405" lon="2.447655">
        <ele>372.668</ele>
        <time>2014-06-08T07:01:21Z</time>
      </trkpt>
      <trkpt lat="41.959362" lon="2.447848">
        <ele>372.698</ele>
        <time>2014-06-08T07:01:25Z</time>
      </trkpt>
      <trkpt lat="41.959341" lon="2.447956">
        <ele>372.295</ele>
        <time>2014-06-08T07:01:27Z</time>
      </trkpt>
      <trkpt lat="41.959298" lon="2.448041">
        <ele>372.225</ele>
        <time>2014-06-08T07:01:29Z</time>
      </trkpt>
      <trkpt lat="41.958611" lon="2.448771">
        <ele>371.726</ele>
        <time>2014-06-08T07:01:48Z</time>
      </trkpt>
      <trkpt lat="41.958139" lon="2.449501">
        <ele>372.208</ele>
        <time>2014-06-08T07:02:05Z</time>
      </trkpt>
      <trkpt lat="41.957946" lon="2.449737">
        <ele>372.208</ele>
        <time>2014-06-08T07:02:11Z</time>
      </trkpt>
      <trkpt lat="41.957688" lon="2.450337">
        <ele>372.664</ele>
        <time>2014-06-08T07:02:23Z</time>
      </trkpt>
      <trkpt lat="41.957130" lon="2.450552">
        <ele>373.197</ele>
        <time>2014-06-08T07:02:41Z</time>
      </trkpt>
      <trkpt lat="41.956594" lon="2.450960">
        <ele>376.089</ele>
        <time>2014-06-08T07:02:59Z</time>
      </trkpt>
      <trkpt lat="41.956830" lon="2.451432">
        <ele>376.539</ele>
        <time>2014-06-08T07:03:09Z</time>
      </trkpt>
      <trkpt lat="41.956916" lon="2.451646">
        <ele>376.523</ele>
        <time>2014-06-08T07:03:13Z</time>
      </trkpt>
      <trkpt lat="41.956809" lon="2.452011">
        <ele>376.082</ele>
        <time>2014-06-08T07:03:20Z</time>
      </trkpt>
      <trkpt lat="41.956229" lon="2.452784">
        <ele>376.042</ele>
        <time>2014-06-08T07:03:39Z</time>
      </trkpt>
      <trkpt lat="41.956208" lon="2.453341">
        <ele>376.029</ele>
        <time>2014-06-08T07:03:50Z</time>
      </trkpt>
      <trkpt lat="41.955950" lon="2.454135">
        <ele>376.096</ele>
        <time>2014-06-08T07:04:07Z</time>
      </trkpt>
      <trkpt lat="41.955328" lon="2.455552">
        <ele>375.131</ele>
        <time>2014-06-08T07:04:33Z</time>
      </trkpt>
      <trkpt lat="41.954727" lon="2.456710">
        <ele>374.624</ele>
        <time>2014-06-08T07:05:04Z</time>
      </trkpt>
      <trkpt lat="41.954620" lon="2.458405">
        <ele>375.108</ele>
        <time>2014-06-08T07:05:42Z</time>
      </trkpt>
      <trkpt lat="41.954598" lon="2.458534">
        <ele>375.511</ele>
        <time>2014-06-08T07:05:45Z</time>
      </trkpt>
      <trkpt lat="41.954255" lon="2.458706">
        <ele>375.564</ele>
        <time>2014-06-08T07:05:54Z</time>
      </trkpt>
      <trkpt lat="41.954470" lon="2.459114">
        <ele>376.076</ele>
        <time>2014-06-08T07:06:04Z</time>
      </trkpt>
      <trkpt lat="41.954556" lon="2.459350">
        <ele>376.046</ele>
        <time>2014-06-08T07:06:08Z</time>
      </trkpt>
      <trkpt lat="41.954641" lon="2.459736">
        <ele>376.580</ele>
        <time>2014-06-08T07:06:14Z</time>
      </trkpt>
      <trkpt lat="41.954663" lon="2.459929">
        <ele>376.549</ele>
        <time>2014-06-08T07:06:17Z</time>
      </trkpt>
      <trkpt lat="41.954663" lon="2.460058">
        <ele>375.199</ele>
        <time>2014-06-08T07:06:19Z</time>
      </trkpt>
      <trkpt lat="41.954920" lon="2.462096">
        <ele>377.586</ele>
        <time>2014-06-08T07:06:51Z</time>
      </trkpt>
      <trkpt lat="41.955307" lon="2.463040">
        <ele>378.462</ele>
        <time>2014-06-08T07:07:10Z</time>
      </trkpt>
      <trkpt lat="41.955950" lon="2.463620">
        <ele>378.483</ele>
        <time>2014-06-08T07:07:28Z</time>
      </trkpt>
      <trkpt lat="41.956401" lon="2.464006">
        <ele>378.411</ele>
        <time>2014-06-08T07:07:40Z</time>
      </trkpt>
      <trkpt lat="41.956594" lon="2.464006">
        <ele>378.408</ele>
        <time>2014-06-08T07:07:43Z</time>
      </trkpt>
      <trkpt lat="41.956916" lon="2.463856">
        <ele>378.458</ele>
        <time>2014-06-08T07:07:49Z</time>
      </trkpt>
      <trkpt lat="41.957645" lon="2.463641">
        <ele>378.461</ele>
        <time>2014-06-08T07:08:02Z</time>
      </trkpt>
      <trkpt lat="41.957817" lon="2.463663">
        <ele>378.483</ele>
        <time>2014-06-08T07:08:05Z</time>
      </trkpt>
      <trkpt lat="41.957989" lon="2.463963">
        <ele>378.473</ele>
        <time>2014-06-08T07:08:11Z</time>
      </trkpt>
      <trkpt lat="41.957860" lon="2.465465">
        <ele>378.427</ele>
        <time>2014-06-08T07:08:37Z</time>
      </trkpt>
      <trkpt lat="41.957753" lon="2.466238">
        <ele>377.996</ele>
        <time>2014-06-08T07:08:50Z</time>
      </trkpt>
      <trkpt lat="41.957710" lon="2.466323">
        <ele>378.496</ele>
        <time>2014-06-08T07:08:52Z</time>
      </trkpt>
      <trkpt lat="41.957495" lon="2.466173">
        <ele>379.913</ele>
        <time>2014-06-08T07:09:00Z</time>
      </trkpt>
      <trkpt lat="41.957088" lon="2.465422">
        <ele>380.878</ele>
        <time>2014-06-08T07:09:20Z</time>
      </trkpt>
      <trkpt lat="41.956337" lon="2.464972">
        <ele>381.333</ele>
        <time>2014-06-08T07:09:43Z</time>
      </trkpt>
      <trkpt lat="41.955650" lon="2.464757">
        <ele>380.326</ele>
        <time>2014-06-08T07:10:05Z</time>
      </trkpt>
      <trkpt lat="41.955457" lon="2.465830">
        <ele>381.808</ele>
        <time>2014-06-08T07:10:19Z</time>
      </trkpt>
      <trkpt lat="41.955135" lon="2.465465">
        <ele>381.869</ele>
        <time>2014-06-08T07:10:35Z</time>
      </trkpt>
      <trkpt lat="41.954770" lon="2.465186">
        <ele>380.862</ele>
        <time>2014-06-08T07:10:46Z</time>
      </trkpt>
      <trkpt lat="41.953976" lon="2.465250">
        <ele>380.824</ele>
        <time>2014-06-08T07:11:02Z</time>
      </trkpt>
      <trkpt lat="41.953740" lon="2.465229">
        <ele>380.814</ele>
        <time>2014-06-08T07:11:07Z</time>
      </trkpt>
      <trkpt lat="41.953611" lon="2.465208">
        <ele>380.328</ele>
        <time>2014-06-08T07:11:10Z</time>
      </trkpt>
      <trkpt lat="41.953354" lon="2.465100">
        <ele>381.377</ele>
        <time>2014-06-08T07:11:18Z</time>
      </trkpt>
      <trkpt lat="41.953161" lon="2.465165">
        <ele>380.327</ele>
        <time>2014-06-08T07:11:26Z</time>
      </trkpt>
      <trkpt lat="41.953075" lon="2.465336">
        <ele>380.384</ele>
        <time>2014-06-08T07:11:32Z</time>
      </trkpt>
      <trkpt lat="41.953011" lon="2.465680">
        <ele>382.362</ele>
        <time>2014-06-08T07:11:40Z</time>
      </trkpt>
      <trkpt lat="41.952860" lon="2.465830">
        <ele>382.383</ele>
        <time>2014-06-08T07:11:44Z</time>
      </trkpt>
      <trkpt lat="41.952710" lon="2.466087">
        <ele>381.311</ele>
        <time>2014-06-08T07:11:50Z</time>
      </trkpt>
      <trkpt lat="41.952410" lon="2.466538">
        <ele>383.208</ele>
        <time>2014-06-08T07:11:58Z</time>
      </trkpt>
      <trkpt lat="41.952324" lon="2.466710">
        <ele>382.728</ele>
        <time>2014-06-08T07:12:01Z</time>
      </trkpt>
      <trkpt lat="41.952581" lon="2.467182">
        <ele>379.411</ele>
        <time>2014-06-08T07:12:13Z</time>
      </trkpt>
      <trkpt lat="41.953032" lon="2.467332">
        <ele>379.433</ele>
        <time>2014-06-08T07:12:29Z</time>
      </trkpt>
      <trkpt lat="41.954083" lon="2.467589">
        <ele>379.443</ele>
        <time>2014-06-08T07:13:18Z</time>
      </trkpt>
      <trkpt lat="41.955006" lon="2.467933">
        <ele>378.957</ele>
        <time>2014-06-08T07:13:56Z</time>
      </trkpt>
      <trkpt lat="41.955028" lon="2.468083">
        <ele>378.476</ele>
        <time>2014-06-08T07:14:01Z</time>
      </trkpt>
      <trkpt lat="41.954641" lon="2.468512">
        <ele>377.036</ele>
        <time>2014-06-08T07:14:20Z</time>
      </trkpt>
      <trkpt lat="41.954169" lon="2.469220">
        <ele>377.043</ele>
        <time>2014-06-08T07:14:49Z</time>
      </trkpt>
      <trkpt lat="41.954641" lon="2.470272">
        <ele>376.095</ele>
        <time>2014-06-08T07:15:16Z</time>
      </trkpt>
      <trkpt lat="41.954727" lon="2.470551">
        <ele>378.449</ele>
        <time>2014-06-08T07:15:48Z</time>
      </trkpt>
      <trkpt lat="41.954684" lon="2.471001">
        <ele>378.423</ele>
        <time>2014-06-08T07:16:01Z</time>
      </trkpt>
      <trkpt lat="41.954749" lon="2.471967">
        <ele>376.508</ele>
        <time>2014-06-08T07:16:20Z</time>
      </trkpt>
      <trkpt lat="41.954727" lon="2.472203">
        <ele>376.531</ele>
        <time>2014-06-08T07:16:24Z</time>
      </trkpt>
      <trkpt lat="41.955199" lon="2.472439">
        <ele>376.574</ele>
        <time>2014-06-08T07:16:39Z</time>
      </trkpt>
      <trkpt lat="41.955307" lon="2.472482">
        <ele>376.566</ele>
        <time>2014-06-08T07:16:43Z</time>
      </trkpt>
      <trkpt lat="41.955714" lon="2.472975">
        <ele>376.516</ele>
        <time>2014-06-08T07:16:58Z</time>
      </trkpt>
      <trkpt lat="41.956143" lon="2.473233">
        <ele>377.550</ele>
        <time>2014-06-08T07:17:17Z</time>
      </trkpt>
      <trkpt lat="41.956122" lon="2.473211">
        <ele>377.019</ele>
        <time>2014-06-08T07:17:25Z</time>
      </trkpt>
      <trkpt lat="41.956122" lon="2.473125">
        <ele>377.999</ele>
        <time>2014-06-08T07:17:46Z</time>
      </trkpt>
      <trkpt lat="41.956143" lon="2.473125">
        <ele>382.336</ele>
        <time>2014-06-08T07:18:33Z</time>
      </trkpt>
      <trkpt lat="41.956186" lon="2.473168">
        <ele>388.051</ele>
        <time>2014-06-08T07:20:34Z</time>
      </trkpt>
      <trkpt lat="41.956208" lon="2.473297">
        <ele>388.001</ele>
        <time>2014-06-08T07:20:42Z</time>
      </trkpt>
      <trkpt lat="41.955993" lon="2.473555">
        <ele>389.011</ele>
        <time>2014-06-08T07:20:51Z</time>
      </trkpt>
      <trkpt lat="41.955929" lon="2.473619">
        <ele>389.008</ele>
        <time>2014-06-08T07:20:54Z</time>
      </trkpt>
      <trkpt lat="41.956465" lon="2.473683">
        <ele>388.097</ele>
        <time>2014-06-08T07:21:10Z</time>
      </trkpt>
      <trkpt lat="41.956766" lon="2.473876">
        <ele>389.560</ele>
        <time>2014-06-08T07:21:19Z</time>
      </trkpt>
      <trkpt lat="41.956851" lon="2.473962">
        <ele>389.092</ele>
        <time>2014-06-08T07:21:21Z</time>
      </trkpt>
      <trkpt lat="41.957002" lon="2.473898">
        <ele>388.062</ele>
        <time>2014-06-08T07:21:25Z</time>
      </trkpt>
      <trkpt lat="41.957173" lon="2.473576">
        <ele>387.556</ele>
        <time>2014-06-08T07:21:33Z</time>
      </trkpt>
      <trkpt lat="41.957324" lon="2.473640">
        <ele>388.075</ele>
        <time>2014-06-08T07:21:37Z</time>
      </trkpt>
      <trkpt lat="41.957474" lon="2.473812">
        <ele>388.085</ele>
        <time>2014-06-08T07:21:41Z</time>
      </trkpt>
      <trkpt lat="41.958439" lon="2.474477">
        <ele>387.522</ele>
        <time>2014-06-08T07:22:03Z</time>
      </trkpt>
      <trkpt lat="41.958675" lon="2.474606">
        <ele>387.173</ele>
        <time>2014-06-08T07:22:08Z</time>
      </trkpt>
      <trkpt lat="41.959534" lon="2.474864">
        <ele>386.185</ele>
        <time>2014-06-08T07:22:24Z</time>
      </trkpt>
      <trkpt lat="41.959598" lon="2.475421">
        <ele>385.613</ele>
        <time>2014-06-08T07:22:32Z</time>
      </trkpt>
      <trkpt lat="41.959641" lon="2.475743">
        <ele>385.608</ele>
        <time>2014-06-08T07:22:37Z</time>
      </trkpt>
      <trkpt lat="41.959555" lon="2.476366">
        <ele>385.659</ele>
        <time>2014-06-08T07:22:46Z</time>
      </trkpt>
      <trkpt lat="41.958890" lon="2.477610">
        <ele>384.222</ele>
        <time>2014-06-08T07:23:06Z</time>
      </trkpt>
      <trkpt lat="41.959019" lon="2.477696">
        <ele>384.214</ele>
        <time>2014-06-08T07:23:10Z</time>
      </trkpt>
      <trkpt lat="41.959362" lon="2.477825">
        <ele>383.224</ele>
        <time>2014-06-08T07:23:16Z</time>
      </trkpt>
      <trkpt lat="41.959512" lon="2.478082">
        <ele>381.398</ele>
        <time>2014-06-08T07:23:22Z</time>
      </trkpt>
      <trkpt lat="41.959491" lon="2.478490">
        <ele>379.457</ele>
        <time>2014-06-08T07:23:28Z</time>
      </trkpt>
      <trkpt lat="41.959684" lon="2.478812">
        <ele>379.427</ele>
        <time>2014-06-08T07:23:34Z</time>
      </trkpt>
      <trkpt lat="41.959834" lon="2.479112">
        <ele>378.934</ele>
        <time>2014-06-08T07:23:40Z</time>
      </trkpt>
      <trkpt lat="41.960113" lon="2.479670">
        <ele>376.539</ele>
        <time>2014-06-08T07:23:56Z</time>
      </trkpt>
      <trkpt lat="41.960478" lon="2.480035">
        <ele>376.001</ele>
        <time>2014-06-08T07:24:08Z</time>
      </trkpt>
      <trkpt lat="41.960692" lon="2.480400">
        <ele>374.621</ele>
        <time>2014-06-08T07:24:17Z</time>
      </trkpt>
      <trkpt lat="41.960800" lon="2.480614">
        <ele>374.608</ele>
        <time>2014-06-08T07:24:22Z</time>
      </trkpt>
      <trkpt lat="41.961465" lon="2.481215">
        <ele>373.645</ele>
        <time>2014-06-08T07:24:42Z</time>
      </trkpt>
      <trkpt lat="41.962602" lon="2.481794">
        <ele>374.118</ele>
        <time>2014-06-08T07:25:09Z</time>
      </trkpt>
      <trkpt lat="41.963139" lon="2.482460">
        <ele>374.120</ele>
        <time>2014-06-08T07:25:24Z</time>
      </trkpt>
      <trkpt lat="41.963182" lon="2.482824">
        <ele>374.140</ele>
        <time>2014-06-08T07:25:29Z</time>
      </trkpt>
      <trkpt lat="41.963139" lon="2.482996">
        <ele>374.624</ele>
        <time>2014-06-08T07:25:32Z</time>
      </trkpt>
      <trkpt lat="41.962795" lon="2.483168">
        <ele>373.683</ele>
        <time>2014-06-08T07:25:39Z</time>
      </trkpt>
      <trkpt lat="41.962688" lon="2.483211">
        <ele>373.683</ele>
        <time>2014-06-08T07:25:41Z</time>
      </trkpt>
      <trkpt lat="41.962259" lon="2.483575">
        <ele>373.110</ele>
        <time>2014-06-08T07:25:50Z</time>
      </trkpt>
      <trkpt lat="41.962280" lon="2.483833">
        <ele>372.688</ele>
        <time>2014-06-08T07:25:55Z</time>
      </trkpt>
      <trkpt lat="41.962645" lon="2.484541">
        <ele>372.624</ele>
        <time>2014-06-08T07:26:09Z</time>
      </trkpt>
      <trkpt lat="41.962473" lon="2.484863">
        <ele>372.626</ele>
        <time>2014-06-08T07:26:16Z</time>
      </trkpt>
      <trkpt lat="41.961851" lon="2.485850">
        <ele>369.808</ele>
        <time>2014-06-08T07:26:39Z</time>
      </trkpt>
      <trkpt lat="41.961787" lon="2.485914">
        <ele>369.840</ele>
        <time>2014-06-08T07:26:41Z</time>
      </trkpt>
      <trkpt lat="41.961615" lon="2.485936">
        <ele>370.273</ele>
        <time>2014-06-08T07:26:45Z</time>
      </trkpt>
      <trkpt lat="41.961293" lon="2.485850">
        <ele>369.895</ele>
        <time>2014-06-08T07:26:52Z</time>
      </trkpt>
      <trkpt lat="41.961186" lon="2.485914">
        <ele>370.215</ele>
        <time>2014-06-08T07:26:55Z</time>
      </trkpt>
      <trkpt lat="41.960735" lon="2.486494">
        <ele>369.819</ele>
        <time>2014-06-08T07:27:09Z</time>
      </trkpt>
      <trkpt lat="41.960135" lon="2.487588">
        <ele>369.348</ele>
        <time>2014-06-08T07:27:31Z</time>
      </trkpt>
      <trkpt lat="41.959984" lon="2.488124">
        <ele>369.318</ele>
        <time>2014-06-08T07:27:41Z</time>
      </trkpt>
      <trkpt lat="41.960027" lon="2.489326">
        <ele>373.665</ele>
        <time>2014-06-08T07:28:03Z</time>
      </trkpt>
      <trkpt lat="41.960027" lon="2.489369">
        <ele>373.667</ele>
        <time>2014-06-08T07:28:04Z</time>
      </trkpt>
      <trkpt lat="41.959920" lon="2.489541">
        <ele>373.681</ele>
        <time>2014-06-08T07:28:09Z</time>
      </trkpt>
      <trkpt lat="41.959770" lon="2.489519">
        <ele>373.619</ele>
        <time>2014-06-08T07:28:13Z</time>
      </trkpt>
      <trkpt lat="41.959469" lon="2.489626">
        <ele>373.108</ele>
        <time>2014-06-08T07:28:20Z</time>
      </trkpt>
      <trkpt lat="41.959190" lon="2.489498">
        <ele>371.248</ele>
        <time>2014-06-08T07:28:29Z</time>
      </trkpt>
      <trkpt lat="41.959083" lon="2.489347">
        <ele>371.211</ele>
        <time>2014-06-08T07:28:33Z</time>
      </trkpt>
      <trkpt lat="41.958847" lon="2.489326">
        <ele>371.243</ele>
        <time>2014-06-08T07:28:39Z</time>
      </trkpt>
      <trkpt lat="41.958525" lon="2.489605">
        <ele>371.273</ele>
        <time>2014-06-08T07:28:47Z</time>
      </trkpt>
      <trkpt lat="41.958718" lon="2.489798">
        <ele>371.277</ele>
        <time>2014-06-08T07:28:59Z</time>
      </trkpt>
      <trkpt lat="41.959040" lon="2.490077">
        <ele>368.326</ele>
        <time>2014-06-08T07:29:16Z</time>
      </trkpt>
      <trkpt lat="41.959169" lon="2.490442">
        <ele>368.386</ele>
        <time>2014-06-08T07:29:25Z</time>
      </trkpt>
      <trkpt lat="41.959555" lon="2.490506">
        <ele>368.373</ele>
        <time>2014-06-08T07:29:34Z</time>
      </trkpt>
      <trkpt lat="41.959620" lon="2.490571">
        <ele>368.873</ele>
        <time>2014-06-08T07:29:36Z</time>
      </trkpt>
      <trkpt lat="41.959641" lon="2.490699">
        <ele>368.885</ele>
        <time>2014-06-08T07:29:38Z</time>
      </trkpt>
      <trkpt lat="41.959662" lon="2.491021">
        <ele>368.813</ele>
        <time>2014-06-08T07:29:43Z</time>
      </trkpt>
      <trkpt lat="41.959984" lon="2.491729">
        <ele>369.808</ele>
        <time>2014-06-08T07:29:55Z</time>
      </trkpt>
      <trkpt lat="41.960113" lon="2.491922">
        <ele>369.859</ele>
        <time>2014-06-08T07:29:59Z</time>
      </trkpt>
      <trkpt lat="41.960413" lon="2.492137">
        <ele>369.862</ele>
        <time>2014-06-08T07:30:04Z</time>
      </trkpt>
      <trkpt lat="41.960778" lon="2.492287">
        <ele>369.884</ele>
        <time>2014-06-08T07:30:10Z</time>
      </trkpt>
      <trkpt lat="41.960907" lon="2.492480">
        <ele>369.844</ele>
        <time>2014-06-08T07:30:13Z</time>
      </trkpt>
      <trkpt lat="41.961293" lon="2.493382">
        <ele>369.878</ele>
        <time>2014-06-08T07:30:25Z</time>
      </trkpt>
      <trkpt lat="41.961315" lon="2.493446">
        <ele>369.867</ele>
        <time>2014-06-08T07:30:26Z</time>
      </trkpt>
      <trkpt lat="41.961186" lon="2.493896">
        <ele>370.287</ele>
        <time>2014-06-08T07:30:34Z</time>
      </trkpt>
      <trkpt lat="41.961122" lon="2.494068">
        <ele>370.234</ele>
        <time>2014-06-08T07:30:37Z</time>
      </trkpt>
      <trkpt lat="41.960671" lon="2.494626">
        <ele>370.295</ele>
        <time>2014-06-08T07:30:49Z</time>
      </trkpt>
      <trkpt lat="41.960521" lon="2.495055">
        <ele>370.249</ele>
        <time>2014-06-08T07:30:55Z</time>
      </trkpt>
      <trkpt lat="41.960456" lon="2.495227">
        <ele>370.223</ele>
        <time>2014-06-08T07:30:58Z</time>
      </trkpt>
      <trkpt lat="41.960413" lon="2.495592">
        <ele>370.208</ele>
        <time>2014-06-08T07:31:04Z</time>
      </trkpt>
      <trkpt lat="41.960413" lon="2.495806">
        <ele>370.241</ele>
        <time>2014-06-08T07:31:07Z</time>
      </trkpt>
      <trkpt lat="41.960585" lon="2.496879">
        <ele>368.864</ele>
        <time>2014-06-08T07:31:22Z</time>
      </trkpt>
      <trkpt lat="41.960607" lon="2.497308">
        <ele>368.336</ele>
        <time>2014-06-08T07:31:28Z</time>
      </trkpt>
      <trkpt lat="41.960692" lon="2.497308">
        <ele>368.366</ele>
        <time>2014-06-08T07:31:31Z</time>
      </trkpt>
      <trkpt lat="41.960864" lon="2.497008">
        <ele>368.370</ele>
        <time>2014-06-08T07:31:38Z</time>
      </trkpt>
      <trkpt lat="41.961079" lon="2.496321">
        <ele>368.379</ele>
        <time>2014-06-08T07:31:48Z</time>
      </trkpt>
      <trkpt lat="41.961207" lon="2.496021">
        <ele>368.339</ele>
        <time>2014-06-08T07:31:52Z</time>
      </trkpt>
      <trkpt lat="41.961336" lon="2.495592">
        <ele>368.316</ele>
        <time>2014-06-08T07:31:58Z</time>
      </trkpt>
      <trkpt lat="41.961765" lon="2.495484">
        <ele>370.281</ele>
        <time>2014-06-08T07:32:07Z</time>
      </trkpt>
      <trkpt lat="41.962109" lon="2.495356">
        <ele>370.261</ele>
        <time>2014-06-08T07:32:13Z</time>
      </trkpt>
      <trkpt lat="41.962430" lon="2.495120">
        <ele>371.217</ele>
        <time>2014-06-08T07:32:20Z</time>
      </trkpt>
      <trkpt lat="41.963203" lon="2.494969">
        <ele>372.208</ele>
        <time>2014-06-08T07:32:35Z</time>
      </trkpt>
      <trkpt lat="41.963353" lon="2.495098">
        <ele>372.240</ele>
        <time>2014-06-08T07:32:38Z</time>
      </trkpt>
      <trkpt lat="41.963632" lon="2.495205">
        <ele>371.753</ele>
        <time>2014-06-08T07:32:43Z</time>
      </trkpt>
      <trkpt lat="41.963804" lon="2.495120">
        <ele>371.735</ele>
        <time>2014-06-08T07:32:46Z</time>
      </trkpt>
      <trkpt lat="41.963911" lon="2.495034">
        <ele>371.775</ele>
        <time>2014-06-08T07:32:48Z</time>
      </trkpt>
      <trkpt lat="41.964061" lon="2.494862">
        <ele>372.219</ele>
        <time>2014-06-08T07:32:51Z</time>
      </trkpt>
      <trkpt lat="41.964598" lon="2.494969">
        <ele>372.258</ele>
        <time>2014-06-08T07:33:00Z</time>
      </trkpt>
      <trkpt lat="41.964726" lon="2.494969">
        <ele>372.238</ele>
        <time>2014-06-08T07:33:02Z</time>
      </trkpt>
      <trkpt lat="41.964898" lon="2.495098">
        <ele>373.175</ele>
        <time>2014-06-08T07:33:06Z</time>
      </trkpt>
      <trkpt lat="41.965327" lon="2.496150">
        <ele>373.111</ele>
        <time>2014-06-08T07:33:22Z</time>
      </trkpt>
      <trkpt lat="41.965971" lon="2.497244">
        <ele>372.221</ele>
        <time>2014-06-08T07:33:43Z</time>
      </trkpt>
      <trkpt lat="41.966078" lon="2.497394">
        <ele>372.203</ele>
        <time>2014-06-08T07:33:47Z</time>
      </trkpt>
      <trkpt lat="41.966550" lon="2.497737">
        <ele>372.208</ele>
        <time>2014-06-08T07:34:00Z</time>
      </trkpt>
      <trkpt lat="41.966679" lon="2.498038">
        <ele>372.623</ele>
        <time>2014-06-08T07:34:06Z</time>
      </trkpt>
      <trkpt lat="41.967194" lon="2.498574">
        <ele>374.166</ele>
        <time>2014-06-08T07:34:21Z</time>
      </trkpt>
      <trkpt lat="41.967301" lon="2.498617">
        <ele>374.138</ele>
        <time>2014-06-08T07:34:24Z</time>
      </trkpt>
      <trkpt lat="41.967452" lon="2.498553">
        <ele>374.188</ele>
        <time>2014-06-08T07:34:27Z</time>
      </trkpt>
      <trkpt lat="41.967666" lon="2.498510">
        <ele>374.142</ele>
        <time>2014-06-08T07:34:32Z</time>
      </trkpt>
      <trkpt lat="41.967902" lon="2.498574">
        <ele>374.621</ele>
        <time>2014-06-08T07:34:37Z</time>
      </trkpt>
      <trkpt lat="41.968310" lon="2.498703">
        <ele>375.581</ele>
        <time>2014-06-08T07:34:45Z</time>
      </trkpt>
      <trkpt lat="41.968396" lon="2.498703">
        <ele>375.558</ele>
        <time>2014-06-08T07:34:47Z</time>
      </trkpt>
      <trkpt lat="41.968739" lon="2.498617">
        <ele>375.529</ele>
        <time>2014-06-08T07:34:55Z</time>
      </trkpt>
      <trkpt lat="41.968868" lon="2.498510">
        <ele>375.500</ele>
        <time>2014-06-08T07:34:59Z</time>
      </trkpt>
      <trkpt lat="41.969254" lon="2.497952">
        <ele>377.520</ele>
        <time>2014-06-08T07:35:14Z</time>
      </trkpt>
      <trkpt lat="41.969404" lon="2.498016">
        <ele>379.408</ele>
        <time>2014-06-08T07:35:18Z</time>
      </trkpt>
      <trkpt lat="41.969640" lon="2.498102">
        <ele>379.934</ele>
        <time>2014-06-08T07:35:23Z</time>
      </trkpt>
      <trkpt lat="41.969941" lon="2.497995">
        <ele>380.377</ele>
        <time>2014-06-08T07:35:31Z</time>
      </trkpt>
      <trkpt lat="41.970649" lon="2.498381">
        <ele>384.239</ele>
        <time>2014-06-08T07:35:52Z</time>
      </trkpt>
      <trkpt lat="41.971293" lon="2.498617">
        <ele>386.139</ele>
        <time>2014-06-08T07:36:11Z</time>
      </trkpt>
      <trkpt lat="41.972001" lon="2.499089">
        <ele>392.493</ele>
        <time>2014-06-08T07:36:36Z</time>
      </trkpt>
      <trkpt lat="41.972580" lon="2.499347">
        <ele>398.122</ele>
        <time>2014-06-08T07:36:56Z</time>
      </trkpt>
      <trkpt lat="41.972687" lon="2.499390">
        <ele>399.682</ele>
        <time>2014-06-08T07:37:00Z</time>
      </trkpt>
      <trkpt lat="41.972537" lon="2.499669">
        <ele>400.049</ele>
        <time>2014-06-08T07:37:09Z</time>
      </trkpt>
      <trkpt lat="41.972430" lon="2.499690">
        <ele>400.522</ele>
        <time>2014-06-08T07:37:11Z</time>
      </trkpt>
      <trkpt lat="41.971400" lon="2.499905">
        <ele>400.562</ele>
        <time>2014-06-08T07:37:29Z</time>
      </trkpt>
      <trkpt lat="41.971335" lon="2.499948">
        <ele>400.508</ele>
        <time>2014-06-08T07:37:30Z</time>
      </trkpt>
      <trkpt lat="41.971014" lon="2.500377">
        <ele>400.508</ele>
        <time>2014-06-08T07:37:36Z</time>
      </trkpt>
      <trkpt lat="41.970928" lon="2.500570">
        <ele>400.554</ele>
        <time>2014-06-08T07:37:38Z</time>
      </trkpt>
      <trkpt lat="41.970756" lon="2.501171">
        <ele>400.517</ele>
        <time>2014-06-08T07:37:44Z</time>
      </trkpt>
      <trkpt lat="41.970563" lon="2.501664">
        <ele>401.089</ele>
        <time>2014-06-08T07:37:59Z</time>
      </trkpt>
      <trkpt lat="41.970520" lon="2.501707">
        <ele>401.079</ele>
        <time>2014-06-08T07:38:01Z</time>
      </trkpt>
      <trkpt lat="41.970391" lon="2.501943">
        <ele>400.553</ele>
        <time>2014-06-08T07:38:05Z</time>
      </trkpt>
      <trkpt lat="41.970456" lon="2.502437">
        <ele>399.622</ele>
        <time>2014-06-08T07:38:12Z</time>
      </trkpt>
      <trkpt lat="41.970434" lon="2.503252">
        <ele>399.122</ele>
        <time>2014-06-08T07:38:22Z</time>
      </trkpt>
      <trkpt lat="41.970370" lon="2.503402">
        <ele>398.649</ele>
        <time>2014-06-08T07:38:24Z</time>
      </trkpt>
      <trkpt lat="41.970327" lon="2.503595">
        <ele>398.158</ele>
        <time>2014-06-08T07:38:27Z</time>
      </trkpt>
      <trkpt lat="41.970563" lon="2.503788">
        <ele>397.652</ele>
        <time>2014-06-08T07:38:32Z</time>
      </trkpt>
      <trkpt lat="41.970778" lon="2.503874">
        <ele>396.717</ele>
        <time>2014-06-08T07:38:36Z</time>
      </trkpt>
      <trkpt lat="41.970971" lon="2.504818">
        <ele>395.708</ele>
        <time>2014-06-08T07:38:52Z</time>
      </trkpt>
      <trkpt lat="41.971035" lon="2.504969">
        <ele>394.887</ele>
        <time>2014-06-08T07:38:54Z</time>
      </trkpt>
      <trkpt lat="41.971207" lon="2.505505">
        <ele>393.310</ele>
        <time>2014-06-08T07:39:00Z</time>
      </trkpt>
      <trkpt lat="41.971271" lon="2.505784">
        <ele>393.372</ele>
        <time>2014-06-08T07:39:03Z</time>
      </trkpt>
      <trkpt lat="41.971228" lon="2.506042">
        <ele>392.852</ele>
        <time>2014-06-08T07:39:06Z</time>
      </trkpt>
      <trkpt lat="41.970649" lon="2.506685">
        <ele>389.066</ele>
        <time>2014-06-08T07:39:18Z</time>
      </trkpt>
      <trkpt lat="41.970541" lon="2.506964">
        <ele>389.065</ele>
        <time>2014-06-08T07:39:22Z</time>
      </trkpt>
      <trkpt lat="41.970627" lon="2.507093">
        <ele>389.565</ele>
        <time>2014-06-08T07:39:25Z</time>
      </trkpt>
      <trkpt lat="41.970842" lon="2.507308">
        <ele>389.012</ele>
        <time>2014-06-08T07:39:30Z</time>
      </trkpt>
      <trkpt lat="41.971207" lon="2.507715">
        <ele>387.576</ele>
        <time>2014-06-08T07:39:38Z</time>
      </trkpt>
      <trkpt lat="41.971443" lon="2.509239">
        <ele>385.190</ele>
        <time>2014-06-08T07:39:53Z</time>
      </trkpt>
      <trkpt lat="41.971464" lon="2.509496">
        <ele>385.119</ele>
        <time>2014-06-08T07:39:58Z</time>
      </trkpt>
      <trkpt lat="41.970906" lon="2.510655">
        <ele>385.108</ele>
        <time>2014-06-08T07:40:06Z</time>
      </trkpt>
      <trkpt lat="41.970713" lon="2.510204">
        <ele>385.129</ele>
        <time>2014-06-08T07:40:08Z</time>
      </trkpt>
      <trkpt lat="41.970477" lon="2.510118">
        <ele>385.152</ele>
        <time>2014-06-08T07:40:12Z</time>
      </trkpt>
      <trkpt lat="41.970048" lon="2.510183">
        <ele>385.114</ele>
        <time>2014-06-08T07:40:20Z</time>
      </trkpt>
      <trkpt lat="41.969619" lon="2.510569">
        <ele>384.244</ele>
        <time>2014-06-08T07:40:40Z</time>
      </trkpt>
      <trkpt lat="41.969512" lon="2.510633">
        <ele>384.298</ele>
        <time>2014-06-08T07:40:44Z</time>
      </trkpt>
      <trkpt lat="41.969705" lon="2.510805">
        <ele>382.777</ele>
        <time>2014-06-08T07:40:51Z</time>
      </trkpt>
      <trkpt lat="41.970048" lon="2.510805">
        <ele>382.357</ele>
        <time>2014-06-08T07:40:56Z</time>
      </trkpt>
      <trkpt lat="41.970220" lon="2.510805">
        <ele>382.374</ele>
        <time>2014-06-08T07:40:58Z</time>
      </trkpt>
      <trkpt lat="41.970584" lon="2.511299">
        <ele>382.314</ele>
        <time>2014-06-08T07:41:05Z</time>
      </trkpt>
      <trkpt lat="41.970713" lon="2.511621">
        <ele>382.354</ele>
        <time>2014-06-08T07:41:09Z</time>
      </trkpt>
      <trkpt lat="41.970627" lon="2.511985">
        <ele>382.309</ele>
        <time>2014-06-08T07:41:15Z</time>
      </trkpt>
      <trkpt lat="41.970906" lon="2.512114">
        <ele>382.308</ele>
        <time>2014-06-08T07:41:23Z</time>
      </trkpt>
      <trkpt lat="41.971078" lon="2.512264">
        <ele>382.343</ele>
        <time>2014-06-08T07:41:26Z</time>
      </trkpt>
      <trkpt lat="41.971207" lon="2.512393">
        <ele>382.316</ele>
        <time>2014-06-08T07:41:28Z</time>
      </trkpt>
      <trkpt lat="41.971507" lon="2.512522">
        <ele>382.338</ele>
        <time>2014-06-08T07:41:32Z</time>
      </trkpt>
      <trkpt lat="41.971743" lon="2.512801">
        <ele>379.998</ele>
        <time>2014-06-08T07:41:36Z</time>
      </trkpt>
      <trkpt lat="41.971829" lon="2.513080">
        <ele>379.932</ele>
        <time>2014-06-08T07:41:39Z</time>
      </trkpt>
      <trkpt lat="41.971872" lon="2.513251">
        <ele>379.951</ele>
        <time>2014-06-08T07:41:41Z</time>
      </trkpt>
      <trkpt lat="41.971893" lon="2.513530">
        <ele>379.911</ele>
        <time>2014-06-08T07:41:44Z</time>
      </trkpt>
      <trkpt lat="41.971829" lon="2.513788">
        <ele>379.968</ele>
        <time>2014-06-08T07:41:47Z</time>
      </trkpt>
      <trkpt lat="41.971142" lon="2.515054">
        <ele>376.523</ele>
        <time>2014-06-08T07:42:06Z</time>
      </trkpt>
      <trkpt lat="41.971078" lon="2.515183">
        <ele>376.583</ele>
        <time>2014-06-08T07:42:08Z</time>
      </trkpt>
      <trkpt lat="41.971700" lon="2.515011">
        <ele>375.511</ele>
        <time>2014-06-08T07:42:12Z</time>
      </trkpt>
      <trkpt lat="41.971872" lon="2.515183">
        <ele>375.508</ele>
        <time>2014-06-08T07:42:16Z</time>
      </trkpt>
      <trkpt lat="41.972108" lon="2.515333">
        <ele>375.134</ele>
        <time>2014-06-08T07:42:19Z</time>
      </trkpt>
      <trkpt lat="41.972666" lon="2.516427">
        <ele>373.657</ele>
        <time>2014-06-08T07:42:39Z</time>
      </trkpt>
      <trkpt lat="41.972280" lon="2.517350">
        <ele>373.629</ele>
        <time>2014-06-08T07:42:47Z</time>
      </trkpt>
      <trkpt lat="41.971850" lon="2.518444">
        <ele>373.679</ele>
        <time>2014-06-08T07:43:00Z</time>
      </trkpt>
      <trkpt lat="41.971250" lon="2.519367">
        <ele>374.133</ele>
        <time>2014-06-08T07:43:14Z</time>
      </trkpt>
      <trkpt lat="41.970091" lon="2.520461">
        <ele>377.552</ele>
        <time>2014-06-08T07:43:39Z</time>
      </trkpt>
      <trkpt lat="41.970220" lon="2.520461">
        <ele>377.582</ele>
        <time>2014-06-08T07:43:43Z</time>
      </trkpt>
      <trkpt lat="41.970327" lon="2.520418">
        <ele>377.529</ele>
        <time>2014-06-08T07:43:45Z</time>
      </trkpt>
      <trkpt lat="41.970563" lon="2.520354">
        <ele>377.531</ele>
        <time>2014-06-08T07:43:49Z</time>
      </trkpt>
      <trkpt lat="41.970992" lon="2.520525">
        <ele>376.561</ele>
        <time>2014-06-08T07:43:56Z</time>
      </trkpt>
      <trkpt lat="41.971529" lon="2.520847">
        <ele>375.107</ele>
        <time>2014-06-08T07:44:02Z</time>
      </trkpt>
      <trkpt lat="41.971486" lon="2.521040">
        <ele>375.108</ele>
        <time>2014-06-08T07:44:04Z</time>
      </trkpt>
      <trkpt lat="41.970713" lon="2.522564">
        <ele>375.525</ele>
        <time>2014-06-08T07:44:26Z</time>
      </trkpt>
      <trkpt lat="41.970027" lon="2.524366">
        <ele>375.598</ele>
        <time>2014-06-08T07:44:51Z</time>
      </trkpt>
      <trkpt lat="41.969726" lon="2.524838">
        <ele>375.550</ele>
        <time>2014-06-08T07:45:00Z</time>
      </trkpt>
      <trkpt lat="41.969855" lon="2.525589">
        <ele>375.580</ele>
        <time>2014-06-08T07:45:17Z</time>
      </trkpt>
      <trkpt lat="41.971056" lon="2.524624">
        <ele>375.114</ele>
        <time>2014-06-08T07:45:27Z</time>
      </trkpt>
      <trkpt lat="41.971486" lon="2.524195">
        <ele>375.163</ele>
        <time>2014-06-08T07:45:37Z</time>
      </trkpt>
      <trkpt lat="41.971679" lon="2.524002">
        <ele>375.163</ele>
        <time>2014-06-08T07:45:41Z</time>
      </trkpt>
      <trkpt lat="41.971829" lon="2.523766">
        <ele>373.110</ele>
        <time>2014-06-08T07:45:45Z</time>
      </trkpt>
      <trkpt lat="41.971872" lon="2.523615">
        <ele>373.144</ele>
        <time>2014-06-08T07:45:47Z</time>
      </trkpt>
      <trkpt lat="41.972151" lon="2.523036">
        <ele>372.205</ele>
        <time>2014-06-08T07:45:56Z</time>
      </trkpt>
      <trkpt lat="41.972387" lon="2.522800">
        <ele>372.215</ele>
        <time>2014-06-08T07:46:01Z</time>
      </trkpt>
      <trkpt lat="41.973674" lon="2.522178">
        <ele>371.208</ele>
        <time>2014-06-08T07:46:23Z</time>
      </trkpt>
      <trkpt lat="41.973739" lon="2.522156">
        <ele>371.296</ele>
        <time>2014-06-08T07:46:24Z</time>
      </trkpt>
      <trkpt lat="41.974039" lon="2.522306">
        <ele>371.219</ele>
        <time>2014-06-08T07:46:29Z</time>
      </trkpt>
      <trkpt lat="41.974168" lon="2.522371">
        <ele>371.271</ele>
        <time>2014-06-08T07:46:31Z</time>
      </trkpt>
      <trkpt lat="41.975477" lon="2.522006">
        <ele>371.261</ele>
        <time>2014-06-08T07:46:52Z</time>
      </trkpt>
      <trkpt lat="41.975734" lon="2.522328">
        <ele>370.755</ele>
        <time>2014-06-08T07:46:58Z</time>
      </trkpt>
      <trkpt lat="41.976421" lon="2.522800">
        <ele>368.814</ele>
        <time>2014-06-08T07:47:10Z</time>
      </trkpt>
      <trkpt lat="41.976507" lon="2.522907">
        <ele>368.344</ele>
        <time>2014-06-08T07:47:12Z</time>
      </trkpt>
      <trkpt lat="41.976979" lon="2.523315">
        <ele>367.821</ele>
        <time>2014-06-08T07:47:22Z</time>
      </trkpt>
      <trkpt lat="41.977386" lon="2.523508">
        <ele>366.955</ele>
        <time>2014-06-08T07:47:30Z</time>
      </trkpt>
      <trkpt lat="41.977515" lon="2.523980">
        <ele>366.907</ele>
        <time>2014-06-08T07:47:38Z</time>
      </trkpt>
      <trkpt lat="41.977451" lon="2.524109">
        <ele>366.917</ele>
        <time>2014-06-08T07:47:40Z</time>
      </trkpt>
      <trkpt lat="41.977108" lon="2.525182">
        <ele>366.908</ele>
        <time>2014-06-08T07:47:55Z</time>
      </trkpt>
      <trkpt lat="41.977086" lon="2.525246">
        <ele>366.927</ele>
        <time>2014-06-08T07:47:56Z</time>
      </trkpt>
      <trkpt lat="41.977129" lon="2.525611">
        <ele>367.470</ele>
        <time>2014-06-08T07:48:01Z</time>
      </trkpt>
      <trkpt lat="41.977193" lon="2.525847">
        <ele>366.962</ele>
        <time>2014-06-08T07:48:04Z</time>
      </trkpt>
      <trkpt lat="41.977215" lon="2.525997">
        <ele>366.922</ele>
        <time>2014-06-08T07:48:06Z</time>
      </trkpt>
      <trkpt lat="41.977129" lon="2.526491">
        <ele>367.436</ele>
        <time>2014-06-08T07:48:13Z</time>
      </trkpt>
      <trkpt lat="41.977258" lon="2.526877">
        <ele>366.485</ele>
        <time>2014-06-08T07:48:19Z</time>
      </trkpt>
      <trkpt lat="41.977408" lon="2.527092">
        <ele>366.935</ele>
        <time>2014-06-08T07:48:23Z</time>
      </trkpt>
      <trkpt lat="41.977365" lon="2.527499">
        <ele>366.952</ele>
        <time>2014-06-08T07:48:29Z</time>
      </trkpt>
      <trkpt lat="41.977258" lon="2.527843">
        <ele>366.971</ele>
        <time>2014-06-08T07:48:34Z</time>
      </trkpt>
      <trkpt lat="41.977301" lon="2.528164">
        <ele>365.941</ele>
        <time>2014-06-08T07:48:39Z</time>
      </trkpt>
      <trkpt lat="41.977365" lon="2.528272">
        <ele>365.915</ele>
        <time>2014-06-08T07:48:41Z</time>
      </trkpt>
      <trkpt lat="41.977601" lon="2.528379">
        <ele>365.408</ele>
        <time>2014-06-08T07:48:46Z</time>
      </trkpt>
      <trkpt lat="41.977751" lon="2.528358">
        <ele>365.969</ele>
        <time>2014-06-08T07:48:49Z</time>
      </trkpt>
      <trkpt lat="41.977944" lon="2.528422">
        <ele>365.972</ele>
        <time>2014-06-08T07:48:53Z</time>
      </trkpt>
      <trkpt lat="41.978717" lon="2.529280">
        <ele>362.614</ele>
        <time>2014-06-08T07:49:12Z</time>
      </trkpt>
      <trkpt lat="41.978867" lon="2.529495">
        <ele>362.114</ele>
        <time>2014-06-08T07:49:16Z</time>
      </trkpt>
      <trkpt lat="41.979425" lon="2.529795">
        <ele>361.638</ele>
        <time>2014-06-08T07:49:28Z</time>
      </trkpt>
      <trkpt lat="41.979640" lon="2.529774">
        <ele>361.697</ele>
        <time>2014-06-08T07:49:34Z</time>
      </trkpt>
      <trkpt lat="41.979661" lon="2.529666">
        <ele>361.667</ele>
        <time>2014-06-08T07:49:37Z</time>
      </trkpt>
      <trkpt lat="41.979661" lon="2.529559">
        <ele>359.254</ele>
        <time>2014-06-08T07:49:49Z</time>
      </trkpt>
      <trkpt lat="41.979682" lon="2.529538">
        <ele>360.289</ele>
        <time>2014-06-08T07:57:02Z</time>
      </trkpt>
      <trkpt lat="41.979425" lon="2.529302">
        <ele>359.206</ele>
        <time>2014-06-08T07:57:17Z</time>
      </trkpt>
      <trkpt lat="41.979189" lon="2.528658">
        <ele>358.726</ele>
        <time>2014-06-08T07:57:34Z</time>
      </trkpt>
      <trkpt lat="41.979082" lon="2.528079">
        <ele>359.708</ele>
        <time>2014-06-08T07:57:50Z</time>
      </trkpt>
      <trkpt lat="41.979167" lon="2.527113">
        <ele>360.680</ele>
        <time>2014-06-08T07:58:10Z</time>
      </trkpt>
      <trkpt lat="41.979511" lon="2.526340">
        <ele>360.663</ele>
        <time>2014-06-08T07:58:29Z</time>
      </trkpt>
      <trkpt lat="41.980112" lon="2.525718">
        <ele>362.175</ele>
        <time>2014-06-08T07:58:49Z</time>
      </trkpt>
      <trkpt lat="41.980541" lon="2.525568">
        <ele>361.135</ele>
        <time>2014-06-08T07:59:05Z</time>
      </trkpt>
      <trkpt lat="41.980648" lon="2.525525">
        <ele>360.659</ele>
        <time>2014-06-08T07:59:19Z</time>
      </trkpt>
      <trkpt lat="41.980648" lon="2.525504">
        <ele>357.728</ele>
        <time>2014-06-08T07:59:54Z</time>
      </trkpt>
      <trkpt lat="41.980670" lon="2.525525">
        <ele>364.578</ele>
        <time>2014-06-08T08:04:52Z</time>
      </trkpt>
      <trkpt lat="41.980648" lon="2.525547">
        <ele>360.215</ele>
        <time>2014-06-08T08:06:36Z</time>
      </trkpt>
      <trkpt lat="41.980605" lon="2.525418">
        <ele>360.663</ele>
        <time>2014-06-08T08:06:49Z</time>
      </trkpt>
      <trkpt lat="41.980670" lon="2.525353">
        <ele>361.144</ele>
        <time>2014-06-08T08:06:53Z</time>
      </trkpt>
      <trkpt lat="41.980970" lon="2.525289">
        <ele>361.618</ele>
        <time>2014-06-08T08:07:08Z</time>
      </trkpt>
      <trkpt lat="41.981056" lon="2.525418">
        <ele>361.108</ele>
        <time>2014-06-08T08:07:15Z</time>
      </trkpt>
      <trkpt lat="41.981463" lon="2.525525">
        <ele>363.598</ele>
        <time>2014-06-08T08:07:37Z</time>
      </trkpt>
      <trkpt lat="41.981957" lon="2.525547">
        <ele>360.661</ele>
        <time>2014-06-08T08:07:54Z</time>
      </trkpt>
      <trkpt lat="41.982279" lon="2.525589">
        <ele>357.793</ele>
        <time>2014-06-08T08:08:02Z</time>
      </trkpt>
      <trkpt lat="41.982729" lon="2.525783">
        <ele>354.963</ele>
        <time>2014-06-08T08:08:11Z</time>
      </trkpt>
      <trkpt lat="41.982901" lon="2.525826">
        <ele>353.917</ele>
        <time>2014-06-08T08:08:14Z</time>
      </trkpt>
      <trkpt lat="41.983480" lon="2.526233">
        <ele>351.046</ele>
        <time>2014-06-08T08:08:26Z</time>
      </trkpt>
      <trkpt lat="41.983695" lon="2.526405">
        <ele>349.676</ele>
        <time>2014-06-08T08:08:31Z</time>
      </trkpt>
      <trkpt lat="41.983824" lon="2.526598">
        <ele>348.623</ele>
        <time>2014-06-08T08:08:35Z</time>
      </trkpt>
      <trkpt lat="41.983995" lon="2.526705">
        <ele>347.718</ele>
        <time>2014-06-08T08:08:38Z</time>
      </trkpt>
      <trkpt lat="41.984146" lon="2.526920">
        <ele>344.898</ele>
        <time>2014-06-08T08:08:42Z</time>
      </trkpt>
      <trkpt lat="41.984210" lon="2.527049">
        <ele>343.817</ele>
        <time>2014-06-08T08:08:44Z</time>
      </trkpt>
      <trkpt lat="41.984274" lon="2.527220">
        <ele>340.908</ele>
        <time>2014-06-08T08:08:47Z</time>
      </trkpt>
      <trkpt lat="41.984360" lon="2.527413">
        <ele>340.023</ele>
        <time>2014-06-08T08:08:50Z</time>
      </trkpt>
      <trkpt lat="41.984596" lon="2.527585">
        <ele>338.046</ele>
        <time>2014-06-08T08:08:54Z</time>
      </trkpt>
      <trkpt lat="41.984746" lon="2.527735">
        <ele>337.618</ele>
        <time>2014-06-08T08:08:57Z</time>
      </trkpt>
      <trkpt lat="41.985304" lon="2.528958">
        <ele>334.788</ele>
        <time>2014-06-08T08:09:13Z</time>
      </trkpt>
      <trkpt lat="41.985433" lon="2.529473">
        <ele>332.382</ele>
        <time>2014-06-08T08:09:19Z</time>
      </trkpt>
      <trkpt lat="41.985712" lon="2.530589">
        <ele>328.481</ele>
        <time>2014-06-08T08:09:30Z</time>
      </trkpt>
      <trkpt lat="41.985605" lon="2.531834">
        <ele>327.561</ele>
        <time>2014-06-08T08:09:39Z</time>
      </trkpt>
      <trkpt lat="41.985626" lon="2.532992">
        <ele>327.568</ele>
        <time>2014-06-08T08:09:48Z</time>
      </trkpt>
      <trkpt lat="41.985497" lon="2.533379">
        <ele>327.548</ele>
        <time>2014-06-08T08:09:52Z</time>
      </trkpt>
      <trkpt lat="41.985326" lon="2.534173">
        <ele>327.561</ele>
        <time>2014-06-08T08:09:59Z</time>
      </trkpt>
      <trkpt lat="41.985369" lon="2.535160">
        <ele>327.517</ele>
        <time>2014-06-08T08:10:07Z</time>
      </trkpt>
      <trkpt lat="41.985390" lon="2.535546">
        <ele>327.508</ele>
        <time>2014-06-08T08:10:10Z</time>
      </trkpt>
      <trkpt lat="41.985133" lon="2.537370">
        <ele>322.296</ele>
        <time>2014-06-08T08:10:22Z</time>
      </trkpt>
      <trkpt lat="41.984661" lon="2.538614">
        <ele>248.269</ele>
        <time>2014-06-08T08:10:33Z</time>
      </trkpt>
      <trkpt lat="41.984489" lon="2.539258">
        <ele>246.771</ele>
        <time>2014-06-08T08:10:43Z</time>
      </trkpt>
      <trkpt lat="41.984339" lon="2.539730">
        <ele>248.221</ele>
        <time>2014-06-08T08:10:53Z</time>
      </trkpt>
      <trkpt lat="41.984253" lon="2.540138">
        <ele>248.695</ele>
        <time>2014-06-08T08:11:00Z</time>
      </trkpt>
      <trkpt lat="41.984189" lon="2.540438">
        <ele>248.694</ele>
        <time>2014-06-08T08:11:04Z</time>
      </trkpt>
      <trkpt lat="41.984189" lon="2.540696">
        <ele>248.634</ele>
        <time>2014-06-08T08:11:07Z</time>
      </trkpt>
      <trkpt lat="41.984382" lon="2.541747">
        <ele>244.361</ele>
        <time>2014-06-08T08:11:20Z</time>
      </trkpt>
      <trkpt lat="41.984940" lon="2.542970">
        <ele>241.933</ele>
        <time>2014-06-08T08:11:42Z</time>
      </trkpt>
      <trkpt lat="41.985562" lon="2.544322">
        <ele>240.923</ele>
        <time>2014-06-08T08:12:05Z</time>
      </trkpt>
      <trkpt lat="41.985669" lon="2.544494">
        <ele>240.515</ele>
        <time>2014-06-08T08:12:08Z</time>
      </trkpt>
      <trkpt lat="41.986485" lon="2.546189">
        <ele>238.108</ele>
        <time>2014-06-08T08:12:34Z</time>
      </trkpt>
      <trkpt lat="41.986935" lon="2.547755">
        <ele>238.145</ele>
        <time>2014-06-08T08:12:55Z</time>
      </trkpt>
      <trkpt lat="41.986935" lon="2.547841">
        <ele>237.678</ele>
        <time>2014-06-08T08:12:56Z</time>
      </trkpt>
      <trkpt lat="41.986678" lon="2.548807">
        <ele>237.130</ele>
        <time>2014-06-08T08:13:08Z</time>
      </trkpt>
      <trkpt lat="41.985734" lon="2.549708">
        <ele>236.630</ele>
        <time>2014-06-08T08:13:24Z</time>
      </trkpt>
      <trkpt lat="41.984446" lon="2.550995">
        <ele>239.014</ele>
        <time>2014-06-08T08:13:47Z</time>
      </trkpt>
      <trkpt lat="41.984274" lon="2.551253">
        <ele>239.083</ele>
        <time>2014-06-08T08:13:51Z</time>
      </trkpt>
      <trkpt lat="41.984231" lon="2.551382">
        <ele>239.043</ele>
        <time>2014-06-08T08:13:54Z</time>
      </trkpt>
      <trkpt lat="41.984725" lon="2.552476">
        <ele>238.140</ele>
        <time>2014-06-08T08:14:09Z</time>
      </trkpt>
      <trkpt lat="41.985905" lon="2.553012">
        <ele>234.237</ele>
        <time>2014-06-08T08:14:24Z</time>
      </trkpt>
      <trkpt lat="41.987407" lon="2.553957">
        <ele>229.449</ele>
        <time>2014-06-08T08:14:48Z</time>
      </trkpt>
      <trkpt lat="41.989188" lon="2.554879">
        <ele>227.513</ele>
        <time>2014-06-08T08:15:15Z</time>
      </trkpt>
      <trkpt lat="41.990647" lon="2.555373">
        <ele>226.508</ele>
        <time>2014-06-08T08:15:38Z</time>
      </trkpt>
      <trkpt lat="41.992064" lon="2.556252">
        <ele>227.595</ele>
        <time>2014-06-08T08:16:03Z</time>
      </trkpt>
      <trkpt lat="41.992235" lon="2.556510">
        <ele>226.548</ele>
        <time>2014-06-08T08:16:07Z</time>
      </trkpt>
      <trkpt lat="41.992407" lon="2.556896">
        <ele>226.080</ele>
        <time>2014-06-08T08:16:12Z</time>
      </trkpt>
      <trkpt lat="41.992536" lon="2.558119">
        <ele>226.530</ele>
        <time>2014-06-08T08:16:28Z</time>
      </trkpt>
      <trkpt lat="41.992342" lon="2.558634">
        <ele>226.524</ele>
        <time>2014-06-08T08:16:35Z</time>
      </trkpt>
      <trkpt lat="41.991763" lon="2.559514">
        <ele>226.553</ele>
        <time>2014-06-08T08:16:50Z</time>
      </trkpt>
      <trkpt lat="41.990991" lon="2.560608">
        <ele>226.533</ele>
        <time>2014-06-08T08:17:09Z</time>
      </trkpt>
      <trkpt lat="41.990948" lon="2.560759">
        <ele>226.550</ele>
        <time>2014-06-08T08:17:11Z</time>
      </trkpt>
      <trkpt lat="41.990991" lon="2.561274">
        <ele>225.688</ele>
        <time>2014-06-08T08:17:17Z</time>
      </trkpt>
      <trkpt lat="41.991034" lon="2.561424">
        <ele>225.624</ele>
        <time>2014-06-08T08:17:19Z</time>
      </trkpt>
      <trkpt lat="41.991162" lon="2.561703">
        <ele>225.126</ele>
        <time>2014-06-08T08:17:23Z</time>
      </trkpt>
      <trkpt lat="41.991806" lon="2.562518">
        <ele>224.608</ele>
        <time>2014-06-08T08:17:37Z</time>
      </trkpt>
      <trkpt lat="41.992579" lon="2.564342">
        <ele>221.220</ele>
        <time>2014-06-08T08:18:03Z</time>
      </trkpt>
      <trkpt lat="41.992965" lon="2.566102">
        <ele>219.353</ele>
        <time>2014-06-08T08:18:21Z</time>
      </trkpt>
      <trkpt lat="41.993136" lon="2.568226">
        <ele>218.445</ele>
        <time>2014-06-08T08:18:44Z</time>
      </trkpt>
      <trkpt lat="41.993115" lon="2.568591">
        <ele>218.435</ele>
        <time>2014-06-08T08:18:48Z</time>
      </trkpt>
      <trkpt lat="41.992879" lon="2.569020">
        <ele>216.959</ele>
        <time>2014-06-08T08:18:54Z</time>
      </trkpt>
      <trkpt lat="41.991785" lon="2.569942">
        <ele>216.938</ele>
        <time>2014-06-08T08:19:13Z</time>
      </trkpt>
      <trkpt lat="41.990926" lon="2.570071">
        <ele>217.498</ele>
        <time>2014-06-08T08:19:27Z</time>
      </trkpt>
      <trkpt lat="41.990068" lon="2.570093">
        <ele>216.915</ele>
        <time>2014-06-08T08:19:44Z</time>
      </trkpt>
      <trkpt lat="41.988931" lon="2.570264">
        <ele>215.096</ele>
        <time>2014-06-08T08:20:05Z</time>
      </trkpt>
      <trkpt lat="41.988416" lon="2.570329">
        <ele>214.531</ele>
        <time>2014-06-08T08:20:14Z</time>
      </trkpt>
      <trkpt lat="41.987321" lon="2.570758">
        <ele>211.624</ele>
        <time>2014-06-08T08:20:32Z</time>
      </trkpt>
      <trkpt lat="41.987000" lon="2.570908">
        <ele>211.608</ele>
        <time>2014-06-08T08:20:38Z</time>
      </trkpt>
      <trkpt lat="41.986206" lon="2.571659">
        <ele>213.631</ele>
        <time>2014-06-08T08:20:57Z</time>
      </trkpt>
      <trkpt lat="41.985798" lon="2.572496">
        <ele>213.174</ele>
        <time>2014-06-08T08:21:14Z</time>
      </trkpt>
      <trkpt lat="41.985841" lon="2.573204">
        <ele>212.156</ele>
        <time>2014-06-08T08:21:25Z</time>
      </trkpt>
      <trkpt lat="41.986077" lon="2.574620">
        <ele>210.776</ele>
        <time>2014-06-08T08:21:43Z</time>
      </trkpt>
      <trkpt lat="41.986141" lon="2.576530">
        <ele>205.930</ele>
        <time>2014-06-08T08:22:03Z</time>
      </trkpt>
      <trkpt lat="41.985991" lon="2.578182">
        <ele>204.479</ele>
        <time>2014-06-08T08:22:21Z</time>
      </trkpt>
      <trkpt lat="41.985669" lon="2.579598">
        <ele>204.499</ele>
        <time>2014-06-08T08:22:39Z</time>
      </trkpt>
      <trkpt lat="41.985047" lon="2.580864">
        <ele>202.576</ele>
        <time>2014-06-08T08:22:57Z</time>
      </trkpt>
      <trkpt lat="41.984167" lon="2.582109">
        <ele>203.046</ele>
        <time>2014-06-08T08:23:17Z</time>
      </trkpt>
      <trkpt lat="41.983202" lon="2.584062">
        <ele>203.988</ele>
        <time>2014-06-08T08:23:45Z</time>
      </trkpt>
      <trkpt lat="41.982923" lon="2.584813">
        <ele>205.416</ele>
        <time>2014-06-08T08:23:55Z</time>
      </trkpt>
      <trkpt lat="41.982880" lon="2.586637">
        <ele>206.308</ele>
        <time>2014-06-08T08:24:16Z</time>
      </trkpt>
      <trkpt lat="41.982729" lon="2.587345">
        <ele>205.986</ele>
        <time>2014-06-08T08:24:25Z</time>
      </trkpt>
      <trkpt lat="41.981957" lon="2.588482">
        <ele>205.459</ele>
        <time>2014-06-08T08:24:44Z</time>
      </trkpt>
      <trkpt lat="41.981893" lon="2.588525">
        <ele>205.481</ele>
        <time>2014-06-08T08:24:45Z</time>
      </trkpt>
      <trkpt lat="41.981249" lon="2.588933">
        <ele>205.471</ele>
        <time>2014-06-08T08:24:56Z</time>
      </trkpt>
      <trkpt lat="41.979811" lon="2.590714">
        <ele>205.475</ele>
        <time>2014-06-08T08:25:29Z</time>
      </trkpt>
      <trkpt lat="41.979189" lon="2.591701">
        <ele>205.414</ele>
        <time>2014-06-08T08:25:46Z</time>
      </trkpt>
      <trkpt lat="41.979640" lon="2.593524">
        <ele>204.964</ele>
        <time>2014-06-08T08:26:09Z</time>
      </trkpt>
      <trkpt lat="41.979640" lon="2.593610">
        <ele>204.911</ele>
        <time>2014-06-08T08:26:10Z</time>
      </trkpt>
      <trkpt lat="41.980047" lon="2.594554">
        <ele>202.581</ele>
        <time>2014-06-08T08:26:22Z</time>
      </trkpt>
      <trkpt lat="41.980155" lon="2.595177">
        <ele>203.061</ele>
        <time>2014-06-08T08:26:30Z</time>
      </trkpt>
      <trkpt lat="41.980197" lon="2.595928">
        <ele>202.517</ele>
        <time>2014-06-08T08:26:40Z</time>
      </trkpt>
      <trkpt lat="41.980069" lon="2.596121">
        <ele>202.508</ele>
        <time>2014-06-08T08:26:43Z</time>
      </trkpt>
      <trkpt lat="41.979940" lon="2.596228">
        <ele>202.590</ele>
        <time>2014-06-08T08:26:45Z</time>
      </trkpt>
      <trkpt lat="41.978545" lon="2.597365">
        <ele>202.593</ele>
        <time>2014-06-08T08:27:06Z</time>
      </trkpt>
      <trkpt lat="41.977558" lon="2.598202">
        <ele>202.545</ele>
        <time>2014-06-08T08:27:25Z</time>
      </trkpt>
      <trkpt lat="41.976743" lon="2.599683">
        <ele>202.525</ele>
        <time>2014-06-08T08:27:49Z</time>
      </trkpt>
      <trkpt lat="41.976829" lon="2.599962">
        <ele>202.539</ele>
        <time>2014-06-08T08:27:53Z</time>
      </trkpt>
      <trkpt lat="41.976936" lon="2.600069">
        <ele>202.548</ele>
        <time>2014-06-08T08:27:55Z</time>
      </trkpt>
      <trkpt lat="41.977043" lon="2.600155">
        <ele>202.538</ele>
        <time>2014-06-08T08:27:57Z</time>
      </trkpt>
      <trkpt lat="41.977279" lon="2.600241">
        <ele>202.565</ele>
        <time>2014-06-08T08:28:01Z</time>
      </trkpt>
      <trkpt lat="41.977472" lon="2.600262">
        <ele>202.548</ele>
        <time>2014-06-08T08:28:04Z</time>
      </trkpt>
      <trkpt lat="41.977837" lon="2.600176">
        <ele>202.561</ele>
        <time>2014-06-08T08:28:10Z</time>
      </trkpt>
      <trkpt lat="41.978116" lon="2.599554">
        <ele>202.517</ele>
        <time>2014-06-08T08:28:14Z</time>
      </trkpt>
      <trkpt lat="41.978824" lon="2.598739">
        <ele>201.508</ele>
        <time>2014-06-08T08:28:30Z</time>
      </trkpt>
      <trkpt lat="41.979103" lon="2.598567">
        <ele>200.686</ele>
        <time>2014-06-08T08:28:35Z</time>
      </trkpt>
      <trkpt lat="41.980541" lon="2.598310">
        <ele>200.169</ele>
        <time>2014-06-08T08:29:01Z</time>
      </trkpt>
      <trkpt lat="41.981120" lon="2.598331">
        <ele>201.121</ele>
        <time>2014-06-08T08:29:12Z</time>
      </trkpt>
      <trkpt lat="41.982279" lon="2.598825">
        <ele>199.111</ele>
        <time>2014-06-08T08:29:31Z</time>
      </trkpt>
      <trkpt lat="41.983652" lon="2.599511">
        <ele>197.245</ele>
        <time>2014-06-08T08:29:51Z</time>
      </trkpt>
      <trkpt lat="41.984468" lon="2.599962">
        <ele>196.764</ele>
        <time>2014-06-08T08:30:04Z</time>
      </trkpt>
      <trkpt lat="41.985583" lon="2.600820">
        <ele>193.484</ele>
        <time>2014-06-08T08:30:22Z</time>
      </trkpt>
      <trkpt lat="41.985648" lon="2.600906">
        <ele>192.991</ele>
        <time>2014-06-08T08:30:23Z</time>
      </trkpt>
      <trkpt lat="41.985776" lon="2.601120">
        <ele>192.934</ele>
        <time>2014-06-08T08:30:25Z</time>
      </trkpt>
      <trkpt lat="41.985884" lon="2.601399">
        <ele>192.455</ele>
        <time>2014-06-08T08:30:27Z</time>
      </trkpt>
      <trkpt lat="41.986034" lon="2.601786">
        <ele>192.410</ele>
        <time>2014-06-08T08:30:30Z</time>
      </trkpt>
      <trkpt lat="41.986184" lon="2.602429">
        <ele>192.408</ele>
        <time>2014-06-08T08:30:35Z</time>
      </trkpt>
      <trkpt lat="41.986077" lon="2.602859">
        <ele>191.495</ele>
        <time>2014-06-08T08:30:40Z</time>
      </trkpt>
      <trkpt lat="41.985219" lon="2.603331">
        <ele>188.638</ele>
        <time>2014-06-08T08:30:54Z</time>
      </trkpt>
      <trkpt lat="41.985261" lon="2.603738">
        <ele>187.630</ele>
        <time>2014-06-08T08:30:59Z</time>
      </trkpt>
      <trkpt lat="41.985304" lon="2.604189">
        <ele>187.190</ele>
        <time>2014-06-08T08:31:04Z</time>
      </trkpt>
      <trkpt lat="41.985197" lon="2.604446">
        <ele>187.124</ele>
        <time>2014-06-08T08:31:07Z</time>
      </trkpt>
      <trkpt lat="41.984875" lon="2.604897">
        <ele>186.253</ele>
        <time>2014-06-08T08:31:14Z</time>
      </trkpt>
      <trkpt lat="41.984596" lon="2.605176">
        <ele>186.613</ele>
        <time>2014-06-08T08:31:19Z</time>
      </trkpt>
      <trkpt lat="41.984274" lon="2.605777">
        <ele>186.660</ele>
        <time>2014-06-08T08:31:29Z</time>
      </trkpt>
      <trkpt lat="41.984210" lon="2.605970">
        <ele>187.141</ele>
        <time>2014-06-08T08:31:43Z</time>
      </trkpt>
      <trkpt lat="41.984210" lon="2.605863">
        <ele>185.281</ele>
        <time>2014-06-08T08:46:35Z</time>
      </trkpt>
      <trkpt lat="41.984274" lon="2.605841">
        <ele>177.509</ele>
        <time>2014-06-08T08:55:56Z</time>
      </trkpt>
      <trkpt lat="41.984167" lon="2.606034">
        <ele>181.808</ele>
        <time>2014-06-08T08:56:37Z</time>
      </trkpt>
      <trkpt lat="41.983974" lon="2.606378">
        <ele>181.336</ele>
        <time>2014-06-08T08:56:47Z</time>
      </trkpt>
      <trkpt lat="41.983910" lon="2.606549">
        <ele>180.939</ele>
        <time>2014-06-08T08:56:50Z</time>
      </trkpt>
      <trkpt lat="41.983395" lon="2.607622">
        <ele>181.891</ele>
        <time>2014-06-08T08:57:09Z</time>
      </trkpt>
      <trkpt lat="41.983073" lon="2.608287">
        <ele>181.851</ele>
        <time>2014-06-08T08:57:22Z</time>
      </trkpt>
      <trkpt lat="41.982472" lon="2.609575">
        <ele>182.335</ele>
        <time>2014-06-08T08:57:45Z</time>
      </trkpt>
      <trkpt lat="41.981850" lon="2.610862">
        <ele>182.334</ele>
        <time>2014-06-08T08:58:06Z</time>
      </trkpt>
      <trkpt lat="41.981206" lon="2.612214">
        <ele>183.334</ele>
        <time>2014-06-08T08:58:27Z</time>
      </trkpt>
      <trkpt lat="41.980798" lon="2.613094">
        <ele>182.321</ele>
        <time>2014-06-08T08:58:41Z</time>
      </trkpt>
      <trkpt lat="41.980090" lon="2.614617">
        <ele>182.346</ele>
        <time>2014-06-08T08:59:04Z</time>
      </trkpt>
      <trkpt lat="41.979318" lon="2.616184">
        <ele>183.788</ele>
        <time>2014-06-08T08:59:27Z</time>
      </trkpt>
      <trkpt lat="41.978803" lon="2.617321">
        <ele>182.816</ele>
        <time>2014-06-08T08:59:45Z</time>
      </trkpt>
      <trkpt lat="41.978374" lon="2.618201">
        <ele>182.808</ele>
        <time>2014-06-08T09:00:05Z</time>
      </trkpt>
      <trkpt lat="41.977966" lon="2.619038">
        <ele>183.376</ele>
        <time>2014-06-08T09:00:23Z</time>
      </trkpt>
      <trkpt lat="41.977279" lon="2.620626">
        <ele>182.879</ele>
        <time>2014-06-08T09:00:50Z</time>
      </trkpt>
      <trkpt lat="41.976507" lon="2.622149">
        <ele>180.441</ele>
        <time>2014-06-08T09:01:17Z</time>
      </trkpt>
      <trkpt lat="41.976464" lon="2.622149">
        <ele>178.061</ele>
        <time>2014-06-08T09:01:30Z</time>
      </trkpt>
      <trkpt lat="41.976163" lon="2.622299">
        <ele>176.175</ele>
        <time>2014-06-08T09:01:44Z</time>
      </trkpt>
      <trkpt lat="41.975906" lon="2.622428">
        <ele>173.794</ele>
        <time>2014-06-08T09:02:04Z</time>
      </trkpt>
      <trkpt lat="41.975262" lon="2.622685">
        <ele>172.784</ele>
        <time>2014-06-08T09:02:19Z</time>
      </trkpt>
      <trkpt lat="41.974189" lon="2.622879">
        <ele>171.791</ele>
        <time>2014-06-08T09:02:36Z</time>
      </trkpt>
      <trkpt lat="41.973073" lon="2.623050">
        <ele>168.889</ele>
        <time>2014-06-08T09:02:56Z</time>
      </trkpt>
      <trkpt lat="41.972001" lon="2.623243">
        <ele>166.906</ele>
        <time>2014-06-08T09:03:13Z</time>
      </trkpt>
      <trkpt lat="41.970820" lon="2.623394">
        <ele>166.026</ele>
        <time>2014-06-08T09:03:34Z</time>
      </trkpt>
      <trkpt lat="41.969855" lon="2.623522">
        <ele>164.508</ele>
        <time>2014-06-08T09:03:51Z</time>
      </trkpt>
      <trkpt lat="41.968760" lon="2.623672">
        <ele>163.640</ele>
        <time>2014-06-08T09:04:11Z</time>
      </trkpt>
      <trkpt lat="41.968374" lon="2.623737">
        <ele>163.633</ele>
        <time>2014-06-08T09:04:21Z</time>
      </trkpt>
      <trkpt lat="41.967516" lon="2.623887">
        <ele>163.615</ele>
        <time>2014-06-08T09:04:36Z</time>
      </trkpt>
      <trkpt lat="41.966829" lon="2.623994">
        <ele>162.695</ele>
        <time>2014-06-08T09:04:48Z</time>
      </trkpt>
      <trkpt lat="41.966379" lon="2.624037">
        <ele>163.199</ele>
        <time>2014-06-08T09:05:01Z</time>
      </trkpt>
      <trkpt lat="41.965606" lon="2.624338">
        <ele>163.128</ele>
        <time>2014-06-08T09:05:17Z</time>
      </trkpt>
      <trkpt lat="41.965134" lon="2.624831">
        <ele>161.288</ele>
        <time>2014-06-08T09:05:26Z</time>
      </trkpt>
      <trkpt lat="41.964254" lon="2.626097">
        <ele>159.295</ele>
        <time>2014-06-08T09:05:45Z</time>
      </trkpt>
      <trkpt lat="41.963289" lon="2.627492">
        <ele>160.728</ele>
        <time>2014-06-08T09:06:07Z</time>
      </trkpt>
      <trkpt lat="41.962495" lon="2.628629">
        <ele>160.289</ele>
        <time>2014-06-08T09:06:26Z</time>
      </trkpt>
      <trkpt lat="41.961701" lon="2.629766">
        <ele>160.717</ele>
        <time>2014-06-08T09:06:46Z</time>
      </trkpt>
      <trkpt lat="41.961486" lon="2.630045">
        <ele>159.208</ele>
        <time>2014-06-08T09:06:56Z</time>
      </trkpt>
      <trkpt lat="41.961143" lon="2.630603">
        <ele>158.894</ele>
        <time>2014-06-08T09:07:10Z</time>
      </trkpt>
      <trkpt lat="41.960993" lon="2.630775">
        <ele>158.847</ele>
        <time>2014-06-08T09:07:14Z</time>
      </trkpt>
      <trkpt lat="41.960714" lon="2.631204">
        <ele>158.849</ele>
        <time>2014-06-08T09:07:21Z</time>
      </trkpt>
      <trkpt lat="41.960542" lon="2.631419">
        <ele>158.839</ele>
        <time>2014-06-08T09:07:25Z</time>
      </trkpt>
      <trkpt lat="41.959791" lon="2.632599">
        <ele>157.843</ele>
        <time>2014-06-08T09:07:46Z</time>
      </trkpt>
      <trkpt lat="41.959426" lon="2.633135">
        <ele>157.342</ele>
        <time>2014-06-08T09:08:00Z</time>
      </trkpt>
      <trkpt lat="41.958632" lon="2.634294">
        <ele>158.312</ele>
        <time>2014-06-08T09:08:24Z</time>
      </trkpt>
      <trkpt lat="41.958482" lon="2.634165">
        <ele>157.319</ele>
        <time>2014-06-08T09:08:31Z</time>
      </trkpt>
      <trkpt lat="41.958375" lon="2.634358">
        <ele>157.838</ele>
        <time>2014-06-08T09:08:37Z</time>
      </trkpt>
      <trkpt lat="41.958246" lon="2.634594">
        <ele>157.370</ele>
        <time>2014-06-08T09:08:43Z</time>
      </trkpt>
      <trkpt lat="41.958182" lon="2.634766">
        <ele>157.817</ele>
        <time>2014-06-08T09:08:48Z</time>
      </trkpt>
      <trkpt lat="41.958396" lon="2.634830">
        <ele>160.208</ele>
        <time>2014-06-08T09:08:57Z</time>
      </trkpt>
      <trkpt lat="41.958418" lon="2.634916">
        <ele>160.235</ele>
        <time>2014-06-08T09:08:59Z</time>
      </trkpt>
      <trkpt lat="41.958311" lon="2.635603">
        <ele>158.318</ele>
        <time>2014-06-08T09:09:11Z</time>
      </trkpt>
      <trkpt lat="41.958332" lon="2.636976">
        <ele>157.320</ele>
        <time>2014-06-08T09:09:28Z</time>
      </trkpt>
      <trkpt lat="41.958396" lon="2.638865">
        <ele>156.440</ele>
        <time>2014-06-08T09:09:50Z</time>
      </trkpt>
      <trkpt lat="41.958439" lon="2.640109">
        <ele>155.924</ele>
        <time>2014-06-08T09:10:06Z</time>
      </trkpt>
      <trkpt lat="41.958418" lon="2.641482">
        <ele>154.433</ele>
        <time>2014-06-08T09:10:24Z</time>
      </trkpt>
      <trkpt lat="41.958418" lon="2.642856">
        <ele>153.553</ele>
        <time>2014-06-08T09:10:42Z</time>
      </trkpt>
      <trkpt lat="41.958418" lon="2.644207">
        <ele>153.090</ele>
        <time>2014-06-08T09:10:59Z</time>
      </trkpt>
      <trkpt lat="41.958418" lon="2.645795">
        <ele>151.571</ele>
        <time>2014-06-08T09:11:18Z</time>
      </trkpt>
      <trkpt lat="41.958418" lon="2.646546">
        <ele>151.141</ele>
        <time>2014-06-08T09:11:27Z</time>
      </trkpt>
      <trkpt lat="41.958439" lon="2.647512">
        <ele>149.615</ele>
        <time>2014-06-08T09:11:39Z</time>
      </trkpt>
      <trkpt lat="41.958311" lon="2.647898">
        <ele>149.108</ele>
        <time>2014-06-08T09:11:45Z</time>
      </trkpt>
      <trkpt lat="41.958160" lon="2.648220">
        <ele>148.719</ele>
        <time>2014-06-08T09:11:52Z</time>
      </trkpt>
      <trkpt lat="41.958461" lon="2.649593">
        <ele>147.712</ele>
        <time>2014-06-08T09:12:10Z</time>
      </trkpt>
      <trkpt lat="41.958568" lon="2.650044">
        <ele>147.284</ele>
        <time>2014-06-08T09:12:21Z</time>
      </trkpt>
      <trkpt lat="41.958632" lon="2.650108">
        <ele>147.284</ele>
        <time>2014-06-08T09:12:32Z</time>
      </trkpt>
      <trkpt lat="41.958654" lon="2.650130">
        <ele>147.228</ele>
        <time>2014-06-08T09:12:33Z</time>
      </trkpt>
      <trkpt lat="41.958847" lon="2.650709">
        <ele>147.747</ele>
        <time>2014-06-08T09:12:44Z</time>
      </trkpt>
      <trkpt lat="41.958997" lon="2.651289">
        <ele>147.257</ele>
        <time>2014-06-08T09:12:56Z</time>
      </trkpt>
      <trkpt lat="41.959233" lon="2.652404">
        <ele>146.354</ele>
        <time>2014-06-08T09:13:10Z</time>
      </trkpt>
      <trkpt lat="41.959534" lon="2.653821">
        <ele>145.874</ele>
        <time>2014-06-08T09:13:29Z</time>
      </trkpt>
      <trkpt lat="41.959620" lon="2.654228">
        <ele>145.856</ele>
        <time>2014-06-08T09:13:35Z</time>
      </trkpt>
      <trkpt lat="41.959748" lon="2.654357">
        <ele>145.321</ele>
        <time>2014-06-08T09:13:38Z</time>
      </trkpt>
      <trkpt lat="41.959834" lon="2.654743">
        <ele>144.808</ele>
        <time>2014-06-08T09:13:45Z</time>
      </trkpt>
      <trkpt lat="41.959791" lon="2.655194">
        <ele>144.839</ele>
        <time>2014-06-08T09:13:51Z</time>
      </trkpt>
      <trkpt lat="41.960156" lon="2.656739">
        <ele>144.842</ele>
        <time>2014-06-08T09:14:11Z</time>
      </trkpt>
      <trkpt lat="41.960328" lon="2.657404">
        <ele>144.814</ele>
        <time>2014-06-08T09:14:25Z</time>
      </trkpt>
      <trkpt lat="41.960542" lon="2.658434">
        <ele>144.364</ele>
        <time>2014-06-08T09:14:36Z</time>
      </trkpt>
      <trkpt lat="41.960778" lon="2.659507">
        <ele>143.978</ele>
        <time>2014-06-08T09:14:48Z</time>
      </trkpt>
      <trkpt lat="41.960821" lon="2.659700">
        <ele>143.967</ele>
        <time>2014-06-08T09:14:51Z</time>
      </trkpt>
      <trkpt lat="41.961100" lon="2.660258">
        <ele>143.467</ele>
        <time>2014-06-08T09:15:00Z</time>
      </trkpt>
      <trkpt lat="41.961100" lon="2.660344">
        <ele>143.424</ele>
        <time>2014-06-08T09:15:01Z</time>
      </trkpt>
      <trkpt lat="41.961186" lon="2.661481">
        <ele>142.424</ele>
        <time>2014-06-08T09:15:16Z</time>
      </trkpt>
      <trkpt lat="41.961443" lon="2.662618">
        <ele>141.004</ele>
        <time>2014-06-08T09:15:30Z</time>
      </trkpt>
      <trkpt lat="41.961851" lon="2.664378">
        <ele>140.514</ele>
        <time>2014-06-08T09:15:51Z</time>
      </trkpt>
      <trkpt lat="41.962087" lon="2.665472">
        <ele>139.008</ele>
        <time>2014-06-08T09:16:04Z</time>
      </trkpt>
      <trkpt lat="41.962430" lon="2.666974">
        <ele>137.674</ele>
        <time>2014-06-08T09:16:22Z</time>
      </trkpt>
      <trkpt lat="41.962731" lon="2.668283">
        <ele>137.697</ele>
        <time>2014-06-08T09:16:39Z</time>
      </trkpt>
      <trkpt lat="41.963074" lon="2.669849">
        <ele>137.639</ele>
        <time>2014-06-08T09:16:58Z</time>
      </trkpt>
      <trkpt lat="41.963589" lon="2.670965">
        <ele>137.679</ele>
        <time>2014-06-08T09:17:15Z</time>
      </trkpt>
      <trkpt lat="41.964383" lon="2.671781">
        <ele>137.123</ele>
        <time>2014-06-08T09:17:31Z</time>
      </trkpt>
      <trkpt lat="41.965349" lon="2.672660">
        <ele>137.192</ele>
        <time>2014-06-08T09:17:50Z</time>
      </trkpt>
      <trkpt lat="41.966164" lon="2.673326">
        <ele>137.612</ele>
        <time>2014-06-08T09:18:07Z</time>
      </trkpt>
      <trkpt lat="41.966701" lon="2.673519">
        <ele>139.059</ele>
        <time>2014-06-08T09:18:19Z</time>
      </trkpt>
      <trkpt lat="41.967559" lon="2.673240">
        <ele>138.688</ele>
        <time>2014-06-08T09:18:35Z</time>
      </trkpt>
      <trkpt lat="41.968632" lon="2.673090">
        <ele>142.424</ele>
        <time>2014-06-08T09:18:56Z</time>
      </trkpt>
      <trkpt lat="41.969297" lon="2.673025">
        <ele>143.426</ele>
        <time>2014-06-08T09:19:13Z</time>
      </trkpt>
      <trkpt lat="41.969404" lon="2.673047">
        <ele>143.408</ele>
        <time>2014-06-08T09:19:16Z</time>
      </trkpt>
      <trkpt lat="41.969662" lon="2.673025">
        <ele>143.940</ele>
        <time>2014-06-08T09:19:22Z</time>
      </trkpt>
      <trkpt lat="41.970241" lon="2.673476">
        <ele>141.553</ele>
        <time>2014-06-08T09:19:35Z</time>
      </trkpt>
      <trkpt lat="41.970348" lon="2.673647">
        <ele>141.055</ele>
        <time>2014-06-08T09:19:38Z</time>
      </trkpt>
      <trkpt lat="41.970477" lon="2.673926">
        <ele>139.555</ele>
        <time>2014-06-08T09:19:43Z</time>
      </trkpt>
      <trkpt lat="41.970541" lon="2.674012">
        <ele>139.569</ele>
        <time>2014-06-08T09:19:45Z</time>
      </trkpt>
      <trkpt lat="41.971121" lon="2.674892">
        <ele>138.618</ele>
        <time>2014-06-08T09:20:01Z</time>
      </trkpt>
      <trkpt lat="41.971335" lon="2.675257">
        <ele>137.638</ele>
        <time>2014-06-08T09:20:07Z</time>
      </trkpt>
      <trkpt lat="41.971614" lon="2.675536">
        <ele>136.285</ele>
        <time>2014-06-08T09:20:13Z</time>
      </trkpt>
      <trkpt lat="41.972108" lon="2.676373">
        <ele>134.786</ele>
        <time>2014-06-08T09:20:25Z</time>
      </trkpt>
      <trkpt lat="41.972322" lon="2.677767">
        <ele>132.860</ele>
        <time>2014-06-08T09:20:41Z</time>
      </trkpt>
      <trkpt lat="41.972322" lon="2.678797">
        <ele>131.826</ele>
        <time>2014-06-08T09:20:52Z</time>
      </trkpt>
      <trkpt lat="41.972301" lon="2.680492">
        <ele>130.908</ele>
        <time>2014-06-08T09:21:10Z</time>
      </trkpt>
      <trkpt lat="41.972344" lon="2.682467">
        <ele>129.940</ele>
        <time>2014-06-08T09:21:33Z</time>
      </trkpt>
      <trkpt lat="41.972365" lon="2.684162">
        <ele>129.973</ele>
        <time>2014-06-08T09:21:53Z</time>
      </trkpt>
      <trkpt lat="41.972408" lon="2.686265">
        <ele>129.025</ele>
        <time>2014-06-08T09:22:17Z</time>
      </trkpt>
      <trkpt lat="41.972623" lon="2.688239">
        <ele>127.575</ele>
        <time>2014-06-08T09:22:41Z</time>
      </trkpt>
      <trkpt lat="41.973095" lon="2.689140">
        <ele>126.679</ele>
        <time>2014-06-08T09:22:55Z</time>
      </trkpt>
      <trkpt lat="41.973867" lon="2.691479">
        <ele>125.618</ele>
        <time>2014-06-08T09:23:27Z</time>
      </trkpt>
      <trkpt lat="41.974468" lon="2.693131">
        <ele>125.698</ele>
        <time>2014-06-08T09:23:49Z</time>
      </trkpt>
      <trkpt lat="41.974790" lon="2.693603">
        <ele>125.145</ele>
        <time>2014-06-08T09:23:57Z</time>
      </trkpt>
      <trkpt lat="41.975391" lon="2.694891">
        <ele>126.183</ele>
        <time>2014-06-08T09:24:14Z</time>
      </trkpt>
      <trkpt lat="41.976163" lon="2.696264">
        <ele>128.525</ele>
        <time>2014-06-08T09:24:34Z</time>
      </trkpt>
      <trkpt lat="41.976228" lon="2.696414">
        <ele>128.517</ele>
        <time>2014-06-08T09:24:36Z</time>
      </trkpt>
      <trkpt lat="41.976378" lon="2.697144">
        <ele>128.508</ele>
        <time>2014-06-08T09:24:45Z</time>
      </trkpt>
      <trkpt lat="41.976871" lon="2.698560">
        <ele>128.090</ele>
        <time>2014-06-08T09:25:01Z</time>
      </trkpt>
      <trkpt lat="41.977043" lon="2.698882">
        <ele>128.063</ele>
        <time>2014-06-08T09:25:05Z</time>
      </trkpt>
      <trkpt lat="41.977322" lon="2.699654">
        <ele>127.535</ele>
        <time>2014-06-08T09:25:14Z</time>
      </trkpt>
      <trkpt lat="41.978116" lon="2.700620">
        <ele>127.095</ele>
        <time>2014-06-08T09:25:29Z</time>
      </trkpt>
      <trkpt lat="41.978502" lon="2.701027">
        <ele>126.149</ele>
        <time>2014-06-08T09:25:37Z</time>
      </trkpt>
      <trkpt lat="41.979017" lon="2.702379">
        <ele>125.198</ele>
        <time>2014-06-08T09:25:56Z</time>
      </trkpt>
      <trkpt lat="41.979125" lon="2.703302">
        <ele>124.638</ele>
        <time>2014-06-08T09:26:06Z</time>
      </trkpt>
      <trkpt lat="41.979017" lon="2.704954">
        <ele>122.285</ele>
        <time>2014-06-08T09:26:24Z</time>
      </trkpt>
      <trkpt lat="41.978717" lon="2.706521">
        <ele>121.765</ele>
        <time>2014-06-08T09:26:43Z</time>
      </trkpt>
      <trkpt lat="41.978352" lon="2.707915">
        <ele>121.768</ele>
        <time>2014-06-08T09:27:02Z</time>
      </trkpt>
      <trkpt lat="41.978245" lon="2.708151">
        <ele>122.214</ele>
        <time>2014-06-08T09:27:05Z</time>
      </trkpt>
      <trkpt lat="41.977751" lon="2.708795">
        <ele>121.708</ele>
        <time>2014-06-08T09:27:17Z</time>
      </trkpt>
      <trkpt lat="41.976850" lon="2.709932">
        <ele>121.338</ele>
        <time>2014-06-08T09:27:36Z</time>
      </trkpt>
      <trkpt lat="41.975842" lon="2.711220">
        <ele>120.821</ele>
        <time>2014-06-08T09:27:57Z</time>
      </trkpt>
      <trkpt lat="41.974747" lon="2.712593">
        <ele>118.433</ele>
        <time>2014-06-08T09:28:19Z</time>
      </trkpt>
      <trkpt lat="41.974232" lon="2.713258">
        <ele>117.443</ele>
        <time>2014-06-08T09:28:32Z</time>
      </trkpt>
      <trkpt lat="41.974125" lon="2.713387">
        <ele>116.927</ele>
        <time>2014-06-08T09:28:42Z</time>
      </trkpt>
      <trkpt lat="41.974125" lon="2.713408">
        <ele>116.586</ele>
        <time>2014-06-08T09:29:33Z</time>
      </trkpt>
      <trkpt lat="41.973782" lon="2.713773">
        <ele>116.566</ele>
        <time>2014-06-08T09:29:46Z</time>
      </trkpt>
      <trkpt lat="41.973052" lon="2.714739">
        <ele>115.583</ele>
        <time>2014-06-08T09:30:04Z</time>
      </trkpt>
      <trkpt lat="41.972516" lon="2.715404">
        <ele>115.596</ele>
        <time>2014-06-08T09:30:16Z</time>
      </trkpt>
      <trkpt lat="41.971593" lon="2.716563">
        <ele>115.031</ele>
        <time>2014-06-08T09:30:36Z</time>
      </trkpt>
      <trkpt lat="41.970584" lon="2.717829">
        <ele>116.024</ele>
        <time>2014-06-08T09:30:59Z</time>
      </trkpt>
      <trkpt lat="41.969769" lon="2.718816">
        <ele>114.508</ele>
        <time>2014-06-08T09:31:17Z</time>
      </trkpt>
      <trkpt lat="41.968846" lon="2.719975">
        <ele>113.611</ele>
        <time>2014-06-08T09:31:37Z</time>
      </trkpt>
      <trkpt lat="41.968782" lon="2.720103">
        <ele>113.644</ele>
        <time>2014-06-08T09:31:39Z</time>
      </trkpt>
      <trkpt lat="41.968696" lon="2.720189">
        <ele>113.636</ele>
        <time>2014-06-08T09:31:41Z</time>
      </trkpt>
      <trkpt lat="41.968589" lon="2.720382">
        <ele>113.616</ele>
        <time>2014-06-08T09:31:44Z</time>
      </trkpt>
      <trkpt lat="41.968439" lon="2.720640">
        <ele>113.660</ele>
        <time>2014-06-08T09:31:48Z</time>
      </trkpt>
      <trkpt lat="41.968138" lon="2.722442">
        <ele>114.139</ele>
        <time>2014-06-08T09:32:08Z</time>
      </trkpt>
      <trkpt lat="41.968117" lon="2.723000">
        <ele>113.639</ele>
        <time>2014-06-08T09:32:14Z</time>
      </trkpt>
      <trkpt lat="41.968331" lon="2.725317">
        <ele>113.176</ele>
        <time>2014-06-08T09:32:40Z</time>
      </trkpt>
      <trkpt lat="41.968331" lon="2.727571">
        <ele>112.198</ele>
        <time>2014-06-08T09:33:05Z</time>
      </trkpt>
      <trkpt lat="41.968310" lon="2.729867">
        <ele>111.215</ele>
        <time>2014-06-08T09:33:30Z</time>
      </trkpt>
      <trkpt lat="41.968310" lon="2.731862">
        <ele>110.226</ele>
        <time>2014-06-08T09:33:52Z</time>
      </trkpt>
      <trkpt lat="41.968310" lon="2.733192">
        <ele>109.708</ele>
        <time>2014-06-08T09:34:08Z</time>
      </trkpt>
      <trkpt lat="41.968331" lon="2.734458">
        <ele>110.271</ele>
        <time>2014-06-08T09:34:23Z</time>
      </trkpt>
      <trkpt lat="41.968310" lon="2.736239">
        <ele>107.324</ele>
        <time>2014-06-08T09:34:44Z</time>
      </trkpt>
      <trkpt lat="41.968331" lon="2.738256">
        <ele>104.916</ele>
        <time>2014-06-08T09:35:07Z</time>
      </trkpt>
      <trkpt lat="41.968331" lon="2.740188">
        <ele>105.976</ele>
        <time>2014-06-08T09:35:30Z</time>
      </trkpt>
      <trkpt lat="41.968353" lon="2.741454">
        <ele>106.480</ele>
        <time>2014-06-08T09:35:47Z</time>
      </trkpt>
      <trkpt lat="41.968353" lon="2.742741">
        <ele>105.939</ele>
        <time>2014-06-08T09:36:02Z</time>
      </trkpt>
      <trkpt lat="41.968310" lon="2.744329">
        <ele>107.339</ele>
        <time>2014-06-08T09:36:23Z</time>
      </trkpt>
      <trkpt lat="41.968331" lon="2.745295">
        <ele>105.966</ele>
        <time>2014-06-08T09:36:38Z</time>
      </trkpt>
      <trkpt lat="41.968331" lon="2.746732">
        <ele>104.917</ele>
        <time>2014-06-08T09:36:55Z</time>
      </trkpt>
      <trkpt lat="41.968331" lon="2.748170">
        <ele>104.487</ele>
        <time>2014-06-08T09:37:13Z</time>
      </trkpt>
      <trkpt lat="41.968374" lon="2.749307">
        <ele>104.915</ele>
        <time>2014-06-08T09:37:29Z</time>
      </trkpt>
      <trkpt lat="41.968846" lon="2.751024">
        <ele>105.908</ele>
        <time>2014-06-08T09:37:53Z</time>
      </trkpt>
      <trkpt lat="41.969790" lon="2.752376">
        <ele>105.963</ele>
        <time>2014-06-08T09:38:16Z</time>
      </trkpt>
      <trkpt lat="41.969833" lon="2.752504">
        <ele>105.996</ele>
        <time>2014-06-08T09:38:18Z</time>
      </trkpt>
      <trkpt lat="41.970263" lon="2.753513">
        <ele>106.468</ele>
        <time>2014-06-08T09:38:38Z</time>
      </trkpt>
      <trkpt lat="41.970799" lon="2.755122">
        <ele>106.458</ele>
        <time>2014-06-08T09:39:07Z</time>
      </trkpt>
      <trkpt lat="41.970992" lon="2.756131">
        <ele>106.412</ele>
        <time>2014-06-08T09:39:18Z</time>
      </trkpt>
      <trkpt lat="41.971185" lon="2.758234">
        <ele>102.591</ele>
        <time>2014-06-08T09:39:42Z</time>
      </trkpt>
      <trkpt lat="41.971075" lon="2.755037">
        <ele>100.886</ele>
        <time>1998-05-06T11:12:17Z</time>
      </trkpt>
      <trkpt lat="41.971215" lon="2.755243">
        <ele>99.960</ele>
        <time>1998-05-06T11:12:20Z</time>
      </trkpt>
      <trkpt lat="41.971306" lon="2.755390">
        <ele>99.326</ele>
        <time>1998-05-06T11:12:22Z</time>
      </trkpt>
      <trkpt lat="41.971347" lon="2.755462">
        <ele>99.108</ele>
        <time>1998-05-06T11:12:23Z</time>
      </trkpt>
      <trkpt lat="41.971450" lon="2.755669">
        <ele>98.020</ele>
        <time>1998-05-06T11:12:26Z</time>
      </trkpt>
      <trkpt lat="41.971692" lon="2.756319">
        <ele>96.353</ele>
        <time>1998-05-06T11:12:35Z</time>
      </trkpt>
      <trkpt lat="41.971742" lon="2.756477">
        <ele>96.215</ele>
        <time>1998-05-06T11:12:37Z</time>
      </trkpt>
      <trkpt lat="41.971792" lon="2.756627">
        <ele>96.115</ele>
        <time>1998-05-06T11:12:39Z</time>
      </trkpt>
      <trkpt lat="41.971907" lon="2.757021">
        <ele>98.138</ele>
        <time>1998-05-06T11:12:44Z</time>
      </trkpt>
      <trkpt lat="41.972000" lon="2.757450">
        <ele>99.497</ele>
        <time>1998-05-06T11:12:49Z</time>
      </trkpt>
      <trkpt lat="41.972154" lon="2.758232">
        <ele>99.037</ele>
        <time>1998-05-06T11:12:58Z</time>
      </trkpt>
      <trkpt lat="41.972288" lon="2.758927">
        <ele>97.631</ele>
        <time>1998-05-06T11:13:06Z</time>
      </trkpt>
      <trkpt lat="41.972326" lon="2.759163">
        <ele>97.573</ele>
        <time>1998-05-06T11:13:09Z</time>
      </trkpt>
      <trkpt lat="41.972371" lon="2.759389">
        <ele>96.185</ele>
        <time>1998-05-06T11:13:12Z</time>
      </trkpt>
      <trkpt lat="41.972626" lon="2.760055">
        <ele>93.713</ele>
        <time>1998-05-06T11:13:21Z</time>
      </trkpt>
      <trkpt lat="41.972905" lon="2.760752">
        <ele>94.308</ele>
        <time>1998-05-06T11:13:31Z</time>
      </trkpt>
      <trkpt lat="41.973053" lon="2.761086">
        <ele>93.019</ele>
        <time>1998-05-06T11:13:36Z</time>
      </trkpt>
      <trkpt lat="41.973117" lon="2.761316">
        <ele>92.752</ele>
        <time>1998-05-06T11:13:39Z</time>
      </trkpt>
      <trkpt lat="41.973228" lon="2.761589">
        <ele>93.524</ele>
        <time>1998-05-06T11:13:43Z</time>
      </trkpt>
      <trkpt lat="41.973476" lon="2.762052">
        <ele>93.044</ele>
        <time>1998-05-06T11:13:50Z</time>
      </trkpt>
      <trkpt lat="41.973903" lon="2.762539">
        <ele>90.067</ele>
        <time>1998-05-06T11:13:59Z</time>
      </trkpt>
      <trkpt lat="41.974114" lon="2.762829">
        <ele>89.996</ele>
        <time>1998-05-06T11:14:04Z</time>
      </trkpt>
      <trkpt lat="41.974160" lon="2.762993">
        <ele>91.376</ele>
        <time>1998-05-06T11:14:06Z</time>
      </trkpt>
      <trkpt lat="41.974181" lon="2.763165">
        <ele>92.720</ele>
        <time>1998-05-06T11:14:08Z</time>
      </trkpt>
      <trkpt lat="41.974204" lon="2.763322">
        <ele>93.962</ele>
        <time>1998-05-06T11:14:10Z</time>
      </trkpt>
      <trkpt lat="41.974231" lon="2.763482">
        <ele>94.583</ele>
        <time>1998-05-06T11:14:12Z</time>
      </trkpt>
      <trkpt lat="41.974292" lon="2.763636">
        <ele>94.911</ele>
        <time>1998-05-06T11:14:14Z</time>
      </trkpt>
      <trkpt lat="41.974644" lon="2.764199">
        <ele>93.708</ele>
        <time>1998-05-06T11:14:22Z</time>
      </trkpt>
      <trkpt lat="41.974727" lon="2.764343">
        <ele>94.058</ele>
        <time>1998-05-06T11:14:24Z</time>
      </trkpt>
      <trkpt lat="41.974829" lon="2.764562">
        <ele>93.871</ele>
        <time>1998-05-06T11:14:27Z</time>
      </trkpt>
      <trkpt lat="41.974891" lon="2.764792">
        <ele>94.193</ele>
        <time>1998-05-06T11:14:30Z</time>
      </trkpt>
      <trkpt lat="41.974914" lon="2.764952">
        <ele>94.313</ele>
        <time>1998-05-06T11:14:32Z</time>
      </trkpt>
      <trkpt lat="41.974953" lon="2.765172">
        <ele>94.226</ele>
        <time>1998-05-06T11:14:35Z</time>
      </trkpt>
      <trkpt lat="41.974998" lon="2.765308">
        <ele>94.135</ele>
        <time>1998-05-06T11:14:37Z</time>
      </trkpt>
      <trkpt lat="41.975131" lon="2.765644">
        <ele>94.565</ele>
        <time>1998-05-06T11:14:42Z</time>
      </trkpt>
      <trkpt lat="41.975214" lon="2.765839">
        <ele>94.219</ele>
        <time>1998-05-06T11:14:45Z</time>
      </trkpt>
      <trkpt lat="41.975250" lon="2.765904">
        <ele>94.491</ele>
        <time>1998-05-06T11:14:46Z</time>
      </trkpt>
      <trkpt lat="41.975394" lon="2.766270">
        <ele>94.981</ele>
        <time>1998-05-06T11:14:51Z</time>
      </trkpt>
      <trkpt lat="41.975442" lon="2.766494">
        <ele>95.219</ele>
        <time>1998-05-06T11:14:54Z</time>
      </trkpt>
      <trkpt lat="41.975512" lon="2.766722">
        <ele>95.508</ele>
        <time>1998-05-06T11:14:57Z</time>
      </trkpt>
      <trkpt lat="41.975626" lon="2.766924">
        <ele>95.231</ele>
        <time>1998-05-06T11:15:00Z</time>
      </trkpt>
      <trkpt lat="41.975687" lon="2.767074">
        <ele>94.634</ele>
        <time>1998-05-06T11:15:02Z</time>
      </trkpt>
      <trkpt lat="41.975737" lon="2.767207">
        <ele>94.026</ele>
        <time>1998-05-06T11:15:04Z</time>
      </trkpt>
      <trkpt lat="41.975783" lon="2.767351">
        <ele>93.546</ele>
        <time>1998-05-06T11:15:06Z</time>
      </trkpt>
      <trkpt lat="41.975907" lon="2.767645">
        <ele>92.379</ele>
        <time>1998-05-06T11:15:10Z</time>
      </trkpt>
      <trkpt lat="41.975979" lon="2.767889">
        <ele>92.038</ele>
        <time>1998-05-06T11:15:13Z</time>
      </trkpt>
      <trkpt lat="41.976061" lon="2.768125">
        <ele>91.648</ele>
        <time>1998-05-06T11:15:16Z</time>
      </trkpt>
      <trkpt lat="41.976087" lon="2.768200">
        <ele>91.752</ele>
        <time>1998-05-06T11:15:17Z</time>
      </trkpt>
      <trkpt lat="41.976230" lon="2.768490">
        <ele>91.721</ele>
        <time>1998-05-06T11:15:21Z</time>
      </trkpt>
      <trkpt lat="41.976274" lon="2.768669">
        <ele>91.941</ele>
        <time>1998-05-06T11:15:23Z</time>
      </trkpt>
      <trkpt lat="41.976399" lon="2.769267">
        <ele>93.005</ele>
        <time>1998-05-06T11:15:30Z</time>
      </trkpt>
      <trkpt lat="41.976420" lon="2.769347">
        <ele>92.908</ele>
        <time>1998-05-06T11:15:31Z</time>
      </trkpt>
      <trkpt lat="41.976432" lon="2.769432">
        <ele>92.854</ele>
        <time>1998-05-06T11:15:32Z</time>
      </trkpt>
      <trkpt lat="41.976462" lon="2.769609">
        <ele>93.327</ele>
        <time>1998-05-06T11:15:34Z</time>
      </trkpt>
      <trkpt lat="41.976608" lon="2.770319">
        <ele>94.319</ele>
        <time>1998-05-06T11:15:43Z</time>
      </trkpt>
      <trkpt lat="41.976726" lon="2.771080">
        <ele>95.489</ele>
        <time>1998-05-06T11:15:53Z</time>
      </trkpt>
      <trkpt lat="41.976793" lon="2.771547">
        <ele>93.812</ele>
        <time>1998-05-06T11:15:59Z</time>
      </trkpt>
      <trkpt lat="41.976815" lon="2.771691">
        <ele>93.091</ele>
        <time>1998-05-06T11:16:01Z</time>
      </trkpt>
      <trkpt lat="41.976825" lon="2.771832">
        <ele>92.511</ele>
        <time>1998-05-06T11:16:03Z</time>
      </trkpt>
      <trkpt lat="41.976872" lon="2.772090">
        <ele>92.585</ele>
        <time>1998-05-06T11:16:07Z</time>
      </trkpt>
      <trkpt lat="41.976881" lon="2.772648">
        <ele>92.577</ele>
        <time>1998-05-06T11:16:14Z</time>
      </trkpt>
      <trkpt lat="41.976903" lon="2.772817">
        <ele>92.561</ele>
        <time>1998-05-06T11:16:16Z</time>
      </trkpt>
      <trkpt lat="41.976913" lon="2.772893">
        <ele>92.327</ele>
        <time>1998-05-06T11:16:17Z</time>
      </trkpt>
      <trkpt lat="41.976922" lon="2.772960">
        <ele>92.108</ele>
        <time>1998-05-06T11:16:18Z</time>
      </trkpt>
      <trkpt lat="41.976930" lon="2.773034">
        <ele>91.999</ele>
        <time>1998-05-06T11:16:19Z</time>
      </trkpt>
      <trkpt lat="41.976974" lon="2.773376">
        <ele>91.382</ele>
        <time>1998-05-06T11:16:23Z</time>
      </trkpt>
      <trkpt lat="41.977048" lon="2.773624">
        <ele>91.574</ele>
        <time>1998-05-06T11:16:26Z</time>
      </trkpt>
      <trkpt lat="41.977117" lon="2.773860">
        <ele>92.114</ele>
        <time>1998-05-06T11:16:29Z</time>
      </trkpt>
      <trkpt lat="41.977156" lon="2.774015">
        <ele>92.797</ele>
        <time>1998-05-06T11:16:31Z</time>
      </trkpt>
      <trkpt lat="41.977193" lon="2.774167">
        <ele>93.446</ele>
        <time>1998-05-06T11:16:33Z</time>
      </trkpt>
      <trkpt lat="41.977222" lon="2.774346">
        <ele>93.426</ele>
        <time>1998-05-06T11:16:35Z</time>
      </trkpt>
      <trkpt lat="41.977362" lon="2.775010">
        <ele>91.430</ele>
        <time>1998-05-06T11:16:44Z</time>
      </trkpt>
      <trkpt lat="41.977395" lon="2.775089">
        <ele>91.122</ele>
        <time>1998-05-06T11:16:46Z</time>
      </trkpt>
      <trkpt lat="41.977553" lon="2.775080">
        <ele>92.662</ele>
        <time>1998-05-06T11:16:51Z</time>
      </trkpt>
      <trkpt lat="41.977876" lon="2.774802">
        <ele>95.008</ele>
        <time>1998-05-06T11:16:58Z</time>
      </trkpt>
      <trkpt lat="41.978063" lon="2.774639">
        <ele>95.808</ele>
        <time>1998-05-06T11:17:02Z</time>
      </trkpt>
      <trkpt lat="41.978131" lon="2.774601">
        <ele>95.854</ele>
        <time>1998-05-06T11:17:03Z</time>
      </trkpt>
      <trkpt lat="41.978252" lon="2.774523">
        <ele>95.767</ele>
        <time>1998-05-06T11:17:05Z</time>
      </trkpt>
      <trkpt lat="41.978357" lon="2.774512">
        <ele>95.119</ele>
        <time>1998-05-06T11:17:07Z</time>
      </trkpt>
      <trkpt lat="41.978426" lon="2.774581">
        <ele>93.929</ele>
        <time>1998-05-06T11:17:09Z</time>
      </trkpt>
      <trkpt lat="41.978494" lon="2.774703">
        <ele>92.582</ele>
        <time>1998-05-06T11:17:11Z</time>
      </trkpt>
      <trkpt lat="41.978832" lon="2.775306">
        <ele>91.111</ele>
        <time>1998-05-06T11:17:20Z</time>
      </trkpt>
      <trkpt lat="41.978864" lon="2.775392">
        <ele>90.831</ele>
        <time>1998-05-06T11:17:21Z</time>
      </trkpt>
      <trkpt lat="41.978956" lon="2.775766">
        <ele>90.545</ele>
        <time>1998-05-06T11:17:25Z</time>
      </trkpt>
      <trkpt lat="41.978977" lon="2.775930">
        <ele>91.019</ele>
        <time>1998-05-06T11:17:27Z</time>
      </trkpt>
      <trkpt lat="41.979039" lon="2.776299">
        <ele>92.109</ele>
        <time>1998-05-06T11:17:32Z</time>
      </trkpt>
      <trkpt lat="41.979046" lon="2.776371">
        <ele>92.419</ele>
        <time>1998-05-06T11:17:33Z</time>
      </trkpt>
      <trkpt lat="41.979063" lon="2.776519">
        <ele>93.108</ele>
        <time>1998-05-06T11:17:35Z</time>
      </trkpt>
      <trkpt lat="41.979104" lon="2.776761">
        <ele>94.093</ele>
        <time>1998-05-06T11:17:38Z</time>
      </trkpt>
      <trkpt lat="41.979200" lon="2.777003">
        <ele>93.916</ele>
        <time>1998-05-06T11:17:42Z</time>
      </trkpt>
      <trkpt lat="41.979267" lon="2.777209">
        <ele>93.618</ele>
        <time>1998-05-06T11:17:45Z</time>
      </trkpt>
      <trkpt lat="41.979324" lon="2.777337">
        <ele>93.688</ele>
        <time>1998-05-06T11:17:47Z</time>
      </trkpt>
      <trkpt lat="41.979372" lon="2.777455">
        <ele>93.561</ele>
        <time>1998-05-06T11:17:49Z</time>
      </trkpt>
      <trkpt lat="41.979409" lon="2.777591">
        <ele>93.540</ele>
        <time>1998-05-06T11:17:51Z</time>
      </trkpt>
      <trkpt lat="41.979463" lon="2.777786">
        <ele>93.930</ele>
        <time>1998-05-06T11:17:54Z</time>
      </trkpt>
      <trkpt lat="41.979462" lon="2.777957">
        <ele>93.394</ele>
        <time>1998-05-06T11:17:56Z</time>
      </trkpt>
      <trkpt lat="41.979351" lon="2.778724">
        <ele>90.954</ele>
        <time>1998-05-06T11:18:04Z</time>
      </trkpt>
      <trkpt lat="41.979266" lon="2.779105">
        <ele>86.456</ele>
        <time>1998-05-06T11:18:08Z</time>
      </trkpt>
      <trkpt lat="41.979210" lon="2.779330">
        <ele>84.111</ele>
        <time>1998-05-06T11:18:11Z</time>
      </trkpt>
      <trkpt lat="41.979119" lon="2.779735">
        <ele>83.308</ele>
        <time>1998-05-06T11:18:17Z</time>
      </trkpt>
      <trkpt lat="41.979001" lon="2.780058">
        <ele>86.387</ele>
        <time>1998-05-06T11:18:21Z</time>
      </trkpt>
      <trkpt lat="41.979068" lon="2.780192">
        <ele>87.110</ele>
        <time>1998-05-06T11:18:23Z</time>
      </trkpt>
      <trkpt lat="41.979167" lon="2.780278">
        <ele>88.072</ele>
        <time>1998-05-06T11:18:25Z</time>
      </trkpt>
      <trkpt lat="41.979272" lon="2.780380">
        <ele>88.862</ele>
        <time>1998-05-06T11:18:27Z</time>
      </trkpt>
      <trkpt lat="41.979335" lon="2.780518">
        <ele>89.525</ele>
        <time>1998-05-06T11:18:29Z</time>
      </trkpt>
      <trkpt lat="41.979364" lon="2.780664">
        <ele>89.194</ele>
        <time>1998-05-06T11:18:31Z</time>
      </trkpt>
      <trkpt lat="41.979358" lon="2.780831">
        <ele>88.684</ele>
        <time>1998-05-06T11:18:33Z</time>
      </trkpt>
      <trkpt lat="41.979274" lon="2.781094">
        <ele>89.628</ele>
        <time>1998-05-06T11:18:36Z</time>
      </trkpt>
      <trkpt lat="41.979185" lon="2.781329">
        <ele>90.868</ele>
        <time>1998-05-06T11:18:39Z</time>
      </trkpt>
      <trkpt lat="41.979120" lon="2.781557">
        <ele>91.642</ele>
        <time>1998-05-06T11:18:42Z</time>
      </trkpt>
      <trkpt lat="41.979041" lon="2.781852">
        <ele>90.726</ele>
        <time>1998-05-06T11:18:46Z</time>
      </trkpt>
      <trkpt lat="41.978952" lon="2.782021">
        <ele>90.108</ele>
        <time>1998-05-06T11:18:49Z</time>
      </trkpt>
      <trkpt lat="41.978882" lon="2.782157">
        <ele>89.048</ele>
        <time>1998-05-06T11:18:51Z</time>
      </trkpt>
      <trkpt lat="41.978675" lon="2.782552">
        <ele>90.611</ele>
        <time>1998-05-06T11:18:57Z</time>
      </trkpt>
      <trkpt lat="41.978601" lon="2.782757">
        <ele>92.813</ele>
        <time>1998-05-06T11:19:00Z</time>
      </trkpt>
      <trkpt lat="41.978571" lon="2.782828">
        <ele>92.533</ele>
        <time>1998-05-06T11:19:01Z</time>
      </trkpt>
      <trkpt lat="41.978521" lon="2.782965">
        <ele>91.516</ele>
        <time>1998-05-06T11:19:03Z</time>
      </trkpt>
      <trkpt lat="41.978505" lon="2.783033">
        <ele>91.165</ele>
        <time>1998-05-06T11:19:04Z</time>
      </trkpt>
      <trkpt lat="41.978448" lon="2.783301">
        <ele>88.955</ele>
        <time>1998-05-06T11:19:08Z</time>
      </trkpt>
      <trkpt lat="41.978349" lon="2.783636">
        <ele>90.099</ele>
        <time>1998-05-06T11:19:13Z</time>
      </trkpt>
      <trkpt lat="41.978317" lon="2.783708">
        <ele>90.375</ele>
        <time>1998-05-06T11:19:14Z</time>
      </trkpt>
      <trkpt lat="41.978268" lon="2.783818">
        <ele>90.528</ele>
        <time>1998-05-06T11:19:16Z</time>
      </trkpt>
      <trkpt lat="41.978237" lon="2.783888">
        <ele>90.620</ele>
        <time>1998-05-06T11:19:18Z</time>
      </trkpt>
      <trkpt lat="41.978241" lon="2.783955">
        <ele>90.908</ele>
        <time>1998-05-06T11:19:20Z</time>
      </trkpt>
      <trkpt lat="41.978263" lon="2.783984">
        <ele>91.149</ele>
        <time>1998-05-06T11:19:21Z</time>
      </trkpt>
      <trkpt lat="41.978305" lon="2.784046">
        <ele>91.562</ele>
        <time>1998-05-06T11:19:24Z</time>
      </trkpt>
      <trkpt lat="41.978330" lon="2.784076">
        <ele>91.754</ele>
        <time>1998-05-06T11:19:25Z</time>
      </trkpt>
      <trkpt lat="41.978348" lon="2.784123">
        <ele>91.754</ele>
        <time>1998-05-06T11:19:26Z</time>
      </trkpt>
      <trkpt lat="41.978396" lon="2.784246">
        <ele>90.947</ele>
        <time>1998-05-06T11:19:28Z</time>
      </trkpt>
      <trkpt lat="41.978448" lon="2.784403">
        <ele>90.186</ele>
        <time>1998-05-06T11:19:30Z</time>
      </trkpt>
      <trkpt lat="41.978482" lon="2.784588">
        <ele>89.276</ele>
        <time>1998-05-06T11:19:32Z</time>
      </trkpt>
      <trkpt lat="41.978497" lon="2.784777">
        <ele>88.520</ele>
        <time>1998-05-06T11:19:34Z</time>
      </trkpt>
      <trkpt lat="41.978523" lon="2.785007">
        <ele>88.019</ele>
        <time>1998-05-06T11:19:37Z</time>
      </trkpt>
      <trkpt lat="41.978551" lon="2.785131">
        <ele>88.109</ele>
        <time>1998-05-06T11:19:39Z</time>
      </trkpt>
      <trkpt lat="41.978673" lon="2.785617">
        <ele>86.419</ele>
        <time>1998-05-06T11:19:47Z</time>
      </trkpt>
      <trkpt lat="41.978697" lon="2.785746">
        <ele>86.308</ele>
        <time>1998-05-06T11:19:49Z</time>
      </trkpt>
      <trkpt lat="41.978827" lon="2.786194">
        <ele>86.243</ele>
        <time>1998-05-06T11:19:56Z</time>
      </trkpt>
      <trkpt lat="41.978849" lon="2.786255">
        <ele>86.116</ele>
        <time>1998-05-06T11:19:57Z</time>
      </trkpt>
      <trkpt lat="41.978867" lon="2.786315">
        <ele>86.068</ele>
        <time>1998-05-06T11:19:58Z</time>
      </trkpt>
      <trkpt lat="41.978923" lon="2.786503">
        <ele>85.228</ele>
        <time>1998-05-06T11:20:01Z</time>
      </trkpt>
      <trkpt lat="41.978971" lon="2.786632">
        <ele>84.241</ele>
        <time>1998-05-06T11:20:03Z</time>
      </trkpt>
      <trkpt lat="41.978995" lon="2.786700">
        <ele>83.860</ele>
        <time>1998-05-06T11:20:04Z</time>
      </trkpt>
      <trkpt lat="41.979147" lon="2.787181">
        <ele>82.860</ele>
        <time>1998-05-06T11:20:11Z</time>
      </trkpt>
      <trkpt lat="41.979210" lon="2.787346">
        <ele>83.884</ele>
        <time>1998-05-06T11:20:14Z</time>
      </trkpt>
      <trkpt lat="41.979416" lon="2.787868">
        <ele>85.447</ele>
        <time>1998-05-06T11:20:24Z</time>
      </trkpt>
      <trkpt lat="41.979433" lon="2.787990">
        <ele>84.529</ele>
        <time>1998-05-06T11:20:26Z</time>
      </trkpt>
      <trkpt lat="41.979398" lon="2.788114">
        <ele>84.021</ele>
        <time>1998-05-06T11:20:28Z</time>
      </trkpt>
      <trkpt lat="41.979324" lon="2.788261">
        <ele>84.008</ele>
        <time>1998-05-06T11:20:30Z</time>
      </trkpt>
      <trkpt lat="41.979279" lon="2.788416">
        <ele>83.816</ele>
        <time>1998-05-06T11:20:32Z</time>
      </trkpt>
      <trkpt lat="41.979307" lon="2.788564">
        <ele>82.329</ele>
        <time>1998-05-06T11:20:34Z</time>
      </trkpt>
      <trkpt lat="41.979593" lon="2.789263">
        <ele>78.831</ele>
        <time>1998-05-06T11:20:44Z</time>
      </trkpt>
      <trkpt lat="41.979804" lon="2.789774">
        <ele>81.771</ele>
        <time>1998-05-06T11:20:52Z</time>
      </trkpt>
      <trkpt lat="41.980138" lon="2.790392">
        <ele>80.654</ele>
        <time>1998-05-06T11:21:03Z</time>
      </trkpt>
      <trkpt lat="41.980251" lon="2.790718">
        <ele>80.343</ele>
        <time>1998-05-06T11:21:08Z</time>
      </trkpt>
      <trkpt lat="41.980326" lon="2.791366">
        <ele>80.683</ele>
        <time>1998-05-06T11:21:18Z</time>
      </trkpt>
      <trkpt lat="41.980274" lon="2.791480">
        <ele>81.087</ele>
        <time>1998-05-06T11:21:20Z</time>
      </trkpt>
      <trkpt lat="41.980161" lon="2.791641">
        <ele>81.476</ele>
        <time>1998-05-06T11:21:23Z</time>
      </trkpt>
      <trkpt lat="41.979973" lon="2.791851">
        <ele>81.890</ele>
        <time>1998-05-06T11:21:28Z</time>
      </trkpt>
      <trkpt lat="41.979938" lon="2.791941">
        <ele>81.619</ele>
        <time>1998-05-06T11:21:30Z</time>
      </trkpt>
      <trkpt lat="41.979976" lon="2.792020">
        <ele>81.608</ele>
        <time>1998-05-06T11:21:32Z</time>
      </trkpt>
      <trkpt lat="41.980037" lon="2.792090">
        <ele>81.359</ele>
        <time>1998-05-06T11:21:34Z</time>
      </trkpt>
      <trkpt lat="41.980139" lon="2.792285">
        <ele>80.392</ele>
        <time>1998-05-06T11:21:38Z</time>
      </trkpt>
      <trkpt lat="41.980222" lon="2.792442">
        <ele>79.984</ele>
        <time>1998-05-06T11:21:41Z</time>
      </trkpt>
      <trkpt lat="41.980271" lon="2.792543">
        <ele>79.754</ele>
        <time>1998-05-06T11:21:43Z</time>
      </trkpt>
      <trkpt lat="41.980523" lon="2.793106">
        <ele>77.067</ele>
        <time>1998-05-06T11:21:54Z</time>
      </trkpt>
      <trkpt lat="41.980588" lon="2.793270">
        <ele>77.056</ele>
        <time>1998-05-06T11:21:57Z</time>
      </trkpt>
      <trkpt lat="41.980608" lon="2.793334">
        <ele>77.026</ele>
        <time>1998-05-06T11:21:58Z</time>
      </trkpt>
      <trkpt lat="41.980656" lon="2.793567">
        <ele>77.390</ele>
        <time>1998-05-06T11:22:02Z</time>
      </trkpt>
      <trkpt lat="41.980657" lon="2.793690">
        <ele>77.465</ele>
        <time>1998-05-06T11:22:04Z</time>
      </trkpt>
      <trkpt lat="41.980635" lon="2.793962">
        <ele>77.168</ele>
        <time>1998-05-06T11:22:08Z</time>
      </trkpt>
      <trkpt lat="41.980652" lon="2.794075">
        <ele>76.914</ele>
        <time>1998-05-06T11:22:10Z</time>
      </trkpt>
      <trkpt lat="41.980822" lon="2.794618">
        <ele>77.008</ele>
        <time>1998-05-06T11:22:19Z</time>
      </trkpt>
      <trkpt lat="41.980919" lon="2.794825">
        <ele>76.688</ele>
        <time>1998-05-06T11:22:23Z</time>
      </trkpt>
      <trkpt lat="41.980979" lon="2.794955">
        <ele>76.011</ele>
        <time>1998-05-06T11:22:25Z</time>
      </trkpt>
      <trkpt lat="41.981017" lon="2.795021">
        <ele>75.763</ele>
        <time>1998-05-06T11:22:26Z</time>
      </trkpt>
      <trkpt lat="41.981143" lon="2.795212">
        <ele>74.943</ele>
        <time>1998-05-06T11:22:29Z</time>
      </trkpt>
      <trkpt lat="41.981264" lon="2.795408">
        <ele>74.726</ele>
        <time>1998-05-06T11:22:32Z</time>
      </trkpt>
      <trkpt lat="41.981639" lon="2.795945">
        <ele>76.525</ele>
        <time>1998-05-06T11:22:41Z</time>
      </trkpt>
      <trkpt lat="41.981842" lon="2.796228">
        <ele>77.985</ele>
        <time>1998-05-06T11:22:46Z</time>
      </trkpt>
      <trkpt lat="41.981895" lon="2.796365">
        <ele>78.599</ele>
        <time>1998-05-06T11:22:48Z</time>
      </trkpt>
      <trkpt lat="41.981922" lon="2.796509">
        <ele>79.217</ele>
        <time>1998-05-06T11:22:50Z</time>
      </trkpt>
      <trkpt lat="41.981945" lon="2.796687">
        <ele>80.187</ele>
        <time>1998-05-06T11:22:53Z</time>
      </trkpt>
      <trkpt lat="41.982034" lon="2.797434">
        <ele>77.315</ele>
        <time>1998-05-06T11:23:03Z</time>
      </trkpt>
      <trkpt lat="41.982137" lon="2.797719">
        <ele>76.108</ele>
        <time>1998-05-06T11:23:07Z</time>
      </trkpt>
      <trkpt lat="41.982379" lon="2.798398">
        <ele>73.443</ele>
        <time>1998-05-06T11:23:17Z</time>
      </trkpt>
      <trkpt lat="41.982448" lon="2.798672">
        <ele>73.286</ele>
        <time>1998-05-06T11:23:21Z</time>
      </trkpt>
      <trkpt lat="41.982468" lon="2.798819">
        <ele>73.188</ele>
        <time>1998-05-06T11:23:23Z</time>
      </trkpt>
      <trkpt lat="41.982621" lon="2.799543">
        <ele>74.648</ele>
        <time>1998-05-06T11:23:33Z</time>
      </trkpt>
      <trkpt lat="41.982687" lon="2.799905">
        <ele>73.361</ele>
        <time>1998-05-06T11:23:38Z</time>
      </trkpt>
      <trkpt lat="41.982685" lon="2.800048">
        <ele>72.990</ele>
        <time>1998-05-06T11:23:40Z</time>
      </trkpt>
      <trkpt lat="41.982655" lon="2.800329">
        <ele>72.550</ele>
        <time>1998-05-06T11:23:44Z</time>
      </trkpt>
      <trkpt lat="41.982633" lon="2.800526">
        <ele>72.974</ele>
        <time>1998-05-06T11:23:47Z</time>
      </trkpt>
      <trkpt lat="41.982625" lon="2.800590">
        <ele>73.083</ele>
        <time>1998-05-06T11:23:48Z</time>
      </trkpt>
      <trkpt lat="41.982600" lon="2.800791">
        <ele>73.025</ele>
        <time>1998-05-06T11:23:51Z</time>
      </trkpt>
      <trkpt lat="41.982588" lon="2.800936">
        <ele>73.317</ele>
        <time>1998-05-06T11:23:53Z</time>
      </trkpt>
      <trkpt lat="41.982524" lon="2.801703">
        <ele>72.908</ele>
        <time>1998-05-06T11:24:03Z</time>
      </trkpt>
      <trkpt lat="41.982510" lon="2.802012">
        <ele>72.050</ele>
        <time>1998-05-06T11:24:07Z</time>
      </trkpt>
      <trkpt lat="41.982499" lon="2.802100">
        <ele>72.073</ele>
        <time>1998-05-06T11:24:08Z</time>
      </trkpt>
      <trkpt lat="41.982441" lon="2.802461">
        <ele>72.075</ele>
        <time>1998-05-06T11:24:13Z</time>
      </trkpt>
      <trkpt lat="41.982431" lon="2.802769">
        <ele>71.385</ele>
        <time>1998-05-06T11:24:21Z</time>
      </trkpt>
      <trkpt lat="41.982436" lon="2.802914">
        <ele>71.218</ele>
        <time>1998-05-06T11:24:23Z</time>
      </trkpt>
      <trkpt lat="41.982448" lon="2.803063">
        <ele>71.267</ele>
        <time>1998-05-06T11:24:25Z</time>
      </trkpt>
      <trkpt lat="41.982456" lon="2.803220">
        <ele>71.177</ele>
        <time>1998-05-06T11:24:27Z</time>
      </trkpt>
      <trkpt lat="41.982441" lon="2.803726">
        <ele>71.221</ele>
        <time>1998-05-06T11:24:33Z</time>
      </trkpt>
      <trkpt lat="41.982442" lon="2.803807">
        <ele>71.554</ele>
        <time>1998-05-06T11:24:34Z</time>
      </trkpt>
      <trkpt lat="41.982438" lon="2.804033">
        <ele>72.356</ele>
        <time>1998-05-06T11:24:37Z</time>
      </trkpt>
      <trkpt lat="41.982422" lon="2.804175">
        <ele>72.711</ele>
        <time>1998-05-06T11:24:39Z</time>
      </trkpt>
      <trkpt lat="41.982425" lon="2.804318">
        <ele>73.308</ele>
        <time>1998-05-06T11:24:41Z</time>
      </trkpt>
      <trkpt lat="41.982441" lon="2.804545">
        <ele>73.557</ele>
        <time>1998-05-06T11:24:44Z</time>
      </trkpt>
      <trkpt lat="41.982473" lon="2.804930">
        <ele>72.310</ele>
        <time>1998-05-06T11:24:49Z</time>
      </trkpt>
      <trkpt lat="41.982561" lon="2.805425">
        <ele>71.612</ele>
        <time>1998-05-06T11:24:56Z</time>
      </trkpt>
      <trkpt lat="41.982735" lon="2.806134">
        <ele>72.052</ele>
        <time>1998-05-06T11:25:06Z</time>
      </trkpt>
      <trkpt lat="41.982812" lon="2.806493">
        <ele>71.615</ele>
        <time>1998-05-06T11:25:11Z</time>
      </trkpt>
      <trkpt lat="41.982990" lon="2.807182">
        <ele>69.184</ele>
        <time>1998-05-06T11:25:20Z</time>
      </trkpt>
      <trkpt lat="41.983015" lon="2.807258">
        <ele>68.894</ele>
        <time>1998-05-06T11:25:21Z</time>
      </trkpt>
      <trkpt lat="41.983254" lon="2.807916">
        <ele>69.438</ele>
        <time>1998-05-06T11:25:30Z</time>
      </trkpt>
      <trkpt lat="41.983406" lon="2.808250">
        <ele>69.823</ele>
        <time>1998-05-06T11:25:35Z</time>
      </trkpt>
      <trkpt lat="41.983428" lon="2.808314">
        <ele>69.883</ele>
        <time>1998-05-06T11:25:36Z</time>
      </trkpt>
      <trkpt lat="41.983446" lon="2.808445">
        <ele>69.611</ele>
        <time>1998-05-06T11:25:38Z</time>
      </trkpt>
      <trkpt lat="41.983449" lon="2.808512">
        <ele>69.608</ele>
        <time>1998-05-06T11:25:39Z</time>
      </trkpt>
      <trkpt lat="41.983489" lon="2.808780">
        <ele>69.884</ele>
        <time>1998-05-06T11:25:43Z</time>
      </trkpt>
      <trkpt lat="41.983717" lon="2.809308">
        <ele>70.637</ele>
        <time>1998-05-06T11:25:52Z</time>
      </trkpt>
      <trkpt lat="41.983800" lon="2.809469">
        <ele>71.369</ele>
        <time>1998-05-06T11:25:55Z</time>
      </trkpt>
      <trkpt lat="41.983872" lon="2.809552">
        <ele>71.539</ele>
        <time>1998-05-06T11:25:57Z</time>
      </trkpt>
      <trkpt lat="41.983955" lon="2.809602">
        <ele>71.812</ele>
        <time>1998-05-06T11:25:59Z</time>
      </trkpt>
      <trkpt lat="41.984225" lon="2.809636">
        <ele>73.031</ele>
        <time>1998-05-06T11:26:05Z</time>
      </trkpt>
      <trkpt lat="41.984263" lon="2.809652">
        <ele>73.071</ele>
        <time>1998-05-06T11:26:06Z</time>
      </trkpt>
      <trkpt lat="41.984349" lon="2.809727">
        <ele>73.085</ele>
        <time>1998-05-06T11:26:11Z</time>
      </trkpt>
      <trkpt lat="41.984350" lon="2.809746">
        <ele>72.942</ele>
        <time>1998-05-06T11:26:14Z</time>
      </trkpt>
      <trkpt lat="41.984355" lon="2.809796">
        <ele>72.722</ele>
        <time>1998-05-06T11:26:35Z</time>
      </trkpt>
      <trkpt lat="41.984361" lon="2.809824">
        <ele>72.614</ele>
        <time>1998-05-06T11:26:36Z</time>
      </trkpt>
      <trkpt lat="41.984367" lon="2.809957">
        <ele>72.208</ele>
        <time>1998-05-06T11:26:40Z</time>
      </trkpt>
      <trkpt lat="41.984459" lon="2.810014">
        <ele>72.076</ele>
        <time>1998-05-06T11:26:43Z</time>
      </trkpt>
      <trkpt lat="41.984498" lon="2.810052">
        <ele>72.219</ele>
        <time>1998-05-06T11:26:44Z</time>
      </trkpt>
      <trkpt lat="41.984531" lon="2.810099">
        <ele>72.261</ele>
        <time>1998-05-06T11:26:45Z</time>
      </trkpt>
      <trkpt lat="41.984704" lon="2.810287">
        <ele>72.021</ele>
        <time>1998-05-06T11:26:51Z</time>
      </trkpt>
      <trkpt lat="41.984779" lon="2.810244">
        <ele>72.134</ele>
        <time>1998-05-06T11:26:53Z</time>
      </trkpt>
      <trkpt lat="41.984878" lon="2.810188">
        <ele>72.093</ele>
        <time>1998-05-06T11:26:56Z</time>
      </trkpt>
      <trkpt lat="41.984939" lon="2.810216">
        <ele>71.953</ele>
        <time>1998-05-06T11:26:59Z</time>
      </trkpt>
      <trkpt lat="41.984946" lon="2.810221">
        <ele>71.957</ele>
        <time>1998-05-06T11:27:00Z</time>
      </trkpt>
      <trkpt lat="41.984957" lon="2.810221">
        <ele>71.987</ele>
        <time>1998-05-06T11:27:01Z</time>
      </trkpt>
      <trkpt lat="41.985102" lon="2.810142">
        <ele>71.042</ele>
        <time>1998-05-06T11:27:06Z</time>
      </trkpt>
      <trkpt lat="41.985160" lon="2.810047">
        <ele>70.126</ele>
        <time>1998-05-06T11:27:08Z</time>
      </trkpt>
      <trkpt lat="41.985221" lon="2.809960">
        <ele>69.208</ele>
        <time>1998-05-06T11:27:10Z</time>
      </trkpt>
      <trkpt lat="41.985305" lon="2.809933">
        <ele>68.430</ele>
        <time>1998-05-06T11:27:12Z</time>
      </trkpt>
      <trkpt lat="41.985511" lon="2.809894">
        <ele>67.423</ele>
        <time>1998-05-06T11:27:16Z</time>
      </trkpt>
      <trkpt lat="41.985686" lon="2.809872">
        <ele>66.495</ele>
        <time>1998-05-06T11:27:19Z</time>
      </trkpt>
      <trkpt lat="41.985748" lon="2.809867">
        <ele>66.065</ele>
        <time>1998-05-06T11:27:20Z</time>
      </trkpt>
      <trkpt lat="41.985930" lon="2.809840">
        <ele>65.458</ele>
        <time>1998-05-06T11:27:23Z</time>
      </trkpt>
      <trkpt lat="41.986044" lon="2.809825">
        <ele>65.487</ele>
        <time>1998-05-06T11:27:25Z</time>
      </trkpt>
      <trkpt lat="41.986396" lon="2.809771">
        <ele>66.887</ele>
        <time>1998-05-06T11:27:31Z</time>
      </trkpt>
      <trkpt lat="41.986458" lon="2.809756">
        <ele>66.941</ele>
        <time>1998-05-06T11:27:32Z</time>
      </trkpt>
      <trkpt lat="41.987036" lon="2.809699">
        <ele>67.383</ele>
        <time>1998-05-06T11:27:42Z</time>
      </trkpt>
      <trkpt lat="41.987308" lon="2.809672">
        <ele>68.325</ele>
        <time>1998-05-06T11:27:47Z</time>
      </trkpt>
      <trkpt lat="41.987868" lon="2.809607">
        <ele>71.317</ele>
        <time>1998-05-06T11:27:57Z</time>
      </trkpt>
      <trkpt lat="41.988419" lon="2.809549">
        <ele>73.608</ele>
        <time>1998-05-06T11:28:06Z</time>
      </trkpt>
      <trkpt lat="41.988686" lon="2.809525">
        <ele>75.560</ele>
        <time>1998-05-06T11:28:10Z</time>
      </trkpt>
      <trkpt lat="41.989151" lon="2.809502">
        <ele>77.573</ele>
        <time>1998-05-06T11:28:18Z</time>
      </trkpt>
      <trkpt lat="41.989369" lon="2.809484">
        <ele>77.035</ele>
        <time>1998-05-06T11:28:22Z</time>
      </trkpt>
      <trkpt lat="41.989918" lon="2.809400">
        <ele>74.355</ele>
        <time>1998-05-06T11:28:32Z</time>
      </trkpt>
      <trkpt lat="41.990180" lon="2.809372">
        <ele>73.878</ele>
        <time>1998-05-06T11:28:37Z</time>
      </trkpt>
      <trkpt lat="41.990260" lon="2.809425">
        <ele>73.937</ele>
        <time>1998-05-06T11:28:39Z</time>
      </trkpt>
      <trkpt lat="41.990332" lon="2.809506">
        <ele>74.297</ele>
        <time>1998-05-06T11:28:41Z</time>
      </trkpt>
      <trkpt lat="41.990395" lon="2.809596">
        <ele>74.591</ele>
        <time>1998-05-06T11:28:43Z</time>
      </trkpt>
      <trkpt lat="41.990471" lon="2.809653">
        <ele>74.844</ele>
        <time>1998-05-06T11:28:45Z</time>
      </trkpt>
      <trkpt lat="41.990596" lon="2.809685">
        <ele>74.905</ele>
        <time>1998-05-06T11:28:48Z</time>
      </trkpt>
      <trkpt lat="41.990745" lon="2.809719">
        <ele>75.015</ele>
        <time>1998-05-06T11:28:52Z</time>
      </trkpt>
      <trkpt lat="41.990796" lon="2.809762">
        <ele>75.208</ele>
        <time>1998-05-06T11:28:54Z</time>
      </trkpt>
      <trkpt lat="41.990863" lon="2.809755">
        <ele>75.256</ele>
        <time>1998-05-06T11:28:58Z</time>
      </trkpt>
      <trkpt lat="41.991051" lon="2.809561">
        <ele>75.349</ele>
        <time>1998-05-06T11:29:04Z</time>
      </trkpt>
      <trkpt lat="41.991123" lon="2.809475">
        <ele>75.261</ele>
        <time>1998-05-06T11:29:06Z</time>
      </trkpt>
      <trkpt lat="41.991163" lon="2.809435">
        <ele>75.471</ele>
        <time>1998-05-06T11:29:07Z</time>
      </trkpt>
      <trkpt lat="41.991260" lon="2.809389">
        <ele>76.034</ele>
        <time>1998-05-06T11:29:09Z</time>
      </trkpt>
      <trkpt lat="41.991361" lon="2.809390">
        <ele>76.653</ele>
        <time>1998-05-06T11:29:11Z</time>
      </trkpt>
      <trkpt lat="41.991721" lon="2.809368">
        <ele>79.363</ele>
        <time>1998-05-06T11:29:18Z</time>
      </trkpt>
      <trkpt lat="41.991855" lon="2.809350">
        <ele>78.647</ele>
        <time>1998-05-06T11:29:21Z</time>
      </trkpt>
      <trkpt lat="41.991994" lon="2.809337">
        <ele>77.731</ele>
        <time>1998-05-06T11:29:24Z</time>
      </trkpt>
      <trkpt lat="41.992055" lon="2.809372">
        <ele>77.161</ele>
        <time>1998-05-06T11:29:26Z</time>
      </trkpt>
      <trkpt lat="41.992068" lon="2.809401">
        <ele>77.007</ele>
        <time>1998-05-06T11:29:27Z</time>
      </trkpt>
      <trkpt lat="41.992087" lon="2.809475">
        <ele>76.808</ele>
        <time>1998-05-06T11:29:29Z</time>
      </trkpt>
      <trkpt lat="41.992137" lon="2.809510">
        <ele>76.135</ele>
        <time>1998-05-06T11:29:32Z</time>
      </trkpt>
      <trkpt lat="41.992147" lon="2.809508">
        <ele>76.018</ele>
        <time>1998-05-06T11:29:33Z</time>
      </trkpt>
      <trkpt lat="41.992265" lon="2.809487">
        <ele>75.540</ele>
        <time>1998-05-06T11:29:40Z</time>
      </trkpt>
      <trkpt lat="41.992340" lon="2.809443">
        <ele>76.320</ele>
        <time>1998-05-06T11:29:42Z</time>
      </trkpt>
      <trkpt lat="41.992364" lon="2.809386">
        <ele>76.483</ele>
        <time>1998-05-06T11:29:43Z</time>
      </trkpt>
      <trkpt lat="41.992412" lon="2.809268">
        <ele>76.652</ele>
        <time>1998-05-06T11:29:45Z</time>
      </trkpt>
      <trkpt lat="41.992475" lon="2.809169">
        <ele>76.842</ele>
        <time>1998-05-06T11:29:47Z</time>
      </trkpt>
      <trkpt lat="41.992587" lon="2.809029">
        <ele>77.256</ele>
        <time>1998-05-06T11:29:52Z</time>
      </trkpt>
      <trkpt lat="41.992643" lon="2.808992">
        <ele>77.256</ele>
        <time>1998-05-06T11:29:55Z</time>
      </trkpt>
      <trkpt lat="41.992680" lon="2.808952">
        <ele>77.159</ele>
        <time>1998-05-06T11:29:59Z</time>
      </trkpt>
      <trkpt lat="41.992640" lon="2.808980">
        <ele>77.214</ele>
        <time>1998-05-06T11:30:26Z</time>
      </trkpt>
      <trkpt lat="41.992594" lon="2.809016">
        <ele>77.208</ele>
        <time>1998-05-06T11:30:28Z</time>
      </trkpt>
      <trkpt lat="41.992530" lon="2.809088">
        <ele>77.197</ele>
        <time>1998-05-06T11:30:30Z</time>
      </trkpt>
      <trkpt lat="41.992438" lon="2.809230">
        <ele>76.720</ele>
        <time>1998-05-06T11:30:33Z</time>
      </trkpt>
      <trkpt lat="41.992382" lon="2.809361">
        <ele>76.692</ele>
        <time>1998-05-06T11:30:36Z</time>
      </trkpt>
      <trkpt lat="41.992358" lon="2.809453">
        <ele>76.532</ele>
        <time>1998-05-06T11:30:38Z</time>
      </trkpt>
      <trkpt lat="41.992344" lon="2.809946">
        <ele>76.385</ele>
        <time>1998-05-06T11:30:47Z</time>
      </trkpt>
      <trkpt lat="41.992325" lon="2.810208">
        <ele>76.174</ele>
        <time>1998-05-06T11:30:52Z</time>
      </trkpt>
      <trkpt lat="41.992317" lon="2.810301">
        <ele>76.064</ele>
        <time>1998-05-06T11:30:54Z</time>
      </trkpt>
      <trkpt lat="41.992311" lon="2.810579">
        <ele>76.048</ele>
        <time>1998-05-06T11:31:00Z</time>
      </trkpt>
      <trkpt lat="41.992300" lon="2.810774">
        <ele>76.237</ele>
        <time>1998-05-06T11:31:04Z</time>
      </trkpt>
      <trkpt lat="41.992307" lon="2.810923">
        <ele>76.149</ele>
        <time>1998-05-06T11:31:07Z</time>
      </trkpt>
      <trkpt lat="41.992345" lon="2.811180">
        <ele>75.613</ele>
        <time>1998-05-06T11:31:13Z</time>
      </trkpt>
      <trkpt lat="41.992389" lon="2.811275">
        <ele>75.608</ele>
        <time>1998-05-06T11:31:15Z</time>
      </trkpt>
      <trkpt lat="41.992451" lon="2.811357">
        <ele>75.865</ele>
        <time>1998-05-06T11:31:17Z</time>
      </trkpt>
      <trkpt lat="41.992648" lon="2.812004">
        <ele>77.218</ele>
        <time>1998-05-06T11:31:31Z</time>
      </trkpt>
      <trkpt lat="41.992665" lon="2.812049">
        <ele>77.320</ele>
        <time>1998-05-06T11:31:33Z</time>
      </trkpt>
      <trkpt lat="41.992632" lon="2.812231">
        <ele>77.550</ele>
        <time>1998-05-06T11:31:40Z</time>
      </trkpt>
      <trkpt lat="41.992678" lon="2.812266">
        <ele>77.873</ele>
        <time>1998-05-06T11:31:43Z</time>
      </trkpt>
      <trkpt lat="41.992788" lon="2.812338">
        <ele>78.432</ele>
        <time>1998-05-06T11:31:48Z</time>
      </trkpt>
      <trkpt lat="41.993026" lon="2.812588">
        <ele>79.072</ele>
        <time>1998-05-06T11:31:57Z</time>
      </trkpt>
      <trkpt lat="41.993223" lon="2.812810">
        <ele>78.926</ele>
        <time>1998-05-06T11:32:04Z</time>
      </trkpt>
      <trkpt lat="41.993234" lon="2.812916">
        <ele>78.715</ele>
        <time>1998-05-06T11:32:07Z</time>
      </trkpt>
      <trkpt lat="41.993317" lon="2.813077">
        <ele>78.065</ele>
        <time>1998-05-06T11:32:17Z</time>
      </trkpt>
      <trkpt lat="41.993397" lon="2.812998">
        <ele>78.211</ele>
        <time>1998-05-06T11:39:07Z</time>
      </trkpt>
      <trkpt lat="41.993410" lon="2.813019">
        <ele>78.108</ele>
        <time>1998-05-06T11:39:08Z</time>
      </trkpt>
      <trkpt lat="41.993536" lon="2.813160">
        <ele>77.983</ele>
        <time>1998-05-06T11:39:13Z</time>
      </trkpt>
      <trkpt lat="41.993613" lon="2.813257">
        <ele>78.026</ele>
        <time>1998-05-06T11:39:16Z</time>
      </trkpt>
      <trkpt lat="41.993641" lon="2.813294">
        <ele>78.058</ele>
        <time>1998-05-06T11:39:17Z</time>
      </trkpt>
      <trkpt lat="41.993676" lon="2.813330">
        <ele>78.038</ele>
        <time>1998-05-06T11:39:18Z</time>
      </trkpt>
      <trkpt lat="41.993931" lon="2.813593">
        <ele>78.031</ele>
        <time>1998-05-06T11:39:25Z</time>
      </trkpt>
      <trkpt lat="41.994041" lon="2.813720">
        <ele>78.070</ele>
        <time>1998-05-06T11:39:28Z</time>
      </trkpt>
      <trkpt lat="41.994161" lon="2.813839">
        <ele>78.080</ele>
        <time>1998-05-06T11:39:31Z</time>
      </trkpt>
      <trkpt lat="41.994296" lon="2.814006">
        <ele>79.584</ele>
        <time>1998-05-06T11:39:35Z</time>
      </trkpt>
      <trkpt lat="41.994416" lon="2.814128">
        <ele>79.413</ele>
        <time>1998-05-06T11:39:38Z</time>
      </trkpt>
      <trkpt lat="41.994544" lon="2.814260">
        <ele>80.643</ele>
        <time>1998-05-06T11:39:41Z</time>
      </trkpt>
      <trkpt lat="41.994588" lon="2.814302">
        <ele>80.907</ele>
        <time>1998-05-06T11:39:42Z</time>
      </trkpt>
      <trkpt lat="41.994718" lon="2.814429">
        <ele>80.308</ele>
        <time>1998-05-06T11:39:45Z</time>
      </trkpt>
      <trkpt lat="41.994891" lon="2.814598">
        <ele>81.623</ele>
        <time>1998-05-06T11:39:49Z</time>
      </trkpt>
      <trkpt lat="41.995015" lon="2.814721">
        <ele>81.286</ele>
        <time>1998-05-06T11:39:52Z</time>
      </trkpt>
      <trkpt lat="41.995340" lon="2.815055">
        <ele>81.778</ele>
        <time>1998-05-06T11:40:00Z</time>
      </trkpt>
      <trkpt lat="41.995600" lon="2.815363">
        <ele>82.778</ele>
        <time>1998-05-06T11:40:07Z</time>
      </trkpt>
      <trkpt lat="41.995918" lon="2.815682">
        <ele>82.481</ele>
        <time>1998-05-06T11:40:15Z</time>
      </trkpt>
      <trkpt lat="41.996276" lon="2.815913">
        <ele>85.390</ele>
        <time>1998-05-06T11:40:23Z</time>
      </trkpt>
      <trkpt lat="41.996405" lon="2.815977">
        <ele>86.530</ele>
        <time>1998-05-06T11:40:26Z</time>
      </trkpt>
      <trkpt lat="41.996576" lon="2.816065">
        <ele>85.614</ele>
        <time>1998-05-06T11:40:30Z</time>
      </trkpt>
      <trkpt lat="41.997087" lon="2.816331">
        <ele>83.443</ele>
        <time>1998-05-06T11:40:41Z</time>
      </trkpt>
      <trkpt lat="41.997191" lon="2.816372">
        <ele>83.864</ele>
        <time>1998-05-06T11:40:43Z</time>
      </trkpt>
      <trkpt lat="41.997399" lon="2.816467">
        <ele>84.510</ele>
        <time>1998-05-06T11:40:47Z</time>
      </trkpt>
      <trkpt lat="41.997497" lon="2.816521">
        <ele>84.508</ele>
        <time>1998-05-06T11:40:49Z</time>
      </trkpt>
      <trkpt lat="41.997722" lon="2.816604">
        <ele>83.856</ele>
        <time>1998-05-06T11:40:53Z</time>
      </trkpt>
      <trkpt lat="41.997780" lon="2.816627">
        <ele>83.429</ele>
        <time>1998-05-06T11:40:54Z</time>
      </trkpt>
      <trkpt lat="41.997892" lon="2.816682">
        <ele>82.511</ele>
        <time>1998-05-06T11:40:56Z</time>
      </trkpt>
      <trkpt lat="41.998140" lon="2.816809">
        <ele>81.381</ele>
        <time>1998-05-06T11:41:00Z</time>
      </trkpt>
      <trkpt lat="41.998271" lon="2.816879">
        <ele>81.194</ele>
        <time>1998-05-06T11:41:02Z</time>
      </trkpt>
      <trkpt lat="41.998335" lon="2.816914">
        <ele>81.063</ele>
        <time>1998-05-06T11:41:03Z</time>
      </trkpt>
      <trkpt lat="41.998404" lon="2.816946">
        <ele>80.853</ele>
        <time>1998-05-06T11:41:04Z</time>
      </trkpt>
      <trkpt lat="41.998547" lon="2.817019">
        <ele>80.557</ele>
        <time>1998-05-06T11:41:06Z</time>
      </trkpt>
      <trkpt lat="41.998616" lon="2.817057">
        <ele>80.494</ele>
        <time>1998-05-06T11:41:07Z</time>
      </trkpt>
      <trkpt lat="41.998845" lon="2.817167">
        <ele>79.357</ele>
        <time>1998-05-06T11:41:10Z</time>
      </trkpt>
      <trkpt lat="41.998917" lon="2.817203">
        <ele>78.922</ele>
        <time>1998-05-06T11:41:11Z</time>
      </trkpt>
      <trkpt lat="41.998989" lon="2.817235">
        <ele>78.608</ele>
        <time>1998-05-06T11:41:12Z</time>
      </trkpt>
      <trkpt lat="41.999137" lon="2.817281">
        <ele>77.981</ele>
        <time>1998-05-06T11:41:14Z</time>
      </trkpt>
      <trkpt lat="41.999411" lon="2.817405">
        <ele>75.944</ele>
        <time>1998-05-06T11:41:18Z</time>
      </trkpt>
      <trkpt lat="41.999518" lon="2.817504">
        <ele>75.356</ele>
        <time>1998-05-06T11:41:20Z</time>
      </trkpt>
      <trkpt lat="41.999636" lon="2.817707">
        <ele>75.756</ele>
        <time>1998-05-06T11:41:23Z</time>
      </trkpt>
      <trkpt lat="41.999689" lon="2.817765">
        <ele>75.939</ele>
        <time>1998-05-06T11:41:24Z</time>
      </trkpt>
      <trkpt lat="41.999751" lon="2.817801">
        <ele>75.948</ele>
        <time>1998-05-06T11:41:25Z</time>
      </trkpt>
      <trkpt lat="41.999820" lon="2.817813">
        <ele>75.768</ele>
        <time>1998-05-06T11:41:26Z</time>
      </trkpt>
      <trkpt lat="41.999893" lon="2.817793">
        <ele>75.412</ele>
        <time>1998-05-06T11:41:27Z</time>
      </trkpt>
      <trkpt lat="42.000014" lon="2.817671">
        <ele>73.928</ele>
        <time>1998-05-06T11:41:29Z</time>
      </trkpt>
      <trkpt lat="42.000080" lon="2.817475">
        <ele>73.489</ele>
        <time>1998-05-06T11:41:31Z</time>
      </trkpt>
      <trkpt lat="42.000180" lon="2.817193">
        <ele>72.417</ele>
        <time>1998-05-06T11:41:34Z</time>
      </trkpt>
      <trkpt lat="42.000290" lon="2.817062">
        <ele>72.608</ele>
        <time>1998-05-06T11:41:36Z</time>
      </trkpt>
      <trkpt lat="42.000473" lon="2.816916">
        <ele>72.384</ele>
        <time>1998-05-06T11:41:39Z</time>
      </trkpt>
      <trkpt lat="42.000591" lon="2.816815">
        <ele>72.257</ele>
        <time>1998-05-06T11:41:41Z</time>
      </trkpt>
      <trkpt lat="42.000857" lon="2.816641">
        <ele>70.269</ele>
        <time>1998-05-06T11:41:45Z</time>
      </trkpt>
      <trkpt lat="42.001079" lon="2.816533">
        <ele>71.019</ele>
        <time>1998-05-06T11:41:48Z</time>
      </trkpt>
      <trkpt lat="42.001381" lon="2.816430">
        <ele>70.782</ele>
        <time>1998-05-06T11:41:52Z</time>
      </trkpt>
      <trkpt lat="42.001902" lon="2.816342">
        <ele>70.351</ele>
        <time>1998-05-06T11:42:04Z</time>
      </trkpt>
      <trkpt lat="42.001929" lon="2.816337">
        <ele>70.241</ele>
        <time>1998-05-06T11:42:06Z</time>
      </trkpt>
      <trkpt lat="42.001977" lon="2.816308">
        <ele>70.075</ele>
        <time>1998-05-06T11:42:10Z</time>
      </trkpt>
      <trkpt lat="42.002038" lon="2.816282">
        <ele>69.669</ele>
        <time>1998-05-06T11:42:32Z</time>
      </trkpt>
      <trkpt lat="42.002067" lon="2.816271">
        <ele>69.504</ele>
        <time>1998-05-06T11:42:33Z</time>
      </trkpt>
      <trkpt lat="42.002114" lon="2.816254">
        <ele>69.224</ele>
        <time>1998-05-06T11:42:34Z</time>
      </trkpt>
      <trkpt lat="42.002214" lon="2.816225">
        <ele>68.808</ele>
        <time>1998-05-06T11:42:36Z</time>
      </trkpt>
      <trkpt lat="42.002317" lon="2.816203">
        <ele>69.098</ele>
        <time>1998-05-06T11:42:38Z</time>
      </trkpt>
      <trkpt lat="42.002481" lon="2.816187">
        <ele>69.241</ele>
        <time>1998-05-06T11:42:41Z</time>
      </trkpt>
      <trkpt lat="42.002657" lon="2.816160">
        <ele>69.453</ele>
        <time>1998-05-06T11:42:44Z</time>
      </trkpt>
      <trkpt lat="42.003178" lon="2.816136">
        <ele>68.683</ele>
        <time>1998-05-06T11:42:52Z</time>
      </trkpt>
      <trkpt lat="42.003315" lon="2.816161">
        <ele>68.446</ele>
        <time>1998-05-06T11:42:54Z</time>
      </trkpt>
      <trkpt lat="42.003773" lon="2.816248">
        <ele>67.475</ele>
        <time>1998-05-06T11:43:01Z</time>
      </trkpt>
      <trkpt lat="42.003906" lon="2.816281">
        <ele>66.855</ele>
        <time>1998-05-06T11:43:03Z</time>
      </trkpt>
      <trkpt lat="42.004050" lon="2.816325">
        <ele>66.929</ele>
        <time>1998-05-06T11:43:05Z</time>
      </trkpt>
      <trkpt lat="42.004249" lon="2.816404">
        <ele>67.133</ele>
        <time>1998-05-06T11:43:08Z</time>
      </trkpt>
      <trkpt lat="42.004477" lon="2.816437">
        <ele>67.723</ele>
        <time>1998-05-06T11:43:11Z</time>
      </trkpt>
      <trkpt lat="42.004860" lon="2.816469">
        <ele>67.415</ele>
        <time>1998-05-06T11:43:17Z</time>
      </trkpt>
      <trkpt lat="42.005253" lon="2.816543">
        <ele>67.008</ele>
        <time>1998-05-06T11:43:23Z</time>
      </trkpt>
      <trkpt lat="42.005668" lon="2.816606">
        <ele>67.035</ele>
        <time>1998-05-06T11:43:29Z</time>
      </trkpt>
      <trkpt lat="42.005804" lon="2.816628">
        <ele>67.028</ele>
        <time>1998-05-06T11:43:31Z</time>
      </trkpt>
      <trkpt lat="42.005875" lon="2.816625">
        <ele>67.040</ele>
        <time>1998-05-06T11:43:32Z</time>
      </trkpt>
      <trkpt lat="42.006018" lon="2.816618">
        <ele>67.070</ele>
        <time>1998-05-06T11:43:34Z</time>
      </trkpt>
      <trkpt lat="42.006596" lon="2.816709">
        <ele>65.563</ele>
        <time>1998-05-06T11:43:42Z</time>
      </trkpt>
      <trkpt lat="42.007154" lon="2.816808">
        <ele>63.512</ele>
        <time>1998-05-06T11:43:50Z</time>
      </trkpt>
      <trkpt lat="42.007504" lon="2.816859">
        <ele>63.682</ele>
        <time>1998-05-06T11:43:55Z</time>
      </trkpt>
      <trkpt lat="42.008077" lon="2.816950">
        <ele>62.076</ele>
        <time>1998-05-06T11:44:03Z</time>
      </trkpt>
      <trkpt lat="42.008610" lon="2.817029">
        <ele>63.188</ele>
        <time>1998-05-06T11:44:11Z</time>
      </trkpt>
      <trkpt lat="42.008704" lon="2.817125">
        <ele>63.024</ele>
        <time>1998-05-06T11:44:13Z</time>
      </trkpt>
      <trkpt lat="42.008787" lon="2.817248">
        <ele>63.326</ele>
        <time>1998-05-06T11:44:15Z</time>
      </trkpt>
      <trkpt lat="42.008900" lon="2.817337">
        <ele>63.808</ele>
        <time>1998-05-06T11:44:17Z</time>
      </trkpt>
      <trkpt lat="42.009244" lon="2.817550">
        <ele>63.620</ele>
        <time>1998-05-06T11:44:23Z</time>
      </trkpt>
      <trkpt lat="42.009355" lon="2.817602">
        <ele>63.843</ele>
        <time>1998-05-06T11:44:25Z</time>
      </trkpt>
      <trkpt lat="42.009451" lon="2.817663">
        <ele>64.475</ele>
        <time>1998-05-06T11:44:27Z</time>
      </trkpt>
      <trkpt lat="42.009530" lon="2.817717">
        <ele>64.595</ele>
        <time>1998-05-06T11:44:29Z</time>
      </trkpt>
      <trkpt lat="42.009567" lon="2.817735">
        <ele>64.588</ele>
        <time>1998-05-06T11:44:30Z</time>
      </trkpt>
      <trkpt lat="42.009601" lon="2.817757">
        <ele>64.647</ele>
        <time>1998-05-06T11:44:31Z</time>
      </trkpt>
      <trkpt lat="42.009657" lon="2.817806">
        <ele>64.597</ele>
        <time>1998-05-06T11:44:33Z</time>
      </trkpt>
      <trkpt lat="42.009692" lon="2.817825">
        <ele>64.561</ele>
        <time>1998-05-06T11:44:35Z</time>
      </trkpt>
      <trkpt lat="42.009718" lon="2.817833">
        <ele>64.617</ele>
        <time>1998-05-06T11:44:37Z</time>
      </trkpt>
      <trkpt lat="42.009916" lon="2.817948">
        <ele>64.987</ele>
        <time>1998-05-06T11:44:45Z</time>
      </trkpt>
      <trkpt lat="42.009960" lon="2.817982">
        <ele>65.015</ele>
        <time>1998-05-06T11:44:46Z</time>
      </trkpt>
      <trkpt lat="42.010045" lon="2.818081">
        <ele>64.708</ele>
        <time>1998-05-06T11:44:48Z</time>
      </trkpt>
      <trkpt lat="42.010139" lon="2.818173">
        <ele>64.263</ele>
        <time>1998-05-06T11:44:50Z</time>
      </trkpt>
      <trkpt lat="42.010510" lon="2.818445">
        <ele>64.766</ele>
        <time>1998-05-06T11:44:58Z</time>
      </trkpt>
      <trkpt lat="42.010990" lon="2.818799">
        <ele>64.618</ele>
        <time>1998-05-06T11:45:08Z</time>
      </trkpt>
      <trkpt lat="42.011196" lon="2.818952">
        <ele>64.798</ele>
        <time>1998-05-06T11:45:12Z</time>
      </trkpt>
      <trkpt lat="42.011464" lon="2.819125">
        <ele>65.041</ele>
        <time>1998-05-06T11:45:17Z</time>
      </trkpt>
      <trkpt lat="42.011627" lon="2.819244">
        <ele>65.010</ele>
        <time>1998-05-06T11:45:20Z</time>
      </trkpt>
      <trkpt lat="42.011951" lon="2.819486">
        <ele>64.980</ele>
        <time>1998-05-06T11:45:26Z</time>
      </trkpt>
      <trkpt lat="42.012005" lon="2.819532">
        <ele>64.834</ele>
        <time>1998-05-06T11:45:27Z</time>
      </trkpt>
      <trkpt lat="42.012281" lon="2.819756">
        <ele>64.983</ele>
        <time>1998-05-06T11:45:32Z</time>
      </trkpt>
      <trkpt lat="42.012700" lon="2.820217">
        <ele>64.225</ele>
        <time>1998-05-06T11:45:40Z</time>
      </trkpt>
      <trkpt lat="42.012751" lon="2.820277">
        <ele>64.017</ele>
        <time>1998-05-06T11:45:41Z</time>
      </trkpt>
      <trkpt lat="42.013189" lon="2.820804">
        <ele>64.108</ele>
        <time>1998-05-06T11:45:50Z</time>
      </trkpt>
      <trkpt lat="42.013290" lon="2.820912">
        <ele>64.050</ele>
        <time>1998-05-06T11:45:52Z</time>
      </trkpt>
      <trkpt lat="42.013668" lon="2.821412">
        <ele>64.173</ele>
        <time>1998-05-06T11:46:00Z</time>
      </trkpt>
      <trkpt lat="42.013737" lon="2.821568">
        <ele>63.865</ele>
        <time>1998-05-06T11:46:02Z</time>
      </trkpt>
      <trkpt lat="42.013871" lon="2.822270">
        <ele>63.825</ele>
        <time>1998-05-06T11:46:10Z</time>
      </trkpt>
      <trkpt lat="42.013940" lon="2.822626">
        <ele>63.358</ele>
        <time>1998-05-06T11:46:14Z</time>
      </trkpt>
      <trkpt lat="42.014053" lon="2.823171">
        <ele>61.677</ele>
        <time>1998-05-06T11:46:20Z</time>
      </trkpt>
      <trkpt lat="42.014256" lon="2.823864">
        <ele>59.957</ele>
        <time>1998-05-06T11:46:28Z</time>
      </trkpt>
      <trkpt lat="42.014433" lon="2.824412">
        <ele>60.261</ele>
        <time>1998-05-06T11:46:35Z</time>
      </trkpt>
      <trkpt lat="42.014487" lon="2.824536">
        <ele>59.476</ele>
        <time>1998-05-06T11:46:37Z</time>
      </trkpt>
      <trkpt lat="42.014570" lon="2.824669">
        <ele>59.390</ele>
        <time>1998-05-06T11:46:41Z</time>
      </trkpt>
      <trkpt lat="42.014614" lon="2.824719">
        <ele>59.719</ele>
        <time>1998-05-06T11:46:44Z</time>
      </trkpt>
      <trkpt lat="42.014689" lon="2.824743">
        <ele>60.908</ele>
        <time>1998-05-06T11:46:46Z</time>
      </trkpt>
      <trkpt lat="42.014773" lon="2.824766">
        <ele>61.579</ele>
        <time>1998-05-06T11:46:48Z</time>
      </trkpt>
      <trkpt lat="42.014863" lon="2.824770">
        <ele>62.372</ele>
        <time>1998-05-06T11:46:50Z</time>
      </trkpt>
      <trkpt lat="42.015130" lon="2.824766">
        <ele>64.614</ele>
        <time>1998-05-06T11:46:55Z</time>
      </trkpt>
      <trkpt lat="42.015210" lon="2.824753">
        <ele>65.064</ele>
        <time>1998-05-06T11:46:57Z</time>
      </trkpt>
      <trkpt lat="42.015448" lon="2.824694">
        <ele>65.037</ele>
        <time>1998-05-06T11:47:01Z</time>
      </trkpt>
      <trkpt lat="42.015506" lon="2.824691">
        <ele>65.096</ele>
        <time>1998-05-06T11:47:02Z</time>
      </trkpt>
      <trkpt lat="42.015971" lon="2.824725">
        <ele>65.076</ele>
        <time>1998-05-06T11:47:10Z</time>
      </trkpt>
      <trkpt lat="42.016084" lon="2.824751">
        <ele>65.060</ele>
        <time>1998-05-06T11:47:12Z</time>
      </trkpt>
      <trkpt lat="42.016365" lon="2.824847">
        <ele>65.022</ele>
        <time>1998-05-06T11:47:17Z</time>
      </trkpt>
      <trkpt lat="42.016930" lon="2.825062">
        <ele>64.062</ele>
        <time>1998-05-06T11:47:26Z</time>
      </trkpt>
      <trkpt lat="42.017279" lon="2.825156">
        <ele>64.008</ele>
        <time>1998-05-06T11:47:31Z</time>
      </trkpt>
      <trkpt lat="42.017641" lon="2.825335">
        <ele>64.008</ele>
        <time>1998-05-06T11:47:37Z</time>
      </trkpt>
      <trkpt lat="42.018060" lon="2.825470">
        <ele>64.064</ele>
        <time>1998-05-06T11:47:44Z</time>
      </trkpt>
      <trkpt lat="42.018384" lon="2.825590">
        <ele>64.067</ele>
        <time>1998-05-06T11:47:49Z</time>
      </trkpt>
      <trkpt lat="42.018517" lon="2.825637">
        <ele>64.089</ele>
        <time>1998-05-06T11:47:51Z</time>
      </trkpt>
      <trkpt lat="42.019050" lon="2.825789">
        <ele>63.559</ele>
        <time>1998-05-06T11:48:00Z</time>
      </trkpt>
      <trkpt lat="42.019169" lon="2.825818">
        <ele>63.192</ele>
        <time>1998-05-06T11:48:02Z</time>
      </trkpt>
      <trkpt lat="42.019289" lon="2.825854">
        <ele>63.031</ele>
        <time>1998-05-06T11:48:04Z</time>
      </trkpt>
      <trkpt lat="42.019696" lon="2.825963">
        <ele>62.681</ele>
        <time>1998-05-06T11:48:11Z</time>
      </trkpt>
      <trkpt lat="42.019823" lon="2.825983">
        <ele>62.395</ele>
        <time>1998-05-06T11:48:13Z</time>
      </trkpt>
      <trkpt lat="42.019956" lon="2.825979">
        <ele>62.148</ele>
        <time>1998-05-06T11:48:15Z</time>
      </trkpt>
      <trkpt lat="42.020078" lon="2.825963">
        <ele>61.961</ele>
        <time>1998-05-06T11:48:17Z</time>
      </trkpt>
      <trkpt lat="42.020502" lon="2.825957">
        <ele>61.117</ele>
        <time>1998-05-06T11:48:24Z</time>
      </trkpt>
      <trkpt lat="42.020710" lon="2.825911">
        <ele>60.408</ele>
        <time>1998-05-06T11:48:27Z</time>
      </trkpt>
      <trkpt lat="42.020775" lon="2.825898">
        <ele>60.286</ele>
        <time>1998-05-06T11:48:28Z</time>
      </trkpt>
      <trkpt lat="42.020958" lon="2.825894">
        <ele>59.539</ele>
        <time>1998-05-06T11:48:31Z</time>
      </trkpt>
      <trkpt lat="42.021062" lon="2.825918">
        <ele>58.971</ele>
        <time>1998-05-06T11:48:33Z</time>
      </trkpt>
      <trkpt lat="42.021110" lon="2.825941">
        <ele>58.691</ele>
        <time>1998-05-06T11:48:34Z</time>
      </trkpt>
      <trkpt lat="42.021210" lon="2.825964">
        <ele>58.984</ele>
        <time>1998-05-06T11:48:36Z</time>
      </trkpt>
      <trkpt lat="42.021271" lon="2.825986">
        <ele>59.053</ele>
        <time>1998-05-06T11:48:37Z</time>
      </trkpt>
      <trkpt lat="42.021322" lon="2.826009">
        <ele>59.163</ele>
        <time>1998-05-06T11:48:38Z</time>
      </trkpt>
      <trkpt lat="42.021420" lon="2.826046">
        <ele>59.367</ele>
        <time>1998-05-06T11:48:40Z</time>
      </trkpt>
      <trkpt lat="42.021476" lon="2.826058">
        <ele>59.586</ele>
        <time>1998-05-06T11:48:41Z</time>
      </trkpt>
      <trkpt lat="42.021590" lon="2.826081">
        <ele>59.860</ele>
        <time>1998-05-06T11:48:43Z</time>
      </trkpt>
      <trkpt lat="42.021651" lon="2.826090">
        <ele>60.026</ele>
        <time>1998-05-06T11:48:44Z</time>
      </trkpt>
      <trkpt lat="42.021770" lon="2.826101">
        <ele>60.008</ele>
        <time>1998-05-06T11:48:46Z</time>
      </trkpt>
      <trkpt lat="42.022105" lon="2.826176">
        <ele>60.440</ele>
        <time>1998-05-06T11:48:52Z</time>
      </trkpt>
      <trkpt lat="42.022633" lon="2.826334">
        <ele>60.393</ele>
        <time>1998-05-06T11:49:01Z</time>
      </trkpt>
      <trkpt lat="42.023015" lon="2.826510">
        <ele>60.595</ele>
        <time>1998-05-06T11:49:08Z</time>
      </trkpt>
      <trkpt lat="42.023067" lon="2.826541">
        <ele>60.585</ele>
        <time>1998-05-06T11:49:09Z</time>
      </trkpt>
      <trkpt lat="42.023215" lon="2.826628">
        <ele>60.138</ele>
        <time>1998-05-06T11:49:12Z</time>
      </trkpt>
      <trkpt lat="42.023371" lon="2.826736">
        <ele>60.067</ele>
        <time>1998-05-06T11:49:15Z</time>
      </trkpt>
      <trkpt lat="42.023550" lon="2.826796">
        <ele>60.087</ele>
        <time>1998-05-06T11:49:18Z</time>
      </trkpt>
      <trkpt lat="42.024084" lon="2.827040">
        <ele>59.811</ele>
        <time>1998-05-06T11:49:28Z</time>
      </trkpt>
      <trkpt lat="42.024493" lon="2.827230">
        <ele>60.041</ele>
        <time>1998-05-06T11:49:35Z</time>
      </trkpt>
      <trkpt lat="42.024833" lon="2.827412">
        <ele>59.781</ele>
        <time>1998-05-06T11:49:41Z</time>
      </trkpt>
      <trkpt lat="42.024938" lon="2.827485">
        <ele>59.809</ele>
        <time>1998-05-06T11:49:43Z</time>
      </trkpt>
      <trkpt lat="42.025164" lon="2.827635">
        <ele>60.108</ele>
        <time>1998-05-06T11:49:47Z</time>
      </trkpt>
      <trkpt lat="42.025398" lon="2.827775">
        <ele>60.056</ele>
        <time>1998-05-06T11:49:51Z</time>
      </trkpt>
      <trkpt lat="42.025581" lon="2.827894">
        <ele>59.699</ele>
        <time>1998-05-06T11:49:54Z</time>
      </trkpt>
      <trkpt lat="42.026065" lon="2.828268">
        <ele>59.121</ele>
        <time>1998-05-06T11:50:02Z</time>
      </trkpt>
      <trkpt lat="42.026131" lon="2.828317">
        <ele>59.131</ele>
        <time>1998-05-06T11:50:03Z</time>
      </trkpt>
      <trkpt lat="42.026626" lon="2.828759">
        <ele>58.384</ele>
        <time>1998-05-06T11:50:11Z</time>
      </trkpt>
      <trkpt lat="42.026688" lon="2.828820">
        <ele>58.363</ele>
        <time>1998-05-06T11:50:12Z</time>
      </trkpt>
      <trkpt lat="42.026753" lon="2.828879">
        <ele>58.393</ele>
        <time>1998-05-06T11:50:13Z</time>
      </trkpt>
      <trkpt lat="42.026872" lon="2.829017">
        <ele>58.277</ele>
        <time>1998-05-06T11:50:15Z</time>
      </trkpt>
      <trkpt lat="42.026925" lon="2.829096">
        <ele>58.116</ele>
        <time>1998-05-06T11:50:16Z</time>
      </trkpt>
      <trkpt lat="42.027034" lon="2.829326">
        <ele>58.776</ele>
        <time>1998-05-06T11:50:19Z</time>
      </trkpt>
      <trkpt lat="42.027145" lon="2.829479">
        <ele>59.713</ele>
        <time>1998-05-06T11:50:22Z</time>
      </trkpt>
      <trkpt lat="42.027207" lon="2.829587">
        <ele>60.208</ele>
        <time>1998-05-06T11:50:24Z</time>
      </trkpt>
      <trkpt lat="42.027266" lon="2.829684">
        <ele>61.313</ele>
        <time>1998-05-06T11:50:26Z</time>
      </trkpt>
      <trkpt lat="42.027370" lon="2.829833">
        <ele>61.466</ele>
        <time>1998-05-06T11:50:29Z</time>
      </trkpt>
      <trkpt lat="42.027428" lon="2.829936">
        <ele>61.568</ele>
        <time>1998-05-06T11:50:31Z</time>
      </trkpt>
      <trkpt lat="42.027540" lon="2.830120">
        <ele>61.538</ele>
        <time>1998-05-06T11:50:35Z</time>
      </trkpt>
      <trkpt lat="42.027570" lon="2.830163">
        <ele>61.431</ele>
        <time>1998-05-06T11:50:36Z</time>
      </trkpt>
      <trkpt lat="42.027665" lon="2.830375">
        <ele>60.320</ele>
        <time>1998-05-06T11:50:40Z</time>
      </trkpt>
      <trkpt lat="42.027889" lon="2.830915">
        <ele>59.330</ele>
        <time>1998-05-06T11:50:49Z</time>
      </trkpt>
      <trkpt lat="42.027908" lon="2.830979">
        <ele>58.994</ele>
        <time>1998-05-06T11:50:50Z</time>
      </trkpt>
      <trkpt lat="42.028009" lon="2.831273">
        <ele>59.613</ele>
        <time>1998-05-06T11:50:55Z</time>
      </trkpt>
      <trkpt lat="42.028079" lon="2.831445">
        <ele>60.143</ele>
        <time>1998-05-06T11:50:58Z</time>
      </trkpt>
      <trkpt lat="42.028299" lon="2.832011">
        <ele>57.607</ele>
        <time>1998-05-06T11:51:07Z</time>
      </trkpt>
      <trkpt lat="42.028330" lon="2.832076">
        <ele>57.508</ele>
        <time>1998-05-06T11:51:08Z</time>
      </trkpt>
      <trkpt lat="42.028520" lon="2.832420">
        <ele>56.223</ele>
        <time>1998-05-06T11:51:13Z</time>
      </trkpt>
      <trkpt lat="42.028645" lon="2.832644">
        <ele>56.796</ele>
        <time>1998-05-06T11:51:16Z</time>
      </trkpt>
      <trkpt lat="42.028689" lon="2.832718">
        <ele>56.648</ele>
        <time>1998-05-06T11:51:17Z</time>
      </trkpt>
      <trkpt lat="42.028780" lon="2.832875">
        <ele>56.658</ele>
        <time>1998-05-06T11:51:19Z</time>
      </trkpt>
      <trkpt lat="42.028951" lon="2.833221">
        <ele>54.331</ele>
        <time>1998-05-06T11:51:23Z</time>
      </trkpt>
      <trkpt lat="42.028978" lon="2.833311">
        <ele>53.390</ele>
        <time>1998-05-06T11:51:24Z</time>
      </trkpt>
      <trkpt lat="42.029075" lon="2.833633">
        <ele>55.440</ele>
        <time>1998-05-06T11:51:28Z</time>
      </trkpt>
      <trkpt lat="42.029111" lon="2.833845">
        <ele>56.014</ele>
        <time>1998-05-06T11:51:31Z</time>
      </trkpt>
      <trkpt lat="42.029134" lon="2.833969">
        <ele>56.468</ele>
        <time>1998-05-06T11:51:33Z</time>
      </trkpt>
      <trkpt lat="42.029184" lon="2.834092">
        <ele>57.142</ele>
        <time>1998-05-06T11:51:35Z</time>
      </trkpt>
      <trkpt lat="42.029253" lon="2.834205">
        <ele>56.926</ele>
        <time>1998-05-06T11:51:37Z</time>
      </trkpt>
      <trkpt lat="42.029329" lon="2.834394">
        <ele>55.708</ele>
        <time>1998-05-06T11:51:40Z</time>
      </trkpt>
      <trkpt lat="42.029401" lon="2.834587">
        <ele>55.888</ele>
        <time>1998-05-06T11:51:43Z</time>
      </trkpt>
      <trkpt lat="42.029463" lon="2.834806">
        <ele>55.951</ele>
        <time>1998-05-06T11:51:46Z</time>
      </trkpt>
      <trkpt lat="42.029573" lon="2.835196">
        <ele>56.113</ele>
        <time>1998-05-06T11:51:51Z</time>
      </trkpt>
      <trkpt lat="42.029797" lon="2.835698">
        <ele>58.873</ele>
        <time>1998-05-06T11:51:58Z</time>
      </trkpt>
      <trkpt lat="42.029863" lon="2.835846">
        <ele>58.916</ele>
        <time>1998-05-06T11:52:00Z</time>
      </trkpt>
      <trkpt lat="42.029955" lon="2.836041">
        <ele>57.125</ele>
        <time>1998-05-06T11:52:03Z</time>
      </trkpt>
      <trkpt lat="42.030162" lon="2.836358">
        <ele>57.685</ele>
        <time>1998-05-06T11:52:08Z</time>
      </trkpt>
      <trkpt lat="42.030293" lon="2.836566">
        <ele>58.019</ele>
        <time>1998-05-06T11:52:11Z</time>
      </trkpt>
      <trkpt lat="42.030520" lon="2.836944">
        <ele>57.916</ele>
        <time>1998-05-06T11:52:17Z</time>
      </trkpt>
      <trkpt lat="42.030729" lon="2.837265">
        <ele>56.576</ele>
        <time>1998-05-06T11:52:22Z</time>
      </trkpt>
      <trkpt lat="42.030758" lon="2.837352">
        <ele>56.313</ele>
        <time>1998-05-06T11:52:23Z</time>
      </trkpt>
      <trkpt lat="42.030790" lon="2.837429">
        <ele>56.108</ele>
        <time>1998-05-06T11:52:24Z</time>
      </trkpt>
      <trkpt lat="42.030755" lon="2.837570">
        <ele>56.283</ele>
        <time>1998-05-06T11:52:26Z</time>
      </trkpt>
      <trkpt lat="42.030665" lon="2.837663">
        <ele>56.696</ele>
        <time>1998-05-06T11:52:28Z</time>
      </trkpt>
      <trkpt lat="42.030348" lon="2.837907">
        <ele>55.638</ele>
        <time>1998-05-06T11:52:38Z</time>
      </trkpt>
      <trkpt lat="42.030263" lon="2.837965">
        <ele>55.588</ele>
        <time>1998-05-06T11:52:40Z</time>
      </trkpt>
      <trkpt lat="42.030191" lon="2.838090">
        <ele>55.551</ele>
        <time>1998-05-06T11:52:42Z</time>
      </trkpt>
      <trkpt lat="42.030165" lon="2.838338">
        <ele>55.610</ele>
        <time>1998-05-06T11:52:45Z</time>
      </trkpt>
      <trkpt lat="42.030148" lon="2.838804">
        <ele>54.880</ele>
        <time>1998-05-06T11:52:50Z</time>
      </trkpt>
      <trkpt lat="42.030161" lon="2.839009">
        <ele>54.514</ele>
        <time>1998-05-06T11:52:53Z</time>
      </trkpt>
      <trkpt lat="42.030167" lon="2.839149">
        <ele>54.131</ele>
        <time>1998-05-06T11:52:55Z</time>
      </trkpt>
      <trkpt lat="42.030188" lon="2.839442">
        <ele>54.161</ele>
        <time>1998-05-06T11:52:59Z</time>
      </trkpt>
      <trkpt lat="42.030189" lon="2.839665">
        <ele>53.507</ele>
        <time>1998-05-06T11:53:02Z</time>
      </trkpt>
      <trkpt lat="42.030163" lon="2.839967">
        <ele>52.608</ele>
        <time>1998-05-06T11:53:06Z</time>
      </trkpt>
      <trkpt lat="42.030143" lon="2.840183">
        <ele>51.825</ele>
        <time>1998-05-06T11:53:09Z</time>
      </trkpt>
      <trkpt lat="42.030172" lon="2.840430">
        <ele>52.018</ele>
        <time>1998-05-06T11:53:13Z</time>
      </trkpt>
      <trkpt lat="42.030184" lon="2.840488">
        <ele>52.150</ele>
        <time>1998-05-06T11:53:14Z</time>
      </trkpt>
      <trkpt lat="42.030204" lon="2.840614">
        <ele>52.420</ele>
        <time>1998-05-06T11:53:16Z</time>
      </trkpt>
      <trkpt lat="42.030219" lon="2.840767">
        <ele>52.683</ele>
        <time>1998-05-06T11:53:18Z</time>
      </trkpt>
      <trkpt lat="42.030220" lon="2.840919">
        <ele>52.652</ele>
        <time>1998-05-06T11:53:20Z</time>
      </trkpt>
      <trkpt lat="42.030195" lon="2.841384">
        <ele>52.292</ele>
        <time>1998-05-06T11:53:26Z</time>
      </trkpt>
      <trkpt lat="42.030198" lon="2.841451">
        <ele>52.176</ele>
        <time>1998-05-06T11:53:27Z</time>
      </trkpt>
      <trkpt lat="42.030205" lon="2.841691">
        <ele>51.512</ele>
        <time>1998-05-06T11:53:30Z</time>
      </trkpt>
      <trkpt lat="42.030207" lon="2.841779">
        <ele>51.832</ele>
        <time>1998-05-06T11:53:31Z</time>
      </trkpt>
      <trkpt lat="42.030206" lon="2.841954">
        <ele>52.205</ele>
        <time>1998-05-06T11:53:33Z</time>
      </trkpt>
      <trkpt lat="42.030204" lon="2.842155">
        <ele>51.808</ele>
        <time>1998-05-06T11:53:35Z</time>
      </trkpt>
      <trkpt lat="42.030172" lon="2.842509">
        <ele>51.143</ele>
        <time>1998-05-06T11:53:39Z</time>
      </trkpt>
      <trkpt lat="42.030138" lon="2.843205">
        <ele>52.036</ele>
        <time>1998-05-06T11:53:47Z</time>
      </trkpt>
      <trkpt lat="42.030065" lon="2.843977">
        <ele>52.238</ele>
        <time>1998-05-06T11:53:56Z</time>
      </trkpt>
      <trkpt lat="42.030026" lon="2.844273">
        <ele>52.628</ele>
        <time>1998-05-06T11:54:00Z</time>
      </trkpt>
      <trkpt lat="42.029975" lon="2.845049">
        <ele>52.781</ele>
        <time>1998-05-06T11:54:10Z</time>
      </trkpt>
      <trkpt lat="42.029973" lon="2.845130">
        <ele>52.970</ele>
        <time>1998-05-06T11:54:11Z</time>
      </trkpt>
      <trkpt lat="42.029869" lon="2.845912">
        <ele>52.480</ele>
        <time>1998-05-06T11:54:19Z</time>
      </trkpt>
      <trkpt lat="42.029808" lon="2.846359">
        <ele>53.164</ele>
        <time>1998-05-06T11:54:24Z</time>
      </trkpt>
      <trkpt lat="42.029632" lon="2.847073">
        <ele>54.828</ele>
        <time>1998-05-06T11:54:32Z</time>
      </trkpt>
      <trkpt lat="42.029598" lon="2.847169">
        <ele>54.989</ele>
        <time>1998-05-06T11:54:33Z</time>
      </trkpt>
      <trkpt lat="42.029472" lon="2.847412">
        <ele>55.817</ele>
        <time>1998-05-06T11:54:36Z</time>
      </trkpt>
      <trkpt lat="42.029347" lon="2.847639">
        <ele>58.308</ele>
        <time>1998-05-06T11:54:39Z</time>
      </trkpt>
      <trkpt lat="42.029260" lon="2.847773">
        <ele>57.954</ele>
        <time>1998-05-06T11:54:41Z</time>
      </trkpt>
      <trkpt lat="42.029142" lon="2.847986">
        <ele>61.387</ele>
        <time>1998-05-06T11:54:44Z</time>
      </trkpt>
      <trkpt lat="42.029051" lon="2.848116">
        <ele>63.279</ele>
        <time>1998-05-06T11:54:46Z</time>
      </trkpt>
      <trkpt lat="42.029009" lon="2.848171">
        <ele>63.899</ele>
        <time>1998-05-06T11:54:47Z</time>
      </trkpt>
      <trkpt lat="42.028961" lon="2.848216">
        <ele>62.922</ele>
        <time>1998-05-06T11:54:48Z</time>
      </trkpt>
      <trkpt lat="42.028916" lon="2.848267">
        <ele>62.151</ele>
        <time>1998-05-06T11:54:49Z</time>
      </trkpt>
      <trkpt lat="42.028787" lon="2.848404">
        <ele>62.691</ele>
        <time>1998-05-06T11:54:52Z</time>
      </trkpt>
      <trkpt lat="42.028748" lon="2.848454">
        <ele>63.285</ele>
        <time>1998-05-06T11:54:53Z</time>
      </trkpt>
      <trkpt lat="42.028648" lon="2.848535">
        <ele>60.047</ele>
        <time>1998-05-06T11:54:55Z</time>
      </trkpt>
      <trkpt lat="42.028535" lon="2.848605">
        <ele>56.529</ele>
        <time>1998-05-06T11:54:57Z</time>
      </trkpt>
      <trkpt lat="42.028406" lon="2.848766">
        <ele>56.421</ele>
        <time>1998-05-06T11:55:00Z</time>
      </trkpt>
      <trkpt lat="42.028301" lon="2.849008">
        <ele>57.008</ele>
        <time>1998-05-06T11:55:04Z</time>
      </trkpt>
      <trkpt lat="42.028237" lon="2.849096">
        <ele>57.276</ele>
        <time>1998-05-06T11:55:06Z</time>
      </trkpt>
      <trkpt lat="42.028201" lon="2.849135">
        <ele>57.089</ele>
        <time>1998-05-06T11:55:07Z</time>
      </trkpt>
      <trkpt lat="42.028171" lon="2.849183">
        <ele>57.431</ele>
        <time>1998-05-06T11:55:08Z</time>
      </trkpt>
      <trkpt lat="42.028008" lon="2.849426">
        <ele>60.391</ele>
        <time>1998-05-06T11:55:13Z</time>
      </trkpt>
      <trkpt lat="42.027925" lon="2.849512">
        <ele>60.054</ele>
        <time>1998-05-06T11:55:15Z</time>
      </trkpt>
      <trkpt lat="42.027862" lon="2.849604">
        <ele>60.783</ele>
        <time>1998-05-06T11:55:17Z</time>
      </trkpt>
      <trkpt lat="42.027787" lon="2.849694">
        <ele>60.453</ele>
        <time>1998-05-06T11:55:19Z</time>
      </trkpt>
      <trkpt lat="42.027668" lon="2.849797">
        <ele>59.827</ele>
        <time>1998-05-06T11:55:22Z</time>
      </trkpt>
      <trkpt lat="42.027487" lon="2.849980">
        <ele>58.932</ele>
        <time>1998-05-06T11:55:27Z</time>
      </trkpt>
      <trkpt lat="42.027419" lon="2.850056">
        <ele>59.592</ele>
        <time>1998-05-06T11:55:29Z</time>
      </trkpt>
      <trkpt lat="42.027338" lon="2.850120">
        <ele>59.011</ele>
        <time>1998-05-06T11:55:31Z</time>
      </trkpt>
      <trkpt lat="42.027001" lon="2.850286">
        <ele>56.308</ele>
        <time>1998-05-06T11:55:39Z</time>
      </trkpt>
      <trkpt lat="42.026926" lon="2.850341">
        <ele>57.375</ele>
        <time>1998-05-06T11:55:41Z</time>
      </trkpt>
      <trkpt lat="42.026530" lon="2.850626">
        <ele>57.628</ele>
        <time>1998-05-06T11:55:50Z</time>
      </trkpt>
      <trkpt lat="42.026463" lon="2.850676">
        <ele>56.940</ele>
        <time>1998-05-06T11:55:51Z</time>
      </trkpt>
      <trkpt lat="42.026390" lon="2.850729">
        <ele>56.490</ele>
        <time>1998-05-06T11:55:52Z</time>
      </trkpt>
      <trkpt lat="42.026314" lon="2.850797">
        <ele>56.313</ele>
        <time>1998-05-06T11:55:53Z</time>
      </trkpt>
      <trkpt lat="42.026244" lon="2.850868">
        <ele>56.032</ele>
        <time>1998-05-06T11:55:54Z</time>
      </trkpt>
      <trkpt lat="42.026047" lon="2.851105">
        <ele>55.522</ele>
        <time>1998-05-06T11:55:57Z</time>
      </trkpt>
      <trkpt lat="42.025920" lon="2.851239">
        <ele>54.926</ele>
        <time>1998-05-06T11:55:59Z</time>
      </trkpt>
      <trkpt lat="42.025820" lon="2.851347">
        <ele>54.246</ele>
        <time>1998-05-06T11:56:01Z</time>
      </trkpt>
      <trkpt lat="42.025729" lon="2.851453">
        <ele>54.588</ele>
        <time>1998-05-06T11:56:03Z</time>
      </trkpt>
      <trkpt lat="42.025481" lon="2.851715">
        <ele>54.416</ele>
        <time>1998-05-06T11:56:08Z</time>
      </trkpt>
      <trkpt lat="42.025232" lon="2.851936">
        <ele>53.208</ele>
        <time>1998-05-06T11:56:12Z</time>
      </trkpt>
      <trkpt lat="42.024996" lon="2.852150">
        <ele>55.816</ele>
        <time>1998-05-06T11:56:16Z</time>
      </trkpt>
      <trkpt lat="42.024931" lon="2.852192">
        <ele>55.539</ele>
        <time>1998-05-06T11:56:17Z</time>
      </trkpt>
      <trkpt lat="42.024866" lon="2.852240">
        <ele>55.611</ele>
        <time>1998-05-06T11:56:18Z</time>
      </trkpt>
      <trkpt lat="42.024800" lon="2.852282">
        <ele>55.611</ele>
        <time>1998-05-06T11:56:19Z</time>
      </trkpt>
      <trkpt lat="42.024562" lon="2.852555">
        <ele>56.714</ele>
        <time>1998-05-06T11:56:24Z</time>
      </trkpt>
      <trkpt lat="42.024341" lon="2.852798">
        <ele>55.433</ele>
        <time>1998-05-06T11:56:29Z</time>
      </trkpt>
      <trkpt lat="42.024237" lon="2.852908">
        <ele>55.353</ele>
        <time>1998-05-06T11:56:31Z</time>
      </trkpt>
      <trkpt lat="42.024183" lon="2.852962">
        <ele>54.367</ele>
        <time>1998-05-06T11:56:32Z</time>
      </trkpt>
      <trkpt lat="42.024145" lon="2.853020">
        <ele>54.179</ele>
        <time>1998-05-06T11:56:33Z</time>
      </trkpt>
      <trkpt lat="42.023998" lon="2.853227">
        <ele>55.305</ele>
        <time>1998-05-06T11:56:36Z</time>
      </trkpt>
      <trkpt lat="42.023800" lon="2.853502">
        <ele>52.625</ele>
        <time>1998-05-06T11:56:40Z</time>
      </trkpt>
      <trkpt lat="42.023706" lon="2.853637">
        <ele>52.308</ele>
        <time>1998-05-06T11:56:42Z</time>
      </trkpt>
      <trkpt lat="42.023412" lon="2.854226">
        <ele>51.889</ele>
        <time>1998-05-06T11:56:50Z</time>
      </trkpt>
      <trkpt lat="42.023309" lon="2.854618">
        <ele>51.412</ele>
        <time>1998-05-06T11:56:54Z</time>
      </trkpt>
      <trkpt lat="42.023285" lon="2.854948">
        <ele>51.334</ele>
        <time>1998-05-06T11:56:57Z</time>
      </trkpt>
      <trkpt lat="42.023345" lon="2.855689">
        <ele>49.784</ele>
        <time>1998-05-06T11:57:04Z</time>
      </trkpt>
      <trkpt lat="42.023420" lon="2.855861">
        <ele>50.077</ele>
        <time>1998-05-06T11:57:06Z</time>
      </trkpt>
      <trkpt lat="42.023623" lon="2.856240">
        <ele>49.836</ele>
        <time>1998-05-06T11:57:11Z</time>
      </trkpt>
      <trkpt lat="42.023761" lon="2.856424">
        <ele>50.586</ele>
        <time>1998-05-06T11:57:14Z</time>
      </trkpt>
      <trkpt lat="42.023901" lon="2.856604">
        <ele>50.980</ele>
        <time>1998-05-06T11:57:17Z</time>
      </trkpt>
      <trkpt lat="42.024010" lon="2.856732">
        <ele>51.459</ele>
        <time>1998-05-06T11:57:19Z</time>
      </trkpt>
      <trkpt lat="42.024067" lon="2.856790">
        <ele>51.503</ele>
        <time>1998-05-06T11:57:20Z</time>
      </trkpt>
      <trkpt lat="42.024270" lon="2.857043">
        <ele>51.423</ele>
        <time>1998-05-06T11:57:24Z</time>
      </trkpt>
      <trkpt lat="42.024457" lon="2.857343">
        <ele>50.408</ele>
        <time>1998-05-06T11:57:28Z</time>
      </trkpt>
      <trkpt lat="42.024849" lon="2.857894">
        <ele>51.847</ele>
        <time>1998-05-06T11:57:36Z</time>
      </trkpt>
      <trkpt lat="42.025053" lon="2.858158">
        <ele>52.110</ele>
        <time>1998-05-06T11:57:41Z</time>
      </trkpt>
      <trkpt lat="42.025090" lon="2.858210">
        <ele>52.352</ele>
        <time>1998-05-06T11:57:42Z</time>
      </trkpt>
      <trkpt lat="42.025270" lon="2.858471">
        <ele>52.422</ele>
        <time>1998-05-06T11:57:47Z</time>
      </trkpt>
      <trkpt lat="42.025495" lon="2.858762">
        <ele>53.465</ele>
        <time>1998-05-06T11:57:53Z</time>
      </trkpt>
      <trkpt lat="42.025529" lon="2.858819">
        <ele>53.094</ele>
        <time>1998-05-06T11:57:54Z</time>
      </trkpt>
      <trkpt lat="42.025604" lon="2.858938">
        <ele>51.924</ele>
        <time>1998-05-06T11:57:56Z</time>
      </trkpt>
      <trkpt lat="42.025706" lon="2.859034">
        <ele>51.518</ele>
        <time>1998-05-06T11:57:58Z</time>
      </trkpt>
      <trkpt lat="42.025862" lon="2.859141">
        <ele>50.853</ele>
        <time>1998-05-06T11:58:01Z</time>
      </trkpt>
      <trkpt lat="42.025970" lon="2.859186">
        <ele>50.404</ele>
        <time>1998-05-06T11:58:03Z</time>
      </trkpt>
      <trkpt lat="42.026019" lon="2.859206">
        <ele>50.414</ele>
        <time>1998-05-06T11:58:04Z</time>
      </trkpt>
      <trkpt lat="42.026128" lon="2.859247">
        <ele>50.408</ele>
        <time>1998-05-06T11:58:06Z</time>
      </trkpt>
      <trkpt lat="42.026180" lon="2.859261">
        <ele>50.427</ele>
        <time>1998-05-06T11:58:07Z</time>
      </trkpt>
      <trkpt lat="42.026279" lon="2.859293">
        <ele>50.460</ele>
        <time>1998-05-06T11:58:09Z</time>
      </trkpt>
      <trkpt lat="42.026481" lon="2.859348">
        <ele>50.332</ele>
        <time>1998-05-06T11:58:13Z</time>
      </trkpt>
      <trkpt lat="42.026680" lon="2.859415">
        <ele>50.162</ele>
        <time>1998-05-06T11:58:17Z</time>
      </trkpt>
      <trkpt lat="42.026779" lon="2.859451">
        <ele>50.025</ele>
        <time>1998-05-06T11:58:19Z</time>
      </trkpt>
      <trkpt lat="42.026962" lon="2.859589">
        <ele>49.494</ele>
        <time>1998-05-06T11:58:23Z</time>
      </trkpt>
      <trkpt lat="42.027166" lon="2.859722">
        <ele>49.094</ele>
        <time>1998-05-06T11:58:27Z</time>
      </trkpt>
      <trkpt lat="42.027676" lon="2.860017">
        <ele>49.028</ele>
        <time>1998-05-06T11:58:36Z</time>
      </trkpt>
      <trkpt lat="42.027905" lon="2.860125">
        <ele>49.038</ele>
        <time>1998-05-06T11:58:40Z</time>
      </trkpt>
      <trkpt lat="42.028447" lon="2.860219">
        <ele>48.870</ele>
        <time>1998-05-06T11:58:48Z</time>
      </trkpt>
      <trkpt lat="42.029050" lon="2.860301">
        <ele>48.517</ele>
        <time>1998-05-06T11:58:57Z</time>
      </trkpt>
      <trkpt lat="42.029623" lon="2.860270">
        <ele>48.008</ele>
        <time>1998-05-06T11:59:06Z</time>
      </trkpt>
      <trkpt lat="42.030160" lon="2.860122">
        <ele>48.045</ele>
        <time>1998-05-06T11:59:14Z</time>
      </trkpt>
      <trkpt lat="42.030225" lon="2.860106">
        <ele>48.038</ele>
        <time>1998-05-06T11:59:15Z</time>
      </trkpt>
      <trkpt lat="42.030725" lon="2.859994">
        <ele>48.050</ele>
        <time>1998-05-06T11:59:23Z</time>
      </trkpt>
      <trkpt lat="42.030905" lon="2.859951">
        <ele>48.060</ele>
        <time>1998-05-06T11:59:26Z</time>
      </trkpt>
      <trkpt lat="42.031095" lon="2.859906">
        <ele>48.043</ele>
        <time>1998-05-06T11:59:29Z</time>
      </trkpt>
      <trkpt lat="42.031663" lon="2.859941">
        <ele>48.082</ele>
        <time>1998-05-06T11:59:38Z</time>
      </trkpt>
      <trkpt lat="42.031824" lon="2.859977">
        <ele>48.072</ele>
        <time>1998-05-06T11:59:41Z</time>
      </trkpt>
      <trkpt lat="42.031876" lon="2.859988">
        <ele>48.026</ele>
        <time>1998-05-06T11:59:42Z</time>
      </trkpt>
      <trkpt lat="42.031922" lon="2.859997">
        <ele>48.031</ele>
        <time>1998-05-06T11:59:43Z</time>
      </trkpt>
      <trkpt lat="42.031965" lon="2.860000">
        <ele>48.061</ele>
        <time>1998-05-06T11:59:44Z</time>
      </trkpt>
      <trkpt lat="42.032021" lon="2.860001">
        <ele>48.007</ele>
        <time>1998-05-06T11:59:48Z</time>
      </trkpt>
      <trkpt lat="42.032050" lon="2.859999">
        <ele>48.008</ele>
        <time>1998-05-06T12:02:42Z</time>
      </trkpt>
      <trkpt lat="42.032078" lon="2.860000">
        <ele>48.035</ele>
        <time>1998-05-06T12:02:43Z</time>
      </trkpt>
      <trkpt lat="42.032109" lon="2.860000">
        <ele>48.018</ele>
        <time>1998-05-06T12:02:44Z</time>
      </trkpt>
      <trkpt lat="42.032218" lon="2.859989">
        <ele>48.010</ele>
        <time>1998-05-06T12:02:47Z</time>
      </trkpt>
      <trkpt lat="42.032562" lon="2.859881">
        <ele>47.580</ele>
        <time>1998-05-06T12:02:56Z</time>
      </trkpt>
      <trkpt lat="42.032646" lon="2.859849">
        <ele>47.543</ele>
        <time>1998-05-06T12:02:58Z</time>
      </trkpt>
      <trkpt lat="42.032731" lon="2.859810">
        <ele>47.622</ele>
        <time>1998-05-06T12:03:00Z</time>
      </trkpt>
      <trkpt lat="42.032815" lon="2.859766">
        <ele>47.852</ele>
        <time>1998-05-06T12:03:02Z</time>
      </trkpt>
      <trkpt lat="42.032952" lon="2.859693">
        <ele>47.936</ele>
        <time>1998-05-06T12:03:05Z</time>
      </trkpt>
      <trkpt lat="42.033052" lon="2.859652">
        <ele>47.862</ele>
        <time>1998-05-06T12:03:07Z</time>
      </trkpt>
      <trkpt lat="42.033155" lon="2.859607">
        <ele>47.683</ele>
        <time>1998-05-06T12:03:09Z</time>
      </trkpt>
      <trkpt lat="42.033373" lon="2.859499">
        <ele>47.311</ele>
        <time>1998-05-06T12:03:13Z</time>
      </trkpt>
      <trkpt lat="42.033431" lon="2.859474">
        <ele>47.408</ele>
        <time>1998-05-06T12:03:14Z</time>
      </trkpt>
      <trkpt lat="42.033604" lon="2.859392">
        <ele>47.858</ele>
        <time>1998-05-06T12:03:17Z</time>
      </trkpt>
      <trkpt lat="42.033775" lon="2.859309">
        <ele>47.831</ele>
        <time>1998-05-06T12:03:20Z</time>
      </trkpt>
      <trkpt lat="42.034311" lon="2.859052">
        <ele>47.653</ele>
        <time>1998-05-06T12:03:29Z</time>
      </trkpt>
      <trkpt lat="42.034839" lon="2.858799">
        <ele>47.793</ele>
        <time>1998-05-06T12:03:38Z</time>
      </trkpt>
      <trkpt lat="42.035379" lon="2.858550">
        <ele>47.046</ele>
        <time>1998-05-06T12:03:47Z</time>
      </trkpt>
      <trkpt lat="42.035891" lon="2.858293">
        <ele>47.915</ele>
        <time>1998-05-06T12:03:56Z</time>
      </trkpt>
      <trkpt lat="42.036007" lon="2.858252">
        <ele>47.975</ele>
        <time>1998-05-06T12:03:58Z</time>
      </trkpt>
      <trkpt lat="42.036129" lon="2.858293">
        <ele>48.069</ele>
        <time>1998-05-06T12:04:00Z</time>
      </trkpt>
      <trkpt lat="42.036239" lon="2.858364">
        <ele>48.042</ele>
        <time>1998-05-06T12:04:02Z</time>
      </trkpt>
      <trkpt lat="42.036802" lon="2.858511">
        <ele>47.322</ele>
        <time>1998-05-06T12:04:11Z</time>
      </trkpt>
      <trkpt lat="42.037356" lon="2.858649">
        <ele>47.014</ele>
        <time>1998-05-06T12:04:19Z</time>
      </trkpt>
      <trkpt lat="42.037947" lon="2.858782">
        <ele>46.808</ele>
        <time>1998-05-06T12:04:28Z</time>
      </trkpt>
      <trkpt lat="42.038438" lon="2.858864">
        <ele>47.396</ele>
        <time>1998-05-06T12:04:36Z</time>
      </trkpt>
      <trkpt lat="42.038618" lon="2.858842">
        <ele>47.699</ele>
        <time>1998-05-06T12:04:39Z</time>
      </trkpt>
      <trkpt lat="42.038673" lon="2.858828">
        <ele>47.421</ele>
        <time>1998-05-06T12:04:40Z</time>
      </trkpt>
      <trkpt lat="42.038841" lon="2.858774">
        <ele>47.091</ele>
        <time>1998-05-06T12:04:43Z</time>
      </trkpt>
      <trkpt lat="42.039104" lon="2.858691">
        <ele>45.154</ele>
        <time>1998-05-06T12:04:47Z</time>
      </trkpt>
      <trkpt lat="42.039644" lon="2.858541">
        <ele>47.513</ele>
        <time>1998-05-06T12:04:55Z</time>
      </trkpt>
      <trkpt lat="42.040211" lon="2.858336">
        <ele>48.743</ele>
        <time>1998-05-06T12:05:04Z</time>
      </trkpt>
      <trkpt lat="42.040794" lon="2.858161">
        <ele>49.537</ele>
        <time>1998-05-06T12:05:13Z</time>
      </trkpt>
      <trkpt lat="42.041086" lon="2.858046">
        <ele>51.984</ele>
        <time>1998-05-06T12:05:18Z</time>
      </trkpt>
      <trkpt lat="42.041138" lon="2.858026">
        <ele>52.307</ele>
        <time>1998-05-06T12:05:19Z</time>
      </trkpt>
      <trkpt lat="42.041301" lon="2.857999">
        <ele>53.217</ele>
        <time>1998-05-06T12:05:22Z</time>
      </trkpt>
      <trkpt lat="42.041739" lon="2.857864">
        <ele>54.108</ele>
        <time>1998-05-06T12:05:30Z</time>
      </trkpt>
      <trkpt lat="42.042174" lon="2.857715">
        <ele>55.360</ele>
        <time>1998-05-06T12:05:38Z</time>
      </trkpt>
      <trkpt lat="42.042443" lon="2.857638">
        <ele>55.453</ele>
        <time>1998-05-06T12:05:43Z</time>
      </trkpt>
      <trkpt lat="42.042553" lon="2.857640">
        <ele>55.455</ele>
        <time>1998-05-06T12:05:45Z</time>
      </trkpt>
      <trkpt lat="42.042607" lon="2.857651">
        <ele>55.415</ele>
        <time>1998-05-06T12:05:46Z</time>
      </trkpt>
      <trkpt lat="42.042658" lon="2.857670">
        <ele>55.448</ele>
        <time>1998-05-06T12:05:47Z</time>
      </trkpt>
      <trkpt lat="42.042748" lon="2.857749">
        <ele>55.237</ele>
        <time>1998-05-06T12:05:49Z</time>
      </trkpt>
      <trkpt lat="42.042936" lon="2.858144">
        <ele>53.997</ele>
        <time>1998-05-06T12:05:55Z</time>
      </trkpt>
      <trkpt lat="42.042997" lon="2.858514">
        <ele>53.991</ele>
        <time>1998-05-06T12:06:00Z</time>
      </trkpt>
      <trkpt lat="42.043041" lon="2.858660">
        <ele>53.864</ele>
        <time>1998-05-06T12:06:02Z</time>
      </trkpt>
      <trkpt lat="42.043088" lon="2.858809">
        <ele>53.606</ele>
        <time>1998-05-06T12:06:04Z</time>
      </trkpt>
      <trkpt lat="42.043106" lon="2.858889">
        <ele>53.716</ele>
        <time>1998-05-06T12:06:05Z</time>
      </trkpt>
      <trkpt lat="42.043143" lon="2.859152">
        <ele>53.308</ele>
        <time>1998-05-06T12:06:08Z</time>
      </trkpt>
      <trkpt lat="42.043158" lon="2.859329">
        <ele>52.928</ele>
        <time>1998-05-06T12:06:10Z</time>
      </trkpt>
      <trkpt lat="42.043179" lon="2.859590">
        <ele>52.551</ele>
        <time>1998-05-06T12:06:13Z</time>
      </trkpt>
      <trkpt lat="42.043185" lon="2.859677">
        <ele>52.593</ele>
        <time>1998-05-06T12:06:14Z</time>
      </trkpt>
      <trkpt lat="42.043234" lon="2.860112">
        <ele>51.933</ele>
        <time>1998-05-06T12:06:19Z</time>
      </trkpt>
      <trkpt lat="42.043345" lon="2.860914">
        <ele>50.296</ele>
        <time>1998-05-06T12:06:28Z</time>
      </trkpt>
      <trkpt lat="42.043439" lon="2.861489">
        <ele>49.815</ele>
        <time>1998-05-06T12:06:34Z</time>
      </trkpt>
      <trkpt lat="42.043476" lon="2.861685">
        <ele>49.555</ele>
        <time>1998-05-06T12:06:36Z</time>
      </trkpt>
      <trkpt lat="42.043638" lon="2.862435">
        <ele>48.369</ele>
        <time>1998-05-06T12:06:44Z</time>
      </trkpt>
      <trkpt lat="42.043750" lon="2.863061">
        <ele>49.085</ele>
        <time>1998-05-06T12:06:51Z</time>
      </trkpt>
      <trkpt lat="42.043797" lon="2.863230">
        <ele>48.989</ele>
        <time>1998-05-06T12:06:53Z</time>
      </trkpt>
      <trkpt lat="42.043924" lon="2.863673">
        <ele>48.117</ele>
        <time>1998-05-06T12:06:58Z</time>
      </trkpt>
      <trkpt lat="42.044138" lon="2.864389">
        <ele>47.008</ele>
        <time>1998-05-06T12:07:06Z</time>
      </trkpt>
      <trkpt lat="42.044365" lon="2.865060">
        <ele>47.080</ele>
        <time>1998-05-06T12:07:14Z</time>
      </trkpt>
      <trkpt lat="42.044534" lon="2.865543">
        <ele>47.323</ele>
        <time>1998-05-06T12:07:20Z</time>
      </trkpt>
      <trkpt lat="42.044669" lon="2.865849">
        <ele>46.895</ele>
        <time>1998-05-06T12:07:24Z</time>
      </trkpt>
      <trkpt lat="42.044771" lon="2.866068">
        <ele>46.785</ele>
        <time>1998-05-06T12:07:27Z</time>
      </trkpt>
      <trkpt lat="42.045021" lon="2.866582">
        <ele>46.518</ele>
        <time>1998-05-06T12:07:34Z</time>
      </trkpt>
      <trkpt lat="42.045118" lon="2.866799">
        <ele>46.947</ele>
        <time>1998-05-06T12:07:37Z</time>
      </trkpt>
      <trkpt lat="42.045369" lon="2.867460">
        <ele>48.047</ele>
        <time>1998-05-06T12:07:46Z</time>
      </trkpt>
      <trkpt lat="42.045412" lon="2.867587">
        <ele>48.181</ele>
        <time>1998-05-06T12:07:48Z</time>
      </trkpt>
      <trkpt lat="42.045456" lon="2.867703">
        <ele>48.773</ele>
        <time>1998-05-06T12:07:50Z</time>
      </trkpt>
      <trkpt lat="42.045510" lon="2.867815">
        <ele>49.785</ele>
        <time>1998-05-06T12:07:52Z</time>
      </trkpt>
      <trkpt lat="42.045568" lon="2.867934">
        <ele>51.113</ele>
        <time>1998-05-06T12:07:54Z</time>
      </trkpt>
      <trkpt lat="42.045628" lon="2.868096">
        <ele>51.308</ele>
        <time>1998-05-06T12:07:57Z</time>
      </trkpt>
      <trkpt lat="42.045615" lon="2.868282">
        <ele>50.679</ele>
        <time>1998-05-06T12:08:01Z</time>
      </trkpt>
      <trkpt lat="42.045622" lon="2.868387">
        <ele>49.992</ele>
        <time>1998-05-06T12:08:03Z</time>
      </trkpt>
      <trkpt lat="42.045664" lon="2.868528">
        <ele>48.844</ele>
        <time>1998-05-06T12:08:06Z</time>
      </trkpt>
      <trkpt lat="42.045715" lon="2.868638">
        <ele>48.494</ele>
        <time>1998-05-06T12:08:09Z</time>
      </trkpt>
      <trkpt lat="42.045732" lon="2.868675">
        <ele>48.357</ele>
        <time>1998-05-06T12:08:10Z</time>
      </trkpt>
      <trkpt lat="42.045813" lon="2.868802">
        <ele>48.236</ele>
        <time>1998-05-06T12:08:14Z</time>
      </trkpt>
      <trkpt lat="42.045919" lon="2.868943">
        <ele>47.116</ele>
        <time>1998-05-06T12:08:18Z</time>
      </trkpt>
      <trkpt lat="42.045977" lon="2.869032">
        <ele>46.210</ele>
        <time>1998-05-06T12:08:20Z</time>
      </trkpt>
      <trkpt lat="42.046042" lon="2.869125">
        <ele>45.824</ele>
        <time>1998-05-06T12:08:22Z</time>
      </trkpt>
      <trkpt lat="42.046207" lon="2.869316">
        <ele>45.304</ele>
        <time>1998-05-06T12:08:26Z</time>
      </trkpt>
      <trkpt lat="42.046253" lon="2.869358">
        <ele>45.314</ele>
        <time>1998-05-06T12:08:27Z</time>
      </trkpt>
      <trkpt lat="42.046333" lon="2.869452">
        <ele>45.508</ele>
        <time>1998-05-06T12:08:29Z</time>
      </trkpt>
      <trkpt lat="42.046371" lon="2.869500">
        <ele>45.574</ele>
        <time>1998-05-06T12:08:30Z</time>
      </trkpt>
      <trkpt lat="42.046443" lon="2.869601">
        <ele>45.297</ele>
        <time>1998-05-06T12:08:32Z</time>
      </trkpt>
      <trkpt lat="42.046505" lon="2.869700">
        <ele>45.079</ele>
        <time>1998-05-06T12:08:34Z</time>
      </trkpt>
      <trkpt lat="42.046611" lon="2.869843">
        <ele>44.699</ele>
        <time>1998-05-06T12:08:37Z</time>
      </trkpt>
      <trkpt lat="42.046657" lon="2.869889">
        <ele>44.792</ele>
        <time>1998-05-06T12:08:38Z</time>
      </trkpt>
      <trkpt lat="42.046754" lon="2.869985">
        <ele>44.771</ele>
        <time>1998-05-06T12:08:40Z</time>
      </trkpt>
      <trkpt lat="42.046851" lon="2.870089">
        <ele>44.731</ele>
        <time>1998-05-06T12:08:42Z</time>
      </trkpt>
      <trkpt lat="42.046939" lon="2.870190">
        <ele>44.635</ele>
        <time>1998-05-06T12:08:44Z</time>
      </trkpt>
      <trkpt lat="42.046985" lon="2.870237">
        <ele>44.773</ele>
        <time>1998-05-06T12:08:45Z</time>
      </trkpt>
      <trkpt lat="42.047174" lon="2.870514">
        <ele>44.885</ele>
        <time>1998-05-06T12:08:50Z</time>
      </trkpt>
      <trkpt lat="42.047198" lon="2.870577">
        <ele>44.713</ele>
        <time>1998-05-06T12:08:51Z</time>
      </trkpt>
      <trkpt lat="42.047247" lon="2.870699">
        <ele>44.708</ele>
        <time>1998-05-06T12:08:53Z</time>
      </trkpt>
      <trkpt lat="42.047290" lon="2.870830">
        <ele>44.589</ele>
        <time>1998-05-06T12:08:55Z</time>
      </trkpt>
      <trkpt lat="42.047339" lon="2.870961">
        <ele>43.832</ele>
        <time>1998-05-06T12:08:57Z</time>
      </trkpt>
      <trkpt lat="42.047430" lon="2.871138">
        <ele>43.834</ele>
        <time>1998-05-06T12:09:00Z</time>
      </trkpt>
      <trkpt lat="42.047491" lon="2.871262">
        <ele>43.834</ele>
        <time>1998-05-06T12:09:02Z</time>
      </trkpt>
      <trkpt lat="42.047550" lon="2.871384">
        <ele>43.417</ele>
        <time>1998-05-06T12:09:04Z</time>
      </trkpt>
      <trkpt lat="42.047701" lon="2.871711">
        <ele>43.076</ele>
        <time>1998-05-06T12:09:09Z</time>
      </trkpt>
      <trkpt lat="42.047852" lon="2.871948">
        <ele>43.516</ele>
        <time>1998-05-06T12:09:13Z</time>
      </trkpt>
      <trkpt lat="42.047939" lon="2.872059">
        <ele>43.480</ele>
        <time>1998-05-06T12:09:15Z</time>
      </trkpt>
      <trkpt lat="42.048188" lon="2.872318">
        <ele>43.879</ele>
        <time>1998-05-06T12:09:20Z</time>
      </trkpt>
      <trkpt lat="42.048235" lon="2.872371">
        <ele>43.705</ele>
        <time>1998-05-06T12:09:21Z</time>
      </trkpt>
      <trkpt lat="42.048439" lon="2.872579">
        <ele>44.225</ele>
        <time>1998-05-06T12:09:25Z</time>
      </trkpt>
      <trkpt lat="42.048545" lon="2.872787">
        <ele>43.508</ele>
        <time>1998-05-06T12:09:28Z</time>
      </trkpt>
      <trkpt lat="42.048613" lon="2.872929">
        <ele>43.529</ele>
        <time>1998-05-06T12:09:30Z</time>
      </trkpt>
      <trkpt lat="42.048670" lon="2.873084">
        <ele>43.252</ele>
        <time>1998-05-06T12:09:32Z</time>
      </trkpt>
      <trkpt lat="42.048741" lon="2.873288">
        <ele>42.724</ele>
        <time>1998-05-06T12:09:34Z</time>
      </trkpt>
      <trkpt lat="42.049007" lon="2.873830">
        <ele>42.454</ele>
        <time>1998-05-06T12:09:41Z</time>
      </trkpt>
      <trkpt lat="42.049201" lon="2.874199">
        <ele>41.997</ele>
        <time>1998-05-06T12:09:46Z</time>
      </trkpt>
      <trkpt lat="42.049329" lon="2.874396">
        <ele>42.466</ele>
        <time>1998-05-06T12:09:49Z</time>
      </trkpt>
      <trkpt lat="42.049498" lon="2.874644">
        <ele>43.466</ele>
        <time>1998-05-06T12:09:53Z</time>
      </trkpt>
      <trkpt lat="42.049783" lon="2.874993">
        <ele>43.090</ele>
        <time>1998-05-06T12:09:59Z</time>
      </trkpt>
      <trkpt lat="42.049998" lon="2.875284">
        <ele>43.028</ele>
        <time>1998-05-06T12:10:04Z</time>
      </trkpt>
      <trkpt lat="42.050027" lon="2.875421">
        <ele>43.089</ele>
        <time>1998-05-06T12:10:06Z</time>
      </trkpt>
      <trkpt lat="42.050018" lon="2.875486">
        <ele>43.017</ele>
        <time>1998-05-06T12:10:07Z</time>
      </trkpt>
      <trkpt lat="42.049996" lon="2.875542">
        <ele>43.008</ele>
        <time>1998-05-06T12:10:08Z</time>
      </trkpt>
      <trkpt lat="42.049834" lon="2.875860">
        <ele>41.924</ele>
        <time>1998-05-06T12:10:14Z</time>
      </trkpt>
      <trkpt lat="42.049809" lon="2.876004">
        <ele>41.247</ele>
        <time>1998-05-06T12:10:16Z</time>
      </trkpt>
      <trkpt lat="42.049822" lon="2.876237">
        <ele>40.439</ele>
        <time>1998-05-06T12:10:19Z</time>
      </trkpt>
      <trkpt lat="42.049854" lon="2.876393">
        <ele>40.489</ele>
        <time>1998-05-06T12:10:21Z</time>
      </trkpt>
      <trkpt lat="42.049915" lon="2.876626">
        <ele>40.832</ele>
        <time>1998-05-06T12:10:24Z</time>
      </trkpt>
      <trkpt lat="42.050110" lon="2.877308">
        <ele>40.491</ele>
        <time>1998-05-06T12:10:33Z</time>
      </trkpt>
      <trkpt lat="42.050267" lon="2.878019">
        <ele>41.011</ele>
        <time>1998-05-06T12:10:42Z</time>
      </trkpt>
      <trkpt lat="42.050494" lon="2.878713">
        <ele>41.085</ele>
        <time>1998-05-06T12:10:51Z</time>
      </trkpt>
      <trkpt lat="42.050666" lon="2.879437">
        <ele>41.424</ele>
        <time>1998-05-06T12:11:00Z</time>
      </trkpt>
      <trkpt lat="42.050782" lon="2.880145">
        <ele>41.604</ele>
        <time>1998-05-06T12:11:09Z</time>
      </trkpt>
      <trkpt lat="42.050779" lon="2.880790">
        <ele>41.414</ele>
        <time>1998-05-06T12:11:17Z</time>
      </trkpt>
      <trkpt lat="42.050764" lon="2.881585">
        <ele>40.808</ele>
        <time>1998-05-06T12:11:27Z</time>
      </trkpt>
      <trkpt lat="42.050595" lon="2.882315">
        <ele>40.134</ele>
        <time>1998-05-06T12:11:37Z</time>
      </trkpt>
      <trkpt lat="42.050561" lon="2.882463">
        <ele>40.037</ele>
        <time>1998-05-06T12:11:39Z</time>
      </trkpt>
      <trkpt lat="42.050541" lon="2.883224">
        <ele>39.879</ele>
        <time>1998-05-06T12:11:48Z</time>
      </trkpt>
      <trkpt lat="42.050662" lon="2.883973">
        <ele>40.289</ele>
        <time>1998-05-06T12:11:58Z</time>
      </trkpt>
      <trkpt lat="42.050780" lon="2.884472">
        <ele>40.662</ele>
        <time>1998-05-06T12:12:07Z</time>
      </trkpt>
      <trkpt lat="42.050854" lon="2.884810">
        <ele>41.061</ele>
        <time>1998-05-06T12:12:14Z</time>
      </trkpt>
      <trkpt lat="42.050885" lon="2.884971">
        <ele>41.091</ele>
        <time>1998-05-06T12:12:17Z</time>
      </trkpt>
      <trkpt lat="42.050951" lon="2.885385">
        <ele>40.045</ele>
        <time>1998-05-06T12:12:22Z</time>
      </trkpt>
      <trkpt lat="42.050985" lon="2.885794">
        <ele>39.561</ele>
        <time>1998-05-06T12:12:26Z</time>
      </trkpt>
      <trkpt lat="42.051041" lon="2.886074">
        <ele>39.121</ele>
        <time>1998-05-06T12:12:29Z</time>
      </trkpt>
      <trkpt lat="42.051188" lon="2.886651">
        <ele>39.313</ele>
        <time>1998-05-06T12:12:36Z</time>
      </trkpt>
      <trkpt lat="42.051381" lon="2.887246">
        <ele>39.808</ele>
        <time>1998-05-06T12:12:44Z</time>
      </trkpt>
      <trkpt lat="42.051453" lon="2.887472">
        <ele>38.818</ele>
        <time>1998-05-06T12:12:47Z</time>
      </trkpt>
      <trkpt lat="42.051532" lon="2.887585">
        <ele>39.481</ele>
        <time>1998-05-06T12:12:49Z</time>
      </trkpt>
      <trkpt lat="42.051694" lon="2.887723">
        <ele>40.243</ele>
        <time>1998-05-06T12:12:52Z</time>
      </trkpt>
      <trkpt lat="42.051739" lon="2.887807">
        <ele>39.873</ele>
        <time>1998-05-06T12:12:53Z</time>
      </trkpt>
      <trkpt lat="42.052079" lon="2.888380">
        <ele>38.876</ele>
        <time>1998-05-06T12:13:01Z</time>
      </trkpt>
      <trkpt lat="42.052348" lon="2.888751">
        <ele>39.495</ele>
        <time>1998-05-06T12:13:07Z</time>
      </trkpt>
      <trkpt lat="42.052437" lon="2.888878">
        <ele>39.615</ele>
        <time>1998-05-06T12:13:09Z</time>
      </trkpt>
      <trkpt lat="42.052516" lon="2.888990">
        <ele>39.739</ele>
        <time>1998-05-06T12:13:11Z</time>
      </trkpt>
      <trkpt lat="42.052600" lon="2.889140">
        <ele>39.461</ele>
        <time>1998-05-06T12:13:14Z</time>
      </trkpt>
      <trkpt lat="42.052647" lon="2.889235">
        <ele>39.421</ele>
        <time>1998-05-06T12:13:16Z</time>
      </trkpt>
      <trkpt lat="42.052721" lon="2.889432">
        <ele>39.613</ele>
        <time>1998-05-06T12:13:20Z</time>
      </trkpt>
      <trkpt lat="42.052771" lon="2.889647">
        <ele>39.908</ele>
        <time>1998-05-06T12:13:25Z</time>
      </trkpt>
      <trkpt lat="42.052956" lon="2.889793">
        <ele>39.768</ele>
        <time>1998-05-06T12:13:32Z</time>
      </trkpt>
      <trkpt lat="42.053025" lon="2.889952">
        <ele>39.211</ele>
        <time>1998-05-06T12:13:36Z</time>
      </trkpt>
      <trkpt lat="42.053066" lon="2.890012">
        <ele>39.033</ele>
        <time>1998-05-06T12:13:38Z</time>
      </trkpt>
      <trkpt lat="42.053121" lon="2.890190">
        <ele>38.673</ele>
        <time>1998-05-06T12:13:42Z</time>
      </trkpt>
      <trkpt lat="42.053271" lon="2.890388">
        <ele>38.826</ele>
        <time>1998-05-06T12:13:47Z</time>
      </trkpt>
      <trkpt lat="42.053389" lon="2.890613">
        <ele>39.295</ele>
        <time>1998-05-06T12:13:51Z</time>
      </trkpt>
      <trkpt lat="42.053530" lon="2.890810">
        <ele>39.155</ele>
        <time>1998-05-06T12:13:55Z</time>
      </trkpt>
      <trkpt lat="42.053570" lon="2.890851">
        <ele>39.029</ele>
        <time>1998-05-06T12:13:56Z</time>
      </trkpt>
      <trkpt lat="42.053679" lon="2.891003">
        <ele>39.136</ele>
        <time>1998-05-06T12:13:59Z</time>
      </trkpt>
      <trkpt lat="42.053741" lon="2.891102">
        <ele>39.017</ele>
        <time>1998-05-06T12:14:01Z</time>
      </trkpt>
      <trkpt lat="42.053839" lon="2.891240">
        <ele>39.018</ele>
        <time>1998-05-06T12:14:04Z</time>
      </trkpt>
      <trkpt lat="42.053944" lon="2.891383">
        <ele>39.208</ele>
        <time>1998-05-06T12:14:07Z</time>
      </trkpt>
      <trkpt lat="42.054094" lon="2.891616">
        <ele>39.165</ele>
        <time>1998-05-06T12:14:12Z</time>
      </trkpt>
      <trkpt lat="42.054135" lon="2.891742">
        <ele>38.728</ele>
        <time>1998-05-06T12:14:14Z</time>
      </trkpt>
      <trkpt lat="42.054356" lon="2.892052">
        <ele>38.480</ele>
        <time>1998-05-06T12:14:21Z</time>
      </trkpt>
      <trkpt lat="42.054433" lon="2.892055">
        <ele>38.690</ele>
        <time>1998-05-06T12:14:24Z</time>
      </trkpt>
      <trkpt lat="42.054500" lon="2.891996">
        <ele>38.543</ele>
        <time>1998-05-06T12:14:26Z</time>
      </trkpt>
      <trkpt lat="42.054540" lon="2.891955">
        <ele>38.362</ele>
        <time>1998-05-06T12:14:27Z</time>
      </trkpt>
      <trkpt lat="42.054658" lon="2.891842">
        <ele>37.522</ele>
        <time>1998-05-06T12:14:29Z</time>
      </trkpt>
      <trkpt lat="42.054723" lon="2.891728">
        <ele>37.076</ele>
        <time>1998-05-06T12:14:32Z</time>
      </trkpt>
      <trkpt lat="42.054783" lon="2.891683">
        <ele>37.269</ele>
        <time>1998-05-06T12:14:34Z</time>
      </trkpt>
      <trkpt lat="42.054812" lon="2.891672">
        <ele>37.304</ele>
        <time>1998-05-06T12:14:35Z</time>
      </trkpt>
      <trkpt lat="42.054876" lon="2.891656">
        <ele>37.624</ele>
        <time>1998-05-06T12:14:36Z</time>
      </trkpt>
      <trkpt lat="42.054970" lon="2.891613">
        <ele>38.108</ele>
        <time>1998-05-06T12:14:38Z</time>
      </trkpt>
      <trkpt lat="42.055065" lon="2.891575">
        <ele>38.678</ele>
        <time>1998-05-06T12:14:40Z</time>
      </trkpt>
      <trkpt lat="42.055588" lon="2.891331">
        <ele>40.021</ele>
        <time>1998-05-06T12:14:52Z</time>
      </trkpt>
      <trkpt lat="42.056098" lon="2.891067">
        <ele>40.043</ele>
        <time>1998-05-06T12:15:02Z</time>
      </trkpt>
      <trkpt lat="42.056201" lon="2.890996">
        <ele>40.033</ele>
        <time>1998-05-06T12:15:04Z</time>
      </trkpt>
      <trkpt lat="42.056324" lon="2.890938">
        <ele>40.036</ele>
        <time>1998-05-06T12:15:07Z</time>
      </trkpt>
      <trkpt lat="42.056449" lon="2.890918">
        <ele>40.025</ele>
        <time>1998-05-06T12:15:10Z</time>
      </trkpt>
      <trkpt lat="42.056488" lon="2.890976">
        <ele>40.055</ele>
        <time>1998-05-06T12:15:12Z</time>
      </trkpt>
      <trkpt lat="42.056577" lon="2.891076">
        <ele>40.079</ele>
        <time>1998-05-06T12:15:15Z</time>
      </trkpt>
      <trkpt lat="42.056607" lon="2.891113">
        <ele>40.041</ele>
        <time>1998-05-06T12:15:16Z</time>
      </trkpt>
      <trkpt lat="42.056662" lon="2.891200">
        <ele>40.081</ele>
        <time>1998-05-06T12:15:18Z</time>
      </trkpt>
      <trkpt lat="42.056774" lon="2.891372">
        <ele>40.009</ele>
        <time>1998-05-06T12:15:22Z</time>
      </trkpt>
      <trkpt lat="42.056905" lon="2.891545">
        <ele>39.508</ele>
        <time>1998-05-06T12:15:27Z</time>
      </trkpt>
      <trkpt lat="42.057018" lon="2.891863">
        <ele>39.096</ele>
        <time>1998-05-06T12:15:33Z</time>
      </trkpt>
      <trkpt lat="42.057153" lon="2.892152">
        <ele>39.739</ele>
        <time>1998-05-06T12:15:38Z</time>
      </trkpt>
      <trkpt lat="42.057325" lon="2.892432">
        <ele>39.681</ele>
        <time>1998-05-06T12:15:43Z</time>
      </trkpt>
      <trkpt lat="42.057393" lon="2.892533">
        <ele>39.451</ele>
        <time>1998-05-06T12:15:45Z</time>
      </trkpt>
      <trkpt lat="42.057470" lon="2.892642">
        <ele>39.114</ele>
        <time>1998-05-06T12:15:47Z</time>
      </trkpt>
      <trkpt lat="42.057573" lon="2.892883">
        <ele>39.323</ele>
        <time>1998-05-06T12:15:51Z</time>
      </trkpt>
      <trkpt lat="42.057636" lon="2.893020">
        <ele>39.413</ele>
        <time>1998-05-06T12:15:53Z</time>
      </trkpt>
      <trkpt lat="42.057828" lon="2.893385">
        <ele>39.037</ele>
        <time>1998-05-06T12:15:59Z</time>
      </trkpt>
      <trkpt lat="42.057900" lon="2.893518">
        <ele>39.076</ele>
        <time>1998-05-06T12:16:01Z</time>
      </trkpt>
      <trkpt lat="42.057963" lon="2.893717">
        <ele>39.090</ele>
        <time>1998-05-06T12:16:04Z</time>
      </trkpt>
      <trkpt lat="42.058166" lon="2.894151">
        <ele>39.019</ele>
        <time>1998-05-06T12:16:11Z</time>
      </trkpt>
      <trkpt lat="42.058243" lon="2.894344">
        <ele>39.008</ele>
        <time>1998-05-06T12:16:14Z</time>
      </trkpt>
      <trkpt lat="42.058316" lon="2.894562">
        <ele>39.039</ele>
        <time>1998-05-06T12:16:17Z</time>
      </trkpt>
      <trkpt lat="42.058468" lon="2.894882">
        <ele>39.032</ele>
        <time>1998-05-06T12:16:22Z</time>
      </trkpt>
      <trkpt lat="42.058514" lon="2.895077">
        <ele>38.854</ele>
        <time>1998-05-06T12:16:25Z</time>
      </trkpt>
      <trkpt lat="42.058552" lon="2.895264">
        <ele>38.324</ele>
        <time>1998-05-06T12:16:28Z</time>
      </trkpt>
      <trkpt lat="42.058586" lon="2.895525">
        <ele>38.117</ele>
        <time>1998-05-06T12:16:32Z</time>
      </trkpt>
      <trkpt lat="42.058696" lon="2.895912">
        <ele>38.716</ele>
        <time>1998-05-06T12:16:37Z</time>
      </trkpt>
      <trkpt lat="42.058842" lon="2.896404">
        <ele>37.696</ele>
        <time>1998-05-06T12:16:43Z</time>
      </trkpt>
      <trkpt lat="42.058993" lon="2.896727">
        <ele>37.260</ele>
        <time>1998-05-06T12:16:48Z</time>
      </trkpt>
      <trkpt lat="42.059060" lon="2.896917">
        <ele>36.793</ele>
        <time>1998-05-06T12:16:51Z</time>
      </trkpt>
      <trkpt lat="42.059125" lon="2.897032">
        <ele>36.865</ele>
        <time>1998-05-06T12:16:53Z</time>
      </trkpt>
      <trkpt lat="42.059189" lon="2.897202">
        <ele>36.921</ele>
        <time>1998-05-06T12:16:56Z</time>
      </trkpt>
      <trkpt lat="42.059299" lon="2.897813">
        <ele>36.908</ele>
        <time>1998-05-06T12:17:05Z</time>
      </trkpt>
      <trkpt lat="42.059332" lon="2.898047">
        <ele>36.631</ele>
        <time>1998-05-06T12:17:08Z</time>
      </trkpt>
      <trkpt lat="42.059412" lon="2.898293">
        <ele>36.984</ele>
        <time>1998-05-06T12:17:11Z</time>
      </trkpt>
      <trkpt lat="42.059485" lon="2.898509">
        <ele>36.976</ele>
        <time>1998-05-06T12:17:14Z</time>
      </trkpt>
      <trkpt lat="42.059559" lon="2.898891">
        <ele>36.016</ele>
        <time>1998-05-06T12:17:19Z</time>
      </trkpt>
      <trkpt lat="42.059636" lon="2.899414">
        <ele>36.429</ele>
        <time>1998-05-06T12:17:25Z</time>
      </trkpt>
      <trkpt lat="42.059719" lon="2.899718">
        <ele>37.068</ele>
        <time>1998-05-06T12:17:30Z</time>
      </trkpt>
      <trkpt lat="42.059751" lon="2.899838">
        <ele>37.088</ele>
        <time>1998-05-06T12:17:32Z</time>
      </trkpt>
      <trkpt lat="42.059769" lon="2.899978">
        <ele>37.082</ele>
        <time>1998-05-06T12:17:34Z</time>
      </trkpt>
      <trkpt lat="42.059852" lon="2.900302">
        <ele>37.063</ele>
        <time>1998-05-06T12:17:39Z</time>
      </trkpt>
      <trkpt lat="42.059906" lon="2.900575">
        <ele>36.644</ele>
        <time>1998-05-06T12:17:43Z</time>
      </trkpt>
      <trkpt lat="42.059965" lon="2.900659">
        <ele>36.618</ele>
        <time>1998-05-06T12:17:45Z</time>
      </trkpt>
      <trkpt lat="42.060216" lon="2.900792">
        <ele>36.808</ele>
        <time>1998-05-06T12:17:50Z</time>
      </trkpt>
      <trkpt lat="42.060355" lon="2.900872">
        <ele>37.098</ele>
        <time>1998-05-06T12:17:53Z</time>
      </trkpt>
      <trkpt lat="42.060505" lon="2.900969">
        <ele>37.081</ele>
        <time>1998-05-06T12:17:57Z</time>
      </trkpt>
      <trkpt lat="42.060756" lon="2.901130">
        <ele>37.063</ele>
        <time>1998-05-06T12:18:04Z</time>
      </trkpt>
      <trkpt lat="42.060913" lon="2.901215">
        <ele>37.693</ele>
        <time>1998-05-06T12:18:07Z</time>
      </trkpt>
      <trkpt lat="42.061213" lon="2.901313">
        <ele>38.396</ele>
        <time>1998-05-06T12:18:12Z</time>
      </trkpt>
      <trkpt lat="42.061504" lon="2.901377">
        <ele>39.035</ele>
        <time>1998-05-06T12:18:16Z</time>
      </trkpt>
      <trkpt lat="42.061629" lon="2.901406">
        <ele>39.065</ele>
        <time>1998-05-06T12:18:18Z</time>
      </trkpt>
      <trkpt lat="42.061854" lon="2.901474">
        <ele>39.059</ele>
        <time>1998-05-06T12:18:22Z</time>
      </trkpt>
      <trkpt lat="42.062011" lon="2.901574">
        <ele>39.219</ele>
        <time>1998-05-06T12:18:25Z</time>
      </trkpt>
      <trkpt lat="42.062248" lon="2.901614">
        <ele>39.809</ele>
        <time>1998-05-06T12:18:27Z</time>
      </trkpt>
      <trkpt lat="42.062573" lon="2.901666">
        <ele>40.019</ele>
        <time>1998-05-06T12:18:32Z</time>
      </trkpt>
      <trkpt lat="42.062772" lon="2.901704">
        <ele>40.108</ele>
        <time>1998-05-06T12:18:36Z</time>
      </trkpt>
      <trkpt lat="42.063019" lon="2.901746">
        <ele>40.573</ele>
        <time>1998-05-06T12:18:41Z</time>
      </trkpt>
      <trkpt lat="42.063321" lon="2.901863">
        <ele>41.726</ele>
        <time>1998-05-06T12:18:49Z</time>
      </trkpt>
      <trkpt lat="42.063538" lon="2.902031">
        <ele>42.028</ele>
        <time>1998-05-06T12:18:54Z</time>
      </trkpt>
      <trkpt lat="42.063791" lon="2.902263">
        <ele>42.088</ele>
        <time>1998-05-06T12:18:59Z</time>
      </trkpt>
      <trkpt lat="42.063913" lon="2.902394">
        <ele>42.071</ele>
        <time>1998-05-06T12:19:02Z</time>
      </trkpt>
      <trkpt lat="42.063988" lon="2.902477">
        <ele>42.080</ele>
        <time>1998-05-06T12:19:04Z</time>
      </trkpt>
      <trkpt lat="42.064215" lon="2.902729">
        <ele>42.950</ele>
        <time>1998-05-06T12:19:10Z</time>
      </trkpt>
      <trkpt lat="42.064251" lon="2.902770">
        <ele>43.054</ele>
        <time>1998-05-06T12:19:11Z</time>
      </trkpt>
      <trkpt lat="42.064723" lon="2.903140">
        <ele>44.068</ele>
        <time>1998-05-06T12:19:24Z</time>
      </trkpt>
      <trkpt lat="42.065099" lon="2.903429">
        <ele>43.942</ele>
        <time>1998-05-06T12:19:34Z</time>
      </trkpt>
      <trkpt lat="42.065281" lon="2.903555">
        <ele>44.626</ele>
        <time>1998-05-06T12:19:38Z</time>
      </trkpt>
      <trkpt lat="42.065353" lon="2.903612">
        <ele>44.708</ele>
        <time>1998-05-06T12:19:40Z</time>
      </trkpt>
      <trkpt lat="42.065428" lon="2.903690">
        <ele>44.578</ele>
        <time>1998-05-06T12:19:43Z</time>
      </trkpt>
      <trkpt lat="42.065438" lon="2.903708">
        <ele>44.551</ele>
        <time>1998-05-06T12:19:44Z</time>
      </trkpt>
      <trkpt lat="42.065363" lon="2.903940">
        <ele>44.463</ele>
        <time>1998-05-06T12:19:50Z</time>
      </trkpt>
      <trkpt lat="42.065345" lon="2.904051">
        <ele>44.533</ele>
        <time>1998-05-06T12:19:52Z</time>
      </trkpt>
      <trkpt lat="42.065341" lon="2.904215">
        <ele>44.656</ele>
        <time>1998-05-06T12:19:55Z</time>
      </trkpt>
      <trkpt lat="42.065344" lon="2.904325">
        <ele>44.355</ele>
        <time>1998-05-06T12:19:57Z</time>
      </trkpt>
      <trkpt lat="42.065411" lon="2.904696">
        <ele>43.575</ele>
        <time>1998-05-06T12:20:03Z</time>
      </trkpt>
      <trkpt lat="42.065483" lon="2.905250">
        <ele>43.739</ele>
        <time>1998-05-06T12:20:11Z</time>
      </trkpt>
      <trkpt lat="42.065536" lon="2.905798">
        <ele>43.064</ele>
        <time>1998-05-06T12:20:18Z</time>
      </trkpt>
      <trkpt lat="42.065594" lon="2.906213">
        <ele>42.606</ele>
        <time>1998-05-06T12:20:23Z</time>
      </trkpt>
      <trkpt lat="42.065634" lon="2.906561">
        <ele>42.016</ele>
        <time>1998-05-06T12:20:27Z</time>
      </trkpt>
      <trkpt lat="42.065651" lon="2.906730">
        <ele>41.908</ele>
        <time>1998-05-06T12:20:29Z</time>
      </trkpt>
      <trkpt lat="42.065682" lon="2.907085">
        <ele>41.248</ele>
        <time>1998-05-06T12:20:33Z</time>
      </trkpt>
      <trkpt lat="42.065694" lon="2.907275">
        <ele>41.041</ele>
        <time>1998-05-06T12:20:35Z</time>
      </trkpt>
      <trkpt lat="42.065770" lon="2.908022">
        <ele>40.153</ele>
        <time>1998-05-06T12:20:43Z</time>
      </trkpt>
      <trkpt lat="42.065797" lon="2.908211">
        <ele>39.913</ele>
        <time>1998-05-06T12:20:45Z</time>
      </trkpt>
      <trkpt lat="42.065920" lon="2.908950">
        <ele>39.546</ele>
        <time>1998-05-06T12:20:53Z</time>
      </trkpt>
      <trkpt lat="42.065999" lon="2.909583">
        <ele>40.255</ele>
        <time>1998-05-06T12:21:00Z</time>
      </trkpt>
      <trkpt lat="42.066111" lon="2.910303">
        <ele>41.065</ele>
        <time>1998-05-06T12:21:09Z</time>
      </trkpt>
      <trkpt lat="42.066166" lon="2.910513">
        <ele>41.019</ele>
        <time>1998-05-06T12:21:12Z</time>
      </trkpt>
      <trkpt lat="42.066202" lon="2.910630">
        <ele>41.144</ele>
        <time>1998-05-06T12:21:14Z</time>
      </trkpt>
      <trkpt lat="42.066230" lon="2.910745">
        <ele>41.305</ele>
        <time>1998-05-06T12:21:18Z</time>
      </trkpt>
      <trkpt lat="42.066230" lon="2.910775">
        <ele>41.315</ele>
        <time>1998-05-06T12:21:20Z</time>
      </trkpt>
      <trkpt lat="42.066238" lon="2.910781">
        <ele>41.408</ele>
        <time>1998-05-06T12:39:46Z</time>
      </trkpt>
      <trkpt lat="42.066239" lon="2.910796">
        <ele>41.416</ele>
        <time>1998-05-06T12:39:47Z</time>
      </trkpt>
      <trkpt lat="42.066243" lon="2.910823">
        <ele>41.559</ele>
        <time>1998-05-06T12:39:49Z</time>
      </trkpt>
      <trkpt lat="42.066261" lon="2.911161">
        <ele>41.461</ele>
        <time>1998-05-06T12:40:00Z</time>
      </trkpt>
      <trkpt lat="42.066257" lon="2.911430">
        <ele>40.971</ele>
        <time>1998-05-06T12:40:06Z</time>
      </trkpt>
      <trkpt lat="42.066260" lon="2.911488">
        <ele>40.834</ele>
        <time>1998-05-06T12:40:07Z</time>
      </trkpt>
      <trkpt lat="42.066263" lon="2.911547">
        <ele>40.753</ele>
        <time>1998-05-06T12:40:08Z</time>
      </trkpt>
      <trkpt lat="42.066341" lon="2.911941">
        <ele>40.083</ele>
        <time>1998-05-06T12:40:15Z</time>
      </trkpt>
      <trkpt lat="42.066368" lon="2.912120">
        <ele>40.097</ele>
        <time>1998-05-06T12:40:18Z</time>
      </trkpt>
      <trkpt lat="42.066393" lon="2.912242">
        <ele>40.076</ele>
        <time>1998-05-06T12:40:20Z</time>
      </trkpt>
      <trkpt lat="42.066380" lon="2.912352">
        <ele>40.090</ele>
        <time>1998-05-06T12:40:22Z</time>
      </trkpt>
      <trkpt lat="42.066307" lon="2.912415">
        <ele>39.819</ele>
        <time>1998-05-06T12:40:24Z</time>
      </trkpt>
      <trkpt lat="42.065773" lon="2.912548">
        <ele>38.608</ele>
        <time>1998-05-06T12:40:35Z</time>
      </trkpt>
      <trkpt lat="42.065727" lon="2.912560">
        <ele>38.479</ele>
        <time>1998-05-06T12:40:36Z</time>
      </trkpt>
      <trkpt lat="42.065594" lon="2.912602">
        <ele>37.812</ele>
        <time>1998-05-06T12:40:39Z</time>
      </trkpt>
      <trkpt lat="42.065547" lon="2.912605">
        <ele>37.684</ele>
        <time>1998-05-06T12:40:40Z</time>
      </trkpt>
      <trkpt lat="42.064986" lon="2.912719">
        <ele>38.064</ele>
        <time>1998-05-06T12:40:51Z</time>
      </trkpt>
      <trkpt lat="42.064930" lon="2.912733">
        <ele>38.017</ele>
        <time>1998-05-06T12:40:52Z</time>
      </trkpt>
      <trkpt lat="42.064874" lon="2.912743">
        <ele>38.076</ele>
        <time>1998-05-06T12:40:53Z</time>
      </trkpt>
      <trkpt lat="42.064819" lon="2.912755">
        <ele>38.026</ele>
        <time>1998-05-06T12:40:54Z</time>
      </trkpt>
      <trkpt lat="42.064599" lon="2.912781">
        <ele>38.010</ele>
        <time>1998-05-06T12:40:58Z</time>
      </trkpt>
      <trkpt lat="42.064098" lon="2.912834">
        <ele>37.628</ele>
        <time>1998-05-06T12:41:08Z</time>
      </trkpt>
      <trkpt lat="42.064038" lon="2.912856">
        <ele>37.489</ele>
        <time>1998-05-06T12:41:09Z</time>
      </trkpt>
      <trkpt lat="42.063936" lon="2.912941">
        <ele>37.117</ele>
        <time>1998-05-06T12:41:11Z</time>
      </trkpt>
      <trkpt lat="42.063872" lon="2.913078">
        <ele>37.008</ele>
        <time>1998-05-06T12:41:13Z</time>
      </trkpt>
      <trkpt lat="42.063790" lon="2.913388">
        <ele>36.944</ele>
        <time>1998-05-06T12:41:17Z</time>
      </trkpt>
      <trkpt lat="42.063583" lon="2.914106">
        <ele>35.277</ele>
        <time>1998-05-06T12:41:27Z</time>
      </trkpt>
      <trkpt lat="42.063496" lon="2.914381">
        <ele>35.019</ele>
        <time>1998-05-06T12:41:31Z</time>
      </trkpt>
      <trkpt lat="42.063450" lon="2.914503">
        <ele>35.049</ele>
        <time>1998-05-06T12:41:33Z</time>
      </trkpt>
      <trkpt lat="42.063336" lon="2.914932">
        <ele>35.052</ele>
        <time>1998-05-06T12:41:39Z</time>
      </trkpt>
      <trkpt lat="42.063208" lon="2.915314">
        <ele>35.021</ele>
        <time>1998-05-06T12:41:44Z</time>
      </trkpt>
      <trkpt lat="42.063029" lon="2.915876">
        <ele>35.161</ele>
        <time>1998-05-06T12:41:53Z</time>
      </trkpt>
      <trkpt lat="42.062927" lon="2.916046">
        <ele>35.545</ele>
        <time>1998-05-06T12:41:56Z</time>
      </trkpt>
      <trkpt lat="42.062633" lon="2.916297">
        <ele>35.792</ele>
        <time>1998-05-06T12:42:02Z</time>
      </trkpt>
      <trkpt lat="42.062294" lon="2.916662">
        <ele>35.773</ele>
        <time>1998-05-06T12:42:08Z</time>
      </trkpt>
      <trkpt lat="42.062231" lon="2.916779">
        <ele>35.620</ele>
        <time>1998-05-06T12:42:10Z</time>
      </trkpt>
      <trkpt lat="42.062204" lon="2.916920">
        <ele>35.108</ele>
        <time>1998-05-06T12:42:12Z</time>
      </trkpt>
      <trkpt lat="42.062208" lon="2.917080">
        <ele>35.521</ele>
        <time>1998-05-06T12:42:14Z</time>
      </trkpt>
      <trkpt lat="42.062231" lon="2.917233">
        <ele>35.974</ele>
        <time>1998-05-06T12:42:16Z</time>
      </trkpt>
      <trkpt lat="42.062282" lon="2.917457">
        <ele>35.186</ele>
        <time>1998-05-06T12:42:19Z</time>
      </trkpt>
      <trkpt lat="42.062531" lon="2.918006">
        <ele>35.076</ele>
        <time>1998-05-06T12:42:27Z</time>
      </trkpt>
      <trkpt lat="42.062855" lon="2.918640">
        <ele>35.099</ele>
        <time>1998-05-06T12:42:36Z</time>
      </trkpt>
      <trkpt lat="42.062966" lon="2.918849">
        <ele>35.088</ele>
        <time>1998-05-06T12:42:39Z</time>
      </trkpt>
      <trkpt lat="42.063276" lon="2.919453">
        <ele>34.838</ele>
        <time>1998-05-06T12:42:48Z</time>
      </trkpt>
      <trkpt lat="42.063362" lon="2.919652">
        <ele>34.282</ele>
        <time>1998-05-06T12:42:51Z</time>
      </trkpt>
      <trkpt lat="42.063382" lon="2.919721">
        <ele>34.022</ele>
        <time>1998-05-06T12:42:52Z</time>
      </trkpt>
      <trkpt lat="42.063360" lon="2.919858">
        <ele>34.062</ele>
        <time>1998-05-06T12:42:54Z</time>
      </trkpt>
      <trkpt lat="42.063288" lon="2.919978">
        <ele>34.008</ele>
        <time>1998-05-06T12:42:56Z</time>
      </trkpt>
      <trkpt lat="42.063084" lon="2.920319">
        <ele>34.008</ele>
        <time>1998-05-06T12:43:01Z</time>
      </trkpt>
      <trkpt lat="42.062842" lon="2.920742">
        <ele>34.914</ele>
        <time>1998-05-06T12:43:07Z</time>
      </trkpt>
      <trkpt lat="42.062648" lon="2.921078">
        <ele>34.167</ele>
        <time>1998-05-06T12:43:12Z</time>
      </trkpt>
      <trkpt lat="42.062594" lon="2.921236">
        <ele>34.069</ele>
        <time>1998-05-06T12:43:14Z</time>
      </trkpt>
      <trkpt lat="42.062543" lon="2.921481">
        <ele>33.919</ele>
        <time>1998-05-06T12:43:17Z</time>
      </trkpt>
      <trkpt lat="42.062529" lon="2.921739">
        <ele>34.112</ele>
        <time>1998-05-06T12:43:20Z</time>
      </trkpt>
      <trkpt lat="42.062636" lon="2.922499">
        <ele>34.531</ele>
        <time>1998-05-06T12:43:29Z</time>
      </trkpt>
      <trkpt lat="42.062700" lon="2.923293">
        <ele>34.441</ele>
        <time>1998-05-06T12:43:39Z</time>
      </trkpt>
      <trkpt lat="42.062694" lon="2.923644">
        <ele>34.425</ele>
        <time>1998-05-06T12:43:43Z</time>
      </trkpt>
      <trkpt lat="42.062654" lon="2.924413">
        <ele>35.074</ele>
        <time>1998-05-06T12:43:52Z</time>
      </trkpt>
      <trkpt lat="42.062630" lon="2.925044">
        <ele>34.156</ele>
        <time>1998-05-06T12:44:00Z</time>
      </trkpt>
      <trkpt lat="42.062674" lon="2.925199">
        <ele>34.421</ele>
        <time>1998-05-06T12:44:02Z</time>
      </trkpt>
      <trkpt lat="42.062738" lon="2.925337">
        <ele>34.908</ele>
        <time>1998-05-06T12:44:04Z</time>
      </trkpt>
      <trkpt lat="42.062795" lon="2.925457">
        <ele>35.019</ele>
        <time>1998-05-06T12:44:06Z</time>
      </trkpt>
      <trkpt lat="42.062924" lon="2.925745">
        <ele>35.072</ele>
        <time>1998-05-06T12:44:11Z</time>
      </trkpt>
      <trkpt lat="42.063130" lon="2.926170">
        <ele>34.494</ele>
        <time>1998-05-06T12:44:18Z</time>
      </trkpt>
      <trkpt lat="42.063325" lon="2.926567">
        <ele>34.064</ele>
        <time>1998-05-06T12:44:24Z</time>
      </trkpt>
      <trkpt lat="42.063401" lon="2.926646">
        <ele>34.017</ele>
        <time>1998-05-06T12:44:26Z</time>
      </trkpt>
      <trkpt lat="42.063471" lon="2.926721">
        <ele>33.826</ele>
        <time>1998-05-06T12:44:28Z</time>
      </trkpt>
      <trkpt lat="42.063529" lon="2.926893">
        <ele>33.586</ele>
        <time>1998-05-06T12:44:31Z</time>
      </trkpt>
      <trkpt lat="42.063582" lon="2.927019">
        <ele>33.340</ele>
        <time>1998-05-06T12:44:33Z</time>
      </trkpt>
      <trkpt lat="42.063647" lon="2.927117">
        <ele>32.997</ele>
        <time>1998-05-06T12:44:35Z</time>
      </trkpt>
      <trkpt lat="42.063913" lon="2.927435">
        <ele>32.623</ele>
        <time>1998-05-06T12:44:44Z</time>
      </trkpt>
      <trkpt lat="42.064064" lon="2.927599">
        <ele>32.825</ele>
        <time>1998-05-06T12:44:49Z</time>
      </trkpt>
      <trkpt lat="42.064154" lon="2.927715">
        <ele>32.408</ele>
        <time>1998-05-06T12:44:52Z</time>
      </trkpt>
      <trkpt lat="42.064429" lon="2.927956">
        <ele>32.021</ele>
        <time>1998-05-06T12:44:57Z</time>
      </trkpt>
      <trkpt lat="42.064677" lon="2.928168">
        <ele>32.484</ele>
        <time>1998-05-06T12:45:01Z</time>
      </trkpt>
      <trkpt lat="42.064831" lon="2.928471">
        <ele>31.726</ele>
        <time>1998-05-06T12:45:06Z</time>
      </trkpt>
      <trkpt lat="42.064935" lon="2.928857">
        <ele>31.886</ele>
        <time>1998-05-06T12:45:11Z</time>
      </trkpt>
      <trkpt lat="42.064961" lon="2.929004">
        <ele>31.949</ele>
        <time>1998-05-06T12:45:13Z</time>
      </trkpt>
      <trkpt lat="42.065048" lon="2.929367">
        <ele>31.758</ele>
        <time>1998-05-06T12:45:18Z</time>
      </trkpt>
      <trkpt lat="42.065094" lon="2.929497">
        <ele>32.018</ele>
        <time>1998-05-06T12:45:20Z</time>
      </trkpt>
      <trkpt lat="42.065116" lon="2.929716">
        <ele>32.362</ele>
        <time>1998-05-06T12:45:23Z</time>
      </trkpt>
      <trkpt lat="42.065084" lon="2.929930">
        <ele>31.939</ele>
        <time>1998-05-06T12:45:26Z</time>
      </trkpt>
      <trkpt lat="42.065011" lon="2.930461">
        <ele>31.801</ele>
        <time>1998-05-06T12:45:32Z</time>
      </trkpt>
      <trkpt lat="42.064981" lon="2.930762">
        <ele>33.321</ele>
        <time>1998-05-06T12:45:35Z</time>
      </trkpt>
      <trkpt lat="42.064791" lon="2.931341">
        <ele>32.208</ele>
        <time>1998-05-06T12:45:41Z</time>
      </trkpt>
      <trkpt lat="42.064512" lon="2.932014">
        <ele>33.495</ele>
        <time>1998-05-06T12:45:50Z</time>
      </trkpt>
      <trkpt lat="42.064395" lon="2.932171">
        <ele>33.528</ele>
        <time>1998-05-06T12:45:53Z</time>
      </trkpt>
      <trkpt lat="42.064041" lon="2.932722">
        <ele>32.930</ele>
        <time>1998-05-06T12:46:03Z</time>
      </trkpt>
      <trkpt lat="42.063863" lon="2.932990">
        <ele>33.380</ele>
        <time>1998-05-06T12:46:08Z</time>
      </trkpt>
      <trkpt lat="42.063565" lon="2.933597">
        <ele>33.463</ele>
        <time>1998-05-06T12:46:17Z</time>
      </trkpt>
      <trkpt lat="42.063324" lon="2.934147">
        <ele>33.772</ele>
        <time>1998-05-06T12:46:25Z</time>
      </trkpt>
      <trkpt lat="42.063302" lon="2.934296">
        <ele>33.782</ele>
        <time>1998-05-06T12:46:27Z</time>
      </trkpt>
      <trkpt lat="42.063308" lon="2.934454">
        <ele>33.946</ele>
        <time>1998-05-06T12:46:29Z</time>
      </trkpt>
      <trkpt lat="42.063367" lon="2.935216">
        <ele>34.079</ele>
        <time>1998-05-06T12:46:39Z</time>
      </trkpt>
      <trkpt lat="42.063381" lon="2.935354">
        <ele>34.005</ele>
        <time>1998-05-06T12:46:41Z</time>
      </trkpt>
      <trkpt lat="42.063454" lon="2.936031">
        <ele>34.025</ele>
        <time>1998-05-06T12:46:49Z</time>
      </trkpt>
      <trkpt lat="42.063497" lon="2.936438">
        <ele>34.008</ele>
        <time>1998-05-06T12:46:54Z</time>
      </trkpt>
      <trkpt lat="42.063520" lon="2.936728">
        <ele>33.979</ele>
        <time>1998-05-06T12:46:58Z</time>
      </trkpt>
      <trkpt lat="42.063580" lon="2.937102">
        <ele>33.642</ele>
        <time>1998-05-06T12:47:03Z</time>
      </trkpt>
      <trkpt lat="42.063638" lon="2.937485">
        <ele>33.084</ele>
        <time>1998-05-06T12:47:08Z</time>
      </trkpt>
      <trkpt lat="42.063684" lon="2.938214">
        <ele>33.094</ele>
        <time>1998-05-06T12:47:17Z</time>
      </trkpt>
      <trkpt lat="42.063678" lon="2.938395">
        <ele>33.027</ele>
        <time>1998-05-06T12:47:19Z</time>
      </trkpt>
      <trkpt lat="42.063678" lon="2.939137">
        <ele>32.266</ele>
        <time>1998-05-06T12:47:27Z</time>
      </trkpt>
      <trkpt lat="42.063673" lon="2.939398">
        <ele>33.086</ele>
        <time>1998-05-06T12:47:30Z</time>
      </trkpt>
      <trkpt lat="42.063650" lon="2.939674">
        <ele>33.250</ele>
        <time>1998-05-06T12:47:33Z</time>
      </trkpt>
      <trkpt lat="42.063592" lon="2.940076">
        <ele>32.795</ele>
        <time>1998-05-06T12:47:38Z</time>
      </trkpt>
      <trkpt lat="42.063588" lon="2.940204">
        <ele>32.249</ele>
        <time>1998-05-06T12:47:40Z</time>
      </trkpt>
      <trkpt lat="42.063577" lon="2.940483">
        <ele>32.023</ele>
        <time>1998-05-06T12:47:44Z</time>
      </trkpt>
      <trkpt lat="42.063567" lon="2.940632">
        <ele>32.008</ele>
        <time>1998-05-06T12:47:46Z</time>
      </trkpt>
      <trkpt lat="42.063536" lon="2.941161">
        <ele>32.831</ele>
        <time>1998-05-06T12:47:53Z</time>
      </trkpt>
      <trkpt lat="42.063735" lon="2.941852">
        <ele>30.844</ele>
        <time>1998-05-06T12:48:01Z</time>
      </trkpt>
      <trkpt lat="42.063877" lon="2.942484">
        <ele>31.036</ele>
        <time>1998-05-06T12:48:09Z</time>
      </trkpt>
      <trkpt lat="42.063882" lon="2.942553">
        <ele>31.056</ele>
        <time>1998-05-06T12:48:10Z</time>
      </trkpt>
      <trkpt lat="42.063878" lon="2.942625">
        <ele>31.019</ele>
        <time>1998-05-06T12:48:11Z</time>
      </trkpt>
      <trkpt lat="42.063866" lon="2.942755">
        <ele>31.038</ele>
        <time>1998-05-06T12:48:13Z</time>
      </trkpt>
      <trkpt lat="42.063826" lon="2.942941">
        <ele>30.518</ele>
        <time>1998-05-06T12:48:16Z</time>
      </trkpt>
      <trkpt lat="42.063803" lon="2.943047">
        <ele>30.322</ele>
        <time>1998-05-06T12:48:18Z</time>
      </trkpt>
      <trkpt lat="42.063776" lon="2.943166">
        <ele>30.438</ele>
        <time>1998-05-06T12:48:20Z</time>
      </trkpt>
      <trkpt lat="42.063756" lon="2.943472">
        <ele>30.570</ele>
        <time>1998-05-06T12:48:25Z</time>
      </trkpt>
      <trkpt lat="42.063739" lon="2.943778">
        <ele>30.517</ele>
        <time>1998-05-06T12:48:29Z</time>
      </trkpt>
      <trkpt lat="42.063727" lon="2.943913">
        <ele>30.608</ele>
        <time>1998-05-06T12:48:31Z</time>
      </trkpt>
      <trkpt lat="42.063663" lon="2.944174">
        <ele>30.885</ele>
        <time>1998-05-06T12:48:36Z</time>
      </trkpt>
      <trkpt lat="42.063602" lon="2.944514">
        <ele>30.828</ele>
        <time>1998-05-06T12:48:41Z</time>
      </trkpt>
      <trkpt lat="42.063588" lon="2.944656">
        <ele>30.320</ele>
        <time>1998-05-06T12:48:43Z</time>
      </trkpt>
      <trkpt lat="42.063504" lon="2.945418">
        <ele>30.050</ele>
        <time>1998-05-06T12:48:53Z</time>
      </trkpt>
      <trkpt lat="42.063471" lon="2.945578">
        <ele>30.013</ele>
        <time>1998-05-06T12:48:55Z</time>
      </trkpt>
      <trkpt lat="42.063447" lon="2.945753">
        <ele>30.052</ele>
        <time>1998-05-06T12:48:57Z</time>
      </trkpt>
      <trkpt lat="42.063449" lon="2.946054">
        <ele>30.082</ele>
        <time>1998-05-06T12:49:01Z</time>
      </trkpt>
      <trkpt lat="42.063432" lon="2.946341">
        <ele>30.026</ele>
        <time>1998-05-06T12:49:04Z</time>
      </trkpt>
      <trkpt lat="42.063363" lon="2.946813">
        <ele>30.094</ele>
        <time>1998-05-06T12:49:10Z</time>
      </trkpt>
      <trkpt lat="42.063353" lon="2.946884">
        <ele>30.057</ele>
        <time>1998-05-06T12:49:11Z</time>
      </trkpt>
      <trkpt lat="42.063342" lon="2.947614">
        <ele>29.022</ele>
        <time>1998-05-06T12:49:19Z</time>
      </trkpt>
      <trkpt lat="42.063341" lon="2.948046">
        <ele>29.008</ele>
        <time>1998-05-06T12:49:23Z</time>
      </trkpt>
      <trkpt lat="42.063314" lon="2.948201">
        <ele>29.051</ele>
        <time>1998-05-06T12:49:25Z</time>
      </trkpt>
      <trkpt lat="42.063263" lon="2.948302">
        <ele>29.024</ele>
        <time>1998-05-06T12:49:27Z</time>
      </trkpt>
      <trkpt lat="42.062832" lon="2.948373">
        <ele>29.846</ele>
        <time>1998-05-06T12:49:37Z</time>
      </trkpt>
      <trkpt lat="42.062506" lon="2.948408">
        <ele>30.046</ele>
        <time>1998-05-06T12:49:45Z</time>
      </trkpt>
      <trkpt lat="42.062274" lon="2.948419">
        <ele>30.639</ele>
        <time>1998-05-06T12:49:50Z</time>
      </trkpt>
      <trkpt lat="42.062133" lon="2.948418">
        <ele>30.538</ele>
        <time>1998-05-06T12:49:53Z</time>
      </trkpt>
      <trkpt lat="42.062085" lon="2.948426">
        <ele>30.388</ele>
        <time>1998-05-06T12:49:54Z</time>
      </trkpt>
      <trkpt lat="42.061827" lon="2.948438">
        <ele>30.312</ele>
        <time>1998-05-06T12:49:59Z</time>
      </trkpt>
      <trkpt lat="42.061456" lon="2.948467">
        <ele>31.292</ele>
        <time>1998-05-06T12:50:06Z</time>
      </trkpt>
      <trkpt lat="42.061443" lon="2.948748">
        <ele>32.073</ele>
        <time>1998-05-06T12:50:12Z</time>
      </trkpt>
      <trkpt lat="42.061475" lon="2.948895">
        <ele>32.120</ele>
        <time>1998-05-06T12:50:15Z</time>
      </trkpt>
      <trkpt lat="42.061495" lon="2.949238">
        <ele>33.508</ele>
        <time>1998-05-06T12:50:20Z</time>
      </trkpt>
      <trkpt lat="42.061495" lon="2.949364">
        <ele>33.581</ele>
        <time>1998-05-06T12:50:22Z</time>
      </trkpt>
      <trkpt lat="42.061491" lon="2.949507">
        <ele>33.264</ele>
        <time>1998-05-06T12:50:24Z</time>
      </trkpt>
      <trkpt lat="42.061546" lon="2.950237">
        <ele>30.756</ele>
        <time>1998-05-06T12:50:33Z</time>
      </trkpt>
      <trkpt lat="42.061542" lon="2.950322">
        <ele>30.546</ele>
        <time>1998-05-06T12:50:34Z</time>
      </trkpt>
      <trkpt lat="42.061522" lon="2.950720">
        <ele>30.099</ele>
        <time>1998-05-06T12:50:39Z</time>
      </trkpt>
      <trkpt lat="42.061515" lon="2.951129">
        <ele>30.078</ele>
        <time>1998-05-06T12:50:44Z</time>
      </trkpt>
      <trkpt lat="42.061449" lon="2.951921">
        <ele>30.878</ele>
        <time>1998-05-06T12:50:53Z</time>
      </trkpt>
      <trkpt lat="42.061378" lon="2.952192">
        <ele>31.042</ele>
        <time>1998-05-06T12:50:56Z</time>
      </trkpt>
      <trkpt lat="42.061314" lon="2.952338">
        <ele>30.695</ele>
        <time>1998-05-06T12:50:58Z</time>
      </trkpt>
      <trkpt lat="42.061273" lon="2.952488">
        <ele>30.049</ele>
        <time>1998-05-06T12:51:00Z</time>
      </trkpt>
      <trkpt lat="42.061263" lon="2.952728">
        <ele>30.023</ele>
        <time>1998-05-06T12:51:03Z</time>
      </trkpt>
      <trkpt lat="42.061265" lon="2.952963">
        <ele>29.408</ele>
        <time>1998-05-06T12:51:06Z</time>
      </trkpt>
      <trkpt lat="42.061284" lon="2.953185">
        <ele>29.131</ele>
        <time>1998-05-06T12:51:09Z</time>
      </trkpt>
      <trkpt lat="42.061315" lon="2.953323">
        <ele>29.294</ele>
        <time>1998-05-06T12:51:11Z</time>
      </trkpt>
      <trkpt lat="42.061330" lon="2.953401">
        <ele>29.166</ele>
        <time>1998-05-06T12:51:12Z</time>
      </trkpt>
      <trkpt lat="42.061376" lon="2.953540">
        <ele>29.156</ele>
        <time>1998-05-06T12:51:14Z</time>
      </trkpt>
      <trkpt lat="42.061447" lon="2.953750">
        <ele>28.669</ele>
        <time>1998-05-06T12:51:17Z</time>
      </trkpt>
      <trkpt lat="42.061519" lon="2.954000">
        <ele>28.148</ele>
        <time>1998-05-06T12:51:20Z</time>
      </trkpt>
      <trkpt lat="42.061543" lon="2.954164">
        <ele>27.668</ele>
        <time>1998-05-06T12:51:22Z</time>
      </trkpt>
      <trkpt lat="42.061551" lon="2.954247">
        <ele>27.522</ele>
        <time>1998-05-06T12:51:23Z</time>
      </trkpt>
      <trkpt lat="42.061553" lon="2.954667">
        <ele>27.258</ele>
        <time>1998-05-06T12:51:28Z</time>
      </trkpt>
      <trkpt lat="42.061535" lon="2.954911">
        <ele>26.452</ele>
        <time>1998-05-06T12:51:31Z</time>
      </trkpt>
      <trkpt lat="42.061535" lon="2.955059">
        <ele>26.217</ele>
        <time>1998-05-06T12:51:33Z</time>
      </trkpt>
      <trkpt lat="42.061531" lon="2.955266">
        <ele>26.508</ele>
        <time>1998-05-06T12:51:36Z</time>
      </trkpt>
      <trkpt lat="42.061508" lon="2.955480">
        <ele>26.467</ele>
        <time>1998-05-06T12:51:39Z</time>
      </trkpt>
      <trkpt lat="42.061473" lon="2.955639">
        <ele>26.580</ele>
        <time>1998-05-06T12:51:41Z</time>
      </trkpt>
      <trkpt lat="42.061316" lon="2.956033">
        <ele>26.972</ele>
        <time>1998-05-06T12:51:47Z</time>
      </trkpt>
      <trkpt lat="42.061283" lon="2.956096">
        <ele>27.092</ele>
        <time>1998-05-06T12:51:48Z</time>
      </trkpt>
      <trkpt lat="42.061137" lon="2.956406">
        <ele>27.195</ele>
        <time>1998-05-06T12:51:52Z</time>
      </trkpt>
      <trkpt lat="42.061093" lon="2.956564">
        <ele>27.574</ele>
        <time>1998-05-06T12:51:54Z</time>
      </trkpt>
      <trkpt lat="42.061021" lon="2.956693">
        <ele>27.794</ele>
        <time>1998-05-06T12:51:56Z</time>
      </trkpt>
      <trkpt lat="42.060938" lon="2.956787">
        <ele>27.648</ele>
        <time>1998-05-06T12:51:58Z</time>
      </trkpt>
      <trkpt lat="42.060459" lon="2.957164">
        <ele>27.912</ele>
        <time>1998-05-06T12:52:08Z</time>
      </trkpt>
      <trkpt lat="42.060233" lon="2.957384">
        <ele>27.832</ele>
        <time>1998-05-06T12:52:13Z</time>
      </trkpt>
      <trkpt lat="42.059817" lon="2.957954">
        <ele>26.805</ele>
        <time>1998-05-06T12:52:23Z</time>
      </trkpt>
      <trkpt lat="42.059786" lon="2.958026">
        <ele>26.908</ele>
        <time>1998-05-06T12:52:24Z</time>
      </trkpt>
      <trkpt lat="42.059751" lon="2.958245">
        <ele>27.023</ele>
        <time>1998-05-06T12:52:27Z</time>
      </trkpt>
      <trkpt lat="42.059853" lon="2.958761">
        <ele>25.916</ele>
        <time>1998-05-06T12:52:33Z</time>
      </trkpt>
      <trkpt lat="42.059896" lon="2.959023">
        <ele>25.498</ele>
        <time>1998-05-06T12:52:36Z</time>
      </trkpt>
      <trkpt lat="42.059979" lon="2.959355">
        <ele>25.288</ele>
        <time>1998-05-06T12:52:40Z</time>
      </trkpt>
      <trkpt lat="42.060000" lon="2.959439">
        <ele>25.021</ele>
        <time>1998-05-06T12:52:41Z</time>
      </trkpt>
      <trkpt lat="42.060009" lon="2.959664">
        <ele>24.250</ele>
        <time>1998-05-06T12:52:44Z</time>
      </trkpt>
      <trkpt lat="42.059974" lon="2.959737">
        <ele>23.910</ele>
        <time>1998-05-06T12:52:46Z</time>
      </trkpt>
      <trkpt lat="42.059916" lon="2.959771">
        <ele>23.864</ele>
        <time>1998-05-06T12:52:48Z</time>
      </trkpt>
      <trkpt lat="42.059350" lon="2.959836">
        <ele>25.452</ele>
        <time>1998-05-06T12:53:02Z</time>
      </trkpt>
      <trkpt lat="42.059233" lon="2.959842">
        <ele>27.053</ele>
        <time>1998-05-06T12:53:05Z</time>
      </trkpt>
      <trkpt lat="42.059161" lon="2.959847">
        <ele>28.008</ele>
        <time>1998-05-06T12:53:07Z</time>
      </trkpt>
      <trkpt lat="42.059123" lon="2.959847">
        <ele>28.208</ele>
        <time>1998-05-06T12:53:08Z</time>
      </trkpt>
      <trkpt lat="42.059090" lon="2.959830">
        <ele>28.397</ele>
        <time>1998-05-06T12:53:09Z</time>
      </trkpt>
      <trkpt lat="42.059025" lon="2.959794">
        <ele>28.520</ele>
        <time>1998-05-06T12:53:11Z</time>
      </trkpt>
      <trkpt lat="42.058964" lon="2.959747">
        <ele>28.772</ele>
        <time>1998-05-06T12:53:13Z</time>
      </trkpt>
      <trkpt lat="42.058934" lon="2.959720">
        <ele>28.892</ele>
        <time>1998-05-06T12:53:14Z</time>
      </trkpt>
      <trkpt lat="42.058829" lon="2.959661">
        <ele>29.215</ele>
        <time>1998-05-06T12:53:17Z</time>
      </trkpt>
      <trkpt lat="42.058527" lon="2.959494">
        <ele>29.834</ele>
        <time>1998-05-06T12:53:24Z</time>
      </trkpt>
      <trkpt lat="42.058424" lon="2.959464">
        <ele>29.954</ele>
        <time>1998-05-06T12:53:26Z</time>
      </trkpt>
      <trkpt lat="42.058067" lon="2.959438">
        <ele>30.018</ele>
        <time>1998-05-06T12:53:33Z</time>
      </trkpt>
      <trkpt lat="42.057496" lon="2.959334">
        <ele>29.465</ele>
        <time>1998-05-06T12:53:44Z</time>
      </trkpt>
      <trkpt lat="42.057064" lon="2.959316">
        <ele>29.568</ele>
        <time>1998-05-06T12:53:52Z</time>
      </trkpt>
      <trkpt lat="42.056906" lon="2.959307">
        <ele>29.514</ele>
        <time>1998-05-06T12:53:55Z</time>
      </trkpt>
      <trkpt lat="42.056601" lon="2.959278">
        <ele>29.608</ele>
        <time>1998-05-06T12:54:01Z</time>
      </trkpt>
      <trkpt lat="42.056230" lon="2.959270">
        <ele>29.868</ele>
        <time>1998-05-06T12:54:08Z</time>
      </trkpt>
      <trkpt lat="42.056130" lon="2.959263">
        <ele>30.011</ele>
        <time>1998-05-06T12:54:10Z</time>
      </trkpt>
      <trkpt lat="42.055943" lon="2.959284">
        <ele>29.663</ele>
        <time>1998-05-06T12:54:14Z</time>
      </trkpt>
      <trkpt lat="42.055727" lon="2.959357">
        <ele>29.813</ele>
        <time>1998-05-06T12:54:19Z</time>
      </trkpt>
      <trkpt lat="42.055641" lon="2.959708">
        <ele>30.016</ele>
        <time>1998-05-06T12:54:25Z</time>
      </trkpt>
      <trkpt lat="42.055603" lon="2.959843">
        <ele>29.695</ele>
        <time>1998-05-06T12:54:27Z</time>
      </trkpt>
      <trkpt lat="42.055252" lon="2.960489">
        <ele>29.875</ele>
        <time>1998-05-06T12:54:37Z</time>
      </trkpt>
      <trkpt lat="42.055128" lon="2.960756">
        <ele>27.439</ele>
        <time>1998-05-06T12:54:41Z</time>
      </trkpt>
      <trkpt lat="42.054869" lon="2.961401">
        <ele>30.054</ele>
        <time>1998-05-06T12:54:51Z</time>
      </trkpt>
      <trkpt lat="42.054819" lon="2.961537">
        <ele>30.356</ele>
        <time>1998-05-06T12:54:53Z</time>
      </trkpt>
      <trkpt lat="42.054726" lon="2.961823">
        <ele>33.211</ele>
        <time>1998-05-06T12:54:57Z</time>
      </trkpt>
      <trkpt lat="42.054687" lon="2.961961">
        <ele>35.608</ele>
        <time>1998-05-06T12:54:59Z</time>
      </trkpt>
      <trkpt lat="42.054636" lon="2.962144">
        <ele>36.847</ele>
        <time>1998-05-06T12:55:02Z</time>
      </trkpt>
      <trkpt lat="42.054608" lon="2.962321">
        <ele>35.820</ele>
        <time>1998-05-06T12:55:05Z</time>
      </trkpt>
      <trkpt lat="42.054601" lon="2.962404">
        <ele>34.952</ele>
        <time>1998-05-06T12:55:06Z</time>
      </trkpt>
      <trkpt lat="42.054613" lon="2.962570">
        <ele>33.522</ele>
        <time>1998-05-06T12:55:08Z</time>
      </trkpt>
      <trkpt lat="42.054647" lon="2.962713">
        <ele>32.965</ele>
        <time>1998-05-06T12:55:10Z</time>
      </trkpt>
      <trkpt lat="42.054693" lon="2.962856">
        <ele>32.864</ele>
        <time>1998-05-06T12:55:12Z</time>
      </trkpt>
      <trkpt lat="42.054891" lon="2.963426">
        <ele>33.364</ele>
        <time>1998-05-06T12:55:20Z</time>
      </trkpt>
      <trkpt lat="42.054969" lon="2.963657">
        <ele>32.838</ele>
        <time>1998-05-06T12:55:23Z</time>
      </trkpt>
      <trkpt lat="42.055121" lon="2.964113">
        <ele>34.449</ele>
        <time>1998-05-06T12:55:29Z</time>
      </trkpt>
      <trkpt lat="42.055151" lon="2.964186">
        <ele>34.502</ele>
        <time>1998-05-06T12:55:30Z</time>
      </trkpt>
      <trkpt lat="42.055231" lon="2.964307">
        <ele>34.422</ele>
        <time>1998-05-06T12:55:32Z</time>
      </trkpt>
      <trkpt lat="42.055339" lon="2.964408">
        <ele>34.008</ele>
        <time>1998-05-06T12:55:34Z</time>
      </trkpt>
      <trkpt lat="42.055478" lon="2.964486">
        <ele>33.526</ele>
        <time>1998-05-06T12:55:36Z</time>
      </trkpt>
      <trkpt lat="42.055712" lon="2.964599">
        <ele>32.839</ele>
        <time>1998-05-06T12:55:39Z</time>
      </trkpt>
      <trkpt lat="42.055944" lon="2.964747">
        <ele>31.821</ele>
        <time>1998-05-06T12:55:42Z</time>
      </trkpt>
      <trkpt lat="42.056307" lon="2.965374">
        <ele>30.261</ele>
        <time>1998-05-06T12:55:49Z</time>
      </trkpt>
      <trkpt lat="42.056366" lon="2.965575">
        <ele>29.444</ele>
        <time>1998-05-06T12:55:51Z</time>
      </trkpt>
      <trkpt lat="42.056510" lon="2.966273">
        <ele>32.113</ele>
        <time>1998-05-06T12:55:58Z</time>
      </trkpt>
      <trkpt lat="42.056591" lon="2.967056">
        <ele>27.283</ele>
        <time>1998-05-06T12:56:05Z</time>
      </trkpt>
      <trkpt lat="42.056585" lon="2.967185">
        <ele>26.767</ele>
        <time>1998-05-06T12:56:06Z</time>
      </trkpt>
      <trkpt lat="42.056541" lon="2.967427">
        <ele>28.134</ele>
        <time>1998-05-06T12:56:08Z</time>
      </trkpt>
      <trkpt lat="42.056555" lon="2.967551">
        <ele>28.655</ele>
        <time>1998-05-06T12:56:09Z</time>
      </trkpt>
      <trkpt lat="42.056579" lon="2.967659">
        <ele>29.510</ele>
        <time>1998-05-06T12:56:10Z</time>
      </trkpt>
      <trkpt lat="42.056696" lon="2.967802">
        <ele>31.208</ele>
        <time>1998-05-06T12:56:12Z</time>
      </trkpt>
      <trkpt lat="42.056834" lon="2.967895">
        <ele>31.385</ele>
        <time>1998-05-06T12:56:14Z</time>
      </trkpt>
      <trkpt lat="42.056883" lon="2.967959">
        <ele>32.098</ele>
        <time>1998-05-06T12:56:15Z</time>
      </trkpt>
      <trkpt lat="42.056924" lon="2.968040">
        <ele>33.160</ele>
        <time>1998-05-06T12:56:16Z</time>
      </trkpt>
      <trkpt lat="42.057057" lon="2.968412">
        <ele>35.170</ele>
        <time>1998-05-06T12:56:20Z</time>
      </trkpt>
      <trkpt lat="42.057238" lon="2.969024">
        <ele>30.033</ele>
        <time>1998-05-06T12:56:26Z</time>
      </trkpt>
      <trkpt lat="42.057278" lon="2.969119">
        <ele>29.952</ele>
        <time>1998-05-06T12:56:27Z</time>
      </trkpt>
      <trkpt lat="42.057345" lon="2.969313">
        <ele>29.792</ele>
        <time>1998-05-06T12:56:29Z</time>
      </trkpt>
      <trkpt lat="42.057363" lon="2.969410">
        <ele>30.256</ele>
        <time>1998-05-06T12:56:30Z</time>
      </trkpt>
      <trkpt lat="42.057306" lon="2.969685">
        <ele>30.887</ele>
        <time>1998-05-06T12:56:33Z</time>
      </trkpt>
      <trkpt lat="42.057221" lon="2.969836">
        <ele>31.042</ele>
        <time>1998-05-06T12:56:35Z</time>
      </trkpt>
      <trkpt lat="42.057165" lon="2.969987">
        <ele>31.226</ele>
        <time>1998-05-06T12:56:37Z</time>
      </trkpt>
      <trkpt lat="42.057079" lon="2.970288">
        <ele>32.108</ele>
        <time>1998-05-06T12:56:41Z</time>
      </trkpt>
      <trkpt lat="42.057101" lon="2.970423">
        <ele>33.180</ele>
        <time>1998-05-06T12:56:43Z</time>
      </trkpt>
      <trkpt lat="42.057134" lon="2.970479">
        <ele>33.713</ele>
        <time>1998-05-06T12:56:44Z</time>
      </trkpt>
      <trkpt lat="42.057172" lon="2.970523">
        <ele>34.365</ele>
        <time>1998-05-06T12:56:45Z</time>
      </trkpt>
      <trkpt lat="42.057242" lon="2.970586">
        <ele>35.845</ele>
        <time>1998-05-06T12:56:47Z</time>
      </trkpt>
      <trkpt lat="42.057384" lon="2.970638">
        <ele>38.858</ele>
        <time>1998-05-06T12:56:51Z</time>
      </trkpt>
      <trkpt lat="42.057508" lon="2.970578">
        <ele>38.717</ele>
        <time>1998-05-06T12:56:54Z</time>
      </trkpt>
      <trkpt lat="42.057554" lon="2.970561">
        <ele>38.497</ele>
        <time>1998-05-06T12:56:55Z</time>
      </trkpt>
      <trkpt lat="42.057643" lon="2.970545">
        <ele>38.521</ele>
        <time>1998-05-06T12:56:57Z</time>
      </trkpt>
      <trkpt lat="42.057895" lon="2.970599">
        <ele>38.297</ele>
        <time>1998-05-06T12:57:04Z</time>
      </trkpt>
      <trkpt lat="42.057998" lon="2.970647">
        <ele>37.723</ele>
        <time>1998-05-06T12:57:07Z</time>
      </trkpt>
      <trkpt lat="42.058073" lon="2.970690">
        <ele>37.525</ele>
        <time>1998-05-06T12:57:09Z</time>
      </trkpt>
      <trkpt lat="42.058140" lon="2.970725">
        <ele>36.908</ele>
        <time>1998-05-06T12:57:11Z</time>
      </trkpt>
      <trkpt lat="42.058214" lon="2.970764">
        <ele>36.431</ele>
        <time>1998-05-06T12:57:13Z</time>
      </trkpt>
      <trkpt lat="42.058329" lon="2.970858">
        <ele>36.644</ele>
        <time>1998-05-06T12:57:15Z</time>
      </trkpt>
      <trkpt lat="42.058380" lon="2.970918">
        <ele>36.396</ele>
        <time>1998-05-06T12:57:16Z</time>
      </trkpt>
      <trkpt lat="42.058491" lon="2.971042">
        <ele>35.466</ele>
        <time>1998-05-06T12:57:18Z</time>
      </trkpt>
      <trkpt lat="42.058600" lon="2.971182">
        <ele>34.689</ele>
        <time>1998-05-06T12:57:20Z</time>
      </trkpt>
      <trkpt lat="42.058740" lon="2.971399">
        <ele>34.868</ele>
        <time>1998-05-06T12:57:23Z</time>
      </trkpt>
      <trkpt lat="42.058785" lon="2.971461">
        <ele>34.088</ele>
        <time>1998-05-06T12:57:24Z</time>
      </trkpt>
      <trkpt lat="42.058843" lon="2.971518">
        <ele>33.052</ele>
        <time>1998-05-06T12:57:25Z</time>
      </trkpt>
      <trkpt lat="42.058943" lon="2.971666">
        <ele>31.657</ele>
        <time>1998-05-06T12:57:27Z</time>
      </trkpt>
      <trkpt lat="42.059074" lon="2.971900">
        <ele>29.500</ele>
        <time>1998-05-06T12:57:30Z</time>
      </trkpt>
      <trkpt lat="42.059191" lon="2.972054">
        <ele>29.020</ele>
        <time>1998-05-06T12:57:32Z</time>
      </trkpt>
      <trkpt lat="42.059242" lon="2.972133">
        <ele>28.508</ele>
        <time>1998-05-06T12:57:33Z</time>
      </trkpt>
      <trkpt lat="42.059320" lon="2.972291">
        <ele>28.647</ele>
        <time>1998-05-06T12:57:35Z</time>
      </trkpt>
      <trkpt lat="42.059435" lon="2.972545">
        <ele>29.530</ele>
        <time>1998-05-06T12:57:39Z</time>
      </trkpt>
      <trkpt lat="42.059461" lon="2.972625">
        <ele>29.732</ele>
        <time>1998-05-06T12:57:40Z</time>
      </trkpt>
      <trkpt lat="42.059554" lon="2.972874">
        <ele>29.852</ele>
        <time>1998-05-06T12:57:43Z</time>
      </trkpt>
      <trkpt lat="42.059586" lon="2.972965">
        <ele>29.685</ele>
        <time>1998-05-06T12:57:44Z</time>
      </trkpt>
      <trkpt lat="42.059625" lon="2.973188">
        <ele>30.224</ele>
        <time>1998-05-06T12:57:46Z</time>
      </trkpt>
      <trkpt lat="42.059599" lon="2.973386">
        <ele>31.264</ele>
        <time>1998-05-06T12:57:48Z</time>
      </trkpt>
      <trkpt lat="42.059544" lon="2.973553">
        <ele>29.818</ele>
        <time>1998-05-06T12:57:50Z</time>
      </trkpt>
      <trkpt lat="42.059388" lon="2.973741">
        <ele>29.023</ele>
        <time>1998-05-06T12:57:53Z</time>
      </trkpt>
      <trkpt lat="42.059331" lon="2.973906">
        <ele>28.483</ele>
        <time>1998-05-06T12:57:55Z</time>
      </trkpt>
      <trkpt lat="42.059330" lon="2.974089">
        <ele>28.811</ele>
        <time>1998-05-06T12:57:57Z</time>
      </trkpt>
      <trkpt lat="42.059376" lon="2.974273">
        <ele>29.408</ele>
        <time>1998-05-06T12:57:59Z</time>
      </trkpt>
      <trkpt lat="42.059415" lon="2.974345">
        <ele>29.624</ele>
        <time>1998-05-06T12:58:00Z</time>
      </trkpt>
      <trkpt lat="42.059459" lon="2.974411">
        <ele>29.817</ele>
        <time>1998-05-06T12:58:01Z</time>
      </trkpt>
      <trkpt lat="42.059560" lon="2.974510">
        <ele>30.359</ele>
        <time>1998-05-06T12:58:03Z</time>
      </trkpt>
      <trkpt lat="42.059609" lon="2.974544">
        <ele>30.549</ele>
        <time>1998-05-06T12:58:04Z</time>
      </trkpt>
      <trkpt lat="42.059718" lon="2.974606">
        <ele>30.882</ele>
        <time>1998-05-06T12:58:06Z</time>
      </trkpt>
      <trkpt lat="42.059825" lon="2.974679">
        <ele>30.511</ele>
        <time>1998-05-06T12:58:08Z</time>
      </trkpt>
      <trkpt lat="42.059936" lon="2.974731">
        <ele>29.861</ele>
        <time>1998-05-06T12:58:10Z</time>
      </trkpt>
      <trkpt lat="42.060121" lon="2.974900">
        <ele>30.375</ele>
        <time>1998-05-06T12:58:14Z</time>
      </trkpt>
      <trkpt lat="42.060202" lon="2.975001">
        <ele>30.111</ele>
        <time>1998-05-06T12:58:16Z</time>
      </trkpt>
      <trkpt lat="42.060316" lon="2.975152">
        <ele>30.321</ele>
        <time>1998-05-06T12:58:19Z</time>
      </trkpt>
      <trkpt lat="42.060672" lon="2.975782">
        <ele>28.603</ele>
        <time>1998-05-06T12:58:29Z</time>
      </trkpt>
      <trkpt lat="42.060791" lon="2.976219">
        <ele>28.508</ele>
        <time>1998-05-06T12:58:35Z</time>
      </trkpt>
      <trkpt lat="42.060852" lon="2.976480">
        <ele>29.633</ele>
        <time>1998-05-06T12:58:39Z</time>
      </trkpt>
      <trkpt lat="42.060905" lon="2.976743">
        <ele>31.436</ele>
        <time>1998-05-06T12:58:43Z</time>
      </trkpt>
      <trkpt lat="42.060915" lon="2.976806">
        <ele>31.798</ele>
        <time>1998-05-06T12:58:44Z</time>
      </trkpt>
      <trkpt lat="42.060923" lon="2.976920">
        <ele>32.578</ele>
        <time>1998-05-06T12:58:46Z</time>
      </trkpt>
      <trkpt lat="42.060924" lon="2.976982">
        <ele>32.891</ele>
        <time>1998-05-06T12:58:47Z</time>
      </trkpt>
      <trkpt lat="42.060914" lon="2.977170">
        <ele>33.560</ele>
        <time>1998-05-06T12:58:50Z</time>
      </trkpt>
      <trkpt lat="42.060892" lon="2.977468">
        <ele>34.290</ele>
        <time>1998-05-06T12:58:55Z</time>
      </trkpt>
      <trkpt lat="42.060876" lon="2.977675">
        <ele>35.174</ele>
        <time>1998-05-06T12:58:59Z</time>
      </trkpt>
      <trkpt lat="42.060872" lon="2.977789">
        <ele>35.881</ele>
        <time>1998-05-06T12:59:01Z</time>
      </trkpt>
      <trkpt lat="42.060855" lon="2.977983">
        <ele>36.961</ele>
        <time>1998-05-06T12:59:04Z</time>
      </trkpt>
      <trkpt lat="42.060848" lon="2.978049">
        <ele>37.217</ele>
        <time>1998-05-06T12:59:05Z</time>
      </trkpt>
      <trkpt lat="42.060843" lon="2.978217">
        <ele>38.408</ele>
        <time>1998-05-06T12:59:08Z</time>
      </trkpt>
      <trkpt lat="42.060861" lon="2.978255">
        <ele>39.060</ele>
        <time>1998-05-06T12:59:09Z</time>
      </trkpt>
      <trkpt lat="42.060915" lon="2.978273">
        <ele>40.343</ele>
        <time>1998-05-06T12:59:11Z</time>
      </trkpt>
      <trkpt lat="42.060978" lon="2.978256">
        <ele>41.455</ele>
        <time>1998-05-06T12:59:13Z</time>
      </trkpt>
      <trkpt lat="42.061045" lon="2.978216">
        <ele>42.415</ele>
        <time>1998-05-06T12:59:15Z</time>
      </trkpt>
      <trkpt lat="42.061118" lon="2.978188">
        <ele>43.558</ele>
        <time>1998-05-06T12:59:17Z</time>
      </trkpt>
      <trkpt lat="42.061190" lon="2.978163">
        <ele>44.437</ele>
        <time>1998-05-06T12:59:19Z</time>
      </trkpt>
      <trkpt lat="42.061270" lon="2.978165">
        <ele>45.727</ele>
        <time>1998-05-06T12:59:21Z</time>
      </trkpt>
      <trkpt lat="42.061380" lon="2.978124">
        <ele>46.911</ele>
        <time>1998-05-06T12:59:24Z</time>
      </trkpt>
      <trkpt lat="42.061580" lon="2.977945">
        <ele>47.844</ele>
        <time>1998-05-06T12:59:30Z</time>
      </trkpt>
      <trkpt lat="42.061812" lon="2.977814">
        <ele>46.705</ele>
        <time>1998-05-06T12:59:37Z</time>
      </trkpt>
      <trkpt lat="42.061928" lon="2.977811">
        <ele>46.015</ele>
        <time>1998-05-06T12:59:39Z</time>
      </trkpt>
      <trkpt lat="42.062137" lon="2.977982">
        <ele>47.008</ele>
        <time>1998-05-06T12:59:45Z</time>
      </trkpt>
      <trkpt lat="42.062507" lon="2.978302">
        <ele>51.546</ele>
        <time>1998-05-06T12:59:56Z</time>
      </trkpt>
      <trkpt lat="42.062540" lon="2.978326">
        <ele>51.719</ele>
        <time>1998-05-06T12:59:57Z</time>
      </trkpt>
      <trkpt lat="42.062647" lon="2.978395">
        <ele>52.061</ele>
        <time>1998-05-06T13:00:00Z</time>
      </trkpt>
      <trkpt lat="42.062897" lon="2.978527">
        <ele>51.831</ele>
        <time>1998-05-06T13:00:06Z</time>
      </trkpt>
      <trkpt lat="42.063066" lon="2.978664">
        <ele>51.394</ele>
        <time>1998-05-06T13:00:10Z</time>
      </trkpt>
      <trkpt lat="42.063248" lon="2.978827">
        <ele>49.293</ele>
        <time>1998-05-06T13:00:15Z</time>
      </trkpt>
      <trkpt lat="42.063339" lon="2.978887">
        <ele>47.923</ele>
        <time>1998-05-06T13:00:17Z</time>
      </trkpt>
      <trkpt lat="42.063457" lon="2.978950">
        <ele>46.987</ele>
        <time>1998-05-06T13:00:19Z</time>
      </trkpt>
      <trkpt lat="42.063512" lon="2.978986">
        <ele>46.479</ele>
        <time>1998-05-06T13:00:20Z</time>
      </trkpt>
      <trkpt lat="42.063659" lon="2.979056">
        <ele>45.105</ele>
        <time>1998-05-06T13:00:22Z</time>
      </trkpt>
      <trkpt lat="42.063725" lon="2.979086">
        <ele>44.525</ele>
        <time>1998-05-06T13:00:23Z</time>
      </trkpt>
      <trkpt lat="42.063807" lon="2.979128">
        <ele>43.708</ele>
        <time>1998-05-06T13:00:24Z</time>
      </trkpt>
      <trkpt lat="42.063900" lon="2.979163">
        <ele>43.029</ele>
        <time>1998-05-06T13:00:25Z</time>
      </trkpt>
      <trkpt lat="42.064074" lon="2.979152">
        <ele>43.022</ele>
        <time>1998-05-06T13:00:27Z</time>
      </trkpt>
      <trkpt lat="42.064382" lon="2.979039">
        <ele>41.424</ele>
        <time>1998-05-06T13:00:30Z</time>
      </trkpt>
      <trkpt lat="42.064466" lon="2.979013">
        <ele>40.974</ele>
        <time>1998-05-06T13:00:31Z</time>
      </trkpt>
      <trkpt lat="42.064551" lon="2.978990">
        <ele>40.517</ele>
        <time>1998-05-06T13:00:32Z</time>
      </trkpt>
      <trkpt lat="42.064709" lon="2.978941">
        <ele>39.626</ele>
        <time>1998-05-06T13:00:34Z</time>
      </trkpt>
      <trkpt lat="42.064803" lon="2.978903">
        <ele>39.266</ele>
        <time>1998-05-06T13:00:35Z</time>
      </trkpt>
      <trkpt lat="42.064893" lon="2.978856">
        <ele>38.790</ele>
        <time>1998-05-06T13:00:36Z</time>
      </trkpt>
      <trkpt lat="42.064980" lon="2.978798">
        <ele>38.119</ele>
        <time>1998-05-06T13:00:37Z</time>
      </trkpt>
      <trkpt lat="42.065070" lon="2.978742">
        <ele>37.109</ele>
        <time>1998-05-06T13:00:38Z</time>
      </trkpt>
      <trkpt lat="42.065167" lon="2.978695">
        <ele>36.119</ele>
        <time>1998-05-06T13:00:39Z</time>
      </trkpt>
      <trkpt lat="42.065272" lon="2.978677">
        <ele>35.208</ele>
        <time>1998-05-06T13:00:40Z</time>
      </trkpt>
      <trkpt lat="42.065370" lon="2.978667">
        <ele>35.133</ele>
        <time>1998-05-06T13:00:41Z</time>
      </trkpt>
      <trkpt lat="42.065560" lon="2.978637">
        <ele>34.626</ele>
        <time>1998-05-06T13:00:43Z</time>
      </trkpt>
      <trkpt lat="42.065992" lon="2.978558">
        <ele>33.138</ele>
        <time>1998-05-06T13:00:48Z</time>
      </trkpt>
      <trkpt lat="42.066227" lon="2.978576">
        <ele>31.888</ele>
        <time>1998-05-06T13:00:51Z</time>
      </trkpt>
      <trkpt lat="42.066308" lon="2.978582">
        <ele>31.341</ele>
        <time>1998-05-06T13:00:52Z</time>
      </trkpt>
      <trkpt lat="42.066476" lon="2.978571">
        <ele>31.240</ele>
        <time>1998-05-06T13:00:54Z</time>
      </trkpt>
      <trkpt lat="42.066647" lon="2.978502">
        <ele>31.060</ele>
        <time>1998-05-06T13:00:56Z</time>
      </trkpt>
      <trkpt lat="42.067104" lon="2.978308">
        <ele>28.694</ele>
        <time>1998-05-06T13:01:01Z</time>
      </trkpt>
      <trkpt lat="42.067224" lon="2.978296">
        <ele>28.588</ele>
        <time>1998-05-06T13:01:03Z</time>
      </trkpt>
      <trkpt lat="42.067324" lon="2.978330">
        <ele>28.624</ele>
        <time>1998-05-06T13:01:05Z</time>
      </trkpt>
      <trkpt lat="42.067421" lon="2.978393">
        <ele>28.926</ele>
        <time>1998-05-06T13:01:07Z</time>
      </trkpt>
      <trkpt lat="42.067645" lon="2.978494">
        <ele>29.408</ele>
        <time>1998-05-06T13:01:12Z</time>
      </trkpt>
      <trkpt lat="42.067832" lon="2.978542">
        <ele>29.340</ele>
        <time>1998-05-06T13:01:17Z</time>
      </trkpt>
      <trkpt lat="42.067874" lon="2.978552">
        <ele>29.263</ele>
        <time>1998-05-06T13:01:18Z</time>
      </trkpt>
      <trkpt lat="42.067951" lon="2.978556">
        <ele>29.065</ele>
        <time>1998-05-06T13:01:20Z</time>
      </trkpt>
      <trkpt lat="42.067989" lon="2.978569">
        <ele>28.995</ele>
        <time>1998-05-06T13:01:21Z</time>
      </trkpt>
      <trkpt lat="42.068070" lon="2.978618">
        <ele>29.018</ele>
        <time>1998-05-06T13:01:23Z</time>
      </trkpt>
      <trkpt lat="42.068208" lon="2.978709">
        <ele>28.987</ele>
        <time>1998-05-06T13:01:26Z</time>
      </trkpt>
      <trkpt lat="42.068301" lon="2.978782">
        <ele>28.697</ele>
        <time>1998-05-06T13:01:28Z</time>
      </trkpt>
      <trkpt lat="42.068432" lon="2.978882">
        <ele>28.311</ele>
        <time>1998-05-06T13:01:31Z</time>
      </trkpt>
      <trkpt lat="42.068518" lon="2.978944">
        <ele>28.484</ele>
        <time>1998-05-06T13:01:33Z</time>
      </trkpt>
      <trkpt lat="42.068669" lon="2.979055">
        <ele>28.407</ele>
        <time>1998-05-06T13:01:37Z</time>
      </trkpt>
      <trkpt lat="42.068752" lon="2.979119">
        <ele>28.217</ele>
        <time>1998-05-06T13:01:39Z</time>
      </trkpt>
      <trkpt lat="42.068881" lon="2.979332">
        <ele>28.208</ele>
        <time>1998-05-06T13:01:43Z</time>
      </trkpt>
      <trkpt lat="42.068910" lon="2.979389">
        <ele>28.550</ele>
        <time>1998-05-06T13:01:44Z</time>
      </trkpt>
      <trkpt lat="42.068969" lon="2.979502">
        <ele>28.713</ele>
        <time>1998-05-06T13:01:46Z</time>
      </trkpt>
      <trkpt lat="42.069044" lon="2.979603">
        <ele>28.415</ele>
        <time>1998-05-06T13:01:48Z</time>
      </trkpt>
      <trkpt lat="42.069292" lon="2.979961">
        <ele>29.375</ele>
        <time>1998-05-06T13:01:55Z</time>
      </trkpt>
      <trkpt lat="42.069405" lon="2.980101">
        <ele>29.028</ele>
        <time>1998-05-06T13:01:58Z</time>
      </trkpt>
      <trkpt lat="42.069530" lon="2.980210">
        <ele>28.277</ele>
        <time>1998-05-06T13:02:01Z</time>
      </trkpt>
      <trkpt lat="42.069763" lon="2.980341">
        <ele>27.927</ele>
        <time>1998-05-06T13:02:06Z</time>
      </trkpt>
      <trkpt lat="42.069840" lon="2.980423">
        <ele>27.881</ele>
        <time>1998-05-06T13:02:08Z</time>
      </trkpt>
      <trkpt lat="42.069925" lon="2.980586">
        <ele>28.014</ele>
        <time>1998-05-06T13:02:11Z</time>
      </trkpt>
      <trkpt lat="42.069970" lon="2.980904">
        <ele>28.354</ele>
        <time>1998-05-06T13:02:16Z</time>
      </trkpt>
      <trkpt lat="42.069978" lon="2.980958">
        <ele>28.409</ele>
        <time>1998-05-06T13:02:17Z</time>
      </trkpt>
      <trkpt lat="42.070020" lon="2.981130">
        <ele>29.108</ele>
        <time>1998-05-06T13:02:21Z</time>
      </trkpt>
      <trkpt lat="42.070145" lon="2.981257">
        <ele>29.833</ele>
        <time>1998-05-06T13:02:26Z</time>
      </trkpt>
      <trkpt lat="42.070248" lon="2.981285">
        <ele>30.296</ele>
        <time>1998-05-06T13:02:29Z</time>
      </trkpt>
      <trkpt lat="42.070668" lon="2.981369">
        <ele>32.368</ele>
        <time>1998-05-06T13:02:45Z</time>
      </trkpt>
      <trkpt lat="42.070685" lon="2.981371">
        <ele>32.398</ele>
        <time>1998-05-06T13:02:46Z</time>
      </trkpt>
      <trkpt lat="42.070794" lon="2.981329">
        <ele>32.441</ele>
        <time>1998-05-06T13:02:54Z</time>
      </trkpt>
      <trkpt lat="42.070831" lon="2.981328">
        <ele>32.670</ele>
        <time>1998-05-06T13:02:58Z</time>
      </trkpt>
      <trkpt lat="42.070880" lon="2.981317">
        <ele>32.550</ele>
        <time>1998-05-06T13:04:46Z</time>
      </trkpt>
      <trkpt lat="42.070915" lon="2.981319">
        <ele>32.544</ele>
        <time>1998-05-06T13:04:47Z</time>
      </trkpt>
      <trkpt lat="42.070949" lon="2.981326">
        <ele>32.576</ele>
        <time>1998-05-06T13:04:48Z</time>
      </trkpt>
      <trkpt lat="42.070991" lon="2.981323">
        <ele>32.590</ele>
        <time>1998-05-06T13:04:49Z</time>
      </trkpt>
      <trkpt lat="42.071029" lon="2.981328">
        <ele>32.619</ele>
        <time>1998-05-06T13:04:50Z</time>
      </trkpt>
      <trkpt lat="42.071063" lon="2.981330">
        <ele>32.608</ele>
        <time>1998-05-06T13:04:51Z</time>
      </trkpt>
      <trkpt lat="42.071196" lon="2.981337">
        <ele>32.659</ele>
        <time>1998-05-06T13:04:54Z</time>
      </trkpt>
      <trkpt lat="42.071314" lon="2.981338">
        <ele>32.662</ele>
        <time>1998-05-06T13:04:57Z</time>
      </trkpt>
      <trkpt lat="42.071493" lon="2.981341">
        <ele>32.764</ele>
        <time>1998-05-06T13:05:02Z</time>
      </trkpt>
      <trkpt lat="42.071901" lon="2.981370">
        <ele>32.974</ele>
        <time>1998-05-06T13:05:13Z</time>
      </trkpt>
      <trkpt lat="42.072309" lon="2.981342">
        <ele>33.277</ele>
        <time>1998-05-06T13:05:22Z</time>
      </trkpt>
      <trkpt lat="42.072471" lon="2.981339">
        <ele>32.726</ele>
        <time>1998-05-06T13:05:25Z</time>
      </trkpt>
      <trkpt lat="42.072926" lon="2.981384">
        <ele>30.456</ele>
        <time>1998-05-06T13:05:31Z</time>
      </trkpt>
      <trkpt lat="42.073178" lon="2.981419">
        <ele>30.150</ele>
        <time>1998-05-06T13:05:35Z</time>
      </trkpt>
      <trkpt lat="42.073314" lon="2.981415">
        <ele>30.155</ele>
        <time>1998-05-06T13:05:37Z</time>
      </trkpt>
      <trkpt lat="42.073438" lon="2.981413">
        <ele>29.707</ele>
        <time>1998-05-06T13:05:39Z</time>
      </trkpt>
      <trkpt lat="42.073604" lon="2.981426">
        <ele>29.217</ele>
        <time>1998-05-06T13:05:42Z</time>
      </trkpt>
      <trkpt lat="42.073798" lon="2.981443">
        <ele>29.208</ele>
        <time>1998-05-06T13:05:46Z</time>
      </trkpt>
      <trkpt lat="42.073869" lon="2.981434">
        <ele>29.237</ele>
        <time>1998-05-06T13:05:48Z</time>
      </trkpt>
      <trkpt lat="42.073939" lon="2.981405">
        <ele>29.160</ele>
        <time>1998-05-06T13:05:50Z</time>
      </trkpt>
      <trkpt lat="42.074036" lon="2.981362">
        <ele>28.972</ele>
        <time>1998-05-06T13:05:52Z</time>
      </trkpt>
      <trkpt lat="42.074245" lon="2.981273">
        <ele>28.622</ele>
        <time>1998-05-06T13:05:56Z</time>
      </trkpt>
      <trkpt lat="42.074384" lon="2.981236">
        <ele>28.485</ele>
        <time>1998-05-06T13:05:59Z</time>
      </trkpt>
      <trkpt lat="42.074467" lon="2.981245">
        <ele>28.614</ele>
        <time>1998-05-06T13:06:01Z</time>
      </trkpt>
      <trkpt lat="42.074644" lon="2.981273">
        <ele>29.364</ele>
        <time>1998-05-06T13:06:06Z</time>
      </trkpt>
      <trkpt lat="42.074792" lon="2.981271">
        <ele>29.618</ele>
        <time>1998-05-06T13:06:10Z</time>
      </trkpt>
      <trkpt lat="42.075073" lon="2.981276">
        <ele>29.816</ele>
        <time>1998-05-06T13:06:15Z</time>
      </trkpt>
      <trkpt lat="42.075275" lon="2.981240">
        <ele>29.976</ele>
        <time>1998-05-06T13:06:19Z</time>
      </trkpt>
      <trkpt lat="42.075516" lon="2.981282">
        <ele>31.913</ele>
        <time>1998-05-06T13:06:23Z</time>
      </trkpt>
      <trkpt lat="42.075612" lon="2.981267">
        <ele>32.508</ele>
        <time>1998-05-06T13:06:25Z</time>
      </trkpt>
      <trkpt lat="42.075735" lon="2.981241">
        <ele>33.253</ele>
        <time>1998-05-06T13:06:28Z</time>
      </trkpt>
      <trkpt lat="42.075825" lon="2.981218">
        <ele>33.736</ele>
        <time>1998-05-06T13:06:30Z</time>
      </trkpt>
      <trkpt lat="42.075954" lon="2.981181">
        <ele>33.958</ele>
        <time>1998-05-06T13:06:33Z</time>
      </trkpt>
      <trkpt lat="42.076006" lon="2.981172">
        <ele>34.128</ele>
        <time>1998-05-06T13:06:34Z</time>
      </trkpt>
      <trkpt lat="42.076163" lon="2.981144">
        <ele>34.361</ele>
        <time>1998-05-06T13:06:37Z</time>
      </trkpt>
      <trkpt lat="42.076317" lon="2.981100">
        <ele>34.050</ele>
        <time>1998-05-06T13:06:40Z</time>
      </trkpt>
      <trkpt lat="42.076618" lon="2.981033">
        <ele>34.930</ele>
        <time>1998-05-06T13:06:47Z</time>
      </trkpt>
      <trkpt lat="42.077140" lon="2.980794">
        <ele>33.974</ele>
        <time>1998-05-06T13:07:00Z</time>
      </trkpt>
      <trkpt lat="42.077313" lon="2.980745">
        <ele>32.724</ele>
        <time>1998-05-06T13:07:03Z</time>
      </trkpt>
      <trkpt lat="42.077373" lon="2.980741">
        <ele>32.504</ele>
        <time>1998-05-06T13:07:04Z</time>
      </trkpt>
      <trkpt lat="42.077555" lon="2.980695">
        <ele>31.514</ele>
        <time>1998-05-06T13:07:06Z</time>
      </trkpt>
      <trkpt lat="42.077645" lon="2.980669">
        <ele>31.208</ele>
        <time>1998-05-06T13:07:07Z</time>
      </trkpt>
      <trkpt lat="42.077788" lon="2.980602">
        <ele>30.514</ele>
        <time>1998-05-06T13:07:09Z</time>
      </trkpt>
      <trkpt lat="42.078072" lon="2.980449">
        <ele>28.617</ele>
        <time>1998-05-06T13:07:13Z</time>
      </trkpt>
      <trkpt lat="42.078231" lon="2.980374">
        <ele>28.259</ele>
        <time>1998-05-06T13:07:16Z</time>
      </trkpt>
      <trkpt lat="42.078289" lon="2.980346">
        <ele>27.849</ele>
        <time>1998-05-06T13:07:17Z</time>
      </trkpt>
      <trkpt lat="42.078471" lon="2.980328">
        <ele>27.562</ele>
        <time>1998-05-06T13:07:20Z</time>
      </trkpt>
      <trkpt lat="42.078613" lon="2.980370">
        <ele>28.041</ele>
        <time>1998-05-06T13:07:23Z</time>
      </trkpt>
      <trkpt lat="42.078833" lon="2.980471">
        <ele>28.281</ele>
        <time>1998-05-06T13:07:28Z</time>
      </trkpt>
      <trkpt lat="42.079070" lon="2.980592">
        <ele>26.915</ele>
        <time>1998-05-06T13:07:32Z</time>
      </trkpt>
      <trkpt lat="42.079238" lon="2.980648">
        <ele>26.426</ele>
        <time>1998-05-06T13:07:35Z</time>
      </trkpt>
      <trkpt lat="42.079460" lon="2.980735">
        <ele>26.247</ele>
        <time>1998-05-06T13:07:39Z</time>
      </trkpt>
      <trkpt lat="42.079679" lon="2.980813">
        <ele>26.011</ele>
        <time>1998-05-06T13:07:43Z</time>
      </trkpt>
      <trkpt lat="42.080140" lon="2.980932">
        <ele>24.008</ele>
        <time>1998-05-06T13:07:50Z</time>
      </trkpt>
      <trkpt lat="42.080241" lon="2.981022">
        <ele>24.034</ele>
        <time>1998-05-06T13:07:52Z</time>
      </trkpt>
      <trkpt lat="42.080283" lon="2.981099">
        <ele>24.037</ele>
        <time>1998-05-06T13:07:53Z</time>
      </trkpt>
      <trkpt lat="42.080306" lon="2.981197">
        <ele>23.849</ele>
        <time>1998-05-06T13:07:54Z</time>
      </trkpt>
      <trkpt lat="42.080246" lon="2.981609">
        <ele>23.329</ele>
        <time>1998-05-06T13:07:59Z</time>
      </trkpt>
      <trkpt lat="42.080168" lon="2.981936">
        <ele>22.842</ele>
        <time>1998-05-06T13:08:03Z</time>
      </trkpt>
      <trkpt lat="42.080090" lon="2.982168">
        <ele>22.571</ele>
        <time>1998-05-06T13:08:06Z</time>
      </trkpt>
      <trkpt lat="42.079962" lon="2.982492">
        <ele>22.361</ele>
        <time>1998-05-06T13:08:10Z</time>
      </trkpt>
      <trkpt lat="42.079743" lon="2.983040">
        <ele>22.975</ele>
        <time>1998-05-06T13:08:17Z</time>
      </trkpt>
      <trkpt lat="42.079630" lon="2.983266">
        <ele>22.696</ele>
        <time>1998-05-06T13:08:20Z</time>
      </trkpt>
      <trkpt lat="42.079345" lon="2.983878">
        <ele>22.431</ele>
        <time>1998-05-06T13:08:29Z</time>
      </trkpt>
      <trkpt lat="42.079329" lon="2.983945">
        <ele>22.524</ele>
        <time>1998-05-06T13:08:30Z</time>
      </trkpt>
      <trkpt lat="42.079280" lon="2.984513">
        <ele>23.208</ele>
        <time>1998-05-06T13:08:36Z</time>
      </trkpt>
      <trkpt lat="42.079255" lon="2.984779">
        <ele>23.271</ele>
        <time>1998-05-06T13:08:39Z</time>
      </trkpt>
      <trkpt lat="42.079181" lon="2.984910">
        <ele>23.344</ele>
        <time>1998-05-06T13:08:41Z</time>
      </trkpt>
      <trkpt lat="42.079090" lon="2.985032">
        <ele>22.796</ele>
        <time>1998-05-06T13:08:43Z</time>
      </trkpt>
      <trkpt lat="42.078992" lon="2.985126">
        <ele>22.556</ele>
        <time>1998-05-06T13:08:45Z</time>
      </trkpt>
      <trkpt lat="42.078655" lon="2.985382">
        <ele>23.039</ele>
        <time>1998-05-06T13:08:53Z</time>
      </trkpt>
      <trkpt lat="42.078270" lon="2.985919">
        <ele>22.898</ele>
        <time>1998-05-06T13:09:01Z</time>
      </trkpt>
      <trkpt lat="42.077935" lon="2.986552">
        <ele>22.498</ele>
        <time>1998-05-06T13:09:10Z</time>
      </trkpt>
      <trkpt lat="42.077790" lon="2.986852">
        <ele>22.332</ele>
        <time>1998-05-06T13:09:15Z</time>
      </trkpt>
      <trkpt lat="42.077538" lon="2.987499">
        <ele>21.949</ele>
        <time>1998-05-06T13:09:23Z</time>
      </trkpt>
      <trkpt lat="42.077513" lon="2.987576">
        <ele>21.702</ele>
        <time>1998-05-06T13:09:24Z</time>
      </trkpt>
      <trkpt lat="42.077481" lon="2.987650">
        <ele>21.622</ele>
        <time>1998-05-06T13:09:25Z</time>
      </trkpt>
      <trkpt lat="42.077451" lon="2.987817">
        <ele>21.608</ele>
        <time>1998-05-06T13:09:27Z</time>
      </trkpt>
      <trkpt lat="42.077427" lon="2.987883">
        <ele>21.916</ele>
        <time>1998-05-06T13:09:28Z</time>
      </trkpt>
      <trkpt lat="42.077373" lon="2.988394">
        <ele>23.079</ele>
        <time>1998-05-06T13:09:34Z</time>
      </trkpt>
      <trkpt lat="42.077314" lon="2.988571">
        <ele>22.621</ele>
        <time>1998-05-06T13:09:36Z</time>
      </trkpt>
      <trkpt lat="42.077141" lon="2.988896">
        <ele>21.881</ele>
        <time>1998-05-06T13:09:41Z</time>
      </trkpt>
      <trkpt lat="42.077042" lon="2.988976">
        <ele>22.244</ele>
        <time>1998-05-06T13:09:44Z</time>
      </trkpt>
      <trkpt lat="42.077016" lon="2.989016">
        <ele>22.153</ele>
        <time>1998-05-06T13:09:46Z</time>
      </trkpt>
      <trkpt lat="42.076598" lon="2.989546">
        <ele>23.723</ele>
        <time>1998-05-06T13:10:04Z</time>
      </trkpt>
      <trkpt lat="42.076425" lon="2.989652">
        <ele>24.737</ele>
        <time>1998-05-06T13:10:07Z</time>
      </trkpt>
      <trkpt lat="42.076374" lon="2.989684">
        <ele>25.113</ele>
        <time>1998-05-06T13:10:08Z</time>
      </trkpt>
      <trkpt lat="42.076053" lon="2.989936">
        <ele>26.743</ele>
        <time>1998-05-06T13:10:15Z</time>
      </trkpt>
      <trkpt lat="42.076118" lon="2.990120">
        <ele>26.507</ele>
        <time>1998-05-06T13:10:20Z</time>
      </trkpt>
      <trkpt lat="42.076170" lon="2.990324">
        <ele>25.508</ele>
        <time>1998-05-06T13:10:23Z</time>
      </trkpt>
      <trkpt lat="42.076234" lon="2.990408">
        <ele>25.053</ele>
        <time>1998-05-06T13:10:25Z</time>
      </trkpt>
      <trkpt lat="42.076303" lon="2.990473">
        <ele>24.996</ele>
        <time>1998-05-06T13:10:27Z</time>
      </trkpt>
      <trkpt lat="42.076379" lon="2.990530">
        <ele>25.088</ele>
        <time>1998-05-06T13:10:29Z</time>
      </trkpt>
      <trkpt lat="42.076453" lon="2.990605">
        <ele>23.348</ele>
        <time>1998-05-06T13:10:31Z</time>
      </trkpt>
      <trkpt lat="42.076469" lon="2.990661">
        <ele>22.311</ele>
        <time>1998-05-06T13:10:33Z</time>
      </trkpt>
      <trkpt lat="42.076467" lon="2.990697">
        <ele>21.840</ele>
        <time>1998-05-06T13:10:34Z</time>
      </trkpt>
      <trkpt lat="42.076464" lon="2.990757">
        <ele>20.990</ele>
        <time>1998-05-06T13:10:36Z</time>
      </trkpt>
      <trkpt lat="42.076486" lon="2.990799">
        <ele>20.114</ele>
        <time>1998-05-06T13:10:38Z</time>
      </trkpt>
      <trkpt lat="42.076560" lon="2.990895">
        <ele>19.152</ele>
        <time>1998-05-06T13:10:42Z</time>
      </trkpt>
      <trkpt lat="42.076663" lon="2.991002">
        <ele>18.453</ele>
        <time>1998-05-06T13:10:46Z</time>
      </trkpt>
      <trkpt lat="42.076803" lon="2.991144">
        <ele>18.408</ele>
        <time>1998-05-06T13:10:52Z</time>
      </trkpt>
      <trkpt lat="42.076896" lon="2.991222">
        <ele>18.408</ele>
        <time>1998-05-06T13:10:56Z</time>
      </trkpt>
      <trkpt lat="42.077068" lon="2.991404">
        <ele>19.047</ele>
        <time>1998-05-06T13:11:02Z</time>
      </trkpt>
      <trkpt lat="42.077139" lon="2.991479">
        <ele>20.250</ele>
        <time>1998-05-06T13:11:05Z</time>
      </trkpt>
      <trkpt lat="42.077282" lon="2.991587">
        <ele>22.912</ele>
        <time>1998-05-06T13:11:12Z</time>
      </trkpt>
      <trkpt lat="42.077296" lon="2.991633">
        <ele>23.432</ele>
        <time>1998-05-06T13:11:14Z</time>
      </trkpt>
      <trkpt lat="42.077297" lon="2.991861">
        <ele>23.765</ele>
        <time>1998-05-06T13:11:24Z</time>
      </trkpt>
      <trkpt lat="42.077313" lon="2.991810">
        <ele>23.714</ele>
        <time>1998-05-06T13:15:00Z</time>
      </trkpt>
      <trkpt lat="42.077313" lon="2.991824">
        <ele>23.764</ele>
        <time>1998-05-06T13:15:01Z</time>
      </trkpt>
      <trkpt lat="42.077313" lon="2.991885">
        <ele>23.748</ele>
        <time>1998-05-06T13:15:08Z</time>
      </trkpt>
      <trkpt lat="42.077314" lon="2.991885">
        <ele>23.721</ele>
        <time>1998-05-06T13:15:10Z</time>
      </trkpt>
      <trkpt lat="42.077318" lon="2.991895">
        <ele>23.741</ele>
        <time>1998-05-06T13:15:11Z</time>
      </trkpt>
      <trkpt lat="42.077301" lon="2.991966">
        <ele>23.705</ele>
        <time>1998-05-06T13:15:14Z</time>
      </trkpt>
      <trkpt lat="42.077271" lon="2.992056">
        <ele>23.508</ele>
        <time>1998-05-06T13:15:17Z</time>
      </trkpt>
      <trkpt lat="42.077259" lon="2.992092">
        <ele>23.414</ele>
        <time>1998-05-06T13:15:18Z</time>
      </trkpt>
      <trkpt lat="42.077259" lon="2.992171">
        <ele>23.257</ele>
        <time>1998-05-06T13:15:20Z</time>
      </trkpt>
      <trkpt lat="42.077324" lon="2.992266">
        <ele>23.059</ele>
        <time>1998-05-06T13:15:23Z</time>
      </trkpt>
      <trkpt lat="42.077381" lon="2.992323">
        <ele>23.039</ele>
        <time>1998-05-06T13:15:25Z</time>
      </trkpt>
      <trkpt lat="42.077474" lon="2.992409">
        <ele>23.042</ele>
        <time>1998-05-06T13:15:28Z</time>
      </trkpt>
      <trkpt lat="42.077585" lon="2.992513">
        <ele>23.011</ele>
        <time>1998-05-06T13:15:32Z</time>
      </trkpt>
      <trkpt lat="42.077656" lon="2.992566">
        <ele>23.051</ele>
        <time>1998-05-06T13:15:35Z</time>
      </trkpt>
      <trkpt lat="42.077711" lon="2.992648">
        <ele>23.035</ele>
        <time>1998-05-06T13:15:38Z</time>
      </trkpt>
      <trkpt lat="42.077708" lon="2.992706">
        <ele>23.085</ele>
        <time>1998-05-06T13:15:40Z</time>
      </trkpt>
      <trkpt lat="42.077641" lon="2.992762">
        <ele>23.089</ele>
        <time>1998-05-06T13:15:43Z</time>
      </trkpt>
      <trkpt lat="42.077361" lon="2.992990">
        <ele>22.617</ele>
        <time>1998-05-06T13:15:53Z</time>
      </trkpt>
      <trkpt lat="42.076941" lon="2.993378">
        <ele>22.808</ele>
        <time>1998-05-06T13:16:06Z</time>
      </trkpt>
      <trkpt lat="42.076480" lon="2.993770">
        <ele>22.820</ele>
        <time>1998-05-06T13:16:20Z</time>
      </trkpt>
      <trkpt lat="42.076240" lon="2.994077">
        <ele>21.843</ele>
        <time>1998-05-06T13:16:29Z</time>
      </trkpt>
      <trkpt lat="42.076205" lon="2.994193">
        <ele>22.025</ele>
        <time>1998-05-06T13:16:31Z</time>
      </trkpt>
      <trkpt lat="42.076166" lon="2.994326">
        <ele>22.085</ele>
        <time>1998-05-06T13:16:33Z</time>
      </trkpt>
      <trkpt lat="42.076030" lon="2.994852">
        <ele>22.328</ele>
        <time>1998-05-06T13:16:40Z</time>
      </trkpt>
      <trkpt lat="42.076013" lon="2.994928">
        <ele>22.257</ele>
        <time>1998-05-06T13:16:41Z</time>
      </trkpt>
      <trkpt lat="42.075983" lon="2.995075">
        <ele>22.287</ele>
        <time>1998-05-06T13:16:43Z</time>
      </trkpt>
      <trkpt lat="42.075927" lon="2.995275">
        <ele>22.341</ele>
        <time>1998-05-06T13:16:46Z</time>
      </trkpt>
      <trkpt lat="42.075842" lon="2.995539">
        <ele>22.037</ele>
        <time>1998-05-06T13:16:50Z</time>
      </trkpt>
      <trkpt lat="42.075795" lon="2.995681">
        <ele>21.949</ele>
        <time>1998-05-06T13:16:52Z</time>
      </trkpt>
      <trkpt lat="42.075744" lon="2.995825">
        <ele>22.013</ele>
        <time>1998-05-06T13:16:54Z</time>
      </trkpt>
      <trkpt lat="42.075548" lon="2.996338">
        <ele>22.008</ele>
        <time>1998-05-06T13:17:01Z</time>
      </trkpt>
      <trkpt lat="42.075272" lon="2.997018">
        <ele>21.995</ele>
        <time>1998-05-06T13:17:11Z</time>
      </trkpt>
      <trkpt lat="42.075191" lon="2.997193">
        <ele>19.718</ele>
        <time>1998-05-06T13:17:14Z</time>
      </trkpt>
      <trkpt lat="42.075122" lon="2.997316">
        <ele>19.230</ele>
        <time>1998-05-06T13:17:16Z</time>
      </trkpt>
      <trkpt lat="42.075003" lon="2.997516">
        <ele>18.940</ele>
        <time>1998-05-06T13:17:19Z</time>
      </trkpt>
      <trkpt lat="42.074914" lon="2.997650">
        <ele>18.693</ele>
        <time>1998-05-06T13:17:21Z</time>
      </trkpt>
      <trkpt lat="42.074823" lon="2.997792">
        <ele>18.792</ele>
        <time>1998-05-06T13:17:23Z</time>
      </trkpt>
      <trkpt lat="42.074441" lon="2.998418">
        <ele>18.752</ele>
        <time>1998-05-06T13:17:32Z</time>
      </trkpt>
      <trkpt lat="42.074112" lon="2.999055">
        <ele>18.086</ele>
        <time>1998-05-06T13:17:41Z</time>
      </trkpt>
      <trkpt lat="42.074078" lon="2.999128">
        <ele>17.819</ele>
        <time>1998-05-06T13:17:42Z</time>
      </trkpt>
      <trkpt lat="42.073737" lon="2.999769">
        <ele>17.509</ele>
        <time>1998-05-06T13:17:51Z</time>
      </trkpt>
      <trkpt lat="42.073540" lon="3.000087">
        <ele>18.319</ele>
        <time>1998-05-06T13:17:56Z</time>
      </trkpt>
      <trkpt lat="42.073421" lon="3.000331">
        <ele>19.308</ele>
        <time>1998-05-06T13:18:00Z</time>
      </trkpt>
      <trkpt lat="42.073362" lon="3.000421">
        <ele>20.493</ele>
        <time>1998-05-06T13:18:02Z</time>
      </trkpt>
      <trkpt lat="42.073332" lon="3.000465">
        <ele>21.086</ele>
        <time>1998-05-06T13:18:03Z</time>
      </trkpt>
      <trkpt lat="42.073299" lon="3.000512">
        <ele>21.638</ele>
        <time>1998-05-06T13:18:04Z</time>
      </trkpt>
      <trkpt lat="42.073260" lon="3.000558">
        <ele>22.018</ele>
        <time>1998-05-06T13:18:05Z</time>
      </trkpt>
      <trkpt lat="42.073184" lon="3.000647">
        <ele>21.711</ele>
        <time>1998-05-06T13:18:07Z</time>
      </trkpt>
      <trkpt lat="42.073147" lon="3.000686">
        <ele>21.560</ele>
        <time>1998-05-06T13:18:08Z</time>
      </trkpt>
      <trkpt lat="42.073030" lon="3.000799">
        <ele>21.270</ele>
        <time>1998-05-06T13:18:11Z</time>
      </trkpt>
      <trkpt lat="42.072989" lon="3.000839">
        <ele>21.274</ele>
        <time>1998-05-06T13:18:12Z</time>
      </trkpt>
      <trkpt lat="42.072779" lon="3.001116">
        <ele>22.067</ele>
        <time>1998-05-06T13:18:18Z</time>
      </trkpt>
      <trkpt lat="42.072387" lon="3.001506">
        <ele>21.881</ele>
        <time>1998-05-06T13:18:28Z</time>
      </trkpt>
      <trkpt lat="42.072346" lon="3.001606">
        <ele>21.719</ele>
        <time>1998-05-06T13:18:30Z</time>
      </trkpt>
      <trkpt lat="42.072344" lon="3.001742">
        <ele>21.608</ele>
        <time>1998-05-06T13:18:32Z</time>
      </trkpt>
      <trkpt lat="42.072382" lon="3.002369">
        <ele>21.268</ele>
        <time>1998-05-06T13:18:40Z</time>
      </trkpt>
      <trkpt lat="42.072397" lon="3.002583">
        <ele>21.091</ele>
        <time>1998-05-06T13:18:43Z</time>
      </trkpt>
      <trkpt lat="42.072418" lon="3.002815">
        <ele>21.023</ele>
        <time>1998-05-06T13:18:46Z</time>
      </trkpt>
      <trkpt lat="42.072447" lon="3.003073">
        <ele>21.023</ele>
        <time>1998-05-06T13:18:49Z</time>
      </trkpt>
      <trkpt lat="42.072476" lon="3.003390">
        <ele>21.156</ele>
        <time>1998-05-06T13:18:53Z</time>
      </trkpt>
      <trkpt lat="42.072544" lon="3.004148">
        <ele>22.055</ele>
        <time>1998-05-06T13:19:03Z</time>
      </trkpt>
      <trkpt lat="42.072609" lon="3.004907">
        <ele>22.095</ele>
        <time>1998-05-06T13:19:13Z</time>
      </trkpt>
      <trkpt lat="42.072654" lon="3.005453">
        <ele>21.449</ele>
        <time>1998-05-06T13:19:20Z</time>
      </trkpt>
      <trkpt lat="42.072695" lon="3.005988">
        <ele>21.758</ele>
        <time>1998-05-06T13:19:27Z</time>
      </trkpt>
      <trkpt lat="42.072720" lon="3.006224">
        <ele>21.752</ele>
        <time>1998-05-06T13:19:30Z</time>
      </trkpt>
      <trkpt lat="42.072747" lon="3.006541">
        <ele>21.117</ele>
        <time>1998-05-06T13:19:34Z</time>
      </trkpt>
      <trkpt lat="42.072809" lon="3.007152">
        <ele>21.708</ele>
        <time>1998-05-06T13:19:42Z</time>
      </trkpt>
      <trkpt lat="42.072847" lon="3.007351">
        <ele>21.487</ele>
        <time>1998-05-06T13:19:45Z</time>
      </trkpt>
      <trkpt lat="42.072853" lon="3.007470">
        <ele>21.160</ele>
        <time>1998-05-06T13:19:47Z</time>
      </trkpt>
      <trkpt lat="42.072851" lon="3.007534">
        <ele>21.032</ele>
        <time>1998-05-06T13:19:48Z</time>
      </trkpt>
      <trkpt lat="42.072874" lon="3.007847">
        <ele>21.392</ele>
        <time>1998-05-06T13:19:53Z</time>
      </trkpt>
      <trkpt lat="42.072902" lon="3.008096">
        <ele>21.455</ele>
        <time>1998-05-06T13:19:57Z</time>
      </trkpt>
      <trkpt lat="42.072920" lon="3.008413">
        <ele>21.584</ele>
        <time>1998-05-06T13:20:02Z</time>
      </trkpt>
      <trkpt lat="42.072906" lon="3.008722">
        <ele>21.734</ele>
        <time>1998-05-06T13:20:07Z</time>
      </trkpt>
      <trkpt lat="42.072962" lon="3.009344">
        <ele>21.988</ele>
        <time>1998-05-06T13:20:17Z</time>
      </trkpt>
      <trkpt lat="42.072982" lon="3.009503">
        <ele>22.642</ele>
        <time>1998-05-06T13:20:20Z</time>
      </trkpt>
      <trkpt lat="42.072984" lon="3.009548">
        <ele>23.022</ele>
        <time>1998-05-06T13:20:21Z</time>
      </trkpt>
      <trkpt lat="42.072972" lon="3.009625">
        <ele>23.814</ele>
        <time>1998-05-06T13:20:23Z</time>
      </trkpt>
      <trkpt lat="42.072810" lon="3.009653">
        <ele>23.608</ele>
        <time>1998-05-06T13:20:28Z</time>
      </trkpt>
      <trkpt lat="42.072637" lon="3.009697">
        <ele>24.286</ele>
        <time>1998-05-06T13:20:33Z</time>
      </trkpt>
      <trkpt lat="42.072452" lon="3.009730">
        <ele>25.319</ele>
        <time>1998-05-06T13:20:38Z</time>
      </trkpt>
      <trkpt lat="42.072126" lon="3.009778">
        <ele>27.131</ele>
        <time>1998-05-06T13:20:47Z</time>
      </trkpt>
      <trkpt lat="42.071806" lon="3.009847">
        <ele>29.521</ele>
        <time>1998-05-06T13:20:56Z</time>
      </trkpt>
      <trkpt lat="42.071573" lon="3.009888">
        <ele>30.864</ele>
        <time>1998-05-06T13:21:03Z</time>
      </trkpt>
      <trkpt lat="42.071225" lon="3.009965">
        <ele>31.483</ele>
        <time>1998-05-06T13:21:12Z</time>
      </trkpt>
      <trkpt lat="42.071022" lon="3.009990">
        <ele>31.813</ele>
        <time>1998-05-06T13:21:17Z</time>
      </trkpt>
      <trkpt lat="42.070941" lon="3.010014">
        <ele>32.167</ele>
        <time>1998-05-06T13:21:19Z</time>
      </trkpt>
      <trkpt lat="42.070754" lon="3.010204">
        <ele>33.396</ele>
        <time>1998-05-06T13:21:25Z</time>
      </trkpt>
      <trkpt lat="42.070597" lon="3.010818">
        <ele>33.131</ele>
        <time>1998-05-06T13:21:36Z</time>
      </trkpt>
      <trkpt lat="42.070535" lon="3.011094">
        <ele>32.924</ele>
        <time>1998-05-06T13:21:40Z</time>
      </trkpt>
      <trkpt lat="42.070490" lon="3.011318">
        <ele>32.808</ele>
        <time>1998-05-06T13:21:43Z</time>
      </trkpt>
      <trkpt lat="42.070448" lon="3.011543">
        <ele>32.651</ele>
        <time>1998-05-06T13:21:46Z</time>
      </trkpt>
      <trkpt lat="42.070409" lon="3.011780">
        <ele>32.724</ele>
        <time>1998-05-06T13:21:49Z</time>
      </trkpt>
      <trkpt lat="42.070387" lon="3.011934">
        <ele>32.886</ele>
        <time>1998-05-06T13:21:51Z</time>
      </trkpt>
      <trkpt lat="42.070272" lon="3.012483">
        <ele>32.986</ele>
        <time>1998-05-06T13:21:58Z</time>
      </trkpt>
      <trkpt lat="42.070197" lon="3.012835">
        <ele>32.259</ele>
        <time>1998-05-06T13:22:02Z</time>
      </trkpt>
      <trkpt lat="42.070143" lon="3.013132">
        <ele>30.628</ele>
        <time>1998-05-06T13:22:05Z</time>
      </trkpt>
      <trkpt lat="42.070121" lon="3.013232">
        <ele>30.048</ele>
        <time>1998-05-06T13:22:06Z</time>
      </trkpt>
      <trkpt lat="42.070092" lon="3.013328">
        <ele>29.452</ele>
        <time>1998-05-06T13:22:07Z</time>
      </trkpt>
      <trkpt lat="42.070006" lon="3.013500">
        <ele>28.464</ele>
        <time>1998-05-06T13:22:09Z</time>
      </trkpt>
      <trkpt lat="42.069956" lon="3.013583">
        <ele>27.806</ele>
        <time>1998-05-06T13:22:10Z</time>
      </trkpt>
      <trkpt lat="42.069906" lon="3.013674">
        <ele>26.916</ele>
        <time>1998-05-06T13:22:11Z</time>
      </trkpt>
      <trkpt lat="42.069852" lon="3.013766">
        <ele>26.108</ele>
        <time>1998-05-06T13:22:12Z</time>
      </trkpt>
      <trkpt lat="42.069790" lon="3.013853">
        <ele>25.418</ele>
        <time>1998-05-06T13:22:13Z</time>
      </trkpt>
      <trkpt lat="42.069721" lon="3.013934">
        <ele>24.871</ele>
        <time>1998-05-06T13:22:14Z</time>
      </trkpt>
      <trkpt lat="42.069574" lon="3.014098">
        <ele>24.253</ele>
        <time>1998-05-06T13:22:16Z</time>
      </trkpt>
      <trkpt lat="42.069282" lon="3.014416">
        <ele>23.713</ele>
        <time>1998-05-06T13:22:20Z</time>
      </trkpt>
      <trkpt lat="42.069083" lon="3.014658">
        <ele>23.266</ele>
        <time>1998-05-06T13:22:23Z</time>
      </trkpt>
      <trkpt lat="42.069022" lon="3.014733">
        <ele>23.035</ele>
        <time>1998-05-06T13:22:24Z</time>
      </trkpt>
      <trkpt lat="42.068709" lon="3.015065">
        <ele>22.975</ele>
        <time>1998-05-06T13:22:29Z</time>
      </trkpt>
      <trkpt lat="42.068327" lon="3.015446">
        <ele>21.859</ele>
        <time>1998-05-06T13:22:35Z</time>
      </trkpt>
      <trkpt lat="42.068210" lon="3.015565">
        <ele>21.831</ele>
        <time>1998-05-06T13:22:37Z</time>
      </trkpt>
      <trkpt lat="42.068087" lon="3.015667">
        <ele>22.061</ele>
        <time>1998-05-06T13:22:39Z</time>
      </trkpt>
      <trkpt lat="42.067527" lon="3.016023">
        <ele>21.307</ele>
        <time>1998-05-06T13:22:47Z</time>
      </trkpt>
      <trkpt lat="42.067205" lon="3.016196">
        <ele>20.008</ele>
        <time>1998-05-06T13:22:51Z</time>
      </trkpt>
      <trkpt lat="42.066796" lon="3.016456">
        <ele>18.915</ele>
        <time>1998-05-06T13:22:56Z</time>
      </trkpt>
      <trkpt lat="42.066716" lon="3.016509">
        <ele>18.958</ele>
        <time>1998-05-06T13:22:57Z</time>
      </trkpt>
      <trkpt lat="42.066636" lon="3.016564">
        <ele>19.090</ele>
        <time>1998-05-06T13:22:58Z</time>
      </trkpt>
      <trkpt lat="42.066482" lon="3.016684">
        <ele>18.980</ele>
        <time>1998-05-06T13:23:00Z</time>
      </trkpt>
      <trkpt lat="42.066331" lon="3.016804">
        <ele>18.833</ele>
        <time>1998-05-06T13:23:02Z</time>
      </trkpt>
      <trkpt lat="42.066184" lon="3.016922">
        <ele>19.542</ele>
        <time>1998-05-06T13:23:04Z</time>
      </trkpt>
      <trkpt lat="42.065969" lon="3.017106">
        <ele>20.482</ele>
        <time>1998-05-06T13:23:07Z</time>
      </trkpt>
      <trkpt lat="42.065677" lon="3.017329">
        <ele>21.036</ele>
        <time>1998-05-06T13:23:11Z</time>
      </trkpt>
      <trkpt lat="42.065536" lon="3.017428">
        <ele>21.744</ele>
        <time>1998-05-06T13:23:13Z</time>
      </trkpt>
      <trkpt lat="42.065400" lon="3.017521">
        <ele>22.005</ele>
        <time>1998-05-06T13:23:15Z</time>
      </trkpt>
      <trkpt lat="42.065334" lon="3.017567">
        <ele>22.215</ele>
        <time>1998-05-06T13:23:16Z</time>
      </trkpt>
      <trkpt lat="42.065084" lon="3.017747">
        <ele>22.908</ele>
        <time>1998-05-06T13:23:20Z</time>
      </trkpt>
      <trkpt lat="42.064859" lon="3.017932">
        <ele>22.856</ele>
        <time>1998-05-06T13:23:24Z</time>
      </trkpt>
      <trkpt lat="42.064754" lon="3.018026">
        <ele>22.919</ele>
        <time>1998-05-06T13:23:26Z</time>
      </trkpt>
      <trkpt lat="42.064707" lon="3.018079">
        <ele>22.891</ele>
        <time>1998-05-06T13:23:27Z</time>
      </trkpt>
      <trkpt lat="42.064632" lon="3.018210">
        <ele>22.261</ele>
        <time>1998-05-06T13:23:29Z</time>
      </trkpt>
      <trkpt lat="42.064460" lon="3.018935">
        <ele>21.044</ele>
        <time>1998-05-06T13:23:38Z</time>
      </trkpt>
      <trkpt lat="42.064345" lon="3.019382">
        <ele>20.563</ele>
        <time>1998-05-06T13:23:43Z</time>
      </trkpt>
      <trkpt lat="42.064306" lon="3.019465">
        <ele>20.423</ele>
        <time>1998-05-06T13:23:44Z</time>
      </trkpt>
      <trkpt lat="42.064204" lon="3.019611">
        <ele>19.787</ele>
        <time>1998-05-06T13:23:46Z</time>
      </trkpt>
      <trkpt lat="42.064030" lon="3.019788">
        <ele>19.665</ele>
        <time>1998-05-06T13:23:49Z</time>
      </trkpt>
      <trkpt lat="42.063922" lon="3.019902">
        <ele>19.568</ele>
        <time>1998-05-06T13:23:51Z</time>
      </trkpt>
      <trkpt lat="42.063812" lon="3.020020">
        <ele>19.214</ele>
        <time>1998-05-06T13:23:53Z</time>
      </trkpt>
      <trkpt lat="42.063675" lon="3.020237">
        <ele>18.908</ele>
        <time>1998-05-06T13:23:56Z</time>
      </trkpt>
      <trkpt lat="42.063485" lon="3.020733">
        <ele>18.218</ele>
        <time>1998-05-06T13:24:02Z</time>
      </trkpt>
      <trkpt lat="42.063397" lon="3.020975">
        <ele>18.081</ele>
        <time>1998-05-06T13:24:05Z</time>
      </trkpt>
      <trkpt lat="42.063301" lon="3.021199">
        <ele>18.053</ele>
        <time>1998-05-06T13:24:08Z</time>
      </trkpt>
      <trkpt lat="42.063209" lon="3.021327">
        <ele>18.093</ele>
        <time>1998-05-06T13:24:10Z</time>
      </trkpt>
      <trkpt lat="42.063087" lon="3.021393">
        <ele>18.076</ele>
        <time>1998-05-06T13:24:12Z</time>
      </trkpt>
      <trkpt lat="42.062513" lon="3.021357">
        <ele>18.055</ele>
        <time>1998-05-06T13:24:21Z</time>
      </trkpt>
      <trkpt lat="42.062339" lon="3.021335">
        <ele>18.015</ele>
        <time>1998-05-06T13:24:24Z</time>
      </trkpt>
      <trkpt lat="42.062214" lon="3.021367">
        <ele>18.029</ele>
        <time>1998-05-06T13:24:26Z</time>
      </trkpt>
      <trkpt lat="42.062160" lon="3.021404">
        <ele>18.013</ele>
        <time>1998-05-06T13:24:27Z</time>
      </trkpt>
      <trkpt lat="42.062116" lon="3.021470">
        <ele>18.043</ele>
        <time>1998-05-06T13:24:28Z</time>
      </trkpt>
      <trkpt lat="42.062077" lon="3.021624">
        <ele>18.007</ele>
        <time>1998-05-06T13:24:30Z</time>
      </trkpt>
      <trkpt lat="42.062088" lon="3.021806">
        <ele>18.008</ele>
        <time>1998-05-06T13:24:32Z</time>
      </trkpt>
      <trkpt lat="42.062107" lon="3.021985">
        <ele>18.043</ele>
        <time>1998-05-06T13:24:34Z</time>
      </trkpt>
      <trkpt lat="42.062087" lon="3.022792">
        <ele>17.566</ele>
        <time>1998-05-06T13:24:43Z</time>
      </trkpt>
      <trkpt lat="42.062095" lon="3.022964">
        <ele>17.568</ele>
        <time>1998-05-06T13:24:45Z</time>
      </trkpt>
      <trkpt lat="42.062114" lon="3.023306">
        <ele>17.678</ele>
        <time>1998-05-06T13:24:49Z</time>
      </trkpt>
      <trkpt lat="42.062128" lon="3.023559">
        <ele>17.741</ele>
        <time>1998-05-06T13:24:52Z</time>
      </trkpt>
      <trkpt lat="42.061991" lon="3.024310">
        <ele>17.580</ele>
        <time>1998-05-06T13:25:01Z</time>
      </trkpt>
      <trkpt lat="42.061805" lon="3.025042">
        <ele>17.520</ele>
        <time>1998-05-06T13:25:10Z</time>
      </trkpt>
      <trkpt lat="42.061607" lon="3.025798">
        <ele>17.044</ele>
        <time>1998-05-06T13:25:19Z</time>
      </trkpt>
      <trkpt lat="42.061527" lon="3.026143">
        <ele>17.098</ele>
        <time>1998-05-06T13:25:23Z</time>
      </trkpt>
      <trkpt lat="42.061359" lon="3.026840">
        <ele>17.615</ele>
        <time>1998-05-06T13:25:31Z</time>
      </trkpt>
      <trkpt lat="42.061393" lon="3.027376">
        <ele>17.526</ele>
        <time>1998-05-06T13:25:37Z</time>
      </trkpt>
      <trkpt lat="42.061509" lon="3.028085">
        <ele>17.008</ele>
        <time>1998-05-06T13:25:45Z</time>
      </trkpt>
      <trkpt lat="42.061624" lon="3.028797">
        <ele>17.061</ele>
        <time>1998-05-06T13:25:53Z</time>
      </trkpt>
      <trkpt lat="42.061690" lon="3.029542">
        <ele>17.064</ele>
        <time>1998-05-06T13:26:01Z</time>
      </trkpt>
      <trkpt lat="42.061712" lon="3.030301">
        <ele>17.056</ele>
        <time>1998-05-06T13:26:09Z</time>
      </trkpt>
      <trkpt lat="42.061751" lon="3.031047">
        <ele>16.896</ele>
        <time>1998-05-06T13:26:17Z</time>
      </trkpt>
      <trkpt lat="42.061772" lon="3.031571">
        <ele>16.839</ele>
        <time>1998-05-06T13:26:23Z</time>
      </trkpt>
      <trkpt lat="42.061764" lon="3.032301">
        <ele>16.458</ele>
        <time>1998-05-06T13:26:31Z</time>
      </trkpt>
      <trkpt lat="42.061695" lon="3.033104">
        <ele>16.328</ele>
        <time>1998-05-06T13:26:40Z</time>
      </trkpt>
      <trkpt lat="42.061675" lon="3.033279">
        <ele>16.832</ele>
        <time>1998-05-06T13:26:42Z</time>
      </trkpt>
      <trkpt lat="42.061670" lon="3.033451">
        <ele>17.043</ele>
        <time>1998-05-06T13:26:44Z</time>
      </trkpt>
      <trkpt lat="42.061680" lon="3.033614">
        <ele>17.064</ele>
        <time>1998-05-06T13:26:46Z</time>
      </trkpt>
      <trkpt lat="42.061693" lon="3.033760">
        <ele>16.510</ele>
        <time>1998-05-06T13:26:48Z</time>
      </trkpt>
      <trkpt lat="42.061716" lon="3.033951">
        <ele>16.208</ele>
        <time>1998-05-06T13:26:51Z</time>
      </trkpt>
      <trkpt lat="42.061765" lon="3.034715">
        <ele>16.036</ele>
        <time>1998-05-06T13:27:01Z</time>
      </trkpt>
      <trkpt lat="42.061687" lon="3.035480">
        <ele>16.079</ele>
        <time>1998-05-06T13:27:10Z</time>
      </trkpt>
      <trkpt lat="42.061651" lon="3.035725">
        <ele>16.041</ele>
        <time>1998-05-06T13:27:13Z</time>
      </trkpt>
      <trkpt lat="42.061631" lon="3.035874">
        <ele>16.021</ele>
        <time>1998-05-06T13:27:15Z</time>
      </trkpt>
      <trkpt lat="42.061600" lon="3.036007">
        <ele>16.014</ele>
        <time>1998-05-06T13:27:17Z</time>
      </trkpt>
      <trkpt lat="42.061558" lon="3.036194">
        <ele>16.243</ele>
        <time>1998-05-06T13:27:20Z</time>
      </trkpt>
      <trkpt lat="42.061274" lon="3.036814">
        <ele>16.093</ele>
        <time>1998-05-06T13:27:31Z</time>
      </trkpt>
      <trkpt lat="42.061158" lon="3.036969">
        <ele>16.087</ele>
        <time>1998-05-06T13:27:34Z</time>
      </trkpt>
      <trkpt lat="42.060847" lon="3.037318">
        <ele>15.494</ele>
        <time>1998-05-06T13:27:41Z</time>
      </trkpt>
      <trkpt lat="42.060805" lon="3.037376">
        <ele>15.557</ele>
        <time>1998-05-06T13:27:42Z</time>
      </trkpt>
      <trkpt lat="42.060770" lon="3.037442">
        <ele>15.622</ele>
        <time>1998-05-06T13:27:43Z</time>
      </trkpt>
      <trkpt lat="42.060741" lon="3.037517">
        <ele>15.708</ele>
        <time>1998-05-06T13:27:44Z</time>
      </trkpt>
      <trkpt lat="42.060707" lon="3.037687">
        <ele>15.511</ele>
        <time>1998-05-06T13:27:46Z</time>
      </trkpt>
      <trkpt lat="42.060698" lon="3.037864">
        <ele>15.894</ele>
        <time>1998-05-06T13:27:48Z</time>
      </trkpt>
      <trkpt lat="42.060693" lon="3.038109">
        <ele>16.596</ele>
        <time>1998-05-06T13:27:51Z</time>
      </trkpt>
      <trkpt lat="42.060658" lon="3.038224">
        <ele>16.546</ele>
        <time>1998-05-06T13:27:53Z</time>
      </trkpt>
      <trkpt lat="42.060627" lon="3.038257">
        <ele>16.629</ele>
        <time>1998-05-06T13:27:54Z</time>
      </trkpt>
      <trkpt lat="42.060465" lon="3.038312">
        <ele>17.298</ele>
        <time>1998-05-06T13:27:59Z</time>
      </trkpt>
      <trkpt lat="42.060361" lon="3.038342">
        <ele>17.658</ele>
        <time>1998-05-06T13:28:02Z</time>
      </trkpt>
      <trkpt lat="42.059931" lon="3.038547">
        <ele>16.972</ele>
        <time>1998-05-06T13:28:13Z</time>
      </trkpt>
      <trkpt lat="42.059581" lon="3.038694">
        <ele>16.844</ele>
        <time>1998-05-06T13:28:22Z</time>
      </trkpt>
      <trkpt lat="42.059064" lon="3.038933">
        <ele>16.805</ele>
        <time>1998-05-06T13:28:34Z</time>
      </trkpt>
      <trkpt lat="42.058764" lon="3.039036">
        <ele>16.515</ele>
        <time>1998-05-06T13:28:40Z</time>
      </trkpt>
      <trkpt lat="42.058461" lon="3.039190">
        <ele>16.908</ele>
        <time>1998-05-06T13:28:46Z</time>
      </trkpt>
      <trkpt lat="42.058380" lon="3.039292">
        <ele>16.656</ele>
        <time>1998-05-06T13:28:48Z</time>
      </trkpt>
      <trkpt lat="42.058327" lon="3.039438">
        <ele>16.989</ele>
        <time>1998-05-06T13:28:50Z</time>
      </trkpt>
      <trkpt lat="42.058283" lon="3.039778">
        <ele>16.721</ele>
        <time>1998-05-06T13:28:54Z</time>
      </trkpt>
      <trkpt lat="42.058215" lon="3.040185">
        <ele>16.231</ele>
        <time>1998-05-06T13:28:59Z</time>
      </trkpt>
      <trkpt lat="42.058164" lon="3.040603">
        <ele>16.574</ele>
        <time>1998-05-06T13:29:04Z</time>
      </trkpt>
      <trkpt lat="42.058148" lon="3.041347">
        <ele>16.343</ele>
        <time>1998-05-06T13:29:13Z</time>
      </trkpt>
      <trkpt lat="42.058159" lon="3.041614">
        <ele>15.773</ele>
        <time>1998-05-06T13:29:16Z</time>
      </trkpt>
      <trkpt lat="42.058122" lon="3.041962">
        <ele>16.517</ele>
        <time>1998-05-06T13:29:20Z</time>
      </trkpt>
      <trkpt lat="42.058104" lon="3.042117">
        <ele>16.149</ele>
        <time>1998-05-06T13:29:22Z</time>
      </trkpt>
      <trkpt lat="42.058099" lon="3.042200">
        <ele>15.902</ele>
        <time>1998-05-06T13:29:23Z</time>
      </trkpt>
      <trkpt lat="42.058086" lon="3.042353">
        <ele>15.922</ele>
        <time>1998-05-06T13:29:25Z</time>
      </trkpt>
      <trkpt lat="42.058031" lon="3.042736">
        <ele>16.008</ele>
        <time>1998-05-06T13:29:30Z</time>
      </trkpt>
      <trkpt lat="42.057980" lon="3.043056">
        <ele>16.096</ele>
        <time>1998-05-06T13:29:34Z</time>
      </trkpt>
      <trkpt lat="42.057849" lon="3.043798">
        <ele>15.759</ele>
        <time>1998-05-06T13:29:43Z</time>
      </trkpt>
      <trkpt lat="42.057753" lon="3.044515">
        <ele>16.021</ele>
        <time>1998-05-06T13:29:52Z</time>
      </trkpt>
      <trkpt lat="42.057700" lon="3.044842">
        <ele>15.611</ele>
        <time>1998-05-06T13:29:56Z</time>
      </trkpt>
      <trkpt lat="42.057670" lon="3.044993">
        <ele>15.024</ele>
        <time>1998-05-06T13:29:58Z</time>
      </trkpt>
      <trkpt lat="42.057651" lon="3.045052">
        <ele>15.193</ele>
        <time>1998-05-06T13:29:59Z</time>
      </trkpt>
      <trkpt lat="42.057613" lon="3.045108">
        <ele>15.233</ele>
        <time>1998-05-06T13:30:02Z</time>
      </trkpt>
      <trkpt lat="42.057611" lon="3.045094">
        <ele>15.287</ele>
        <time>1998-05-06T13:30:05Z</time>
      </trkpt>
      <trkpt lat="42.057610" lon="3.045120">
        <ele>15.337</ele>
        <time>1998-05-06T13:31:49Z</time>
      </trkpt>
      <trkpt lat="42.057620" lon="3.045140">
        <ele>15.349</ele>
        <time>1998-05-06T13:31:50Z</time>
      </trkpt>
      <trkpt lat="42.057635" lon="3.045154">
        <ele>15.313</ele>
        <time>1998-05-06T13:31:51Z</time>
      </trkpt>
      <trkpt lat="42.057701" lon="3.045166">
        <ele>15.208</ele>
        <time>1998-05-06T13:31:53Z</time>
      </trkpt>
      <trkpt lat="42.057815" lon="3.045150">
        <ele>14.995</ele>
        <time>1998-05-06T13:31:55Z</time>
      </trkpt>
      <trkpt lat="42.057882" lon="3.045138">
        <ele>14.858</ele>
        <time>1998-05-06T13:31:56Z</time>
      </trkpt>
      <trkpt lat="42.058035" lon="3.045115">
        <ele>14.630</ele>
        <time>1998-05-06T13:31:58Z</time>
      </trkpt>
      <trkpt lat="42.058175" lon="3.045095">
        <ele>14.820</ele>
        <time>1998-05-06T13:32:00Z</time>
      </trkpt>
      <trkpt lat="42.058767" lon="3.045066">
        <ele>15.033</ele>
        <time>1998-05-06T13:32:09Z</time>
      </trkpt>
      <trkpt lat="42.059330" lon="3.045098">
        <ele>15.072</ele>
        <time>1998-05-06T13:32:20Z</time>
      </trkpt>
      <trkpt lat="42.059379" lon="3.045100">
        <ele>15.032</ele>
        <time>1998-05-06T13:32:21Z</time>
      </trkpt>
      <trkpt lat="42.059475" lon="3.045097">
        <ele>15.066</ele>
        <time>1998-05-06T13:32:23Z</time>
      </trkpt>
      <trkpt lat="42.059566" lon="3.045125">
        <ele>15.034</ele>
        <time>1998-05-06T13:32:25Z</time>
      </trkpt>
      <trkpt lat="42.059804" lon="3.045268">
        <ele>15.055</ele>
        <time>1998-05-06T13:32:30Z</time>
      </trkpt>
      <trkpt lat="42.059851" lon="3.045293">
        <ele>15.010</ele>
        <time>1998-05-06T13:32:31Z</time>
      </trkpt>
      <trkpt lat="42.059981" lon="3.045365">
        <ele>15.008</ele>
        <time>1998-05-06T13:32:34Z</time>
      </trkpt>
      <trkpt lat="42.060173" lon="3.045470">
        <ele>15.445</ele>
        <time>1998-05-06T13:32:39Z</time>
      </trkpt>
      <trkpt lat="42.060216" lon="3.045491">
        <ele>15.638</ele>
        <time>1998-05-06T13:32:40Z</time>
      </trkpt>
      <trkpt lat="42.060300" lon="3.045519">
        <ele>15.980</ele>
        <time>1998-05-06T13:32:42Z</time>
      </trkpt>
      <trkpt lat="42.060446" lon="3.045538">
        <ele>16.080</ele>
        <time>1998-05-06T13:32:45Z</time>
      </trkpt>
      <trkpt lat="42.060549" lon="3.045551">
        <ele>16.013</ele>
        <time>1998-05-06T13:32:47Z</time>
      </trkpt>
      <trkpt lat="42.060683" lon="3.045564">
        <ele>16.522</ele>
        <time>1998-05-06T13:32:50Z</time>
      </trkpt>
      <trkpt lat="42.060768" lon="3.045570">
        <ele>16.952</ele>
        <time>1998-05-06T13:32:52Z</time>
      </trkpt>
      <trkpt lat="42.060842" lon="3.045587">
        <ele>17.316</ele>
        <time>1998-05-06T13:32:54Z</time>
      </trkpt>
      <trkpt lat="42.060994" lon="3.045618">
        <ele>17.942</ele>
        <time>1998-05-06T13:32:57Z</time>
      </trkpt>
      <trkpt lat="42.061104" lon="3.045646">
        <ele>18.322</ele>
        <time>1998-05-06T13:32:59Z</time>
      </trkpt>
      <trkpt lat="42.061136" lon="3.045719">
        <ele>18.814</ele>
        <time>1998-05-06T13:33:01Z</time>
      </trkpt>
      <trkpt lat="42.061153" lon="3.045887">
        <ele>19.508</ele>
        <time>1998-05-06T13:33:04Z</time>
      </trkpt>
      <trkpt lat="42.061170" lon="3.046035">
        <ele>20.046</ele>
        <time>1998-05-06T13:33:06Z</time>
      </trkpt>
      <trkpt lat="42.061299" lon="3.046499">
        <ele>19.759</ele>
        <time>1998-05-06T13:33:16Z</time>
      </trkpt>
      <trkpt lat="42.061317" lon="3.046523">
        <ele>19.431</ele>
        <time>1998-05-06T13:33:17Z</time>
      </trkpt>
      <trkpt lat="42.061612" lon="3.046356">
        <ele>19.331</ele>
        <time>1998-05-06T13:33:27Z</time>
      </trkpt>
      <trkpt lat="42.061741" lon="3.046255">
        <ele>19.314</ele>
        <time>1998-05-06T13:33:30Z</time>
      </trkpt>
      <trkpt lat="42.061784" lon="3.046218">
        <ele>19.553</ele>
        <time>1998-05-06T13:33:31Z</time>
      </trkpt>
      <trkpt lat="42.061831" lon="3.046178">
        <ele>19.633</ele>
        <time>1998-05-06T13:33:32Z</time>
      </trkpt>
      <trkpt lat="42.061873" lon="3.046138">
        <ele>19.877</ele>
        <time>1998-05-06T13:33:33Z</time>
      </trkpt>
      <trkpt lat="42.062072" lon="3.045943">
        <ele>19.371</ele>
        <time>1998-05-06T13:33:40Z</time>
      </trkpt>
      <trkpt lat="42.062109" lon="3.045937">
        <ele>19.041</ele>
        <time>1998-05-06T13:33:41Z</time>
      </trkpt>
      <trkpt lat="42.062144" lon="3.045913">
        <ele>18.815</ele>
        <time>1998-05-06T13:33:42Z</time>
      </trkpt>
      <trkpt lat="42.062350" lon="3.045861">
        <ele>17.608</ele>
        <time>1998-05-06T13:33:45Z</time>
      </trkpt>
      <trkpt lat="42.062471" lon="3.045828">
        <ele>17.149</ele>
        <time>1998-05-06T13:33:47Z</time>
      </trkpt>
      <trkpt lat="42.062528" lon="3.045813">
        <ele>17.012</ele>
        <time>1998-05-06T13:33:48Z</time>
      </trkpt>
      <trkpt lat="42.062658" lon="3.045800">
        <ele>16.774</ele>
        <time>1998-05-06T13:33:50Z</time>
      </trkpt>
      <trkpt lat="42.062698" lon="3.045800">
        <ele>16.564</ele>
        <time>1998-05-06T13:33:51Z</time>
      </trkpt>
      <trkpt lat="42.062796" lon="3.045848">
        <ele>16.037</ele>
        <time>1998-05-06T13:33:54Z</time>
      </trkpt>
      <trkpt lat="42.062826" lon="3.045933">
        <ele>15.956</ele>
        <time>1998-05-06T13:33:56Z</time>
      </trkpt>
      <trkpt lat="42.062804" lon="3.046041">
        <ele>15.966</ele>
        <time>1998-05-06T13:33:58Z</time>
      </trkpt>
      <trkpt lat="42.062782" lon="3.046174">
        <ele>15.850</ele>
        <time>1998-05-06T13:34:00Z</time>
      </trkpt>
      <trkpt lat="42.062752" lon="3.046301">
        <ele>15.449</ele>
        <time>1998-05-06T13:34:02Z</time>
      </trkpt>
      <trkpt lat="42.062713" lon="3.046452">
        <ele>15.202</ele>
        <time>1998-05-06T13:34:04Z</time>
      </trkpt>
      <trkpt lat="42.062629" lon="3.046784">
        <ele>14.622</ele>
        <time>1998-05-06T13:34:08Z</time>
      </trkpt>
      <trkpt lat="42.062517" lon="3.047307">
        <ele>14.008</ele>
        <time>1998-05-06T13:34:14Z</time>
      </trkpt>
      <trkpt lat="42.062471" lon="3.047546">
        <ele>14.086</ele>
        <time>1998-05-06T13:34:17Z</time>
      </trkpt>
      <trkpt lat="42.062408" lon="3.047758">
        <ele>14.049</ele>
        <time>1998-05-06T13:34:20Z</time>
      </trkpt>
      <trkpt lat="42.062381" lon="3.047820">
        <ele>14.031</ele>
        <time>1998-05-06T13:34:21Z</time>
      </trkpt>
      <trkpt lat="42.062322" lon="3.047934">
        <ele>14.081</ele>
        <time>1998-05-06T13:34:23Z</time>
      </trkpt>
      <trkpt lat="42.062306" lon="3.048067">
        <ele>14.094</ele>
        <time>1998-05-06T13:34:25Z</time>
      </trkpt>
      <trkpt lat="42.062303" lon="3.048226">
        <ele>14.053</ele>
        <time>1998-05-06T13:34:27Z</time>
      </trkpt>
      <trkpt lat="42.062277" lon="3.048402">
        <ele>14.053</ele>
        <time>1998-05-06T13:34:29Z</time>
      </trkpt>
      <trkpt lat="42.062244" lon="3.048586">
        <ele>14.027</ele>
        <time>1998-05-06T13:34:31Z</time>
      </trkpt>
      <trkpt lat="42.062209" lon="3.048758">
        <ele>14.012</ele>
        <time>1998-05-06T13:34:33Z</time>
      </trkpt>
      <trkpt lat="42.062137" lon="3.049205">
        <ele>14.032</ele>
        <time>1998-05-06T13:34:38Z</time>
      </trkpt>
      <trkpt lat="42.062004" lon="3.049702">
        <ele>14.005</ele>
        <time>1998-05-06T13:34:44Z</time>
      </trkpt>
      <trkpt lat="42.061933" lon="3.050110">
        <ele>14.008</ele>
        <time>1998-05-06T13:34:49Z</time>
      </trkpt>
      <trkpt lat="42.061952" lon="3.050272">
        <ele>14.063</ele>
        <time>1998-05-06T13:34:51Z</time>
      </trkpt>
      <trkpt lat="42.061963" lon="3.050351">
        <ele>14.026</ele>
        <time>1998-05-06T13:34:52Z</time>
      </trkpt>
      <trkpt lat="42.061983" lon="3.050513">
        <ele>14.018</ele>
        <time>1998-05-06T13:34:54Z</time>
      </trkpt>
      <trkpt lat="42.062014" lon="3.050750">
        <ele>14.078</ele>
        <time>1998-05-06T13:34:57Z</time>
      </trkpt>
      <trkpt lat="42.062018" lon="3.050827">
        <ele>14.051</ele>
        <time>1998-05-06T13:34:58Z</time>
      </trkpt>
      <trkpt lat="42.062020" lon="3.050905">
        <ele>14.030</ele>
        <time>1998-05-06T13:34:59Z</time>
      </trkpt>
      <trkpt lat="42.062032" lon="3.051150">
        <ele>14.070</ele>
        <time>1998-05-06T13:35:02Z</time>
      </trkpt>
      <trkpt lat="42.062073" lon="3.051761">
        <ele>13.764</ele>
        <time>1998-05-06T13:35:10Z</time>
      </trkpt>
      <trkpt lat="42.062086" lon="3.052004">
        <ele>13.176</ele>
        <time>1998-05-06T13:35:13Z</time>
      </trkpt>
      <trkpt lat="42.062255" lon="3.052512">
        <ele>14.090</ele>
        <time>1998-05-06T13:35:20Z</time>
      </trkpt>
      <trkpt lat="42.062292" lon="3.052631">
        <ele>13.619</ele>
        <time>1998-05-06T13:35:22Z</time>
      </trkpt>
      <trkpt lat="42.062544" lon="3.053156">
        <ele>13.708</ele>
        <time>1998-05-06T13:35:30Z</time>
      </trkpt>
      <trkpt lat="42.062619" lon="3.053323">
        <ele>13.449</ele>
        <time>1998-05-06T13:35:32Z</time>
      </trkpt>
      <trkpt lat="42.062795" lon="3.053751">
        <ele>13.582</ele>
        <time>1998-05-06T13:35:38Z</time>
      </trkpt>
      <trkpt lat="42.062902" lon="3.054031">
        <ele>13.474</ele>
        <time>1998-05-06T13:35:42Z</time>
      </trkpt>
      <trkpt lat="42.063057" lon="3.054538">
        <ele>13.744</ele>
        <time>1998-05-06T13:35:49Z</time>
      </trkpt>
      <trkpt lat="42.063118" lon="3.054674">
        <ele>13.197</ele>
        <time>1998-05-06T13:35:51Z</time>
      </trkpt>
      <trkpt lat="42.063222" lon="3.054867">
        <ele>13.016</ele>
        <time>1998-05-06T13:35:54Z</time>
      </trkpt>
      <trkpt lat="42.063440" lon="3.055507">
        <ele>13.066</ele>
        <time>1998-05-06T13:36:03Z</time>
      </trkpt>
      <trkpt lat="42.063527" lon="3.055784">
        <ele>13.080</ele>
        <time>1998-05-06T13:36:07Z</time>
      </trkpt>
      <trkpt lat="42.063777" lon="3.056454">
        <ele>13.062</ele>
        <time>1998-05-06T13:36:17Z</time>
      </trkpt>
      <trkpt lat="42.064035" lon="3.057126">
        <ele>13.083</ele>
        <time>1998-05-06T13:36:27Z</time>
      </trkpt>
      <trkpt lat="42.064294" lon="3.057662">
        <ele>13.011</ele>
        <time>1998-05-06T13:36:36Z</time>
      </trkpt>
      <trkpt lat="42.064562" lon="3.058308">
        <ele>13.008</ele>
        <time>1998-05-06T13:36:46Z</time>
      </trkpt>
      <trkpt lat="42.064765" lon="3.058910">
        <ele>13.078</ele>
        <time>1998-05-06T13:36:55Z</time>
      </trkpt>
      <trkpt lat="42.064924" lon="3.059326">
        <ele>13.051</ele>
        <time>1998-05-06T13:37:01Z</time>
      </trkpt>
      <trkpt lat="42.064997" lon="3.059600">
        <ele>13.063</ele>
        <time>1998-05-06T13:37:05Z</time>
      </trkpt>
      <trkpt lat="42.065234" lon="3.060267">
        <ele>13.063</ele>
        <time>1998-05-06T13:37:15Z</time>
      </trkpt>
      <trkpt lat="42.065356" lon="3.060615">
        <ele>13.026</ele>
        <time>1998-05-06T13:37:20Z</time>
      </trkpt>
      <trkpt lat="42.065595" lon="3.061265">
        <ele>13.025</ele>
        <time>1998-05-06T13:37:30Z</time>
      </trkpt>
      <trkpt lat="42.065851" lon="3.061983">
        <ele>13.045</ele>
        <time>1998-05-06T13:37:41Z</time>
      </trkpt>
      <trkpt lat="42.066083" lon="3.062651">
        <ele>13.029</ele>
        <time>1998-05-06T13:37:51Z</time>
      </trkpt>
      <trkpt lat="42.066328" lon="3.063315">
        <ele>13.085</ele>
        <time>1998-05-06T13:38:01Z</time>
      </trkpt>
      <trkpt lat="42.066406" lon="3.063565">
        <ele>13.089</ele>
        <time>1998-05-06T13:38:05Z</time>
      </trkpt>
      <trkpt lat="42.066623" lon="3.064118">
        <ele>13.017</ele>
        <time>1998-05-06T13:38:14Z</time>
      </trkpt>
      <trkpt lat="42.066676" lon="3.064233">
        <ele>13.008</ele>
        <time>1998-05-06T13:38:16Z</time>
      </trkpt>
      <trkpt lat="42.066935" lon="3.064920">
        <ele>13.030</ele>
        <time>1998-05-06T13:38:27Z</time>
      </trkpt>
      <trkpt lat="42.067187" lon="3.065607">
        <ele>13.043</ele>
        <time>1998-05-06T13:38:38Z</time>
      </trkpt>
      <trkpt lat="42.067449" lon="3.066280">
        <ele>13.025</ele>
        <time>1998-05-06T13:38:49Z</time>
      </trkpt>
      <trkpt lat="42.067670" lon="3.066999">
        <ele>13.065</ele>
        <time>1998-05-06T13:39:00Z</time>
      </trkpt>
      <trkpt lat="42.067773" lon="3.067246">
        <ele>13.098</ele>
        <time>1998-05-06T13:39:04Z</time>
      </trkpt>
      <trkpt lat="42.067969" lon="3.067731">
        <ele>13.097</ele>
        <time>1998-05-06T13:39:12Z</time>
      </trkpt>
      <trkpt lat="42.067998" lon="3.067786">
        <ele>13.017</ele>
        <time>1998-05-06T13:39:13Z</time>
      </trkpt>
      <trkpt lat="42.068057" lon="3.067894">
        <ele>13.071</ele>
        <time>1998-05-06T13:39:15Z</time>
      </trkpt>
      <trkpt lat="42.068290" lon="3.068549">
        <ele>13.062</ele>
        <time>1998-05-06T13:39:27Z</time>
      </trkpt>
      <trkpt lat="42.068328" lon="3.068815">
        <ele>13.083</ele>
        <time>1998-05-06T13:39:31Z</time>
      </trkpt>
      <trkpt lat="42.068385" lon="3.068999">
        <ele>12.711</ele>
        <time>1998-05-06T13:39:34Z</time>
      </trkpt>
      <trkpt lat="42.068426" lon="3.069125">
        <ele>12.408</ele>
        <time>1998-05-06T13:39:36Z</time>
      </trkpt>
      <trkpt lat="42.068636" lon="3.069519">
        <ele>12.768</ele>
        <time>1998-05-06T13:39:43Z</time>
      </trkpt>
      <trkpt lat="42.068718" lon="3.069696">
        <ele>12.121</ele>
        <time>1998-05-06T13:39:46Z</time>
      </trkpt>
      <trkpt lat="42.068751" lon="3.069829">
        <ele>12.013</ele>
        <time>1998-05-06T13:39:48Z</time>
      </trkpt>
      <trkpt lat="42.068775" lon="3.070042">
        <ele>12.033</ele>
        <time>1998-05-06T13:39:51Z</time>
      </trkpt>
      <trkpt lat="42.068817" lon="3.070172">
        <ele>12.046</ele>
        <time>1998-05-06T13:39:53Z</time>
      </trkpt>
      <trkpt lat="42.069089" lon="3.070797">
        <ele>12.115</ele>
        <time>1998-05-06T13:40:03Z</time>
      </trkpt>
      <trkpt lat="42.069127" lon="3.070931">
        <ele>12.095</ele>
        <time>1998-05-06T13:40:05Z</time>
      </trkpt>
      <trkpt lat="42.069296" lon="3.071586">
        <ele>12.039</ele>
        <time>1998-05-06T13:40:15Z</time>
      </trkpt>
      <trkpt lat="42.069409" lon="3.071874">
        <ele>12.052</ele>
        <time>1998-05-06T13:40:20Z</time>
      </trkpt>
      <trkpt lat="42.069470" lon="3.072487">
        <ele>12.053</ele>
        <time>1998-05-06T13:40:28Z</time>
      </trkpt>
      <trkpt lat="42.069560" lon="3.073088">
        <ele>12.008</ele>
        <time>1998-05-06T13:40:36Z</time>
      </trkpt>
      <trkpt lat="42.069638" lon="3.073696">
        <ele>12.008</ele>
        <time>1998-05-06T13:40:44Z</time>
      </trkpt>
      <trkpt lat="42.069681" lon="3.073971">
        <ele>12.037</ele>
        <time>1998-05-06T13:40:48Z</time>
      </trkpt>
      <trkpt lat="42.069760" lon="3.074402">
        <ele>12.080</ele>
        <time>1998-05-06T13:40:54Z</time>
      </trkpt>
      <trkpt lat="42.069776" lon="3.074542">
        <ele>12.052</ele>
        <time>1998-05-06T13:40:56Z</time>
      </trkpt>
      <trkpt lat="42.069838" lon="3.075318">
        <ele>12.022</ele>
        <time>1998-05-06T13:41:07Z</time>
      </trkpt>
      <trkpt lat="42.069911" lon="3.075962">
        <ele>12.025</ele>
        <time>1998-05-06T13:41:16Z</time>
      </trkpt>
      <trkpt lat="42.069944" lon="3.076173">
        <ele>12.094</ele>
        <time>1998-05-06T13:41:19Z</time>
      </trkpt>
      <trkpt lat="42.069963" lon="3.076303">
        <ele>12.014</ele>
        <time>1998-05-06T13:41:21Z</time>
      </trkpt>
      <trkpt lat="42.069986" lon="3.076429">
        <ele>12.068</ele>
        <time>1998-05-06T13:41:23Z</time>
      </trkpt>
      <trkpt lat="42.070024" lon="3.076711">
        <ele>12.086</ele>
        <time>1998-05-06T13:41:27Z</time>
      </trkpt>
      <trkpt lat="42.070102" lon="3.077200">
        <ele>12.060</ele>
        <time>1998-05-06T13:41:34Z</time>
      </trkpt>
      <trkpt lat="42.070211" lon="3.077612">
        <ele>12.026</ele>
        <time>1998-05-06T13:41:40Z</time>
      </trkpt>
      <trkpt lat="42.070222" lon="3.077685">
        <ele>12.008</ele>
        <time>1998-05-06T13:41:41Z</time>
      </trkpt>
      <trkpt lat="42.070226" lon="3.077755">
        <ele>12.020</ele>
        <time>1998-05-06T13:41:42Z</time>
      </trkpt>
      <trkpt lat="42.070212" lon="3.077901">
        <ele>12.043</ele>
        <time>1998-05-06T13:41:44Z</time>
      </trkpt>
      <trkpt lat="42.070195" lon="3.077973">
        <ele>12.025</ele>
        <time>1998-05-06T13:41:45Z</time>
      </trkpt>
      <trkpt lat="42.070132" lon="3.078178">
        <ele>12.035</ele>
        <time>1998-05-06T13:41:48Z</time>
      </trkpt>
      <trkpt lat="42.070129" lon="3.078320">
        <ele>12.078</ele>
        <time>1998-05-06T13:41:50Z</time>
      </trkpt>
      <trkpt lat="42.070166" lon="3.078461">
        <ele>12.097</ele>
        <time>1998-05-06T13:41:52Z</time>
      </trkpt>
      <trkpt lat="42.070267" lon="3.078703">
        <ele>12.017</ele>
        <time>1998-05-06T13:41:56Z</time>
      </trkpt>
      <trkpt lat="42.070257" lon="3.078802">
        <ele>12.011</ele>
        <time>1998-05-06T13:41:58Z</time>
      </trkpt>
      <trkpt lat="42.070206" lon="3.078834">
        <ele>12.089</ele>
        <time>1998-05-06T13:42:00Z</time>
      </trkpt>
      <trkpt lat="42.070150" lon="3.078837">
        <ele>12.006</ele>
        <time>1998-05-06T13:42:02Z</time>
      </trkpt>
      <trkpt lat="42.070066" lon="3.078916">
        <ele>12.026</ele>
        <time>1998-05-06T13:42:05Z</time>
      </trkpt>
      <trkpt lat="42.069746" lon="3.079252">
        <ele>12.008</ele>
        <time>1998-05-06T13:42:15Z</time>
      </trkpt>
      <trkpt lat="42.069533" lon="3.079424">
        <ele>12.050</ele>
        <time>1998-05-06T13:42:21Z</time>
      </trkpt>
      <trkpt lat="42.069384" lon="3.079518">
        <ele>12.043</ele>
        <time>1998-05-06T13:42:25Z</time>
      </trkpt>
      <trkpt lat="42.069335" lon="3.079600">
        <ele>12.095</ele>
        <time>1998-05-06T13:42:27Z</time>
      </trkpt>
      <trkpt lat="42.069422" lon="3.079804">
        <ele>12.025</ele>
        <time>1998-05-06T13:42:31Z</time>
      </trkpt>
      <trkpt lat="42.069466" lon="3.079903">
        <ele>12.078</ele>
        <time>1998-05-06T13:42:33Z</time>
      </trkpt>
      <trkpt lat="42.069663" lon="3.080333">
        <ele>12.077</ele>
        <time>1998-05-06T13:42:42Z</time>
      </trkpt>
      <trkpt lat="42.069713" lon="3.080441">
        <ele>12.037</ele>
        <time>1998-05-06T13:42:44Z</time>
      </trkpt>
      <trkpt lat="42.069737" lon="3.080495">
        <ele>12.061</ele>
        <time>1998-05-06T13:42:45Z</time>
      </trkpt>
      <trkpt lat="42.069809" lon="3.080663">
        <ele>12.078</ele>
        <time>1998-05-06T13:42:48Z</time>
      </trkpt>
      <trkpt lat="42.069940" lon="3.080964">
        <ele>12.033</ele>
        <time>1998-05-06T13:42:53Z</time>
      </trkpt>
      <trkpt lat="42.070090" lon="3.081327">
        <ele>12.026</ele>
        <time>1998-05-06T13:42:59Z</time>
      </trkpt>
      <trkpt lat="42.070115" lon="3.081383">
        <ele>12.008</ele>
        <time>1998-05-06T13:43:00Z</time>
      </trkpt>
      <trkpt lat="42.070178" lon="3.081480">
        <ele>11.759</ele>
        <time>1998-05-06T13:43:02Z</time>
      </trkpt>
      <trkpt lat="42.070270" lon="3.081508">
        <ele>11.662</ele>
        <time>1998-05-06T13:43:04Z</time>
      </trkpt>
      <trkpt lat="42.070358" lon="3.081478">
        <ele>11.574</ele>
        <time>1998-05-06T13:43:06Z</time>
      </trkpt>
      <trkpt lat="42.070445" lon="3.081433">
        <ele>11.394</ele>
        <time>1998-05-06T13:43:08Z</time>
      </trkpt>
      <trkpt lat="42.070525" lon="3.081451">
        <ele>11.127</ele>
        <time>1998-05-06T13:43:10Z</time>
      </trkpt>
      <trkpt lat="42.070575" lon="3.081542">
        <ele>11.096</ele>
        <time>1998-05-06T13:43:12Z</time>
      </trkpt>
      <trkpt lat="42.070611" lon="3.081715">
        <ele>11.046</ele>
        <time>1998-05-06T13:43:15Z</time>
      </trkpt>
      <trkpt lat="42.070641" lon="3.081973">
        <ele>11.020</ele>
        <time>1998-05-06T13:43:19Z</time>
      </trkpt>
      <trkpt lat="42.070658" lon="3.082111">
        <ele>11.017</ele>
        <time>1998-05-06T13:43:21Z</time>
      </trkpt>
      <trkpt lat="42.070716" lon="3.082459">
        <ele>11.087</ele>
        <time>1998-05-06T13:43:26Z</time>
      </trkpt>
      <trkpt lat="42.070776" lon="3.082739">
        <ele>11.015</ele>
        <time>1998-05-06T13:43:30Z</time>
      </trkpt>
      <trkpt lat="42.070793" lon="3.083061">
        <ele>11.008</ele>
        <time>1998-05-06T13:43:34Z</time>
      </trkpt>
      <trkpt lat="42.070788" lon="3.083300">
        <ele>11.093</ele>
        <time>1998-05-06T13:43:37Z</time>
      </trkpt>
      <trkpt lat="42.070801" lon="3.083457">
        <ele>11.026</ele>
        <time>1998-05-06T13:43:39Z</time>
      </trkpt>
      <trkpt lat="42.070850" lon="3.083587">
        <ele>11.048</ele>
        <time>1998-05-06T13:43:41Z</time>
      </trkpt>
      <trkpt lat="42.070939" lon="3.083792">
        <ele>11.088</ele>
        <time>1998-05-06T13:43:44Z</time>
      </trkpt>
      <trkpt lat="42.070955" lon="3.083953">
        <ele>11.031</ele>
        <time>1998-05-06T13:43:46Z</time>
      </trkpt>
      <trkpt lat="42.070940" lon="3.084349">
        <ele>11.030</ele>
        <time>1998-05-06T13:43:51Z</time>
      </trkpt>
      <trkpt lat="42.071173" lon="3.085075">
        <ele>11.070</ele>
        <time>1998-05-06T13:44:01Z</time>
      </trkpt>
      <trkpt lat="42.071193" lon="3.085455">
        <ele>11.084</ele>
        <time>1998-05-06T13:44:06Z</time>
      </trkpt>
      <trkpt lat="42.071321" lon="3.085980">
        <ele>11.074</ele>
        <time>1998-05-06T13:44:13Z</time>
      </trkpt>
      <trkpt lat="42.071380" lon="3.086535">
        <ele>11.056</ele>
        <time>1998-05-06T13:44:20Z</time>
      </trkpt>
      <trkpt lat="42.071454" lon="3.087314">
        <ele>11.021</ele>
        <time>1998-05-06T13:44:30Z</time>
      </trkpt>
      <trkpt lat="42.071518" lon="3.087800">
        <ele>11.008</ele>
        <time>1998-05-06T13:44:36Z</time>
      </trkpt>
      <trkpt lat="42.071544" lon="3.087876">
        <ele>11.069</ele>
        <time>1998-05-06T13:44:37Z</time>
      </trkpt>
      <trkpt lat="42.071614" lon="3.087995">
        <ele>11.062</ele>
        <time>1998-05-06T13:44:39Z</time>
      </trkpt>
      <trkpt lat="42.071762" lon="3.088146">
        <ele>10.834</ele>
        <time>1998-05-06T13:44:42Z</time>
      </trkpt>
      <trkpt lat="42.071820" lon="3.088177">
        <ele>10.864</ele>
        <time>1998-05-06T13:44:43Z</time>
      </trkpt>
      <trkpt lat="42.071998" lon="3.088263">
        <ele>11.047</ele>
        <time>1998-05-06T13:44:46Z</time>
      </trkpt>
      <trkpt lat="42.072050" lon="3.088305">
        <ele>11.036</ele>
        <time>1998-05-06T13:44:47Z</time>
      </trkpt>
      <trkpt lat="42.072093" lon="3.088362">
        <ele>11.016</ele>
        <time>1998-05-06T13:44:48Z</time>
      </trkpt>
      <trkpt lat="42.072300" lon="3.088680">
        <ele>11.010</ele>
        <time>1998-05-06T13:44:53Z</time>
      </trkpt>
      <trkpt lat="42.072575" lon="3.089017">
        <ele>11.062</ele>
        <time>1998-05-06T13:44:59Z</time>
      </trkpt>
      <trkpt lat="42.072831" lon="3.089365">
        <ele>10.483</ele>
        <time>1998-05-06T13:45:05Z</time>
      </trkpt>
      <trkpt lat="42.073086" lon="3.089718">
        <ele>11.011</ele>
        <time>1998-05-06T13:45:11Z</time>
      </trkpt>
      <trkpt lat="42.073256" lon="3.089944">
        <ele>10.808</ele>
        <time>1998-05-06T13:45:15Z</time>
      </trkpt>
      <trkpt lat="42.073558" lon="3.090335">
        <ele>10.638</ele>
        <time>1998-05-06T13:45:22Z</time>
      </trkpt>
      <trkpt lat="42.073945" lon="3.090863">
        <ele>10.711</ele>
        <time>1998-05-06T13:45:31Z</time>
      </trkpt>
      <trkpt lat="42.074347" lon="3.091382">
        <ele>10.613</ele>
        <time>1998-05-06T13:45:40Z</time>
      </trkpt>
      <trkpt lat="42.074389" lon="3.091444">
        <ele>10.673</ele>
        <time>1998-05-06T13:45:41Z</time>
      </trkpt>
      <trkpt lat="42.074520" lon="3.091623">
        <ele>10.386</ele>
        <time>1998-05-06T13:45:44Z</time>
      </trkpt>
      <trkpt lat="42.074836" lon="3.092039">
        <ele>10.135</ele>
        <time>1998-05-06T13:45:51Z</time>
      </trkpt>
      <trkpt lat="42.075122" lon="3.092450">
        <ele>10.575</ele>
        <time>1998-05-06T13:45:58Z</time>
      </trkpt>
      <trkpt lat="42.075197" lon="3.092567">
        <ele>10.539</ele>
        <time>1998-05-06T13:46:00Z</time>
      </trkpt>
      <trkpt lat="42.075273" lon="3.092681">
        <ele>10.345</ele>
        <time>1998-05-06T13:46:02Z</time>
      </trkpt>
      <trkpt lat="42.075694" lon="3.093209">
        <ele>10.747</ele>
        <time>1998-05-06T13:46:12Z</time>
      </trkpt>
      <trkpt lat="42.076051" lon="3.093692">
        <ele>10.611</ele>
        <time>1998-05-06T13:46:21Z</time>
      </trkpt>
      <trkpt lat="42.076134" lon="3.093797">
        <ele>10.408</ele>
        <time>1998-05-06T13:46:23Z</time>
      </trkpt>
      <trkpt lat="42.076428" lon="3.094168">
        <ele>10.116</ele>
        <time>1998-05-06T13:46:30Z</time>
      </trkpt>
      <trkpt lat="42.076541" lon="3.094328">
        <ele>10.569</ele>
        <time>1998-05-06T13:46:33Z</time>
      </trkpt>
      <trkpt lat="42.076586" lon="3.094459">
        <ele>10.781</ele>
        <time>1998-05-06T13:46:35Z</time>
      </trkpt>
      <trkpt lat="42.076620" lon="3.094598">
        <ele>10.971</ele>
        <time>1998-05-06T13:46:37Z</time>
      </trkpt>
      <trkpt lat="42.076710" lon="3.094939">
        <ele>11.074</ele>
        <time>1998-05-06T13:46:42Z</time>
      </trkpt>
      <trkpt lat="42.076767" lon="3.095114">
        <ele>11.453</ele>
        <time>1998-05-06T13:46:45Z</time>
      </trkpt>
      <trkpt lat="42.076828" lon="3.095193">
        <ele>11.743</ele>
        <time>1998-05-06T13:46:47Z</time>
      </trkpt>
      <trkpt lat="42.076909" lon="3.095197">
        <ele>11.717</ele>
        <time>1998-05-06T13:46:49Z</time>
      </trkpt>
      <trkpt lat="42.077023" lon="3.095181">
        <ele>11.559</ele>
        <time>1998-05-06T13:46:52Z</time>
      </trkpt>
      <trkpt lat="42.077146" lon="3.095198">
        <ele>11.203</ele>
        <time>1998-05-06T13:46:56Z</time>
      </trkpt>
      <trkpt lat="42.077234" lon="3.095239">
        <ele>11.023</ele>
        <time>1998-05-06T13:46:59Z</time>
      </trkpt>
      <trkpt lat="42.077383" lon="3.095304">
        <ele>11.108</ele>
        <time>1998-05-06T13:47:05Z</time>
      </trkpt>
      <trkpt lat="42.077434" lon="3.095343">
        <ele>11.217</ele>
        <time>1998-05-06T13:47:08Z</time>
      </trkpt>
      <trkpt lat="42.077457" lon="3.095375">
        <ele>11.340</ele>
        <time>1998-05-06T13:47:10Z</time>
      </trkpt>
      <trkpt lat="42.077506" lon="3.095440">
        <ele>11.632</ele>
        <time>1998-05-06T13:47:15Z</time>
      </trkpt>
      <trkpt lat="42.077587" lon="3.095554">
        <ele>12.062</ele>
        <time>1998-05-06T13:47:23Z</time>
      </trkpt>
      <trkpt lat="42.077612" lon="3.095610">
        <ele>12.185</ele>
        <time>1998-05-06T13:47:25Z</time>
      </trkpt>
      <trkpt lat="42.077724" lon="3.095850">
        <ele>12.254</ele>
        <time>1998-05-06T13:47:33Z</time>
      </trkpt>
      <trkpt lat="42.077808" lon="3.096206">
        <ele>12.284</ele>
        <time>1998-05-06T13:47:43Z</time>
      </trkpt>
      <trkpt lat="42.077856" lon="3.096371">
        <ele>12.398</ele>
        <time>1998-05-06T13:47:48Z</time>
      </trkpt>
      <trkpt lat="42.077941" lon="3.096671">
        <ele>11.437</ele>
        <time>1998-05-06T13:47:55Z</time>
      </trkpt>
      <trkpt lat="42.077999" lon="3.096800">
        <ele>10.749</ele>
        <time>1998-05-06T13:47:58Z</time>
      </trkpt>
      <trkpt lat="42.078147" lon="3.097060">
        <ele>10.213</ele>
        <time>1998-05-06T13:48:04Z</time>
      </trkpt>
      <trkpt lat="42.078204" lon="3.097161">
        <ele>10.108</ele>
        <time>1998-05-06T13:48:06Z</time>
      </trkpt>
      <trkpt lat="42.078236" lon="3.097232">
        <ele>10.075</ele>
        <time>1998-05-06T13:48:08Z</time>
      </trkpt>
      <trkpt lat="42.078274" lon="3.097429">
        <ele>9.478</ele>
        <time>1998-05-06T13:48:12Z</time>
      </trkpt>
      <trkpt lat="42.078281" lon="3.097636">
        <ele>9.140</ele>
        <time>1998-05-06T13:48:16Z</time>
      </trkpt>
      <trkpt lat="42.078292" lon="3.097773">
        <ele>9.080</ele>
        <time>1998-05-06T13:48:19Z</time>
      </trkpt>
      <trkpt lat="42.078298" lon="3.097824">
        <ele>9.023</ele>
        <time>1998-05-06T13:48:20Z</time>
      </trkpt>
      <trkpt lat="42.078306" lon="3.097939">
        <ele>9.112</ele>
        <time>1998-05-06T13:48:22Z</time>
      </trkpt>
      <trkpt lat="42.078315" lon="3.098000">
        <ele>9.122</ele>
        <time>1998-05-06T13:48:23Z</time>
      </trkpt>
      <trkpt lat="42.078343" lon="3.098158">
        <ele>9.086</ele>
        <time>1998-05-06T13:48:26Z</time>
      </trkpt>
      <trkpt lat="42.078348" lon="3.098217">
        <ele>9.021</ele>
        <time>1998-05-06T13:48:27Z</time>
      </trkpt>
      <trkpt lat="42.078370" lon="3.098509">
        <ele>9.041</ele>
        <time>1998-05-06T13:48:33Z</time>
      </trkpt>
      <trkpt lat="42.078377" lon="3.098712">
        <ele>9.005</ele>
        <time>1998-05-06T13:48:36Z</time>
      </trkpt>
      <trkpt lat="42.078385" lon="3.098897">
        <ele>9.008</ele>
        <time>1998-05-06T13:48:38Z</time>
      </trkpt>
      <trkpt lat="42.078432" lon="3.099086">
        <ele>9.054</ele>
        <time>1998-05-06T13:48:40Z</time>
      </trkpt>
      <trkpt lat="42.078489" lon="3.099263">
        <ele>9.097</ele>
        <time>1998-05-06T13:48:42Z</time>
      </trkpt>
      <trkpt lat="42.078574" lon="3.099481">
        <ele>9.079</ele>
        <time>1998-05-06T13:48:45Z</time>
      </trkpt>
      <trkpt lat="42.078619" lon="3.099696">
        <ele>9.069</ele>
        <time>1998-05-06T13:48:48Z</time>
      </trkpt>
      <trkpt lat="42.078664" lon="3.099887">
        <ele>8.822</ele>
        <time>1998-05-06T13:48:51Z</time>
      </trkpt>
      <trkpt lat="42.078714" lon="3.100076">
        <ele>8.731</ele>
        <time>1998-05-06T13:48:54Z</time>
      </trkpt>
      <trkpt lat="42.078730" lon="3.100145">
        <ele>8.841</ele>
        <time>1998-05-06T13:48:55Z</time>
      </trkpt>
      <trkpt lat="42.078765" lon="3.100368">
        <ele>9.075</ele>
        <time>1998-05-06T13:48:58Z</time>
      </trkpt>
      <trkpt lat="42.078832" lon="3.100656">
        <ele>9.131</ele>
        <time>1998-05-06T13:49:02Z</time>
      </trkpt>
      <trkpt lat="42.078880" lon="3.100863">
        <ele>9.161</ele>
        <time>1998-05-06T13:49:05Z</time>
      </trkpt>
      <trkpt lat="42.078905" lon="3.101056">
        <ele>9.807</ele>
        <time>1998-05-06T13:49:08Z</time>
      </trkpt>
      <trkpt lat="42.078968" lon="3.101206">
        <ele>10.608</ele>
        <time>1998-05-06T13:49:11Z</time>
      </trkpt>
      <trkpt lat="42.079092" lon="3.101302">
        <ele>10.985</ele>
        <time>1998-05-06T13:49:14Z</time>
      </trkpt>
      <trkpt lat="42.079179" lon="3.101372">
        <ele>10.918</ele>
        <time>1998-05-06T13:49:16Z</time>
      </trkpt>
      <trkpt lat="42.079376" lon="3.101489">
        <ele>11.570</ele>
        <time>1998-05-06T13:49:20Z</time>
      </trkpt>
      <trkpt lat="42.079569" lon="3.101556">
        <ele>11.820</ele>
        <time>1998-05-06T13:49:24Z</time>
      </trkpt>
      <trkpt lat="42.079828" lon="3.101611">
        <ele>11.423</ele>
        <time>1998-05-06T13:49:30Z</time>
      </trkpt>
      <trkpt lat="42.080097" lon="3.101730">
        <ele>11.242</ele>
        <time>1998-05-06T13:49:36Z</time>
      </trkpt>
      <trkpt lat="42.080174" lon="3.101781">
        <ele>11.022</ele>
        <time>1998-05-06T13:49:38Z</time>
      </trkpt>
      <trkpt lat="42.080368" lon="3.102019">
        <ele>10.496</ele>
        <time>1998-05-06T13:49:44Z</time>
      </trkpt>
      <trkpt lat="42.080603" lon="3.102365">
        <ele>10.671</ele>
        <time>1998-05-06T13:49:51Z</time>
      </trkpt>
      <trkpt lat="42.080626" lon="3.102424">
        <ele>10.841</ele>
        <time>1998-05-06T13:49:52Z</time>
      </trkpt>
      <trkpt lat="42.080735" lon="3.102797">
        <ele>10.815</ele>
        <time>1998-05-06T13:49:58Z</time>
      </trkpt>
      <trkpt lat="42.080915" lon="3.103291">
        <ele>11.908</ele>
        <time>1998-05-06T13:50:07Z</time>
      </trkpt>
      <trkpt lat="42.081008" lon="3.103515">
        <ele>11.839</ele>
        <time>1998-05-06T13:50:11Z</time>
      </trkpt>
      <trkpt lat="42.081034" lon="3.103576">
        <ele>11.782</ele>
        <time>1998-05-06T13:50:12Z</time>
      </trkpt>
      <trkpt lat="42.081321" lon="3.104214">
        <ele>10.664</ele>
        <time>1998-05-06T13:50:21Z</time>
      </trkpt>
      <trkpt lat="42.081472" lon="3.104486">
        <ele>10.894</ele>
        <time>1998-05-06T13:50:25Z</time>
      </trkpt>
      <trkpt lat="42.081595" lon="3.104760">
        <ele>10.767</ele>
        <time>1998-05-06T13:50:29Z</time>
      </trkpt>
      <trkpt lat="42.081882" lon="3.105425">
        <ele>11.246</ele>
        <time>1998-05-06T13:50:39Z</time>
      </trkpt>
      <trkpt lat="42.082005" lon="3.105790">
        <ele>11.256</ele>
        <time>1998-05-06T13:50:44Z</time>
      </trkpt>
      <trkpt lat="42.082086" lon="3.106006">
        <ele>10.880</ele>
        <time>1998-05-06T13:50:47Z</time>
      </trkpt>
      <trkpt lat="42.082180" lon="3.106388">
        <ele>10.549</ele>
        <time>1998-05-06T13:50:52Z</time>
      </trkpt>
      <trkpt lat="42.082206" lon="3.106544">
        <ele>10.202</ele>
        <time>1998-05-06T13:50:54Z</time>
      </trkpt>
      <trkpt lat="42.082226" lon="3.106865">
        <ele>10.022</ele>
        <time>1998-05-06T13:50:58Z</time>
      </trkpt>
      <trkpt lat="42.082278" lon="3.107624">
        <ele>9.808</ele>
        <time>1998-05-06T13:51:07Z</time>
      </trkpt>
      <trkpt lat="42.082295" lon="3.107967">
        <ele>10.266</ele>
        <time>1998-05-06T13:51:11Z</time>
      </trkpt>
      <trkpt lat="42.082301" lon="3.108300">
        <ele>10.469</ele>
        <time>1998-05-06T13:51:15Z</time>
      </trkpt>
      <trkpt lat="42.082342" lon="3.109044">
        <ele>10.111</ele>
        <time>1998-05-06T13:51:24Z</time>
      </trkpt>
      <trkpt lat="42.082372" lon="3.109821">
        <ele>9.991</ele>
        <time>1998-05-06T13:51:33Z</time>
      </trkpt>
      <trkpt lat="42.082371" lon="3.109908">
        <ele>9.974</ele>
        <time>1998-05-06T13:51:34Z</time>
      </trkpt>
      <trkpt lat="42.082353" lon="3.110189">
        <ele>10.113</ele>
        <time>1998-05-06T13:51:37Z</time>
      </trkpt>
      <trkpt lat="42.082344" lon="3.110276">
        <ele>10.193</ele>
        <time>1998-05-06T13:51:38Z</time>
      </trkpt>
      <trkpt lat="42.082297" lon="3.110550">
        <ele>9.587</ele>
        <time>1998-05-06T13:51:41Z</time>
      </trkpt>
      <trkpt lat="42.082166" lon="3.111176">
        <ele>9.296</ele>
        <time>1998-05-06T13:51:48Z</time>
      </trkpt>
      <trkpt lat="42.082140" lon="3.111355">
        <ele>9.331</ele>
        <time>1998-05-06T13:51:50Z</time>
      </trkpt>
      <trkpt lat="42.082036" lon="3.112098">
        <ele>9.024</ele>
        <time>1998-05-06T13:51:58Z</time>
      </trkpt>
      <trkpt lat="42.082019" lon="3.112703">
        <ele>9.208</ele>
        <time>1998-05-06T13:52:04Z</time>
      </trkpt>
      <trkpt lat="42.082027" lon="3.113029">
        <ele>9.471</ele>
        <time>1998-05-06T13:52:07Z</time>
      </trkpt>
      <trkpt lat="42.082038" lon="3.113465">
        <ele>10.034</ele>
        <time>1998-05-06T13:52:11Z</time>
      </trkpt>
      <trkpt lat="42.082046" lon="3.113793">
        <ele>9.566</ele>
        <time>1998-05-06T13:52:14Z</time>
      </trkpt>
      <trkpt lat="42.082035" lon="3.113900">
        <ele>9.386</ele>
        <time>1998-05-06T13:52:15Z</time>
      </trkpt>
      <trkpt lat="42.081983" lon="3.114096">
        <ele>9.759</ele>
        <time>1998-05-06T13:52:17Z</time>
      </trkpt>
      <trkpt lat="42.081800" lon="3.114616">
        <ele>10.078</ele>
        <time>1998-05-06T13:52:23Z</time>
      </trkpt>
      <trkpt lat="42.081746" lon="3.114787">
        <ele>10.388</ele>
        <time>1998-05-06T13:52:25Z</time>
      </trkpt>
      <trkpt lat="42.081518" lon="3.115476">
        <ele>10.282</ele>
        <time>1998-05-06T13:52:33Z</time>
      </trkpt>
      <trkpt lat="42.081310" lon="3.116100">
        <ele>9.662</ele>
        <time>1998-05-06T13:52:40Z</time>
      </trkpt>
      <trkpt lat="42.081040" lon="3.116740">
        <ele>9.283</ele>
        <time>1998-05-06T13:52:47Z</time>
      </trkpt>
      <trkpt lat="42.080918" lon="3.117018">
        <ele>9.411</ele>
        <time>1998-05-06T13:52:50Z</time>
      </trkpt>
      <trkpt lat="42.080835" lon="3.117206">
        <ele>10.008</ele>
        <time>1998-05-06T13:52:52Z</time>
      </trkpt>
      <trkpt lat="42.080549" lon="3.117863">
        <ele>10.768</ele>
        <time>1998-05-06T13:52:59Z</time>
      </trkpt>
      <trkpt lat="42.080350" lon="3.118295">
        <ele>11.631</ele>
        <time>1998-05-06T13:53:04Z</time>
      </trkpt>
      <trkpt lat="42.080089" lon="3.118933">
        <ele>13.973</ele>
        <time>1998-05-06T13:53:12Z</time>
      </trkpt>
      <trkpt lat="42.080009" lon="3.119108">
        <ele>14.163</ele>
        <time>1998-05-06T13:53:15Z</time>
      </trkpt>
      <trkpt lat="42.079910" lon="3.119313">
        <ele>14.866</ele>
        <time>1998-05-06T13:53:19Z</time>
      </trkpt>
      <trkpt lat="42.079781" lon="3.119601">
        <ele>15.145</ele>
        <time>1998-05-06T13:53:24Z</time>
      </trkpt>
      <trkpt lat="42.079727" lon="3.119721">
        <ele>15.075</ele>
        <time>1998-05-06T13:53:26Z</time>
      </trkpt>
      <trkpt lat="42.079679" lon="3.119848">
        <ele>15.219</ele>
        <time>1998-05-06T13:53:28Z</time>
      </trkpt>
      <trkpt lat="42.079575" lon="3.120108">
        <ele>15.573</ele>
        <time>1998-05-06T13:53:32Z</time>
      </trkpt>
      <trkpt lat="42.079439" lon="3.120728">
        <ele>16.085</ele>
        <time>1998-05-06T13:53:41Z</time>
      </trkpt>
      <trkpt lat="42.079413" lon="3.120872">
        <ele>16.113</ele>
        <time>1998-05-06T13:53:43Z</time>
      </trkpt>
      <trkpt lat="42.079386" lon="3.121319">
        <ele>15.608</ele>
        <time>1998-05-06T13:53:49Z</time>
      </trkpt>
      <trkpt lat="42.079474" lon="3.122062">
        <ele>14.869</ele>
        <time>1998-05-06T13:53:58Z</time>
      </trkpt>
      <trkpt lat="42.079578" lon="3.122480">
        <ele>14.032</ele>
        <time>1998-05-06T13:54:03Z</time>
      </trkpt>
      <trkpt lat="42.079725" lon="3.123057">
        <ele>14.044</ele>
        <time>1998-05-06T13:54:10Z</time>
      </trkpt>
      <trkpt lat="42.079932" lon="3.123756">
        <ele>13.264</ele>
        <time>1998-05-06T13:54:19Z</time>
      </trkpt>
      <trkpt lat="42.080132" lon="3.124311">
        <ele>12.527</ele>
        <time>1998-05-06T13:54:26Z</time>
      </trkpt>
      <trkpt lat="42.080193" lon="3.124467">
        <ele>12.386</ele>
        <time>1998-05-06T13:54:28Z</time>
      </trkpt>
      <trkpt lat="42.080440" lon="3.125100">
        <ele>10.916</ele>
        <time>1998-05-06T13:54:36Z</time>
      </trkpt>
      <trkpt lat="42.080734" lon="3.125747">
        <ele>10.430</ele>
        <time>1998-05-06T13:54:45Z</time>
      </trkpt>
      <trkpt lat="42.080934" lon="3.126218">
        <ele>9.974</ele>
        <time>1998-05-06T13:54:51Z</time>
      </trkpt>
      <trkpt lat="42.081035" lon="3.126457">
        <ele>9.756</ele>
        <time>1998-05-06T13:54:54Z</time>
      </trkpt>
      <trkpt lat="42.081256" lon="3.127049">
        <ele>9.521</ele>
        <time>1998-05-06T13:55:01Z</time>
      </trkpt>
      <trkpt lat="42.081387" lon="3.127373">
        <ele>9.008</ele>
        <time>1998-05-06T13:55:05Z</time>
      </trkpt>
      <trkpt lat="42.081644" lon="3.128031">
        <ele>8.199</ele>
        <time>1998-05-06T13:55:13Z</time>
      </trkpt>
      <trkpt lat="42.081896" lon="3.128683">
        <ele>7.412</ele>
        <time>1998-05-06T13:55:21Z</time>
      </trkpt>
      <trkpt lat="42.082112" lon="3.129144">
        <ele>7.374</ele>
        <time>1998-05-06T13:55:27Z</time>
      </trkpt>
      <trkpt lat="42.082370" lon="3.129622">
        <ele>6.594</ele>
        <time>1998-05-06T13:55:34Z</time>
      </trkpt>
      <trkpt lat="42.082504" lon="3.129930">
        <ele>6.787</ele>
        <time>1998-05-06T13:55:38Z</time>
      </trkpt>
      <trkpt lat="42.082603" lon="3.130175">
        <ele>6.626</ele>
        <time>1998-05-06T13:55:41Z</time>
      </trkpt>
      <trkpt lat="42.082737" lon="3.130488">
        <ele>6.116</ele>
        <time>1998-05-06T13:55:45Z</time>
      </trkpt>
      <trkpt lat="42.082826" lon="3.130726">
        <ele>6.050</ele>
        <time>1998-05-06T13:55:48Z</time>
      </trkpt>
      <trkpt lat="42.082845" lon="3.130895">
        <ele>6.051</ele>
        <time>1998-05-06T13:55:50Z</time>
      </trkpt>
      <trkpt lat="42.082819" lon="3.131673">
        <ele>6.001</ele>
        <time>1998-05-06T13:55:58Z</time>
      </trkpt>
      <trkpt lat="42.082744" lon="3.131905">
        <ele>6.911</ele>
        <time>1998-05-06T13:56:01Z</time>
      </trkpt>
      <trkpt lat="42.082765" lon="3.132058">
        <ele>7.008</ele>
        <time>1998-05-06T13:56:03Z</time>
      </trkpt>
      <trkpt lat="42.082820" lon="3.132207">
        <ele>7.077</ele>
        <time>1998-05-06T13:56:05Z</time>
      </trkpt>
      <trkpt lat="42.082962" lon="3.132964">
        <ele>7.810</ele>
        <time>1998-05-06T13:56:16Z</time>
      </trkpt>
      <trkpt lat="42.083055" lon="3.133445">
        <ele>8.492</ele>
        <time>1998-05-06T13:56:23Z</time>
      </trkpt>
      <trkpt lat="42.083143" lon="3.133848">
        <ele>8.732</ele>
        <time>1998-05-06T13:56:29Z</time>
      </trkpt>
      <trkpt lat="42.083188" lon="3.134094">
        <ele>8.955</ele>
        <time>1998-05-06T13:56:33Z</time>
      </trkpt>
      <trkpt lat="42.083200" lon="3.134152">
        <ele>9.074</ele>
        <time>1998-05-06T13:56:34Z</time>
      </trkpt>
      <trkpt lat="42.083248" lon="3.134391">
        <ele>9.074</ele>
        <time>1998-05-06T13:56:38Z</time>
      </trkpt>
      <trkpt lat="42.083287" lon="3.134510">
        <ele>9.278</ele>
        <time>1998-05-06T13:56:41Z</time>
      </trkpt>
      <trkpt lat="42.083745" lon="3.134289">
        <ele>9.058</ele>
        <time>1998-05-06T13:56:54Z</time>
      </trkpt>
      <trkpt lat="42.083942" lon="3.134226">
        <ele>9.052</ele>
        <time>1998-05-06T13:56:59Z</time>
      </trkpt>
      <trkpt lat="42.084035" lon="3.134189">
        <ele>9.017</ele>
        <time>1998-05-06T13:57:02Z</time>
      </trkpt>
      <trkpt lat="42.084187" lon="3.134096">
        <ele>8.708</ele>
        <time>1998-05-06T13:57:08Z</time>
      </trkpt>
      <trkpt lat="42.084449" lon="3.133979">
        <ele>8.347</ele>
        <time>1998-05-06T13:57:16Z</time>
      </trkpt>
      <trkpt lat="42.084525" lon="3.133964">
        <ele>8.240</ele>
        <time>1998-05-06T13:57:18Z</time>
      </trkpt>
      <trkpt lat="42.084594" lon="3.133947">
        <ele>8.192</ele>
        <time>1998-05-06T13:57:20Z</time>
      </trkpt>
      <trkpt lat="42.084787" lon="3.133928">
        <ele>8.092</ele>
        <time>1998-05-06T13:57:26Z</time>
      </trkpt>
      <trkpt lat="42.084856" lon="3.133914">
        <ele>8.035</ele>
        <time>1998-05-06T13:57:28Z</time>
      </trkpt>
      <trkpt lat="42.084959" lon="3.133893">
        <ele>8.014</ele>
        <time>1998-05-06T13:57:31Z</time>
      </trkpt>
      <trkpt lat="42.085123" lon="3.133850">
        <ele>7.964</ele>
        <time>1998-05-06T13:57:35Z</time>
      </trkpt>
      <trkpt lat="42.085315" lon="3.133824">
        <ele>7.778</ele>
        <time>1998-05-06T13:57:39Z</time>
      </trkpt>
      <trkpt lat="42.085358" lon="3.133803">
        <ele>7.521</ele>
        <time>1998-05-06T13:57:40Z</time>
      </trkpt>
      <trkpt lat="42.085442" lon="3.133761">
        <ele>7.241</ele>
        <time>1998-05-06T13:57:42Z</time>
      </trkpt>
      <trkpt lat="42.085833" lon="3.133618">
        <ele>7.005</ele>
        <time>1998-05-06T13:57:51Z</time>
      </trkpt>
      <trkpt lat="42.085995" lon="3.133542">
        <ele>6.308</ele>
        <time>1998-05-06T13:57:55Z</time>
      </trkpt>
      <trkpt lat="42.086075" lon="3.133492">
        <ele>6.144</ele>
        <time>1998-05-06T13:57:57Z</time>
      </trkpt>
      <trkpt lat="42.086167" lon="3.133431">
        <ele>6.027</ele>
        <time>1998-05-06T13:57:59Z</time>
      </trkpt>
      <trkpt lat="42.086304" lon="3.133340">
        <ele>6.069</ele>
        <time>1998-05-06T13:58:02Z</time>
      </trkpt>
      <trkpt lat="42.086445" lon="3.133273">
        <ele>6.059</ele>
        <time>1998-05-06T13:58:05Z</time>
      </trkpt>
      <trkpt lat="42.086549" lon="3.133234">
        <ele>6.062</ele>
        <time>1998-05-06T13:58:07Z</time>
      </trkpt>
      <trkpt lat="42.086693" lon="3.133181">
        <ele>6.061</ele>
        <time>1998-05-06T13:58:10Z</time>
      </trkpt>
      <trkpt lat="42.087222" lon="3.132971">
        <ele>6.051</ele>
        <time>1998-05-06T13:58:23Z</time>
      </trkpt>
      <trkpt lat="42.087386" lon="3.132891">
        <ele>5.795</ele>
        <time>1998-05-06T13:58:27Z</time>
      </trkpt>
      <trkpt lat="42.087472" lon="3.132861">
        <ele>5.448</ele>
        <time>1998-05-06T13:58:29Z</time>
      </trkpt>
      <trkpt lat="42.087722" lon="3.132763">
        <ele>5.861</ele>
        <time>1998-05-06T13:58:35Z</time>
      </trkpt>
      <trkpt lat="42.087767" lon="3.132748">
        <ele>5.917</ele>
        <time>1998-05-06T13:58:36Z</time>
      </trkpt>
      <trkpt lat="42.087900" lon="3.132695">
        <ele>5.708</ele>
        <time>1998-05-06T13:58:39Z</time>
      </trkpt>
      <trkpt lat="42.088440" lon="3.132511">
        <ele>6.416</ele>
        <time>1998-05-06T13:58:51Z</time>
      </trkpt>
      <trkpt lat="42.088933" lon="3.132292">
        <ele>6.379</ele>
        <time>1998-05-06T13:59:01Z</time>
      </trkpt>
      <trkpt lat="42.089404" lon="3.132150">
        <ele>6.631</ele>
        <time>1998-05-06T13:59:10Z</time>
      </trkpt>
      <trkpt lat="42.089513" lon="3.132153">
        <ele>6.651</ele>
        <time>1998-05-06T13:59:12Z</time>
      </trkpt>
      <trkpt lat="42.089777" lon="3.132229">
        <ele>6.014</ele>
        <time>1998-05-06T13:59:17Z</time>
      </trkpt>
      <trkpt lat="42.089880" lon="3.132276">
        <ele>6.263</ele>
        <time>1998-05-06T13:59:19Z</time>
      </trkpt>
      <trkpt lat="42.089985" lon="3.132323">
        <ele>6.493</ele>
        <time>1998-05-06T13:59:21Z</time>
      </trkpt>
      <trkpt lat="42.090537" lon="3.132543">
        <ele>6.297</ele>
        <time>1998-05-06T13:59:32Z</time>
      </trkpt>
      <trkpt lat="42.090801" lon="3.132650">
        <ele>5.746</ele>
        <time>1998-05-06T13:59:37Z</time>
      </trkpt>
      <trkpt lat="42.091224" lon="3.132814">
        <ele>5.788</ele>
        <time>1998-05-06T13:59:45Z</time>
      </trkpt>
      <trkpt lat="42.091597" lon="3.132952">
        <ele>5.616</ele>
        <time>1998-05-06T13:59:52Z</time>
      </trkpt>
      <trkpt lat="42.092020" lon="3.133117">
        <ele>5.908</ele>
        <time>1998-05-06T14:00:00Z</time>
      </trkpt>
      <trkpt lat="42.092290" lon="3.133228">
        <ele>5.696</ele>
        <time>1998-05-06T14:00:05Z</time>
      </trkpt>
      <trkpt lat="42.092448" lon="3.133293">
        <ele>5.999</ele>
        <time>1998-05-06T14:00:08Z</time>
      </trkpt>
      <trkpt lat="42.092712" lon="3.133419">
        <ele>6.021</ele>
        <time>1998-05-06T14:00:13Z</time>
      </trkpt>
      <trkpt lat="42.092761" lon="3.133435">
        <ele>6.111</ele>
        <time>1998-05-06T14:00:14Z</time>
      </trkpt>
      <trkpt lat="42.092853" lon="3.133449">
        <ele>6.354</ele>
        <time>1998-05-06T14:00:16Z</time>
      </trkpt>
      <trkpt lat="42.093287" lon="3.133353">
        <ele>6.113</ele>
        <time>1998-05-06T14:00:24Z</time>
      </trkpt>
      <trkpt lat="42.093380" lon="3.133325">
        <ele>6.083</ele>
        <time>1998-05-06T14:00:26Z</time>
      </trkpt>
      <trkpt lat="42.093425" lon="3.133316">
        <ele>5.927</ele>
        <time>1998-05-06T14:00:27Z</time>
      </trkpt>
      <trkpt lat="42.093509" lon="3.133304">
        <ele>5.989</ele>
        <time>1998-05-06T14:00:29Z</time>
      </trkpt>
      <trkpt lat="42.093585" lon="3.133280">
        <ele>5.806</ele>
        <time>1998-05-06T14:00:31Z</time>
      </trkpt>
      <trkpt lat="42.093701" lon="3.133271">
        <ele>5.826</ele>
        <time>1998-05-06T14:00:34Z</time>
      </trkpt>
      <trkpt lat="42.093822" lon="3.133249">
        <ele>5.708</ele>
        <time>1998-05-06T14:00:37Z</time>
      </trkpt>
      <trkpt lat="42.093858" lon="3.133240">
        <ele>5.780</ele>
        <time>1998-05-06T14:00:38Z</time>
      </trkpt>
      <trkpt lat="42.094014" lon="3.133202">
        <ele>5.553</ele>
        <time>1998-05-06T14:00:42Z</time>
      </trkpt>
      <trkpt lat="42.094328" lon="3.133130">
        <ele>5.875</ele>
        <time>1998-05-06T14:00:49Z</time>
      </trkpt>
      <trkpt lat="42.094600" lon="3.133063">
        <ele>6.625</ele>
        <time>1998-05-06T14:00:55Z</time>
      </trkpt>
      <trkpt lat="42.095156" lon="3.132950">
        <ele>6.998</ele>
        <time>1998-05-06T14:01:07Z</time>
      </trkpt>
      <trkpt lat="42.095559" lon="3.132906">
        <ele>6.537</ele>
        <time>1998-05-06T14:01:15Z</time>
      </trkpt>
      <trkpt lat="42.096116" lon="3.132756">
        <ele>5.957</ele>
        <time>1998-05-06T14:01:26Z</time>
      </trkpt>
      <trkpt lat="42.096457" lon="3.132611">
        <ele>5.981</ele>
        <time>1998-05-06T14:01:33Z</time>
      </trkpt>
      <trkpt lat="42.096507" lon="3.132588">
        <ele>6.233</ele>
        <time>1998-05-06T14:01:34Z</time>
      </trkpt>
      <trkpt lat="42.096683" lon="3.132443">
        <ele>6.623</ele>
        <time>1998-05-06T14:01:38Z</time>
      </trkpt>
      <trkpt lat="42.096927" lon="3.132235">
        <ele>6.015</ele>
        <time>1998-05-06T14:01:44Z</time>
      </trkpt>
      <trkpt lat="42.097167" lon="3.132104">
        <ele>6.408</ele>
        <time>1998-05-06T14:01:49Z</time>
      </trkpt>
      <trkpt lat="42.097704" lon="3.132007">
        <ele>5.315</ele>
        <time>1998-05-06T14:01:59Z</time>
      </trkpt>
      <trkpt lat="42.098006" lon="3.132053">
        <ele>4.978</ele>
        <time>1998-05-06T14:02:05Z</time>
      </trkpt>
      <trkpt lat="42.098296" lon="3.132077">
        <ele>5.440</ele>
        <time>1998-05-06T14:02:12Z</time>
      </trkpt>
      <trkpt lat="42.098348" lon="3.132103">
        <ele>5.620</ele>
        <time>1998-05-06T14:02:14Z</time>
      </trkpt>
      <trkpt lat="42.098337" lon="3.132174">
        <ele>5.893</ele>
        <time>1998-05-06T14:02:17Z</time>
      </trkpt>
      <trkpt lat="42.098358" lon="3.132276">
        <ele>6.512</ele>
        <time>1998-05-06T14:02:20Z</time>
      </trkpt>
      <trkpt lat="42.098384" lon="3.132363">
        <ele>7.262</ele>
        <time>1998-05-06T14:02:22Z</time>
      </trkpt>
      <trkpt lat="42.098404" lon="3.132452">
        <ele>7.966</ele>
        <time>1998-05-06T14:02:24Z</time>
      </trkpt>
      <trkpt lat="42.098428" lon="3.132545">
        <ele>8.716</ele>
        <time>1998-05-06T14:02:26Z</time>
      </trkpt>
      <trkpt lat="42.098438" lon="3.132589">
        <ele>9.176</ele>
        <time>1998-05-06T14:02:27Z</time>
      </trkpt>
      <trkpt lat="42.098458" lon="3.132681">
        <ele>10.013</ele>
        <time>1998-05-06T14:02:29Z</time>
      </trkpt>
      <trkpt lat="42.098468" lon="3.132722">
        <ele>10.508</ele>
        <time>1998-05-06T14:02:30Z</time>
      </trkpt>
      <trkpt lat="42.098500" lon="3.132838">
        <ele>11.773</ele>
        <time>1998-05-06T14:02:33Z</time>
      </trkpt>
      <trkpt lat="42.098512" lon="3.132884">
        <ele>12.266</ele>
        <time>1998-05-06T14:02:34Z</time>
      </trkpt>
      <trkpt lat="42.098550" lon="3.133023">
        <ele>13.558</ele>
        <time>1998-05-06T14:02:37Z</time>
      </trkpt>
      <trkpt lat="42.098571" lon="3.133117">
        <ele>14.678</ele>
        <time>1998-05-06T14:02:39Z</time>
      </trkpt>
      <trkpt lat="42.098597" lon="3.133256">
        <ele>16.291</ele>
        <time>1998-05-06T14:02:42Z</time>
      </trkpt>
      <trkpt lat="42.098604" lon="3.133307">
        <ele>16.770</ele>
        <time>1998-05-06T14:02:43Z</time>
      </trkpt>
      <trkpt lat="42.098613" lon="3.133360">
        <ele>17.240</ele>
        <time>1998-05-06T14:02:44Z</time>
      </trkpt>
      <trkpt lat="42.098637" lon="3.133453">
        <ele>17.894</ele>
        <time>1998-05-06T14:02:46Z</time>
      </trkpt>
      <trkpt lat="42.098669" lon="3.133585">
        <ele>18.632</ele>
        <time>1998-05-06T14:02:49Z</time>
      </trkpt>
      <trkpt lat="42.098743" lon="3.133814">
        <ele>19.692</ele>
        <time>1998-05-06T14:02:55Z</time>
      </trkpt>
      <trkpt lat="42.098814" lon="3.134048">
        <ele>20.611</ele>
        <time>1998-05-06T14:03:02Z</time>
      </trkpt>
      <trkpt lat="42.098855" lon="3.134183">
        <ele>21.108</ele>
        <time>1998-05-06T14:03:06Z</time>
      </trkpt>
      <trkpt lat="42.098881" lon="3.134298">
        <ele>21.515</ele>
        <time>1998-05-06T14:03:09Z</time>
      </trkpt>
      <trkpt lat="42.098995" lon="3.134664">
        <ele>21.658</ele>
        <time>1998-05-06T14:03:19Z</time>
      </trkpt>
      <trkpt lat="42.099050" lon="3.134863">
        <ele>21.180</ele>
        <time>1998-05-06T14:03:25Z</time>
      </trkpt>
      <trkpt lat="42.099078" lon="3.134962">
        <ele>20.720</ele>
        <time>1998-05-06T14:03:27Z</time>
      </trkpt>
      <trkpt lat="42.099125" lon="3.135138">
        <ele>19.843</ele>
        <time>1998-05-06T14:03:31Z</time>
      </trkpt>
      <trkpt lat="42.099169" lon="3.135309">
        <ele>18.932</ele>
        <time>1998-05-06T14:03:34Z</time>
      </trkpt>
      <trkpt lat="42.099247" lon="3.135575">
        <ele>17.482</ele>
        <time>1998-05-06T14:03:38Z</time>
      </trkpt>
      <trkpt lat="42.099351" lon="3.135820">
        <ele>17.316</ele>
        <time>1998-05-06T14:03:42Z</time>
      </trkpt>
      <trkpt lat="42.099412" lon="3.135967">
        <ele>17.562</ele>
        <time>1998-05-06T14:03:45Z</time>
      </trkpt>
      <trkpt lat="42.099548" lon="3.136173">
        <ele>17.883</ele>
        <time>1998-05-06T14:03:50Z</time>
      </trkpt>
      <trkpt lat="42.099713" lon="3.136405">
        <ele>19.011</ele>
        <time>1998-05-06T14:03:56Z</time>
      </trkpt>
      <trkpt lat="42.099787" lon="3.136525">
        <ele>19.708</ele>
        <time>1998-05-06T14:03:59Z</time>
      </trkpt>
      <trkpt lat="42.099861" lon="3.136750">
        <ele>20.878</ele>
        <time>1998-05-06T14:04:05Z</time>
      </trkpt>
      <trkpt lat="42.099905" lon="3.136948">
        <ele>21.721</ele>
        <time>1998-05-06T14:04:11Z</time>
      </trkpt>
      <trkpt lat="42.100015" lon="3.137222">
        <ele>23.193</ele>
        <time>1998-05-06T14:04:19Z</time>
      </trkpt>
      <trkpt lat="42.100066" lon="3.137366">
        <ele>23.843</ele>
        <time>1998-05-06T14:04:23Z</time>
      </trkpt>
      <trkpt lat="42.100178" lon="3.137671">
        <ele>25.376</ele>
        <time>1998-05-06T14:04:32Z</time>
      </trkpt>
      <trkpt lat="42.100191" lon="3.137705">
        <ele>25.485</ele>
        <time>1998-05-06T14:04:33Z</time>
      </trkpt>
      <trkpt lat="42.100216" lon="3.137782">
        <ele>25.885</ele>
        <time>1998-05-06T14:04:35Z</time>
      </trkpt>
      <trkpt lat="42.100227" lon="3.137819">
        <ele>26.099</ele>
        <time>1998-05-06T14:04:36Z</time>
      </trkpt>
      <trkpt lat="42.100235" lon="3.137861">
        <ele>26.169</ele>
        <time>1998-05-06T14:04:37Z</time>
      </trkpt>
      <trkpt lat="42.100279" lon="3.138072">
        <ele>27.004</ele>
        <time>1998-05-06T14:04:43Z</time>
      </trkpt>
      <trkpt lat="42.100318" lon="3.138185">
        <ele>26.924</ele>
        <time>1998-05-06T14:04:46Z</time>
      </trkpt>
      <trkpt lat="42.100365" lon="3.138418">
        <ele>27.008</ele>
        <time>1998-05-06T14:04:52Z</time>
      </trkpt>
      <trkpt lat="42.100378" lon="3.138457">
        <ele>27.138</ele>
        <time>1998-05-06T14:04:53Z</time>
      </trkpt>
      <trkpt lat="42.100468" lon="3.138684">
        <ele>27.571</ele>
        <time>1998-05-06T14:04:59Z</time>
      </trkpt>
      <trkpt lat="42.100523" lon="3.138773">
        <ele>27.673</ele>
        <time>1998-05-06T14:05:02Z</time>
      </trkpt>
      <trkpt lat="42.100545" lon="3.138805">
        <ele>27.773</ele>
        <time>1998-05-06T14:05:03Z</time>
      </trkpt>
      <trkpt lat="42.100556" lon="3.138835">
        <ele>27.856</ele>
        <time>1998-05-06T14:05:04Z</time>
      </trkpt>
      <trkpt lat="42.100561" lon="3.138955">
        <ele>28.385</ele>
        <time>1998-05-06T14:05:08Z</time>
      </trkpt>
      <trkpt lat="42.100565" lon="3.138981">
        <ele>28.435</ele>
        <time>1998-05-06T14:05:09Z</time>
      </trkpt>
      <trkpt lat="42.100579" lon="3.139008">
        <ele>28.649</ele>
        <time>1998-05-06T14:05:10Z</time>
      </trkpt>
      <trkpt lat="42.100634" lon="3.139129">
        <ele>29.299</ele>
        <time>1998-05-06T14:05:14Z</time>
      </trkpt>
      <trkpt lat="42.100642" lon="3.139159">
        <ele>29.307</ele>
        <time>1998-05-06T14:05:15Z</time>
      </trkpt>
      <trkpt lat="42.100651" lon="3.139189">
        <ele>29.427</ele>
        <time>1998-05-06T14:05:16Z</time>
      </trkpt>
      <trkpt lat="42.100687" lon="3.139286">
        <ele>29.908</ele>
        <time>1998-05-06T14:05:20Z</time>
      </trkpt>
      <trkpt lat="42.100718" lon="3.139404">
        <ele>30.461</ele>
        <time>1998-05-06T14:05:24Z</time>
      </trkpt>
      <trkpt lat="42.100815" lon="3.139700">
        <ele>31.994</ele>
        <time>1998-05-06T14:05:34Z</time>
      </trkpt>
      <trkpt lat="42.100854" lon="3.139835">
        <ele>32.576</ele>
        <time>1998-05-06T14:05:38Z</time>
      </trkpt>
      <trkpt lat="42.100871" lon="3.139907">
        <ele>32.776</ele>
        <time>1998-05-06T14:05:40Z</time>
      </trkpt>
      <trkpt lat="42.100880" lon="3.139940">
        <ele>32.879</ele>
        <time>1998-05-06T14:05:41Z</time>
      </trkpt>
      <trkpt lat="42.100934" lon="3.140175">
        <ele>33.028</ele>
        <time>1998-05-06T14:05:48Z</time>
      </trkpt>
      <trkpt lat="42.100941" lon="3.140209">
        <ele>33.068</ele>
        <time>1998-05-06T14:05:49Z</time>
      </trkpt>
      <trkpt lat="42.100951" lon="3.140244">
        <ele>33.012</ele>
        <time>1998-05-06T14:05:50Z</time>
      </trkpt>
      <trkpt lat="42.100961" lon="3.140280">
        <ele>33.035</ele>
        <time>1998-05-06T14:05:51Z</time>
      </trkpt>
      <trkpt lat="42.100985" lon="3.140357">
        <ele>33.186</ele>
        <time>1998-05-06T14:05:53Z</time>
      </trkpt>
      <trkpt lat="42.100999" lon="3.140398">
        <ele>33.214</ele>
        <time>1998-05-06T14:05:54Z</time>
      </trkpt>
      <trkpt lat="42.101142" lon="3.141124">
        <ele>33.908</ele>
        <time>1998-05-06T14:06:12Z</time>
      </trkpt>
      <trkpt lat="42.101299" lon="3.141707">
        <ele>33.335</ele>
        <time>1998-05-06T14:06:24Z</time>
      </trkpt>
      <trkpt lat="42.101327" lon="3.141818">
        <ele>33.218</ele>
        <time>1998-05-06T14:06:26Z</time>
      </trkpt>
      <trkpt lat="42.101340" lon="3.141873">
        <ele>33.280</ele>
        <time>1998-05-06T14:06:27Z</time>
      </trkpt>
      <trkpt lat="42.101352" lon="3.141929">
        <ele>33.130</ele>
        <time>1998-05-06T14:06:28Z</time>
      </trkpt>
      <trkpt lat="42.101434" lon="3.142262">
        <ele>32.943</ele>
        <time>1998-05-06T14:06:34Z</time>
      </trkpt>
      <trkpt lat="42.101448" lon="3.142316">
        <ele>32.922</ele>
        <time>1998-05-06T14:06:35Z</time>
      </trkpt>
      <trkpt lat="42.101477" lon="3.142500">
        <ele>33.092</ele>
        <time>1998-05-06T14:06:38Z</time>
      </trkpt>
      <trkpt lat="42.101557" lon="3.142885">
        <ele>32.216</ele>
        <time>1998-05-06T14:06:44Z</time>
      </trkpt>
      <trkpt lat="42.101628" lon="3.143291">
        <ele>31.239</ele>
        <time>1998-05-06T14:06:50Z</time>
      </trkpt>
      <trkpt lat="42.101639" lon="3.143357">
        <ele>31.001</ele>
        <time>1998-05-06T14:06:51Z</time>
      </trkpt>
      <trkpt lat="42.101693" lon="3.143727">
        <ele>29.921</ele>
        <time>1998-05-06T14:06:56Z</time>
      </trkpt>
      <trkpt lat="42.101767" lon="3.144100">
        <ele>28.908</ele>
        <time>1998-05-06T14:07:01Z</time>
      </trkpt>
      <trkpt lat="42.101843" lon="3.144424">
        <ele>27.835</ele>
        <time>1998-05-06T14:07:05Z</time>
      </trkpt>
      <trkpt lat="42.101947" lon="3.144809">
        <ele>28.638</ele>
        <time>1998-05-06T14:07:10Z</time>
      </trkpt>
      <trkpt lat="42.101963" lon="3.144885">
        <ele>29.170</ele>
        <time>1998-05-06T14:07:11Z</time>
      </trkpt>
      <trkpt lat="42.101992" lon="3.145038">
        <ele>29.830</ele>
        <time>1998-05-06T14:07:13Z</time>
      </trkpt>
      <trkpt lat="42.102138" lon="3.145781">
        <ele>31.153</ele>
        <time>1998-05-06T14:07:23Z</time>
      </trkpt>
      <trkpt lat="42.102311" lon="3.146446">
        <ele>28.252</ele>
        <time>1998-05-06T14:07:31Z</time>
      </trkpt>
      <trkpt lat="42.102348" lon="3.146550">
        <ele>27.592</ele>
        <time>1998-05-06T14:07:32Z</time>
      </trkpt>
      <trkpt lat="42.102427" lon="3.146765">
        <ele>26.266</ele>
        <time>1998-05-06T14:07:34Z</time>
      </trkpt>
      <trkpt lat="42.102520" lon="3.147108">
        <ele>24.928</ele>
        <time>1998-05-06T14:07:37Z</time>
      </trkpt>
      <trkpt lat="42.102587" lon="3.147330">
        <ele>25.089</ele>
        <time>1998-05-06T14:07:39Z</time>
      </trkpt>
      <trkpt lat="42.102620" lon="3.147431">
        <ele>25.017</ele>
        <time>1998-05-06T14:07:40Z</time>
      </trkpt>
      <trkpt lat="42.102673" lon="3.147629">
        <ele>25.208</ele>
        <time>1998-05-06T14:07:42Z</time>
      </trkpt>
      <trkpt lat="42.102701" lon="3.147726">
        <ele>25.414</ele>
        <time>1998-05-06T14:07:43Z</time>
      </trkpt>
      <trkpt lat="42.102730" lon="3.147832">
        <ele>25.537</ele>
        <time>1998-05-06T14:07:44Z</time>
      </trkpt>
      <trkpt lat="42.102759" lon="3.147931">
        <ele>25.699</ele>
        <time>1998-05-06T14:07:45Z</time>
      </trkpt>
      <trkpt lat="42.102868" lon="3.148298">
        <ele>25.619</ele>
        <time>1998-05-06T14:07:49Z</time>
      </trkpt>
      <trkpt lat="42.102895" lon="3.148385">
        <ele>25.832</ele>
        <time>1998-05-06T14:07:50Z</time>
      </trkpt>
      <trkpt lat="42.102950" lon="3.148553">
        <ele>26.291</ele>
        <time>1998-05-06T14:07:52Z</time>
      </trkpt>
      <trkpt lat="42.103130" lon="3.149171">
        <ele>27.021</ele>
        <time>1998-05-06T14:08:00Z</time>
      </trkpt>
      <trkpt lat="42.103370" lon="3.149909">
        <ele>24.875</ele>
        <time>1998-05-06T14:08:09Z</time>
      </trkpt>
      <trkpt lat="42.103454" lon="3.150159">
        <ele>24.648</ele>
        <time>1998-05-06T14:08:12Z</time>
      </trkpt>
      <trkpt lat="42.103505" lon="3.150328">
        <ele>24.461</ele>
        <time>1998-05-06T14:08:14Z</time>
      </trkpt>
      <trkpt lat="42.103557" lon="3.150496">
        <ele>24.217</ele>
        <time>1998-05-06T14:08:16Z</time>
      </trkpt>
      <trkpt lat="42.103581" lon="3.150584">
        <ele>24.108</ele>
        <time>1998-05-06T14:08:17Z</time>
      </trkpt>
      <trkpt lat="42.103652" lon="3.150867">
        <ele>24.056</ele>
        <time>1998-05-06T14:08:20Z</time>
      </trkpt>
      <trkpt lat="42.103672" lon="3.150963">
        <ele>24.479</ele>
        <time>1998-05-06T14:08:21Z</time>
      </trkpt>
      <trkpt lat="42.103740" lon="3.151317">
        <ele>26.151</ele>
        <time>1998-05-06T14:08:25Z</time>
      </trkpt>
      <trkpt lat="42.103764" lon="3.151391">
        <ele>26.641</ele>
        <time>1998-05-06T14:08:26Z</time>
      </trkpt>
      <trkpt lat="42.103790" lon="3.151465">
        <ele>26.934</ele>
        <time>1998-05-06T14:08:27Z</time>
      </trkpt>
      <trkpt lat="42.103828" lon="3.151611">
        <ele>27.653</ele>
        <time>1998-05-06T14:08:29Z</time>
      </trkpt>
      <trkpt lat="42.103859" lon="3.151763">
        <ele>27.973</ele>
        <time>1998-05-06T14:08:31Z</time>
      </trkpt>
      <trkpt lat="42.103891" lon="3.151893">
        <ele>28.087</ele>
        <time>1998-05-06T14:08:33Z</time>
      </trkpt>
      <trkpt lat="42.103907" lon="3.151944">
        <ele>28.199</ele>
        <time>1998-05-06T14:08:34Z</time>
      </trkpt>
      <trkpt lat="42.103920" lon="3.151998">
        <ele>28.307</ele>
        <time>1998-05-06T14:08:35Z</time>
      </trkpt>
      <trkpt lat="42.103980" lon="3.152192">
        <ele>28.927</ele>
        <time>1998-05-06T14:08:39Z</time>
      </trkpt>
      <trkpt lat="42.104089" lon="3.152534">
        <ele>29.108</ele>
        <time>1998-05-06T14:08:46Z</time>
      </trkpt>
      <trkpt lat="42.104197" lon="3.152903">
        <ele>30.091</ele>
        <time>1998-05-06T14:08:53Z</time>
      </trkpt>
      <trkpt lat="42.104321" lon="3.153289">
        <ele>31.444</ele>
        <time>1998-05-06T14:09:02Z</time>
      </trkpt>
      <trkpt lat="42.104331" lon="3.153334">
        <ele>31.626</ele>
        <time>1998-05-06T14:09:03Z</time>
      </trkpt>
      <trkpt lat="42.104553" lon="3.153851">
        <ele>32.986</ele>
        <time>1998-05-06T14:09:16Z</time>
      </trkpt>
      <trkpt lat="42.104574" lon="3.153886">
        <ele>33.049</ele>
        <time>1998-05-06T14:09:17Z</time>
      </trkpt>
      <trkpt lat="42.104666" lon="3.154037">
        <ele>31.968</ele>
        <time>1998-05-06T14:09:21Z</time>
      </trkpt>
      <trkpt lat="42.104689" lon="3.154076">
        <ele>31.758</ele>
        <time>1998-05-06T14:09:22Z</time>
      </trkpt>
      <trkpt lat="42.104808" lon="3.154258">
        <ele>31.042</ele>
        <time>1998-05-06T14:09:26Z</time>
      </trkpt>
      <trkpt lat="42.104837" lon="3.154300">
        <ele>30.964</ele>
        <time>1998-05-06T14:09:27Z</time>
      </trkpt>
      <trkpt lat="42.104898" lon="3.154389">
        <ele>30.706</ele>
        <time>1998-05-06T14:09:29Z</time>
      </trkpt>
      <trkpt lat="42.104930" lon="3.154433">
        <ele>30.616</ele>
        <time>1998-05-06T14:09:30Z</time>
      </trkpt>
      <trkpt lat="42.105020" lon="3.154577">
        <ele>30.208</ele>
        <time>1998-05-06T14:09:33Z</time>
      </trkpt>
      <trkpt lat="42.105125" lon="3.154796">
        <ele>29.888</ele>
        <time>1998-05-06T14:09:37Z</time>
      </trkpt>
      <trkpt lat="42.105148" lon="3.154860">
        <ele>29.661</ele>
        <time>1998-05-06T14:09:38Z</time>
      </trkpt>
      <trkpt lat="42.105200" lon="3.154982">
        <ele>29.333</ele>
        <time>1998-05-06T14:09:40Z</time>
      </trkpt>
      <trkpt lat="42.105228" lon="3.155040">
        <ele>29.153</ele>
        <time>1998-05-06T14:09:41Z</time>
      </trkpt>
      <trkpt lat="42.105330" lon="3.155209">
        <ele>28.166</ele>
        <time>1998-05-06T14:09:44Z</time>
      </trkpt>
      <trkpt lat="42.105468" lon="3.155379">
        <ele>27.355</ele>
        <time>1998-05-06T14:09:47Z</time>
      </trkpt>
      <trkpt lat="42.105505" lon="3.155433">
        <ele>27.085</ele>
        <time>1998-05-06T14:09:48Z</time>
      </trkpt>
      <trkpt lat="42.105626" lon="3.155638">
        <ele>26.279</ele>
        <time>1998-05-06T14:09:51Z</time>
      </trkpt>
      <trkpt lat="42.105722" lon="3.155833">
        <ele>25.837</ele>
        <time>1998-05-06T14:09:53Z</time>
      </trkpt>
      <trkpt lat="42.105766" lon="3.155939">
        <ele>24.849</ele>
        <time>1998-05-06T14:09:54Z</time>
      </trkpt>
      <trkpt lat="42.105852" lon="3.156146">
        <ele>22.813</ele>
        <time>1998-05-06T14:09:56Z</time>
      </trkpt>
      <trkpt lat="42.105973" lon="3.156355">
        <ele>21.408</ele>
        <time>1998-05-06T14:09:58Z</time>
      </trkpt>
      <trkpt lat="42.106042" lon="3.156443">
        <ele>20.955</ele>
        <time>1998-05-06T14:09:59Z</time>
      </trkpt>
      <trkpt lat="42.106120" lon="3.156514">
        <ele>20.838</ele>
        <time>1998-05-06T14:10:00Z</time>
      </trkpt>
      <trkpt lat="42.106435" lon="3.156752">
        <ele>23.030</ele>
        <time>1998-05-06T14:10:05Z</time>
      </trkpt>
      <trkpt lat="42.106487" lon="3.156782">
        <ele>23.330</ele>
        <time>1998-05-06T14:10:06Z</time>
      </trkpt>
      <trkpt lat="42.106600" lon="3.156838">
        <ele>23.973</ele>
        <time>1998-05-06T14:10:08Z</time>
      </trkpt>
      <trkpt lat="42.106753" lon="3.156965">
        <ele>23.962</ele>
        <time>1998-05-06T14:10:11Z</time>
      </trkpt>
      <trkpt lat="42.106826" lon="3.157052">
        <ele>23.432</ele>
        <time>1998-05-06T14:10:13Z</time>
      </trkpt>
      <trkpt lat="42.106859" lon="3.157187">
        <ele>22.916</ele>
        <time>1998-05-06T14:10:15Z</time>
      </trkpt>
      <trkpt lat="42.106891" lon="3.157523">
        <ele>20.993</ele>
        <time>1998-05-06T14:10:19Z</time>
      </trkpt>
      <trkpt lat="42.106918" lon="3.157599">
        <ele>20.665</ele>
        <time>1998-05-06T14:10:20Z</time>
      </trkpt>
      <trkpt lat="42.106948" lon="3.157676">
        <ele>20.321</ele>
        <time>1998-05-06T14:10:21Z</time>
      </trkpt>
      <trkpt lat="42.106997" lon="3.157823">
        <ele>19.508</ele>
        <time>1998-05-06T14:10:23Z</time>
      </trkpt>
      <trkpt lat="42.107041" lon="3.157967">
        <ele>18.981</ele>
        <time>1998-05-06T14:10:25Z</time>
      </trkpt>
      <trkpt lat="42.107156" lon="3.158190">
        <ele>18.144</ele>
        <time>1998-05-06T14:10:29Z</time>
      </trkpt>
      <trkpt lat="42.107235" lon="3.158326">
        <ele>17.926</ele>
        <time>1998-05-06T14:10:32Z</time>
      </trkpt>
      <trkpt lat="42.107331" lon="3.158481">
        <ele>16.426</ele>
        <time>1998-05-06T14:10:35Z</time>
      </trkpt>
      <trkpt lat="42.107476" lon="3.158730">
        <ele>15.079</ele>
        <time>1998-05-06T14:10:39Z</time>
      </trkpt>
      <trkpt lat="42.107665" lon="3.159143">
        <ele>14.118</ele>
        <time>1998-05-06T14:10:47Z</time>
      </trkpt>
      <trkpt lat="42.108065" lon="3.159317">
        <ele>14.028</ele>
        <time>1998-05-06T14:10:58Z</time>
      </trkpt>
      <trkpt lat="42.108309" lon="3.159385">
        <ele>14.372</ele>
        <time>1998-05-06T14:11:04Z</time>
      </trkpt>
      <trkpt lat="42.108351" lon="3.159399">
        <ele>14.496</ele>
        <time>1998-05-06T14:11:05Z</time>
      </trkpt>
      <trkpt lat="42.108392" lon="3.159413">
        <ele>14.631</ele>
        <time>1998-05-06T14:11:06Z</time>
      </trkpt>
      <trkpt lat="42.108500" lon="3.159455">
        <ele>15.224</ele>
        <time>1998-05-06T14:11:09Z</time>
      </trkpt>
      <trkpt lat="42.108531" lon="3.159466">
        <ele>15.308</ele>
        <time>1998-05-06T14:11:10Z</time>
      </trkpt>
      <trkpt lat="42.108570" lon="3.159483">
        <ele>15.611</ele>
        <time>1998-05-06T14:11:11Z</time>
      </trkpt>
      <trkpt lat="42.108610" lon="3.159506">
        <ele>15.844</ele>
        <time>1998-05-06T14:11:12Z</time>
      </trkpt>
      <trkpt lat="42.109067" lon="3.159833">
        <ele>15.926</ele>
        <time>1998-05-06T14:11:24Z</time>
      </trkpt>
      <trkpt lat="42.109220" lon="3.159934">
        <ele>16.046</ele>
        <time>1998-05-06T14:11:28Z</time>
      </trkpt>
      <trkpt lat="42.109288" lon="3.159989">
        <ele>16.069</ele>
        <time>1998-05-06T14:11:30Z</time>
      </trkpt>
      <trkpt lat="42.109394" lon="3.160073">
        <ele>15.768</ele>
        <time>1998-05-06T14:11:33Z</time>
      </trkpt>
      <trkpt lat="42.109437" lon="3.160104">
        <ele>15.648</ele>
        <time>1998-05-06T14:11:34Z</time>
      </trkpt>
      <trkpt lat="42.109483" lon="3.160130">
        <ele>15.682</ele>
        <time>1998-05-06T14:11:35Z</time>
      </trkpt>
      <trkpt lat="42.109579" lon="3.160168">
        <ele>15.749</ele>
        <time>1998-05-06T14:11:37Z</time>
      </trkpt>
      <trkpt lat="42.109823" lon="3.160277">
        <ele>16.402</ele>
        <time>1998-05-06T14:11:43Z</time>
      </trkpt>
      <trkpt lat="42.109863" lon="3.160296">
        <ele>16.422</ele>
        <time>1998-05-06T14:11:44Z</time>
      </trkpt>
      <trkpt lat="42.109903" lon="3.160307">
        <ele>16.508</ele>
        <time>1998-05-06T14:11:45Z</time>
      </trkpt>
      <trkpt lat="42.109940" lon="3.160322">
        <ele>16.646</ele>
        <time>1998-05-06T14:11:46Z</time>
      </trkpt>
      <trkpt lat="42.110115" lon="3.160392">
        <ele>17.049</ele>
        <time>1998-05-06T14:11:51Z</time>
      </trkpt>
      <trkpt lat="42.110194" lon="3.160421">
        <ele>17.241</ele>
        <time>1998-05-06T14:11:53Z</time>
      </trkpt>
      <trkpt lat="42.110236" lon="3.160439">
        <ele>17.381</ele>
        <time>1998-05-06T14:11:54Z</time>
      </trkpt>
      <trkpt lat="42.110293" lon="3.160457">
        <ele>17.534</ele>
        <time>1998-05-06T14:11:55Z</time>
      </trkpt>
      <trkpt lat="42.110434" lon="3.160508">
        <ele>18.373</ele>
        <time>1998-05-06T14:11:58Z</time>
      </trkpt>
      <trkpt lat="42.110569" lon="3.160540">
        <ele>19.223</ele>
        <time>1998-05-06T14:12:01Z</time>
      </trkpt>
      <trkpt lat="42.110617" lon="3.160554">
        <ele>19.757</ele>
        <time>1998-05-06T14:12:02Z</time>
      </trkpt>
      <trkpt lat="42.110665" lon="3.160567">
        <ele>20.238</ele>
        <time>1998-05-06T14:12:03Z</time>
      </trkpt>
      <trkpt lat="42.110708" lon="3.160583">
        <ele>20.670</ele>
        <time>1998-05-06T14:12:04Z</time>
      </trkpt>
      <trkpt lat="42.110749" lon="3.160600">
        <ele>21.117</ele>
        <time>1998-05-06T14:12:05Z</time>
      </trkpt>
      <trkpt lat="42.110827" lon="3.160624">
        <ele>21.908</ele>
        <time>1998-05-06T14:12:07Z</time>
      </trkpt>
      <trkpt lat="42.110889" lon="3.160667">
        <ele>22.885</ele>
        <time>1998-05-06T14:12:09Z</time>
      </trkpt>
      <trkpt lat="42.110905" lon="3.160748">
        <ele>23.078</ele>
        <time>1998-05-06T14:12:11Z</time>
      </trkpt>
      <trkpt lat="42.110892" lon="3.160795">
        <ele>22.850</ele>
        <time>1998-05-06T14:12:12Z</time>
      </trkpt>
      <trkpt lat="42.110868" lon="3.160847">
        <ele>22.570</ele>
        <time>1998-05-06T14:12:13Z</time>
      </trkpt>
      <trkpt lat="42.110843" lon="3.160903">
        <ele>22.153</ele>
        <time>1998-05-06T14:12:14Z</time>
      </trkpt>
      <trkpt lat="42.110820" lon="3.160967">
        <ele>21.872</ele>
        <time>1998-05-06T14:12:15Z</time>
      </trkpt>
      <trkpt lat="42.110797" lon="3.161037">
        <ele>21.512</ele>
        <time>1998-05-06T14:12:16Z</time>
      </trkpt>
      <trkpt lat="42.110758" lon="3.161195">
        <ele>20.556</ele>
        <time>1998-05-06T14:12:18Z</time>
      </trkpt>
      <trkpt lat="42.110715" lon="3.161367">
        <ele>19.237</ele>
        <time>1998-05-06T14:12:20Z</time>
      </trkpt>
      <trkpt lat="42.110660" lon="3.161655">
        <ele>17.849</ele>
        <time>1998-05-06T14:12:23Z</time>
      </trkpt>
      <trkpt lat="42.110638" lon="3.161874">
        <ele>16.813</ele>
        <time>1998-05-06T14:12:25Z</time>
      </trkpt>
      <trkpt lat="42.110603" lon="3.162098">
        <ele>15.908</ele>
        <time>1998-05-06T14:12:27Z</time>
      </trkpt>
      <trkpt lat="42.110576" lon="3.162329">
        <ele>14.895</ele>
        <time>1998-05-06T14:12:29Z</time>
      </trkpt>
      <trkpt lat="42.110522" lon="3.162667">
        <ele>13.888</ele>
        <time>1998-05-06T14:12:32Z</time>
      </trkpt>
      <trkpt lat="42.110459" lon="3.163066">
        <ele>12.310</ele>
        <time>1998-05-06T14:12:37Z</time>
      </trkpt>
      <trkpt lat="42.110458" lon="3.163125">
        <ele>12.010</ele>
        <time>1998-05-06T14:12:38Z</time>
      </trkpt>
      <trkpt lat="42.110456" lon="3.163188">
        <ele>11.653</ele>
        <time>1998-05-06T14:12:39Z</time>
      </trkpt>
      <trkpt lat="42.110457" lon="3.163254">
        <ele>11.362</ele>
        <time>1998-05-06T14:12:40Z</time>
      </trkpt>
      <trkpt lat="42.110459" lon="3.163320">
        <ele>11.042</ele>
        <time>1998-05-06T14:12:41Z</time>
      </trkpt>
      <trkpt lat="42.110465" lon="3.163543">
        <ele>10.316</ele>
        <time>1998-05-06T14:12:44Z</time>
      </trkpt>
      <trkpt lat="42.110465" lon="3.164056">
        <ele>7.961</ele>
        <time>1998-05-06T14:12:50Z</time>
      </trkpt>
      <trkpt lat="42.110465" lon="3.164150">
        <ele>7.721</ele>
        <time>1998-05-06T14:12:51Z</time>
      </trkpt>
      <trkpt lat="42.110467" lon="3.164251">
        <ele>7.613</ele>
        <time>1998-05-06T14:12:52Z</time>
      </trkpt>
      <trkpt lat="42.110463" lon="3.164354">
        <ele>7.408</ele>
        <time>1998-05-06T14:12:53Z</time>
      </trkpt>
      <trkpt lat="42.110455" lon="3.164457">
        <ele>7.238</ele>
        <time>1998-05-06T14:12:54Z</time>
      </trkpt>
      <trkpt lat="42.110443" lon="3.164559">
        <ele>6.981</ele>
        <time>1998-05-06T14:12:55Z</time>
      </trkpt>
      <trkpt lat="42.110434" lon="3.164659">
        <ele>6.793</ele>
        <time>1998-05-06T14:12:56Z</time>
      </trkpt>
      <trkpt lat="42.110424" lon="3.164750">
        <ele>6.473</ele>
        <time>1998-05-06T14:12:57Z</time>
      </trkpt>
      <trkpt lat="42.110415" lon="3.164839">
        <ele>6.196</ele>
        <time>1998-05-06T14:12:58Z</time>
      </trkpt>
      <trkpt lat="42.110400" lon="3.164924">
        <ele>5.715</ele>
        <time>1998-05-06T14:12:59Z</time>
      </trkpt>
      <trkpt lat="42.110387" lon="3.165011">
        <ele>5.485</ele>
        <time>1998-05-06T14:13:00Z</time>
      </trkpt>
      <trkpt lat="42.110372" lon="3.165089">
        <ele>5.089</ele>
        <time>1998-05-06T14:13:01Z</time>
      </trkpt>
      <trkpt lat="42.110353" lon="3.165158">
        <ele>4.769</ele>
        <time>1998-05-06T14:13:02Z</time>
      </trkpt>
      <trkpt lat="42.110332" lon="3.165223">
        <ele>4.404</ele>
        <time>1998-05-06T14:13:03Z</time>
      </trkpt>
      <trkpt lat="42.110254" lon="3.165327">
        <ele>4.024</ele>
        <time>1998-05-06T14:13:06Z</time>
      </trkpt>
      <trkpt lat="42.110091" lon="3.165301">
        <ele>3.908</ele>
        <time>1998-05-06T14:13:11Z</time>
      </trkpt>
      <trkpt lat="42.110060" lon="3.165296">
        <ele>3.968</ele>
        <time>1998-05-06T14:13:12Z</time>
      </trkpt>
      <trkpt lat="42.110035" lon="3.165266">
        <ele>4.031</ele>
        <time>1998-05-06T14:13:13Z</time>
      </trkpt>
      <trkpt lat="42.110058" lon="3.164721">
        <ele>5.253</ele>
        <time>1998-05-06T14:13:26Z</time>
      </trkpt>
      <trkpt lat="42.110044" lon="3.164606">
        <ele>5.253</ele>
        <time>1998-05-06T14:13:29Z</time>
      </trkpt>
      <trkpt lat="42.110017" lon="3.164538">
        <ele>5.146</ele>
        <time>1998-05-06T14:13:32Z</time>
      </trkpt>
      <trkpt lat="42.110012" lon="3.164531">
        <ele>5.025</ele>
        <time>1998-05-06T14:13:33Z</time>
      </trkpt>
      <trkpt lat="42.110015" lon="3.164496">
        <ele>5.145</ele>
        <time>1998-05-06T14:14:00Z</time>
      </trkpt>
      <trkpt lat="42.110015" lon="3.164496">
        <ele>5.129</ele>
        <time>1998-05-06T14:14:01Z</time>
      </trkpt>
    </trkseg>
  </trk>
</gpx>
